<?xml version="1.0" encoding="UTF-8"?>
<gpx xmlns="http://www.topografix.com/GPX/1/1" xmlns:gpsies="http://www.gpsies.com/GPX/1/0" creator="GPSies http://www.gpsies.com - GPSies Track" version="1.1" xmlns:xsi="http://www.w3.org/2001/XMLSchema-instance" xsi:schemaLocation="http://www.topografix.com/GPX/1/1 http://www.topografix.com/GPX/1/1/gpx.xsd http://www.gpsies.com/GPX/1/0 http://www.gpsies.com/gpsies.xsd">
  <metadata>
    <name>GPSies Track</name>
    <link href="http://www.gpsies.com/">
      <text>GPSies Track on GPSies.com</text>
    </link>
    <time>2013-04-09T20:13:58Z</time>
  </metadata>
  <trk>
    <name>GPSies Track on GPSies.com</name>
    <trkseg>
      <trkpt lat="32.55187400" lon="35.33375000">
        <ele>77.000000</ele>
        <time>2010-01-01T00:00:00Z</time>
      </trkpt>
      <trkpt lat="32.55187600" lon="35.33375200">
        <ele>77.000000</ele>
        <time>2010-01-01T00:00:00Z</time>
      </trkpt>
      <trkpt lat="32.55187800" lon="35.33375500">
        <ele>77.000000</ele>
        <time>2010-01-01T00:00:00Z</time>
      </trkpt>
      <trkpt lat="32.55193300" lon="35.33385000">
        <ele>76.000000</ele>
        <time>2010-01-01T00:00:04Z</time>
      </trkpt>
      <trkpt lat="32.55185200" lon="35.33395200">
        <ele>76.000000</ele>
        <time>2010-01-01T00:00:08Z</time>
      </trkpt>
      <trkpt lat="32.55172100" lon="35.33402300">
        <ele>77.000000</ele>
        <time>2010-01-01T00:00:14Z</time>
      </trkpt>
      <trkpt lat="32.55171400" lon="35.33403400">
        <ele>77.000000</ele>
        <time>2010-01-01T00:00:15Z</time>
      </trkpt>
      <trkpt lat="32.55164000" lon="35.33417700">
        <ele>77.000000</ele>
        <time>2010-01-01T00:00:20Z</time>
      </trkpt>
      <trkpt lat="32.55160700" lon="35.33431400">
        <ele>77.000000</ele>
        <time>2010-01-01T00:00:25Z</time>
      </trkpt>
      <trkpt lat="32.55160900" lon="35.33460000">
        <ele>76.000000</ele>
        <time>2010-01-01T00:00:35Z</time>
      </trkpt>
      <trkpt lat="32.55161300" lon="35.33513500">
        <ele>74.000000</ele>
        <time>2010-01-01T00:00:53Z</time>
      </trkpt>
      <trkpt lat="32.55161700" lon="35.33547700">
        <ele>73.000000</ele>
        <time>2010-01-01T00:01:04Z</time>
      </trkpt>
      <trkpt lat="32.55159700" lon="35.33575100">
        <ele>72.000000</ele>
        <time>2010-01-01T00:01:14Z</time>
      </trkpt>
      <trkpt lat="32.55159300" lon="35.33580700">
        <ele>72.000000</ele>
        <time>2010-01-01T00:01:15Z</time>
      </trkpt>
      <trkpt lat="32.55163800" lon="35.33610100">
        <ele>70.000000</ele>
        <time>2010-01-01T00:01:26Z</time>
      </trkpt>
      <trkpt lat="32.55176900" lon="35.33639400">
        <ele>68.000000</ele>
        <time>2010-01-01T00:01:37Z</time>
      </trkpt>
      <trkpt lat="32.55177600" lon="35.33642000">
        <ele>67.000000</ele>
        <time>2010-01-01T00:01:38Z</time>
      </trkpt>
      <trkpt lat="32.55176800" lon="35.33650800">
        <ele>67.000000</ele>
        <time>2010-01-01T00:01:41Z</time>
      </trkpt>
      <trkpt lat="32.55169000" lon="35.33666500">
        <ele>67.000000</ele>
        <time>2010-01-01T00:01:47Z</time>
      </trkpt>
      <trkpt lat="32.55160000" lon="35.33693700">
        <ele>65.000000</ele>
        <time>2010-01-01T00:01:57Z</time>
      </trkpt>
      <trkpt lat="32.55146700" lon="35.33719300">
        <ele>65.000000</ele>
        <time>2010-01-01T00:02:07Z</time>
      </trkpt>
      <trkpt lat="32.55134700" lon="35.33736300">
        <ele>65.000000</ele>
        <time>2010-01-01T00:02:14Z</time>
      </trkpt>
      <trkpt lat="32.55125200" lon="35.33744200">
        <ele>65.000000</ele>
        <time>2010-01-01T00:02:19Z</time>
      </trkpt>
      <trkpt lat="32.55123100" lon="35.33746000">
        <ele>65.000000</ele>
        <time>2010-01-01T00:02:20Z</time>
      </trkpt>
      <trkpt lat="32.55113600" lon="35.33755400">
        <ele>65.000000</ele>
        <time>2010-01-01T00:02:25Z</time>
      </trkpt>
      <trkpt lat="32.55107500" lon="35.33764700">
        <ele>66.000000</ele>
        <time>2010-01-01T00:02:29Z</time>
      </trkpt>
      <trkpt lat="32.55105300" lon="35.33771200">
        <ele>66.000000</ele>
        <time>2010-01-01T00:02:31Z</time>
      </trkpt>
      <trkpt lat="32.55105600" lon="35.33774300">
        <ele>66.000000</ele>
        <time>2010-01-01T00:02:32Z</time>
      </trkpt>
      <trkpt lat="32.55105900" lon="35.33782800">
        <ele>65.000000</ele>
        <time>2010-01-01T00:02:35Z</time>
      </trkpt>
      <trkpt lat="32.55105200" lon="35.33784600">
        <ele>65.000000</ele>
        <time>2010-01-01T00:02:36Z</time>
      </trkpt>
      <trkpt lat="32.55105200" lon="35.33784700">
        <ele>65.000000</ele>
        <time>2010-01-01T00:02:36Z</time>
      </trkpt>
      <trkpt lat="32.55104600" lon="35.33785500">
        <ele>65.000000</ele>
        <time>2010-01-01T00:02:36Z</time>
      </trkpt>
      <trkpt lat="32.55103100" lon="35.33787800">
        <ele>65.000000</ele>
        <time>2010-01-01T00:02:37Z</time>
      </trkpt>
      <trkpt lat="32.55101800" lon="35.33789900">
        <ele>65.000000</ele>
        <time>2010-01-01T00:02:38Z</time>
      </trkpt>
      <trkpt lat="32.55100100" lon="35.33791200">
        <ele>66.000000</ele>
        <time>2010-01-01T00:02:39Z</time>
      </trkpt>
      <trkpt lat="32.55092000" lon="35.33793400">
        <ele>66.000000</ele>
        <time>2010-01-01T00:02:42Z</time>
      </trkpt>
      <trkpt lat="32.55087200" lon="35.33793700">
        <ele>67.000000</ele>
        <time>2010-01-01T00:02:44Z</time>
      </trkpt>
      <trkpt lat="32.55083700" lon="35.33793000">
        <ele>67.000000</ele>
        <time>2010-01-01T00:02:46Z</time>
      </trkpt>
      <trkpt lat="32.55071700" lon="35.33792000">
        <ele>67.000000</ele>
        <time>2010-01-01T00:02:50Z</time>
      </trkpt>
      <trkpt lat="32.55057400" lon="35.33792800">
        <ele>67.000000</ele>
        <time>2010-01-01T00:02:56Z</time>
      </trkpt>
      <trkpt lat="32.55045400" lon="35.33788900">
        <ele>68.000000</ele>
        <time>2010-01-01T00:03:01Z</time>
      </trkpt>
      <trkpt lat="32.55035700" lon="35.33787100">
        <ele>68.000000</ele>
        <time>2010-01-01T00:03:05Z</time>
      </trkpt>
      <trkpt lat="32.55022900" lon="35.33781000">
        <ele>69.000000</ele>
        <time>2010-01-01T00:03:11Z</time>
      </trkpt>
      <trkpt lat="32.55003300" lon="35.33777700">
        <ele>70.000000</ele>
        <time>2010-01-01T00:03:18Z</time>
      </trkpt>
      <trkpt lat="32.54982700" lon="35.33776800">
        <ele>69.000000</ele>
        <time>2010-01-01T00:03:27Z</time>
      </trkpt>
      <trkpt lat="32.54972600" lon="35.33765400">
        <ele>70.000000</ele>
        <time>2010-01-01T00:03:32Z</time>
      </trkpt>
      <trkpt lat="32.54959700" lon="35.33752000">
        <ele>71.000000</ele>
        <time>2010-01-01T00:03:39Z</time>
      </trkpt>
      <trkpt lat="32.54937600" lon="35.33739000">
        <ele>71.000000</ele>
        <time>2010-01-01T00:03:49Z</time>
      </trkpt>
      <trkpt lat="32.54917700" lon="35.33725300">
        <ele>71.000000</ele>
        <time>2010-01-01T00:03:58Z</time>
      </trkpt>
      <trkpt lat="32.54903300" lon="35.33706700">
        <ele>72.000000</ele>
        <time>2010-01-01T00:04:07Z</time>
      </trkpt>
      <trkpt lat="32.54891800" lon="35.33688500">
        <ele>73.000000</ele>
        <time>2010-01-01T00:04:14Z</time>
      </trkpt>
      <trkpt lat="32.54885100" lon="35.33670700">
        <ele>73.000000</ele>
        <time>2010-01-01T00:04:21Z</time>
      </trkpt>
      <trkpt lat="32.54878800" lon="35.33659400">
        <ele>73.000000</ele>
        <time>2010-01-01T00:04:26Z</time>
      </trkpt>
      <trkpt lat="32.54867800" lon="35.33651300">
        <ele>73.000000</ele>
        <time>2010-01-01T00:04:31Z</time>
      </trkpt>
      <trkpt lat="32.54846200" lon="35.33639400">
        <ele>73.000000</ele>
        <time>2010-01-01T00:04:40Z</time>
      </trkpt>
      <trkpt lat="32.54838200" lon="35.33635800">
        <ele>72.000000</ele>
        <time>2010-01-01T00:04:44Z</time>
      </trkpt>
      <trkpt lat="32.54823100" lon="35.33634000">
        <ele>71.000000</ele>
        <time>2010-01-01T00:04:50Z</time>
      </trkpt>
      <trkpt lat="32.54801200" lon="35.33635800">
        <ele>69.000000</ele>
        <time>2010-01-01T00:04:59Z</time>
      </trkpt>
      <trkpt lat="32.54778500" lon="35.33659000">
        <ele>66.000000</ele>
        <time>2010-01-01T00:05:11Z</time>
      </trkpt>
      <trkpt lat="32.54776300" lon="35.33665400">
        <ele>65.000000</ele>
        <time>2010-01-01T00:05:13Z</time>
      </trkpt>
      <trkpt lat="32.54768800" lon="35.33705700">
        <ele>64.000000</ele>
        <time>2010-01-01T00:05:27Z</time>
      </trkpt>
      <trkpt lat="32.54755100" lon="35.33735800">
        <ele>62.000000</ele>
        <time>2010-01-01T00:05:38Z</time>
      </trkpt>
      <trkpt lat="32.54751800" lon="35.33741000">
        <ele>61.000000</ele>
        <time>2010-01-01T00:05:41Z</time>
      </trkpt>
      <trkpt lat="32.54739800" lon="35.33769300">
        <ele>60.000000</ele>
        <time>2010-01-01T00:05:51Z</time>
      </trkpt>
      <trkpt lat="32.54737600" lon="35.33775800">
        <ele>59.000000</ele>
        <time>2010-01-01T00:05:54Z</time>
      </trkpt>
      <trkpt lat="32.54731500" lon="35.33788800">
        <ele>59.000000</ele>
        <time>2010-01-01T00:05:59Z</time>
      </trkpt>
      <trkpt lat="32.54725500" lon="35.33804200">
        <ele>58.000000</ele>
        <time>2010-01-01T00:06:04Z</time>
      </trkpt>
      <trkpt lat="32.54723300" lon="35.33812700">
        <ele>58.000000</ele>
        <time>2010-01-01T00:06:07Z</time>
      </trkpt>
      <trkpt lat="32.54721800" lon="35.33840200">
        <ele>57.000000</ele>
        <time>2010-01-01T00:06:17Z</time>
      </trkpt>
      <trkpt lat="32.54725000" lon="35.33861500">
        <ele>55.000000</ele>
        <time>2010-01-01T00:06:24Z</time>
      </trkpt>
      <trkpt lat="32.54723400" lon="35.33880200">
        <ele>54.000000</ele>
        <time>2010-01-01T00:06:30Z</time>
      </trkpt>
      <trkpt lat="32.54721700" lon="35.33910000">
        <ele>52.000000</ele>
        <time>2010-01-01T00:06:40Z</time>
      </trkpt>
      <trkpt lat="32.54723200" lon="35.33936100">
        <ele>51.000000</ele>
        <time>2010-01-01T00:06:49Z</time>
      </trkpt>
      <trkpt lat="32.54723300" lon="35.33965900">
        <ele>51.000000</ele>
        <time>2010-01-01T00:06:59Z</time>
      </trkpt>
      <trkpt lat="32.54722300" lon="35.33970700">
        <ele>51.000000</ele>
        <time>2010-01-01T00:07:01Z</time>
      </trkpt>
      <trkpt lat="32.54716600" lon="35.33994100">
        <ele>50.000000</ele>
        <time>2010-01-01T00:07:09Z</time>
      </trkpt>
      <trkpt lat="32.54709500" lon="35.34017600">
        <ele>50.000000</ele>
        <time>2010-01-01T00:07:18Z</time>
      </trkpt>
      <trkpt lat="32.54705800" lon="35.34039000">
        <ele>49.000000</ele>
        <time>2010-01-01T00:07:25Z</time>
      </trkpt>
      <trkpt lat="32.54698000" lon="35.34063500">
        <ele>48.000000</ele>
        <time>2010-01-01T00:07:34Z</time>
      </trkpt>
      <trkpt lat="32.54678400" lon="35.34103800">
        <ele>50.000000</ele>
        <time>2010-01-01T00:07:50Z</time>
      </trkpt>
      <trkpt lat="32.54675400" lon="35.34110900">
        <ele>50.000000</ele>
        <time>2010-01-01T00:07:52Z</time>
      </trkpt>
      <trkpt lat="32.54672800" lon="35.34120600">
        <ele>51.000000</ele>
        <time>2010-01-01T00:07:56Z</time>
      </trkpt>
      <trkpt lat="32.54673200" lon="35.34124800">
        <ele>51.000000</ele>
        <time>2010-01-01T00:07:57Z</time>
      </trkpt>
      <trkpt lat="32.54670000" lon="35.34139600">
        <ele>52.000000</ele>
        <time>2010-01-01T00:08:02Z</time>
      </trkpt>
      <trkpt lat="32.54667800" lon="35.34143700">
        <ele>52.000000</ele>
        <time>2010-01-01T00:08:04Z</time>
      </trkpt>
      <trkpt lat="32.54666500" lon="35.34145700">
        <ele>52.000000</ele>
        <time>2010-01-01T00:08:05Z</time>
      </trkpt>
      <trkpt lat="32.54662700" lon="35.34152100">
        <ele>52.000000</ele>
        <time>2010-01-01T00:08:07Z</time>
      </trkpt>
      <trkpt lat="32.54658600" lon="35.34165600">
        <ele>53.000000</ele>
        <time>2010-01-01T00:08:12Z</time>
      </trkpt>
      <trkpt lat="32.54654700" lon="35.34185800">
        <ele>54.000000</ele>
        <time>2010-01-01T00:08:19Z</time>
      </trkpt>
      <trkpt lat="32.54649900" lon="35.34205600">
        <ele>55.000000</ele>
        <time>2010-01-01T00:08:26Z</time>
      </trkpt>
      <trkpt lat="32.54650800" lon="35.34229300">
        <ele>57.000000</ele>
        <time>2010-01-01T00:08:34Z</time>
      </trkpt>
      <trkpt lat="32.54655000" lon="35.34245000">
        <ele>58.000000</ele>
        <time>2010-01-01T00:08:40Z</time>
      </trkpt>
      <trkpt lat="32.54659900" lon="35.34261700">
        <ele>60.000000</ele>
        <time>2010-01-01T00:08:46Z</time>
      </trkpt>
      <trkpt lat="32.54661600" lon="35.34279200">
        <ele>61.000000</ele>
        <time>2010-01-01T00:08:52Z</time>
      </trkpt>
      <trkpt lat="32.54659600" lon="35.34284100">
        <ele>61.000000</ele>
        <time>2010-01-01T00:08:53Z</time>
      </trkpt>
      <trkpt lat="32.54654800" lon="35.34297000">
        <ele>62.000000</ele>
        <time>2010-01-01T00:08:58Z</time>
      </trkpt>
      <trkpt lat="32.54650700" lon="35.34309500">
        <ele>63.000000</ele>
        <time>2010-01-01T00:09:03Z</time>
      </trkpt>
      <trkpt lat="32.54655200" lon="35.34325100">
        <ele>65.000000</ele>
        <time>2010-01-01T00:09:08Z</time>
      </trkpt>
      <trkpt lat="32.54660400" lon="35.34345300">
        <ele>66.000000</ele>
        <time>2010-01-01T00:09:15Z</time>
      </trkpt>
      <trkpt lat="32.54660700" lon="35.34363600">
        <ele>67.000000</ele>
        <time>2010-01-01T00:09:22Z</time>
      </trkpt>
      <trkpt lat="32.54658200" lon="35.34379800">
        <ele>68.000000</ele>
        <time>2010-01-01T00:09:27Z</time>
      </trkpt>
      <trkpt lat="32.54658300" lon="35.34397000">
        <ele>70.000000</ele>
        <time>2010-01-01T00:09:33Z</time>
      </trkpt>
      <trkpt lat="32.54661200" lon="35.34420000">
        <ele>71.000000</ele>
        <time>2010-01-01T00:09:41Z</time>
      </trkpt>
      <trkpt lat="32.54664800" lon="35.34449700">
        <ele>72.000000</ele>
        <time>2010-01-01T00:09:51Z</time>
      </trkpt>
      <trkpt lat="32.54664300" lon="35.34471700">
        <ele>73.000000</ele>
        <time>2010-01-01T00:09:58Z</time>
      </trkpt>
      <trkpt lat="32.54659500" lon="35.34500300">
        <ele>74.000000</ele>
        <time>2010-01-01T00:10:08Z</time>
      </trkpt>
      <trkpt lat="32.54655700" lon="35.34527900">
        <ele>74.000000</ele>
        <time>2010-01-01T00:10:18Z</time>
      </trkpt>
      <trkpt lat="32.54650400" lon="35.34550500">
        <ele>74.000000</ele>
        <time>2010-01-01T00:10:26Z</time>
      </trkpt>
      <trkpt lat="32.54642200" lon="35.34572700">
        <ele>75.000000</ele>
        <time>2010-01-01T00:10:34Z</time>
      </trkpt>
      <trkpt lat="32.54631200" lon="35.34588200">
        <ele>76.000000</ele>
        <time>2010-01-01T00:10:41Z</time>
      </trkpt>
      <trkpt lat="32.54618100" lon="35.34611200">
        <ele>76.000000</ele>
        <time>2010-01-01T00:10:50Z</time>
      </trkpt>
      <trkpt lat="32.54601500" lon="35.34632700">
        <ele>76.000000</ele>
        <time>2010-01-01T00:11:00Z</time>
      </trkpt>
      <trkpt lat="32.54589100" lon="35.34650600">
        <ele>76.000000</ele>
        <time>2010-01-01T00:11:08Z</time>
      </trkpt>
      <trkpt lat="32.54577200" lon="35.34674600">
        <ele>76.000000</ele>
        <time>2010-01-01T00:11:17Z</time>
      </trkpt>
      <trkpt lat="32.54568500" lon="35.34706800">
        <ele>77.000000</ele>
        <time>2010-01-01T00:11:28Z</time>
      </trkpt>
      <trkpt lat="32.54564900" lon="35.34723100">
        <ele>77.000000</ele>
        <time>2010-01-01T00:11:34Z</time>
      </trkpt>
      <trkpt lat="32.54561200" lon="35.34743300">
        <ele>77.000000</ele>
        <time>2010-01-01T00:11:41Z</time>
      </trkpt>
      <trkpt lat="32.54558900" lon="35.34757400">
        <ele>78.000000</ele>
        <time>2010-01-01T00:11:46Z</time>
      </trkpt>
      <trkpt lat="32.54557800" lon="35.34772400">
        <ele>79.000000</ele>
        <time>2010-01-01T00:11:51Z</time>
      </trkpt>
      <trkpt lat="32.54557800" lon="35.34782100">
        <ele>80.000000</ele>
        <time>2010-01-01T00:11:54Z</time>
      </trkpt>
      <trkpt lat="32.54564600" lon="35.34787600">
        <ele>80.000000</ele>
        <time>2010-01-01T00:11:58Z</time>
      </trkpt>
      <trkpt lat="32.54569900" lon="35.34787000">
        <ele>80.000000</ele>
        <time>2010-01-01T00:12:00Z</time>
      </trkpt>
      <trkpt lat="32.54591100" lon="35.34779200">
        <ele>81.000000</ele>
        <time>2010-01-01T00:12:09Z</time>
      </trkpt>
      <trkpt lat="32.54601700" lon="35.34778700">
        <ele>82.000000</ele>
        <time>2010-01-01T00:12:13Z</time>
      </trkpt>
      <trkpt lat="32.54607700" lon="35.34771800">
        <ele>82.000000</ele>
        <time>2010-01-01T00:12:16Z</time>
      </trkpt>
      <trkpt lat="32.54621500" lon="35.34760600">
        <ele>82.000000</ele>
        <time>2010-01-01T00:12:23Z</time>
      </trkpt>
      <trkpt lat="32.54626200" lon="35.34757600">
        <ele>82.000000</ele>
        <time>2010-01-01T00:12:25Z</time>
      </trkpt>
      <trkpt lat="32.54631600" lon="35.34754400">
        <ele>82.000000</ele>
        <time>2010-01-01T00:12:27Z</time>
      </trkpt>
      <trkpt lat="32.54650600" lon="35.34737100">
        <ele>82.000000</ele>
        <time>2010-01-01T00:12:37Z</time>
      </trkpt>
      <trkpt lat="32.54666900" lon="35.34725800">
        <ele>81.000000</ele>
        <time>2010-01-01T00:12:45Z</time>
      </trkpt>
      <trkpt lat="32.54682900" lon="35.34714600">
        <ele>81.000000</ele>
        <time>2010-01-01T00:12:52Z</time>
      </trkpt>
      <trkpt lat="32.54693400" lon="35.34705100">
        <ele>81.000000</ele>
        <time>2010-01-01T00:12:57Z</time>
      </trkpt>
      <trkpt lat="32.54710900" lon="35.34687700">
        <ele>81.000000</ele>
        <time>2010-01-01T00:13:06Z</time>
      </trkpt>
      <trkpt lat="32.54723100" lon="35.34678100">
        <ele>81.000000</ele>
        <time>2010-01-01T00:13:12Z</time>
      </trkpt>
      <trkpt lat="32.54733600" lon="35.34667600">
        <ele>81.000000</ele>
        <time>2010-01-01T00:13:18Z</time>
      </trkpt>
      <trkpt lat="32.54748100" lon="35.34653300">
        <ele>81.000000</ele>
        <time>2010-01-01T00:13:25Z</time>
      </trkpt>
      <trkpt lat="32.54764500" lon="35.34643800">
        <ele>81.000000</ele>
        <time>2010-01-01T00:13:33Z</time>
      </trkpt>
      <trkpt lat="32.54782500" lon="35.34633200">
        <ele>81.000000</ele>
        <time>2010-01-01T00:13:41Z</time>
      </trkpt>
      <trkpt lat="32.54797000" lon="35.34628800">
        <ele>81.000000</ele>
        <time>2010-01-01T00:13:47Z</time>
      </trkpt>
      <trkpt lat="32.54810400" lon="35.34625100">
        <ele>82.000000</ele>
        <time>2010-01-01T00:13:52Z</time>
      </trkpt>
      <trkpt lat="32.54824300" lon="35.34624600">
        <ele>83.000000</ele>
        <time>2010-01-01T00:13:58Z</time>
      </trkpt>
      <trkpt lat="32.54840900" lon="35.34627500">
        <ele>84.000000</ele>
        <time>2010-01-01T00:14:04Z</time>
      </trkpt>
      <trkpt lat="32.54848000" lon="35.34628900">
        <ele>84.000000</ele>
        <time>2010-01-01T00:14:07Z</time>
      </trkpt>
      <trkpt lat="32.54864800" lon="35.34627100">
        <ele>84.000000</ele>
        <time>2010-01-01T00:14:14Z</time>
      </trkpt>
      <trkpt lat="32.54879600" lon="35.34615600">
        <ele>83.000000</ele>
        <time>2010-01-01T00:14:21Z</time>
      </trkpt>
      <trkpt lat="32.54897300" lon="35.34592900">
        <ele>82.000000</ele>
        <time>2010-01-01T00:14:32Z</time>
      </trkpt>
      <trkpt lat="32.54915800" lon="35.34567000">
        <ele>81.000000</ele>
        <time>2010-01-01T00:14:43Z</time>
      </trkpt>
      <trkpt lat="32.54923200" lon="35.34560100">
        <ele>80.000000</ele>
        <time>2010-01-01T00:14:47Z</time>
      </trkpt>
      <trkpt lat="32.54946800" lon="35.34534000">
        <ele>78.000000</ele>
        <time>2010-01-01T00:15:00Z</time>
      </trkpt>
      <trkpt lat="32.54965300" lon="35.34523400">
        <ele>77.000000</ele>
        <time>2010-01-01T00:15:08Z</time>
      </trkpt>
      <trkpt lat="32.54982400" lon="35.34519500">
        <ele>77.000000</ele>
        <time>2010-01-01T00:15:15Z</time>
      </trkpt>
      <trkpt lat="32.54993400" lon="35.34526200">
        <ele>77.000000</ele>
        <time>2010-01-01T00:15:20Z</time>
      </trkpt>
      <trkpt lat="32.54993400" lon="35.34538500">
        <ele>78.000000</ele>
        <time>2010-01-01T00:15:24Z</time>
      </trkpt>
      <trkpt lat="32.54998300" lon="35.34569500">
        <ele>79.000000</ele>
        <time>2010-01-01T00:15:35Z</time>
      </trkpt>
      <trkpt lat="32.55003600" lon="35.34592800">
        <ele>78.000000</ele>
        <time>2010-01-01T00:15:43Z</time>
      </trkpt>
      <trkpt lat="32.55007400" lon="35.34616900">
        <ele>76.000000</ele>
        <time>2010-01-01T00:15:51Z</time>
      </trkpt>
      <trkpt lat="32.55012700" lon="35.34647300">
        <ele>74.000000</ele>
        <time>2010-01-01T00:16:02Z</time>
      </trkpt>
      <trkpt lat="32.55015600" lon="35.34658900">
        <ele>73.000000</ele>
        <time>2010-01-01T00:16:06Z</time>
      </trkpt>
      <trkpt lat="32.55022100" lon="35.34683400">
        <ele>71.000000</ele>
        <time>2010-01-01T00:16:14Z</time>
      </trkpt>
      <trkpt lat="32.55024900" lon="35.34715400">
        <ele>72.000000</ele>
        <time>2010-01-01T00:16:25Z</time>
      </trkpt>
      <trkpt lat="32.55023300" lon="35.34725800">
        <ele>73.000000</ele>
        <time>2010-01-01T00:16:29Z</time>
      </trkpt>
      <trkpt lat="32.55021100" lon="35.34734700">
        <ele>74.000000</ele>
        <time>2010-01-01T00:16:32Z</time>
      </trkpt>
      <trkpt lat="32.55018200" lon="35.34743000">
        <ele>75.000000</ele>
        <time>2010-01-01T00:16:35Z</time>
      </trkpt>
      <trkpt lat="32.55017000" lon="35.34745800">
        <ele>75.000000</ele>
        <time>2010-01-01T00:16:36Z</time>
      </trkpt>
      <trkpt lat="32.55014200" lon="35.34753700">
        <ele>76.000000</ele>
        <time>2010-01-01T00:16:39Z</time>
      </trkpt>
      <trkpt lat="32.55011000" lon="35.34764900">
        <ele>78.000000</ele>
        <time>2010-01-01T00:16:43Z</time>
      </trkpt>
      <trkpt lat="32.55007300" lon="35.34779600">
        <ele>79.000000</ele>
        <time>2010-01-01T00:16:48Z</time>
      </trkpt>
      <trkpt lat="32.55001700" lon="35.34798200">
        <ele>82.000000</ele>
        <time>2010-01-01T00:16:55Z</time>
      </trkpt>
      <trkpt lat="32.54994500" lon="35.34825600">
        <ele>85.000000</ele>
        <time>2010-01-01T00:17:04Z</time>
      </trkpt>
      <trkpt lat="32.54986700" lon="35.34849200">
        <ele>86.000000</ele>
        <time>2010-01-01T00:17:13Z</time>
      </trkpt>
      <trkpt lat="32.54982400" lon="35.34865200">
        <ele>87.000000</ele>
        <time>2010-01-01T00:17:19Z</time>
      </trkpt>
      <trkpt lat="32.54977700" lon="35.34883200">
        <ele>87.000000</ele>
        <time>2010-01-01T00:17:25Z</time>
      </trkpt>
      <trkpt lat="32.54971500" lon="35.34900700">
        <ele>88.000000</ele>
        <time>2010-01-01T00:17:31Z</time>
      </trkpt>
      <trkpt lat="32.54964700" lon="35.34916700">
        <ele>90.000000</ele>
        <time>2010-01-01T00:17:37Z</time>
      </trkpt>
      <trkpt lat="32.54958100" lon="35.34938200">
        <ele>90.000000</ele>
        <time>2010-01-01T00:17:45Z</time>
      </trkpt>
      <trkpt lat="32.54949700" lon="35.34965900">
        <ele>90.000000</ele>
        <time>2010-01-01T00:17:55Z</time>
      </trkpt>
      <trkpt lat="32.54948600" lon="35.34969200">
        <ele>90.000000</ele>
        <time>2010-01-01T00:17:56Z</time>
      </trkpt>
      <trkpt lat="32.54944200" lon="35.34981300">
        <ele>90.000000</ele>
        <time>2010-01-01T00:18:01Z</time>
      </trkpt>
      <trkpt lat="32.54933000" lon="35.35002300">
        <ele>92.000000</ele>
        <time>2010-01-01T00:18:09Z</time>
      </trkpt>
      <trkpt lat="32.54920400" lon="35.35027100">
        <ele>94.000000</ele>
        <time>2010-01-01T00:18:19Z</time>
      </trkpt>
      <trkpt lat="32.54907200" lon="35.35050000">
        <ele>96.000000</ele>
        <time>2010-01-01T00:18:28Z</time>
      </trkpt>
      <trkpt lat="32.54895300" lon="35.35068600">
        <ele>98.000000</ele>
        <time>2010-01-01T00:18:36Z</time>
      </trkpt>
      <trkpt lat="32.54885500" lon="35.35092700">
        <ele>98.000000</ele>
        <time>2010-01-01T00:18:45Z</time>
      </trkpt>
      <trkpt lat="32.54875300" lon="35.35117200">
        <ele>98.000000</ele>
        <time>2010-01-01T00:18:54Z</time>
      </trkpt>
      <trkpt lat="32.54866200" lon="35.35136400">
        <ele>99.000000</ele>
        <time>2010-01-01T00:19:02Z</time>
      </trkpt>
      <trkpt lat="32.54857400" lon="35.35157100">
        <ele>99.000000</ele>
        <time>2010-01-01T00:19:10Z</time>
      </trkpt>
      <trkpt lat="32.54851800" lon="35.35172800">
        <ele>99.000000</ele>
        <time>2010-01-01T00:19:15Z</time>
      </trkpt>
      <trkpt lat="32.54846300" lon="35.35187300">
        <ele>100.00000</ele>
        <time>2010-01-01T00:19:21Z</time>
      </trkpt>
      <trkpt lat="32.54838800" lon="35.35206600">
        <ele>101.00000</ele>
        <time>2010-01-01T00:19:28Z</time>
      </trkpt>
      <trkpt lat="32.54833800" lon="35.35220900">
        <ele>102.00000</ele>
        <time>2010-01-01T00:19:33Z</time>
      </trkpt>
      <trkpt lat="32.54824100" lon="35.35245900">
        <ele>103.00000</ele>
        <time>2010-01-01T00:19:42Z</time>
      </trkpt>
      <trkpt lat="32.54813700" lon="35.35268600">
        <ele>103.00000</ele>
        <time>2010-01-01T00:19:51Z</time>
      </trkpt>
      <trkpt lat="32.54803300" lon="35.35286200">
        <ele>105.00000</ele>
        <time>2010-01-01T00:19:58Z</time>
      </trkpt>
      <trkpt lat="32.54793400" lon="35.35304400">
        <ele>106.00000</ele>
        <time>2010-01-01T00:20:06Z</time>
      </trkpt>
      <trkpt lat="32.54784700" lon="35.35317700">
        <ele>107.00000</ele>
        <time>2010-01-01T00:20:11Z</time>
      </trkpt>
      <trkpt lat="32.54775900" lon="35.35332200">
        <ele>108.00000</ele>
        <time>2010-01-01T00:20:17Z</time>
      </trkpt>
      <trkpt lat="32.54763300" lon="35.35351200">
        <ele>108.00000</ele>
        <time>2010-01-01T00:20:26Z</time>
      </trkpt>
      <trkpt lat="32.54751700" lon="35.35365600">
        <ele>109.00000</ele>
        <time>2010-01-01T00:20:32Z</time>
      </trkpt>
      <trkpt lat="32.54739000" lon="35.35378500">
        <ele>110.00000</ele>
        <time>2010-01-01T00:20:39Z</time>
      </trkpt>
      <trkpt lat="32.54724400" lon="35.35394200">
        <ele>111.00000</ele>
        <time>2010-01-01T00:20:47Z</time>
      </trkpt>
      <trkpt lat="32.54710100" lon="35.35410500">
        <ele>113.00000</ele>
        <time>2010-01-01T00:20:55Z</time>
      </trkpt>
      <trkpt lat="32.54697400" lon="35.35425000">
        <ele>114.00000</ele>
        <time>2010-01-01T00:21:02Z</time>
      </trkpt>
      <trkpt lat="32.54681100" lon="35.35445000">
        <ele>115.00000</ele>
        <time>2010-01-01T00:21:11Z</time>
      </trkpt>
      <trkpt lat="32.54670200" lon="35.35459100">
        <ele>117.00000</ele>
        <time>2010-01-01T00:21:18Z</time>
      </trkpt>
      <trkpt lat="32.54654800" lon="35.35479400">
        <ele>117.00000</ele>
        <time>2010-01-01T00:21:27Z</time>
      </trkpt>
      <trkpt lat="32.54641500" lon="35.35496000">
        <ele>117.00000</ele>
        <time>2010-01-01T00:21:35Z</time>
      </trkpt>
      <trkpt lat="32.54625300" lon="35.35519300">
        <ele>115.00000</ele>
        <time>2010-01-01T00:21:45Z</time>
      </trkpt>
      <trkpt lat="32.54605200" lon="35.35549300">
        <ele>115.00000</ele>
        <time>2010-01-01T00:21:58Z</time>
      </trkpt>
      <trkpt lat="32.54586300" lon="35.35573500">
        <ele>116.00000</ele>
        <time>2010-01-01T00:22:09Z</time>
      </trkpt>
      <trkpt lat="32.54570100" lon="35.35595000">
        <ele>116.00000</ele>
        <time>2010-01-01T00:22:19Z</time>
      </trkpt>
      <trkpt lat="32.54547900" lon="35.35621700">
        <ele>117.00000</ele>
        <time>2010-01-01T00:22:31Z</time>
      </trkpt>
      <trkpt lat="32.54532500" lon="35.35640100">
        <ele>119.00000</ele>
        <time>2010-01-01T00:22:40Z</time>
      </trkpt>
      <trkpt lat="32.54513200" lon="35.35663400">
        <ele>122.00000</ele>
        <time>2010-01-01T00:22:51Z</time>
      </trkpt>
      <trkpt lat="32.54492100" lon="35.35684700">
        <ele>124.00000</ele>
        <time>2010-01-01T00:23:02Z</time>
      </trkpt>
      <trkpt lat="32.54478600" lon="35.35700800">
        <ele>124.00000</ele>
        <time>2010-01-01T00:23:10Z</time>
      </trkpt>
      <trkpt lat="32.54459800" lon="35.35725600">
        <ele>125.00000</ele>
        <time>2010-01-01T00:23:21Z</time>
      </trkpt>
      <trkpt lat="32.54446000" lon="35.35743300">
        <ele>127.00000</ele>
        <time>2010-01-01T00:23:29Z</time>
      </trkpt>
      <trkpt lat="32.54433100" lon="35.35763300">
        <ele>127.00000</ele>
        <time>2010-01-01T00:23:38Z</time>
      </trkpt>
      <trkpt lat="32.54421400" lon="35.35782800">
        <ele>127.00000</ele>
        <time>2010-01-01T00:23:46Z</time>
      </trkpt>
      <trkpt lat="32.54405500" lon="35.35805400">
        <ele>126.00000</ele>
        <time>2010-01-01T00:23:56Z</time>
      </trkpt>
      <trkpt lat="32.54402700" lon="35.35808600">
        <ele>125.00000</ele>
        <time>2010-01-01T00:23:57Z</time>
      </trkpt>
      <trkpt lat="32.54384600" lon="35.35830000">
        <ele>125.00000</ele>
        <time>2010-01-01T00:24:07Z</time>
      </trkpt>
      <trkpt lat="32.54373000" lon="35.35851100">
        <ele>123.00000</ele>
        <time>2010-01-01T00:24:16Z</time>
      </trkpt>
      <trkpt lat="32.54367600" lon="35.35873700">
        <ele>122.00000</ele>
        <time>2010-01-01T00:24:24Z</time>
      </trkpt>
      <trkpt lat="32.54366700" lon="35.35880600">
        <ele>121.00000</ele>
        <time>2010-01-01T00:24:26Z</time>
      </trkpt>
      <trkpt lat="32.54376600" lon="35.35886000">
        <ele>119.00000</ele>
        <time>2010-01-01T00:24:31Z</time>
      </trkpt>
      <trkpt lat="32.54397300" lon="35.35879400">
        <ele>118.00000</ele>
        <time>2010-01-01T00:24:39Z</time>
      </trkpt>
      <trkpt lat="32.54411100" lon="35.35887200">
        <ele>116.00000</ele>
        <time>2010-01-01T00:24:45Z</time>
      </trkpt>
      <trkpt lat="32.54415300" lon="35.35891800">
        <ele>114.00000</ele>
        <time>2010-01-01T00:24:48Z</time>
      </trkpt>
      <trkpt lat="32.54422400" lon="35.35902200">
        <ele>112.00000</ele>
        <time>2010-01-01T00:24:52Z</time>
      </trkpt>
      <trkpt lat="32.54426900" lon="35.35924600">
        <ele>108.00000</ele>
        <time>2010-01-01T00:25:00Z</time>
      </trkpt>
      <trkpt lat="32.54420900" lon="35.35940700">
        <ele>108.00000</ele>
        <time>2010-01-01T00:25:06Z</time>
      </trkpt>
      <trkpt lat="32.54409400" lon="35.35963600">
        <ele>108.00000</ele>
        <time>2010-01-01T00:25:15Z</time>
      </trkpt>
      <trkpt lat="32.54404000" lon="35.35978600">
        <ele>108.00000</ele>
        <time>2010-01-01T00:25:20Z</time>
      </trkpt>
      <trkpt lat="32.54390900" lon="35.36015400">
        <ele>106.00000</ele>
        <time>2010-01-01T00:25:34Z</time>
      </trkpt>
      <trkpt lat="32.54377100" lon="35.36046900">
        <ele>105.00000</ele>
        <time>2010-01-01T00:25:46Z</time>
      </trkpt>
      <trkpt lat="32.54362900" lon="35.36066200">
        <ele>106.00000</ele>
        <time>2010-01-01T00:25:54Z</time>
      </trkpt>
      <trkpt lat="32.54344700" lon="35.36084900">
        <ele>107.00000</ele>
        <time>2010-01-01T00:26:04Z</time>
      </trkpt>
      <trkpt lat="32.54331600" lon="35.36104900">
        <ele>107.00000</ele>
        <time>2010-01-01T00:26:13Z</time>
      </trkpt>
      <trkpt lat="32.54331000" lon="35.36113400">
        <ele>106.00000</ele>
        <time>2010-01-01T00:26:15Z</time>
      </trkpt>
      <trkpt lat="32.54327600" lon="35.36144300">
        <ele>102.00000</ele>
        <time>2010-01-01T00:26:26Z</time>
      </trkpt>
      <trkpt lat="32.54326200" lon="35.36150000">
        <ele>102.00000</ele>
        <time>2010-01-01T00:26:28Z</time>
      </trkpt>
      <trkpt lat="32.54314600" lon="35.36171100">
        <ele>101.00000</ele>
        <time>2010-01-01T00:26:37Z</time>
      </trkpt>
      <trkpt lat="32.54296100" lon="35.36197800">
        <ele>99.000000</ele>
        <time>2010-01-01T00:26:48Z</time>
      </trkpt>
      <trkpt lat="32.54282000" lon="35.36220100">
        <ele>98.000000</ele>
        <time>2010-01-01T00:26:58Z</time>
      </trkpt>
      <trkpt lat="32.54268500" lon="35.36237700">
        <ele>98.000000</ele>
        <time>2010-01-01T00:27:06Z</time>
      </trkpt>
      <trkpt lat="32.54248100" lon="35.36248900">
        <ele>101.00000</ele>
        <time>2010-01-01T00:27:15Z</time>
      </trkpt>
      <trkpt lat="32.54226800" lon="35.36263200">
        <ele>101.00000</ele>
        <time>2010-01-01T00:27:24Z</time>
      </trkpt>
      <trkpt lat="32.54216500" lon="35.36282000">
        <ele>98.000000</ele>
        <time>2010-01-01T00:27:32Z</time>
      </trkpt>
      <trkpt lat="32.54210100" lon="35.36290100">
        <ele>97.000000</ele>
        <time>2010-01-01T00:27:36Z</time>
      </trkpt>
      <trkpt lat="32.54191300" lon="35.36292700">
        <ele>98.000000</ele>
        <time>2010-01-01T00:27:43Z</time>
      </trkpt>
      <trkpt lat="32.54166400" lon="35.36291100">
        <ele>101.00000</ele>
        <time>2010-01-01T00:27:53Z</time>
      </trkpt>
      <trkpt lat="32.54135700" lon="35.36291900">
        <ele>100.00000</ele>
        <time>2010-01-01T00:28:06Z</time>
      </trkpt>
      <trkpt lat="32.54109100" lon="35.36290200">
        <ele>100.00000</ele>
        <time>2010-01-01T00:28:16Z</time>
      </trkpt>
      <trkpt lat="32.54084500" lon="35.36282200">
        <ele>101.00000</ele>
        <time>2010-01-01T00:28:26Z</time>
      </trkpt>
      <trkpt lat="32.54067700" lon="35.36269800">
        <ele>104.00000</ele>
        <time>2010-01-01T00:28:34Z</time>
      </trkpt>
      <trkpt lat="32.54056500" lon="35.36262900">
        <ele>105.00000</ele>
        <time>2010-01-01T00:28:39Z</time>
      </trkpt>
      <trkpt lat="32.54042600" lon="35.36257000">
        <ele>106.00000</ele>
        <time>2010-01-01T00:28:45Z</time>
      </trkpt>
      <trkpt lat="32.54034900" lon="35.36253500">
        <ele>107.00000</ele>
        <time>2010-01-01T00:28:49Z</time>
      </trkpt>
      <trkpt lat="32.54012300" lon="35.36246700">
        <ele>108.00000</ele>
        <time>2010-01-01T00:28:58Z</time>
      </trkpt>
      <trkpt lat="32.53980600" lon="35.36238300">
        <ele>108.00000</ele>
        <time>2010-01-01T00:29:11Z</time>
      </trkpt>
      <trkpt lat="32.53963000" lon="35.36238500">
        <ele>107.00000</ele>
        <time>2010-01-01T00:29:18Z</time>
      </trkpt>
      <trkpt lat="32.53941100" lon="35.36238900">
        <ele>106.00000</ele>
        <time>2010-01-01T00:29:27Z</time>
      </trkpt>
      <trkpt lat="32.53921200" lon="35.36232400">
        <ele>106.00000</ele>
        <time>2010-01-01T00:29:35Z</time>
      </trkpt>
      <trkpt lat="32.53902800" lon="35.36220300">
        <ele>106.00000</ele>
        <time>2010-01-01T00:29:43Z</time>
      </trkpt>
      <trkpt lat="32.53885700" lon="35.36214500">
        <ele>106.00000</ele>
        <time>2010-01-01T00:29:51Z</time>
      </trkpt>
      <trkpt lat="32.53873400" lon="35.36211400">
        <ele>106.00000</ele>
        <time>2010-01-01T00:29:56Z</time>
      </trkpt>
      <trkpt lat="32.53859200" lon="35.36206900">
        <ele>106.00000</ele>
        <time>2010-01-01T00:30:01Z</time>
      </trkpt>
      <trkpt lat="32.53834500" lon="35.36195600">
        <ele>106.00000</ele>
        <time>2010-01-01T00:30:12Z</time>
      </trkpt>
      <trkpt lat="32.53809300" lon="35.36184500">
        <ele>106.00000</ele>
        <time>2010-01-01T00:30:23Z</time>
      </trkpt>
      <trkpt lat="32.53792200" lon="35.36180500">
        <ele>106.00000</ele>
        <time>2010-01-01T00:30:30Z</time>
      </trkpt>
      <trkpt lat="32.53781100" lon="35.36179400">
        <ele>106.00000</ele>
        <time>2010-01-01T00:30:34Z</time>
      </trkpt>
      <trkpt lat="32.53780800" lon="35.36172900">
        <ele>106.00000</ele>
        <time>2010-01-01T00:30:36Z</time>
      </trkpt>
      <trkpt lat="32.53785000" lon="35.36169800">
        <ele>107.00000</ele>
        <time>2010-01-01T00:30:38Z</time>
      </trkpt>
      <trkpt lat="32.53803300" lon="35.36163600">
        <ele>108.00000</ele>
        <time>2010-01-01T00:30:46Z</time>
      </trkpt>
      <trkpt lat="32.53830400" lon="35.36160100">
        <ele>109.00000</ele>
        <time>2010-01-01T00:30:57Z</time>
      </trkpt>
      <trkpt lat="32.53855100" lon="35.36155700">
        <ele>111.00000</ele>
        <time>2010-01-01T00:31:07Z</time>
      </trkpt>
      <trkpt lat="32.53880600" lon="35.36147800">
        <ele>113.00000</ele>
        <time>2010-01-01T00:31:18Z</time>
      </trkpt>
      <trkpt lat="32.53896900" lon="35.36139200">
        <ele>114.00000</ele>
        <time>2010-01-01T00:31:25Z</time>
      </trkpt>
      <trkpt lat="32.53909900" lon="35.36129300">
        <ele>116.00000</ele>
        <time>2010-01-01T00:31:31Z</time>
      </trkpt>
      <trkpt lat="32.53903500" lon="35.36126400">
        <ele>116.00000</ele>
        <time>2010-01-01T00:31:34Z</time>
      </trkpt>
      <trkpt lat="32.53900700" lon="35.36126600">
        <ele>116.00000</ele>
        <time>2010-01-01T00:31:35Z</time>
      </trkpt>
      <trkpt lat="32.53867900" lon="35.36130700">
        <ele>115.00000</ele>
        <time>2010-01-01T00:31:48Z</time>
      </trkpt>
      <trkpt lat="32.53843700" lon="35.36128900">
        <ele>115.00000</ele>
        <time>2010-01-01T00:31:58Z</time>
      </trkpt>
      <trkpt lat="32.53812000" lon="35.36123500">
        <ele>114.00000</ele>
        <time>2010-01-01T00:32:10Z</time>
      </trkpt>
      <trkpt lat="32.53781600" lon="35.36115200">
        <ele>115.00000</ele>
        <time>2010-01-01T00:32:23Z</time>
      </trkpt>
      <trkpt lat="32.53752300" lon="35.36107600">
        <ele>115.00000</ele>
        <time>2010-01-01T00:32:35Z</time>
      </trkpt>
      <trkpt lat="32.53719200" lon="35.36099700">
        <ele>116.00000</ele>
        <time>2010-01-01T00:32:48Z</time>
      </trkpt>
      <trkpt lat="32.53691200" lon="35.36090400">
        <ele>117.00000</ele>
        <time>2010-01-01T00:33:00Z</time>
      </trkpt>
      <trkpt lat="32.53662400" lon="35.36080400">
        <ele>118.00000</ele>
        <time>2010-01-01T00:33:12Z</time>
      </trkpt>
      <trkpt lat="32.53634500" lon="35.36070800">
        <ele>120.00000</ele>
        <time>2010-01-01T00:33:24Z</time>
      </trkpt>
      <trkpt lat="32.53606200" lon="35.36061500">
        <ele>123.00000</ele>
        <time>2010-01-01T00:33:36Z</time>
      </trkpt>
      <trkpt lat="32.53585400" lon="35.36055100">
        <ele>125.00000</ele>
        <time>2010-01-01T00:33:44Z</time>
      </trkpt>
      <trkpt lat="32.53569800" lon="35.36052900">
        <ele>128.00000</ele>
        <time>2010-01-01T00:33:50Z</time>
      </trkpt>
      <trkpt lat="32.53566700" lon="35.36055300">
        <ele>129.00000</ele>
        <time>2010-01-01T00:33:52Z</time>
      </trkpt>
      <trkpt lat="32.53567300" lon="35.36069800">
        <ele>128.00000</ele>
        <time>2010-01-01T00:33:57Z</time>
      </trkpt>
      <trkpt lat="32.53572700" lon="35.36103000">
        <ele>124.00000</ele>
        <time>2010-01-01T00:34:08Z</time>
      </trkpt>
      <trkpt lat="32.53575800" lon="35.36127000">
        <ele>122.00000</ele>
        <time>2010-01-01T00:34:16Z</time>
      </trkpt>
      <trkpt lat="32.53576500" lon="35.36163000">
        <ele>121.00000</ele>
        <time>2010-01-01T00:34:29Z</time>
      </trkpt>
      <trkpt lat="32.53573200" lon="35.36184200">
        <ele>122.00000</ele>
        <time>2010-01-01T00:34:36Z</time>
      </trkpt>
      <trkpt lat="32.53571000" lon="35.36208100">
        <ele>123.00000</ele>
        <time>2010-01-01T00:34:44Z</time>
      </trkpt>
      <trkpt lat="32.53570700" lon="35.36225500">
        <ele>123.00000</ele>
        <time>2010-01-01T00:34:50Z</time>
      </trkpt>
      <trkpt lat="32.53569800" lon="35.36241300">
        <ele>124.00000</ele>
        <time>2010-01-01T00:34:55Z</time>
      </trkpt>
      <trkpt lat="32.53569400" lon="35.36246200">
        <ele>124.00000</ele>
        <time>2010-01-01T00:34:57Z</time>
      </trkpt>
      <trkpt lat="32.53569000" lon="35.36246900">
        <ele>124.00000</ele>
        <time>2010-01-01T00:34:57Z</time>
      </trkpt>
      <trkpt lat="32.53568200" lon="35.36246800">
        <ele>124.00000</ele>
        <time>2010-01-01T00:34:57Z</time>
      </trkpt>
      <trkpt lat="32.53567500" lon="35.36246800">
        <ele>124.00000</ele>
        <time>2010-01-01T00:34:58Z</time>
      </trkpt>
      <trkpt lat="32.53567400" lon="35.36246700">
        <ele>124.00000</ele>
        <time>2010-01-01T00:34:58Z</time>
      </trkpt>
      <trkpt lat="32.53567400" lon="35.36246800">
        <ele>124.00000</ele>
        <time>2010-01-01T00:34:58Z</time>
      </trkpt>
      <trkpt lat="32.53567700" lon="35.36246900">
        <ele>124.00000</ele>
        <time>2010-01-01T00:34:58Z</time>
      </trkpt>
      <trkpt lat="32.53567700" lon="35.36247000">
        <ele>124.00000</ele>
        <time>2010-01-01T00:34:58Z</time>
      </trkpt>
      <trkpt lat="32.53571600" lon="35.36244300">
        <ele>123.00000</ele>
        <time>2010-01-01T00:35:00Z</time>
      </trkpt>
      <trkpt lat="32.53571700" lon="35.36244100">
        <ele>123.00000</ele>
        <time>2010-01-01T00:35:00Z</time>
      </trkpt>
      <trkpt lat="32.53572300" lon="35.36245300">
        <ele>123.00000</ele>
        <time>2010-01-01T00:35:00Z</time>
      </trkpt>
      <trkpt lat="32.53572500" lon="35.36245500">
        <ele>123.00000</ele>
        <time>2010-01-01T00:35:00Z</time>
      </trkpt>
      <trkpt lat="32.53574400" lon="35.36245800">
        <ele>123.00000</ele>
        <time>2010-01-01T00:35:01Z</time>
      </trkpt>
      <trkpt lat="32.53574000" lon="35.36243800">
        <ele>123.00000</ele>
        <time>2010-01-01T00:35:02Z</time>
      </trkpt>
      <trkpt lat="32.53574600" lon="35.36231600">
        <ele>122.00000</ele>
        <time>2010-01-01T00:35:06Z</time>
      </trkpt>
      <trkpt lat="32.53575300" lon="35.36225400">
        <ele>122.00000</ele>
        <time>2010-01-01T00:35:08Z</time>
      </trkpt>
      <trkpt lat="32.53576300" lon="35.36199400">
        <ele>122.00000</ele>
        <time>2010-01-01T00:35:17Z</time>
      </trkpt>
      <trkpt lat="32.53577600" lon="35.36180800">
        <ele>121.00000</ele>
        <time>2010-01-01T00:35:23Z</time>
      </trkpt>
      <trkpt lat="32.53577600" lon="35.36149300">
        <ele>121.00000</ele>
        <time>2010-01-01T00:35:34Z</time>
      </trkpt>
      <trkpt lat="32.53575400" lon="35.36125500">
        <ele>123.00000</ele>
        <time>2010-01-01T00:35:42Z</time>
      </trkpt>
      <trkpt lat="32.53571600" lon="35.36097700">
        <ele>125.00000</ele>
        <time>2010-01-01T00:35:51Z</time>
      </trkpt>
      <trkpt lat="32.53568400" lon="35.36079400">
        <ele>126.00000</ele>
        <time>2010-01-01T00:35:58Z</time>
      </trkpt>
      <trkpt lat="32.53566100" lon="35.36066100">
        <ele>128.00000</ele>
        <time>2010-01-01T00:36:02Z</time>
      </trkpt>
      <trkpt lat="32.53559200" lon="35.36037700">
        <ele>132.00000</ele>
        <time>2010-01-01T00:36:12Z</time>
      </trkpt>
      <trkpt lat="32.53558500" lon="35.36021600">
        <ele>133.00000</ele>
        <time>2010-01-01T00:36:18Z</time>
      </trkpt>
      <trkpt lat="32.53560000" lon="35.36017600">
        <ele>133.00000</ele>
        <time>2010-01-01T00:36:19Z</time>
      </trkpt>
      <trkpt lat="32.53561600" lon="35.36004100">
        <ele>134.00000</ele>
        <time>2010-01-01T00:36:24Z</time>
      </trkpt>
      <trkpt lat="32.53567300" lon="35.35988600">
        <ele>134.00000</ele>
        <time>2010-01-01T00:36:29Z</time>
      </trkpt>
      <trkpt lat="32.53575200" lon="35.35968600">
        <ele>135.00000</ele>
        <time>2010-01-01T00:36:37Z</time>
      </trkpt>
      <trkpt lat="32.53579900" lon="35.35954300">
        <ele>136.00000</ele>
        <time>2010-01-01T00:36:42Z</time>
      </trkpt>
      <trkpt lat="32.53583700" lon="35.35941400">
        <ele>136.00000</ele>
        <time>2010-01-01T00:36:47Z</time>
      </trkpt>
      <trkpt lat="32.53586900" lon="35.35929500">
        <ele>137.00000</ele>
        <time>2010-01-01T00:36:51Z</time>
      </trkpt>
      <trkpt lat="32.53590100" lon="35.35912200">
        <ele>139.00000</ele>
        <time>2010-01-01T00:36:57Z</time>
      </trkpt>
      <trkpt lat="32.53592700" lon="35.35892600">
        <ele>139.00000</ele>
        <time>2010-01-01T00:37:04Z</time>
      </trkpt>
      <trkpt lat="32.53592400" lon="35.35878300">
        <ele>140.00000</ele>
        <time>2010-01-01T00:37:08Z</time>
      </trkpt>
      <trkpt lat="32.53592400" lon="35.35875200">
        <ele>140.00000</ele>
        <time>2010-01-01T00:37:09Z</time>
      </trkpt>
      <trkpt lat="32.53590500" lon="35.35871500">
        <ele>140.00000</ele>
        <time>2010-01-01T00:37:11Z</time>
      </trkpt>
      <trkpt lat="32.53587800" lon="35.35876500">
        <ele>140.00000</ele>
        <time>2010-01-01T00:37:13Z</time>
      </trkpt>
      <trkpt lat="32.53580000" lon="35.35896500">
        <ele>140.00000</ele>
        <time>2010-01-01T00:37:20Z</time>
      </trkpt>
      <trkpt lat="32.53569700" lon="35.35919000">
        <ele>141.00000</ele>
        <time>2010-01-01T00:37:29Z</time>
      </trkpt>
      <trkpt lat="32.53560000" lon="35.35937600">
        <ele>141.00000</ele>
        <time>2010-01-01T00:37:36Z</time>
      </trkpt>
      <trkpt lat="32.53542900" lon="35.35964200">
        <ele>141.00000</ele>
        <time>2010-01-01T00:37:48Z</time>
      </trkpt>
      <trkpt lat="32.53528700" lon="35.35995900">
        <ele>141.00000</ele>
        <time>2010-01-01T00:38:00Z</time>
      </trkpt>
      <trkpt lat="32.53524200" lon="35.36029300">
        <ele>140.00000</ele>
        <time>2010-01-01T00:38:11Z</time>
      </trkpt>
      <trkpt lat="32.53526000" lon="35.36049000">
        <ele>139.00000</ele>
        <time>2010-01-01T00:38:18Z</time>
      </trkpt>
      <trkpt lat="32.53525700" lon="35.36058700">
        <ele>139.00000</ele>
        <time>2010-01-01T00:38:21Z</time>
      </trkpt>
      <trkpt lat="32.53530700" lon="35.36076700">
        <ele>137.00000</ele>
        <time>2010-01-01T00:38:28Z</time>
      </trkpt>
      <trkpt lat="32.53542400" lon="35.36105100">
        <ele>133.00000</ele>
        <time>2010-01-01T00:38:38Z</time>
      </trkpt>
      <trkpt lat="32.53544300" lon="35.36119100">
        <ele>132.00000</ele>
        <time>2010-01-01T00:38:43Z</time>
      </trkpt>
      <trkpt lat="32.53544800" lon="35.36138700">
        <ele>131.00000</ele>
        <time>2010-01-01T00:38:50Z</time>
      </trkpt>
      <trkpt lat="32.53546800" lon="35.36161400">
        <ele>129.00000</ele>
        <time>2010-01-01T00:38:57Z</time>
      </trkpt>
      <trkpt lat="32.53546500" lon="35.36177300">
        <ele>129.00000</ele>
        <time>2010-01-01T00:39:03Z</time>
      </trkpt>
      <trkpt lat="32.53542500" lon="35.36189500">
        <ele>130.00000</ele>
        <time>2010-01-01T00:39:07Z</time>
      </trkpt>
      <trkpt lat="32.53541600" lon="35.36200400">
        <ele>130.00000</ele>
        <time>2010-01-01T00:39:11Z</time>
      </trkpt>
      <trkpt lat="32.53543600" lon="35.36232000">
        <ele>129.00000</ele>
        <time>2010-01-01T00:39:22Z</time>
      </trkpt>
      <trkpt lat="32.53544600" lon="35.36237100">
        <ele>129.00000</ele>
        <time>2010-01-01T00:39:23Z</time>
      </trkpt>
      <trkpt lat="32.53547100" lon="35.36259800">
        <ele>129.00000</ele>
        <time>2010-01-01T00:39:31Z</time>
      </trkpt>
      <trkpt lat="32.53547700" lon="35.36269500">
        <ele>129.00000</ele>
        <time>2010-01-01T00:39:34Z</time>
      </trkpt>
      <trkpt lat="32.53544300" lon="35.36294400">
        <ele>130.00000</ele>
        <time>2010-01-01T00:39:43Z</time>
      </trkpt>
      <trkpt lat="32.53544800" lon="35.36318100">
        <ele>131.00000</ele>
        <time>2010-01-01T00:39:51Z</time>
      </trkpt>
      <trkpt lat="32.53543300" lon="35.36334200">
        <ele>132.00000</ele>
        <time>2010-01-01T00:39:56Z</time>
      </trkpt>
      <trkpt lat="32.53545500" lon="35.36348600">
        <ele>132.00000</ele>
        <time>2010-01-01T00:40:01Z</time>
      </trkpt>
      <trkpt lat="32.53553300" lon="35.36363300">
        <ele>130.00000</ele>
        <time>2010-01-01T00:40:07Z</time>
      </trkpt>
      <trkpt lat="32.53561500" lon="35.36374000">
        <ele>130.00000</ele>
        <time>2010-01-01T00:40:12Z</time>
      </trkpt>
      <trkpt lat="32.53574100" lon="35.36393500">
        <ele>128.00000</ele>
        <time>2010-01-01T00:40:20Z</time>
      </trkpt>
      <trkpt lat="32.53573400" lon="35.36405200">
        <ele>129.00000</ele>
        <time>2010-01-01T00:40:24Z</time>
      </trkpt>
      <trkpt lat="32.53565800" lon="35.36417800">
        <ele>130.00000</ele>
        <time>2010-01-01T00:40:29Z</time>
      </trkpt>
      <trkpt lat="32.53558300" lon="35.36424100">
        <ele>132.00000</ele>
        <time>2010-01-01T00:40:33Z</time>
      </trkpt>
      <trkpt lat="32.53543900" lon="35.36433100">
        <ele>134.00000</ele>
        <time>2010-01-01T00:40:40Z</time>
      </trkpt>
      <trkpt lat="32.53532500" lon="35.36436200">
        <ele>135.00000</ele>
        <time>2010-01-01T00:40:44Z</time>
      </trkpt>
      <trkpt lat="32.53514600" lon="35.36443400">
        <ele>137.00000</ele>
        <time>2010-01-01T00:40:52Z</time>
      </trkpt>
      <trkpt lat="32.53499200" lon="35.36446300">
        <ele>138.00000</ele>
        <time>2010-01-01T00:40:58Z</time>
      </trkpt>
      <trkpt lat="32.53486100" lon="35.36452500">
        <ele>139.00000</ele>
        <time>2010-01-01T00:41:04Z</time>
      </trkpt>
      <trkpt lat="32.53468900" lon="35.36462000">
        <ele>140.00000</ele>
        <time>2010-01-01T00:41:11Z</time>
      </trkpt>
      <trkpt lat="32.53461400" lon="35.36470300">
        <ele>140.00000</ele>
        <time>2010-01-01T00:41:15Z</time>
      </trkpt>
      <trkpt lat="32.53452800" lon="35.36485700">
        <ele>141.00000</ele>
        <time>2010-01-01T00:41:22Z</time>
      </trkpt>
      <trkpt lat="32.53445600" lon="35.36500300">
        <ele>141.00000</ele>
        <time>2010-01-01T00:41:27Z</time>
      </trkpt>
      <trkpt lat="32.53457900" lon="35.36512600">
        <ele>144.00000</ele>
        <time>2010-01-01T00:41:34Z</time>
      </trkpt>
      <trkpt lat="32.53476500" lon="35.36525900">
        <ele>146.00000</ele>
        <time>2010-01-01T00:41:43Z</time>
      </trkpt>
      <trkpt lat="32.53488600" lon="35.36536500">
        <ele>148.00000</ele>
        <time>2010-01-01T00:41:49Z</time>
      </trkpt>
      <trkpt lat="32.53501500" lon="35.36539600">
        <ele>149.00000</ele>
        <time>2010-01-01T00:41:54Z</time>
      </trkpt>
      <trkpt lat="32.53526800" lon="35.36538600">
        <ele>149.00000</ele>
        <time>2010-01-01T00:42:04Z</time>
      </trkpt>
      <trkpt lat="32.53548500" lon="35.36538800">
        <ele>149.00000</ele>
        <time>2010-01-01T00:42:13Z</time>
      </trkpt>
      <trkpt lat="32.53562000" lon="35.36537000">
        <ele>149.00000</ele>
        <time>2010-01-01T00:42:18Z</time>
      </trkpt>
      <trkpt lat="32.53574100" lon="35.36536600">
        <ele>149.00000</ele>
        <time>2010-01-01T00:42:23Z</time>
      </trkpt>
      <trkpt lat="32.53594200" lon="35.36534100">
        <ele>148.00000</ele>
        <time>2010-01-01T00:42:31Z</time>
      </trkpt>
      <trkpt lat="32.53608700" lon="35.36533400">
        <ele>147.00000</ele>
        <time>2010-01-01T00:42:37Z</time>
      </trkpt>
      <trkpt lat="32.53625300" lon="35.36530600">
        <ele>145.00000</ele>
        <time>2010-01-01T00:42:44Z</time>
      </trkpt>
      <trkpt lat="32.53641600" lon="35.36529500">
        <ele>144.00000</ele>
        <time>2010-01-01T00:42:50Z</time>
      </trkpt>
      <trkpt lat="32.53652100" lon="35.36529900">
        <ele>144.00000</ele>
        <time>2010-01-01T00:42:54Z</time>
      </trkpt>
      <trkpt lat="32.53663900" lon="35.36540700">
        <ele>145.00000</ele>
        <time>2010-01-01T00:43:00Z</time>
      </trkpt>
      <trkpt lat="32.53665500" lon="35.36547200">
        <ele>145.00000</ele>
        <time>2010-01-01T00:43:03Z</time>
      </trkpt>
      <trkpt lat="32.53658800" lon="35.36546900">
        <ele>146.00000</ele>
        <time>2010-01-01T00:43:05Z</time>
      </trkpt>
      <trkpt lat="32.53656000" lon="35.36545400">
        <ele>146.00000</ele>
        <time>2010-01-01T00:43:06Z</time>
      </trkpt>
      <trkpt lat="32.53653200" lon="35.36543700">
        <ele>146.00000</ele>
        <time>2010-01-01T00:43:08Z</time>
      </trkpt>
      <trkpt lat="32.53647900" lon="35.36544100">
        <ele>146.00000</ele>
        <time>2010-01-01T00:43:10Z</time>
      </trkpt>
      <trkpt lat="32.53644400" lon="35.36550300">
        <ele>147.00000</ele>
        <time>2010-01-01T00:43:12Z</time>
      </trkpt>
      <trkpt lat="32.53643600" lon="35.36566800">
        <ele>150.00000</ele>
        <time>2010-01-01T00:43:18Z</time>
      </trkpt>
      <trkpt lat="32.53637800" lon="35.36567300">
        <ele>150.00000</ele>
        <time>2010-01-01T00:43:20Z</time>
      </trkpt>
      <trkpt lat="32.53633900" lon="35.36563600">
        <ele>150.00000</ele>
        <time>2010-01-01T00:43:22Z</time>
      </trkpt>
      <trkpt lat="32.53619500" lon="35.36560600">
        <ele>151.00000</ele>
        <time>2010-01-01T00:43:28Z</time>
      </trkpt>
      <trkpt lat="32.53610000" lon="35.36559400">
        <ele>151.00000</ele>
        <time>2010-01-01T00:43:32Z</time>
      </trkpt>
      <trkpt lat="32.53609200" lon="35.36565400">
        <ele>153.00000</ele>
        <time>2010-01-01T00:43:34Z</time>
      </trkpt>
      <trkpt lat="32.53615000" lon="35.36575500">
        <ele>154.00000</ele>
        <time>2010-01-01T00:43:38Z</time>
      </trkpt>
      <trkpt lat="32.53616100" lon="35.36583500">
        <ele>155.00000</ele>
        <time>2010-01-01T00:43:41Z</time>
      </trkpt>
      <trkpt lat="32.53617000" lon="35.36594900">
        <ele>155.00000</ele>
        <time>2010-01-01T00:43:45Z</time>
      </trkpt>
      <trkpt lat="32.53612700" lon="35.36598800">
        <ele>156.00000</ele>
        <time>2010-01-01T00:43:47Z</time>
      </trkpt>
      <trkpt lat="32.53602600" lon="35.36594200">
        <ele>157.00000</ele>
        <time>2010-01-01T00:43:51Z</time>
      </trkpt>
      <trkpt lat="32.53597400" lon="35.36595900">
        <ele>158.00000</ele>
        <time>2010-01-01T00:43:53Z</time>
      </trkpt>
      <trkpt lat="32.53589800" lon="35.36598800">
        <ele>159.00000</ele>
        <time>2010-01-01T00:43:57Z</time>
      </trkpt>
      <trkpt lat="32.53574700" lon="35.36602100">
        <ele>160.00000</ele>
        <time>2010-01-01T00:44:03Z</time>
      </trkpt>
      <trkpt lat="32.53561300" lon="35.36606600">
        <ele>161.00000</ele>
        <time>2010-01-01T00:44:08Z</time>
      </trkpt>
      <trkpt lat="32.53560300" lon="35.36607400">
        <ele>161.00000</ele>
        <time>2010-01-01T00:44:09Z</time>
      </trkpt>
      <trkpt lat="32.53560000" lon="35.36616300">
        <ele>162.00000</ele>
        <time>2010-01-01T00:44:12Z</time>
      </trkpt>
      <trkpt lat="32.53563000" lon="35.36620400">
        <ele>162.00000</ele>
        <time>2010-01-01T00:44:14Z</time>
      </trkpt>
      <trkpt lat="32.53561300" lon="35.36626700">
        <ele>163.00000</ele>
        <time>2010-01-01T00:44:16Z</time>
      </trkpt>
      <trkpt lat="32.53552900" lon="35.36632700">
        <ele>164.00000</ele>
        <time>2010-01-01T00:44:20Z</time>
      </trkpt>
      <trkpt lat="32.53541400" lon="35.36633800">
        <ele>165.00000</ele>
        <time>2010-01-01T00:44:24Z</time>
      </trkpt>
      <trkpt lat="32.53535200" lon="35.36639100">
        <ele>166.00000</ele>
        <time>2010-01-01T00:44:27Z</time>
      </trkpt>
      <trkpt lat="32.53526900" lon="35.36644700">
        <ele>168.00000</ele>
        <time>2010-01-01T00:44:31Z</time>
      </trkpt>
      <trkpt lat="32.53517000" lon="35.36657100">
        <ele>171.00000</ele>
        <time>2010-01-01T00:44:37Z</time>
      </trkpt>
      <trkpt lat="32.53503600" lon="35.36667300">
        <ele>175.00000</ele>
        <time>2010-01-01T00:44:43Z</time>
      </trkpt>
      <trkpt lat="32.53493900" lon="35.36679600">
        <ele>175.00000</ele>
        <time>2010-01-01T00:44:49Z</time>
      </trkpt>
      <trkpt lat="32.53492500" lon="35.36683000">
        <ele>175.00000</ele>
        <time>2010-01-01T00:44:50Z</time>
      </trkpt>
      <trkpt lat="32.53491300" lon="35.36684200">
        <ele>176.00000</ele>
        <time>2010-01-01T00:44:51Z</time>
      </trkpt>
      <trkpt lat="32.53491100" lon="35.36685800">
        <ele>176.00000</ele>
        <time>2010-01-01T00:44:52Z</time>
      </trkpt>
      <trkpt lat="32.53486500" lon="35.36690600">
        <ele>176.00000</ele>
        <time>2010-01-01T00:44:54Z</time>
      </trkpt>
      <trkpt lat="32.53479300" lon="35.36697700">
        <ele>177.00000</ele>
        <time>2010-01-01T00:44:58Z</time>
      </trkpt>
      <trkpt lat="32.53473200" lon="35.36703800">
        <ele>179.00000</ele>
        <time>2010-01-01T00:45:01Z</time>
      </trkpt>
      <trkpt lat="32.53466300" lon="35.36714200">
        <ele>180.00000</ele>
        <time>2010-01-01T00:45:05Z</time>
      </trkpt>
      <trkpt lat="32.53455900" lon="35.36726200">
        <ele>183.00000</ele>
        <time>2010-01-01T00:45:11Z</time>
      </trkpt>
      <trkpt lat="32.53447700" lon="35.36738000">
        <ele>186.00000</ele>
        <time>2010-01-01T00:45:16Z</time>
      </trkpt>
      <trkpt lat="32.53439000" lon="35.36749400">
        <ele>190.00000</ele>
        <time>2010-01-01T00:45:22Z</time>
      </trkpt>
      <trkpt lat="32.53437200" lon="35.36755000">
        <ele>190.00000</ele>
        <time>2010-01-01T00:45:24Z</time>
      </trkpt>
      <trkpt lat="32.53434800" lon="35.36765700">
        <ele>190.00000</ele>
        <time>2010-01-01T00:45:27Z</time>
      </trkpt>
      <trkpt lat="32.53429400" lon="35.36775400">
        <ele>191.00000</ele>
        <time>2010-01-01T00:45:31Z</time>
      </trkpt>
      <trkpt lat="32.53423200" lon="35.36788800">
        <ele>192.00000</ele>
        <time>2010-01-01T00:45:36Z</time>
      </trkpt>
      <trkpt lat="32.53419000" lon="35.36807100">
        <ele>192.00000</ele>
        <time>2010-01-01T00:45:43Z</time>
      </trkpt>
      <trkpt lat="32.53415600" lon="35.36821200">
        <ele>192.00000</ele>
        <time>2010-01-01T00:45:48Z</time>
      </trkpt>
      <trkpt lat="32.53408800" lon="35.36829800">
        <ele>193.00000</ele>
        <time>2010-01-01T00:45:52Z</time>
      </trkpt>
      <trkpt lat="32.53400800" lon="35.36841400">
        <ele>194.00000</ele>
        <time>2010-01-01T00:45:57Z</time>
      </trkpt>
      <trkpt lat="32.53395700" lon="35.36851300">
        <ele>194.00000</ele>
        <time>2010-01-01T00:46:01Z</time>
      </trkpt>
      <trkpt lat="32.53394900" lon="35.36853400">
        <ele>194.00000</ele>
        <time>2010-01-01T00:46:01Z</time>
      </trkpt>
      <trkpt lat="32.53385600" lon="35.36867000">
        <ele>194.00000</ele>
        <time>2010-01-01T00:46:07Z</time>
      </trkpt>
      <trkpt lat="32.53373300" lon="35.36878500">
        <ele>194.00000</ele>
        <time>2010-01-01T00:46:14Z</time>
      </trkpt>
      <trkpt lat="32.53361100" lon="35.36886900">
        <ele>195.00000</ele>
        <time>2010-01-01T00:46:19Z</time>
      </trkpt>
      <trkpt lat="32.53346500" lon="35.36898100">
        <ele>196.00000</ele>
        <time>2010-01-01T00:46:26Z</time>
      </trkpt>
      <trkpt lat="32.53336800" lon="35.36907000">
        <ele>196.00000</ele>
        <time>2010-01-01T00:46:31Z</time>
      </trkpt>
      <trkpt lat="32.53326200" lon="35.36915300">
        <ele>196.00000</ele>
        <time>2010-01-01T00:46:36Z</time>
      </trkpt>
      <trkpt lat="32.53318200" lon="35.36921700">
        <ele>198.00000</ele>
        <time>2010-01-01T00:46:40Z</time>
      </trkpt>
      <trkpt lat="32.53316900" lon="35.36923800">
        <ele>198.00000</ele>
        <time>2010-01-01T00:46:41Z</time>
      </trkpt>
      <trkpt lat="32.53307400" lon="35.36931100">
        <ele>200.00000</ele>
        <time>2010-01-01T00:46:46Z</time>
      </trkpt>
      <trkpt lat="32.53298100" lon="35.36938200">
        <ele>201.00000</ele>
        <time>2010-01-01T00:46:50Z</time>
      </trkpt>
      <trkpt lat="32.53289800" lon="35.36945100">
        <ele>203.00000</ele>
        <time>2010-01-01T00:46:54Z</time>
      </trkpt>
      <trkpt lat="32.53281900" lon="35.36952500">
        <ele>204.00000</ele>
        <time>2010-01-01T00:46:58Z</time>
      </trkpt>
      <trkpt lat="32.53274700" lon="35.36960700">
        <ele>204.00000</ele>
        <time>2010-01-01T00:47:02Z</time>
      </trkpt>
      <trkpt lat="32.53266300" lon="35.36973500">
        <ele>205.00000</ele>
        <time>2010-01-01T00:47:08Z</time>
      </trkpt>
      <trkpt lat="32.53259600" lon="35.36983900">
        <ele>205.00000</ele>
        <time>2010-01-01T00:47:12Z</time>
      </trkpt>
      <trkpt lat="32.53255400" lon="35.36987500">
        <ele>205.00000</ele>
        <time>2010-01-01T00:47:14Z</time>
      </trkpt>
      <trkpt lat="32.53252100" lon="35.36991800">
        <ele>205.00000</ele>
        <time>2010-01-01T00:47:16Z</time>
      </trkpt>
      <trkpt lat="32.53245800" lon="35.36997700">
        <ele>205.00000</ele>
        <time>2010-01-01T00:47:19Z</time>
      </trkpt>
      <trkpt lat="32.53244600" lon="35.36998300">
        <ele>205.00000</ele>
        <time>2010-01-01T00:47:20Z</time>
      </trkpt>
      <trkpt lat="32.53237200" lon="35.37009300">
        <ele>206.00000</ele>
        <time>2010-01-01T00:47:24Z</time>
      </trkpt>
      <trkpt lat="32.53227400" lon="35.37017800">
        <ele>207.00000</ele>
        <time>2010-01-01T00:47:29Z</time>
      </trkpt>
      <trkpt lat="32.53218200" lon="35.37026800">
        <ele>207.00000</ele>
        <time>2010-01-01T00:47:34Z</time>
      </trkpt>
      <trkpt lat="32.53205500" lon="35.37031300">
        <ele>209.00000</ele>
        <time>2010-01-01T00:47:39Z</time>
      </trkpt>
      <trkpt lat="32.53197200" lon="35.37040000">
        <ele>210.00000</ele>
        <time>2010-01-01T00:47:44Z</time>
      </trkpt>
      <trkpt lat="32.53186400" lon="35.37045000">
        <ele>211.00000</ele>
        <time>2010-01-01T00:47:48Z</time>
      </trkpt>
      <trkpt lat="32.53182400" lon="35.37047800">
        <ele>211.00000</ele>
        <time>2010-01-01T00:47:50Z</time>
      </trkpt>
      <trkpt lat="32.53172800" lon="35.37054700">
        <ele>212.00000</ele>
        <time>2010-01-01T00:47:55Z</time>
      </trkpt>
      <trkpt lat="32.53161500" lon="35.37065700">
        <ele>212.00000</ele>
        <time>2010-01-01T00:48:01Z</time>
      </trkpt>
      <trkpt lat="32.53155900" lon="35.37080700">
        <ele>212.00000</ele>
        <time>2010-01-01T00:48:06Z</time>
      </trkpt>
      <trkpt lat="32.53150700" lon="35.37097000">
        <ele>212.00000</ele>
        <time>2010-01-01T00:48:12Z</time>
      </trkpt>
      <trkpt lat="32.53144200" lon="35.37109200">
        <ele>213.00000</ele>
        <time>2010-01-01T00:48:17Z</time>
      </trkpt>
      <trkpt lat="32.53139200" lon="35.37128700">
        <ele>214.00000</ele>
        <time>2010-01-01T00:48:24Z</time>
      </trkpt>
      <trkpt lat="32.53132400" lon="35.37151800">
        <ele>215.00000</ele>
        <time>2010-01-01T00:48:32Z</time>
      </trkpt>
      <trkpt lat="32.53127500" lon="35.37167000">
        <ele>216.00000</ele>
        <time>2010-01-01T00:48:38Z</time>
      </trkpt>
      <trkpt lat="32.53120400" lon="35.37177200">
        <ele>217.00000</ele>
        <time>2010-01-01T00:48:42Z</time>
      </trkpt>
      <trkpt lat="32.53111700" lon="35.37187800">
        <ele>219.00000</ele>
        <time>2010-01-01T00:48:47Z</time>
      </trkpt>
      <trkpt lat="32.53103600" lon="35.37193000">
        <ele>220.00000</ele>
        <time>2010-01-01T00:48:51Z</time>
      </trkpt>
      <trkpt lat="32.53099900" lon="35.37204700">
        <ele>221.00000</ele>
        <time>2010-01-01T00:48:55Z</time>
      </trkpt>
      <trkpt lat="32.53096000" lon="35.37217300">
        <ele>222.00000</ele>
        <time>2010-01-01T00:48:59Z</time>
      </trkpt>
      <trkpt lat="32.53087500" lon="35.37230200">
        <ele>223.00000</ele>
        <time>2010-01-01T00:49:05Z</time>
      </trkpt>
      <trkpt lat="32.53081000" lon="35.37245300">
        <ele>223.00000</ele>
        <time>2010-01-01T00:49:11Z</time>
      </trkpt>
      <trkpt lat="32.53079900" lon="35.37249200">
        <ele>224.00000</ele>
        <time>2010-01-01T00:49:12Z</time>
      </trkpt>
      <trkpt lat="32.53075400" lon="35.37261500">
        <ele>225.00000</ele>
        <time>2010-01-01T00:49:17Z</time>
      </trkpt>
      <trkpt lat="32.53074400" lon="35.37265600">
        <ele>225.00000</ele>
        <time>2010-01-01T00:49:18Z</time>
      </trkpt>
      <trkpt lat="32.53066700" lon="35.37267000">
        <ele>227.00000</ele>
        <time>2010-01-01T00:49:21Z</time>
      </trkpt>
      <trkpt lat="32.53056400" lon="35.37265200">
        <ele>228.00000</ele>
        <time>2010-01-01T00:49:25Z</time>
      </trkpt>
      <trkpt lat="32.53051600" lon="35.37266100">
        <ele>229.00000</ele>
        <time>2010-01-01T00:49:27Z</time>
      </trkpt>
      <trkpt lat="32.53048200" lon="35.37278400">
        <ele>230.00000</ele>
        <time>2010-01-01T00:49:32Z</time>
      </trkpt>
      <trkpt lat="32.53044300" lon="35.37293200">
        <ele>230.00000</ele>
        <time>2010-01-01T00:49:37Z</time>
      </trkpt>
      <trkpt lat="32.53044300" lon="35.37307100">
        <ele>231.00000</ele>
        <time>2010-01-01T00:49:42Z</time>
      </trkpt>
      <trkpt lat="32.53049400" lon="35.37318100">
        <ele>230.00000</ele>
        <time>2010-01-01T00:49:46Z</time>
      </trkpt>
      <trkpt lat="32.53049700" lon="35.37329900">
        <ele>230.00000</ele>
        <time>2010-01-01T00:49:50Z</time>
      </trkpt>
      <trkpt lat="32.53050300" lon="35.37334600">
        <ele>230.00000</ele>
        <time>2010-01-01T00:49:51Z</time>
      </trkpt>
      <trkpt lat="32.53045900" lon="35.37347900">
        <ele>231.00000</ele>
        <time>2010-01-01T00:49:56Z</time>
      </trkpt>
      <trkpt lat="32.53038300" lon="35.37357300">
        <ele>232.00000</ele>
        <time>2010-01-01T00:50:01Z</time>
      </trkpt>
      <trkpt lat="32.53029600" lon="35.37371200">
        <ele>233.00000</ele>
        <time>2010-01-01T00:50:06Z</time>
      </trkpt>
      <trkpt lat="32.53019400" lon="35.37387600">
        <ele>233.00000</ele>
        <time>2010-01-01T00:50:13Z</time>
      </trkpt>
      <trkpt lat="32.53007000" lon="35.37393500">
        <ele>233.00000</ele>
        <time>2010-01-01T00:50:19Z</time>
      </trkpt>
      <trkpt lat="32.52993800" lon="35.37393400">
        <ele>234.00000</ele>
        <time>2010-01-01T00:50:24Z</time>
      </trkpt>
      <trkpt lat="32.52987600" lon="35.37392000">
        <ele>234.00000</ele>
        <time>2010-01-01T00:50:27Z</time>
      </trkpt>
      <trkpt lat="32.52990100" lon="35.37391600">
        <ele>234.00000</ele>
        <time>2010-01-01T00:50:28Z</time>
      </trkpt>
      <trkpt lat="32.52990300" lon="35.37391800">
        <ele>234.00000</ele>
        <time>2010-01-01T00:50:28Z</time>
      </trkpt>
      <trkpt lat="32.52990400" lon="35.37392200">
        <ele>234.00000</ele>
        <time>2010-01-01T00:50:28Z</time>
      </trkpt>
      <trkpt lat="32.52990900" lon="35.37393900">
        <ele>234.00000</ele>
        <time>2010-01-01T00:50:28Z</time>
      </trkpt>
      <trkpt lat="32.52991000" lon="35.37395100">
        <ele>234.00000</ele>
        <time>2010-01-01T00:50:29Z</time>
      </trkpt>
      <trkpt lat="32.52990700" lon="35.37396400">
        <ele>234.00000</ele>
        <time>2010-01-01T00:50:29Z</time>
      </trkpt>
      <trkpt lat="32.52990000" lon="35.37398700">
        <ele>234.00000</ele>
        <time>2010-01-01T00:50:30Z</time>
      </trkpt>
      <trkpt lat="32.52989800" lon="35.37399500">
        <ele>234.00000</ele>
        <time>2010-01-01T00:50:30Z</time>
      </trkpt>
      <trkpt lat="32.52989400" lon="35.37399900">
        <ele>234.00000</ele>
        <time>2010-01-01T00:50:31Z</time>
      </trkpt>
      <trkpt lat="32.52989700" lon="35.37399900">
        <ele>234.00000</ele>
        <time>2010-01-01T00:50:31Z</time>
      </trkpt>
      <trkpt lat="32.52990600" lon="35.37396300">
        <ele>234.00000</ele>
        <time>2010-01-01T00:50:32Z</time>
      </trkpt>
      <trkpt lat="32.52979800" lon="35.37395700">
        <ele>235.00000</ele>
        <time>2010-01-01T00:50:36Z</time>
      </trkpt>
      <trkpt lat="32.52963000" lon="35.37398000">
        <ele>236.00000</ele>
        <time>2010-01-01T00:50:43Z</time>
      </trkpt>
      <trkpt lat="32.52943600" lon="35.37399400">
        <ele>238.00000</ele>
        <time>2010-01-01T00:50:51Z</time>
      </trkpt>
      <trkpt lat="32.52930700" lon="35.37407100">
        <ele>238.00000</ele>
        <time>2010-01-01T00:50:57Z</time>
      </trkpt>
      <trkpt lat="32.52920600" lon="35.37419100">
        <ele>239.00000</ele>
        <time>2010-01-01T00:51:02Z</time>
      </trkpt>
      <trkpt lat="32.52908600" lon="35.37431400">
        <ele>238.00000</ele>
        <time>2010-01-01T00:51:09Z</time>
      </trkpt>
      <trkpt lat="32.52905900" lon="35.37432700">
        <ele>238.00000</ele>
        <time>2010-01-01T00:51:10Z</time>
      </trkpt>
      <trkpt lat="32.52897200" lon="35.37439600">
        <ele>238.00000</ele>
        <time>2010-01-01T00:51:14Z</time>
      </trkpt>
      <trkpt lat="32.52885300" lon="35.37445100">
        <ele>237.00000</ele>
        <time>2010-01-01T00:51:19Z</time>
      </trkpt>
      <trkpt lat="32.52884300" lon="35.37446400">
        <ele>237.00000</ele>
        <time>2010-01-01T00:51:20Z</time>
      </trkpt>
      <trkpt lat="32.52879400" lon="35.37447700">
        <ele>237.00000</ele>
        <time>2010-01-01T00:51:22Z</time>
      </trkpt>
      <trkpt lat="32.52863400" lon="35.37449000">
        <ele>236.00000</ele>
        <time>2010-01-01T00:51:28Z</time>
      </trkpt>
      <trkpt lat="32.52849300" lon="35.37447600">
        <ele>236.00000</ele>
        <time>2010-01-01T00:51:34Z</time>
      </trkpt>
      <trkpt lat="32.52846100" lon="35.37447800">
        <ele>236.00000</ele>
        <time>2010-01-01T00:51:35Z</time>
      </trkpt>
      <trkpt lat="32.52831900" lon="35.37442800">
        <ele>237.00000</ele>
        <time>2010-01-01T00:51:41Z</time>
      </trkpt>
      <trkpt lat="32.52817800" lon="35.37443400">
        <ele>237.00000</ele>
        <time>2010-01-01T00:51:47Z</time>
      </trkpt>
      <trkpt lat="32.52800000" lon="35.37451600">
        <ele>235.00000</ele>
        <time>2010-01-01T00:51:54Z</time>
      </trkpt>
      <trkpt lat="32.52778600" lon="35.37466500">
        <ele>233.00000</ele>
        <time>2010-01-01T00:52:04Z</time>
      </trkpt>
      <trkpt lat="32.52763100" lon="35.37477200">
        <ele>231.00000</ele>
        <time>2010-01-01T00:52:11Z</time>
      </trkpt>
      <trkpt lat="32.52740300" lon="35.37486000">
        <ele>230.00000</ele>
        <time>2010-01-01T00:52:21Z</time>
      </trkpt>
      <trkpt lat="32.52722400" lon="35.37484900">
        <ele>230.00000</ele>
        <time>2010-01-01T00:52:28Z</time>
      </trkpt>
      <trkpt lat="32.52709400" lon="35.37485100">
        <ele>230.00000</ele>
        <time>2010-01-01T00:52:33Z</time>
      </trkpt>
      <trkpt lat="32.52685700" lon="35.37492300">
        <ele>229.00000</ele>
        <time>2010-01-01T00:52:43Z</time>
      </trkpt>
      <trkpt lat="32.52669400" lon="35.37492000">
        <ele>229.00000</ele>
        <time>2010-01-01T00:52:50Z</time>
      </trkpt>
      <trkpt lat="32.52661700" lon="35.37494900">
        <ele>229.00000</ele>
        <time>2010-01-01T00:52:53Z</time>
      </trkpt>
      <trkpt lat="32.52654300" lon="35.37496600">
        <ele>229.00000</ele>
        <time>2010-01-01T00:52:56Z</time>
      </trkpt>
      <trkpt lat="32.52644100" lon="35.37512600">
        <ele>230.00000</ele>
        <time>2010-01-01T00:53:03Z</time>
      </trkpt>
      <trkpt lat="32.52646100" lon="35.37516700">
        <ele>230.00000</ele>
        <time>2010-01-01T00:53:04Z</time>
      </trkpt>
      <trkpt lat="32.52661500" lon="35.37533200">
        <ele>229.00000</ele>
        <time>2010-01-01T00:53:13Z</time>
      </trkpt>
      <trkpt lat="32.52671200" lon="35.37542900">
        <ele>228.00000</ele>
        <time>2010-01-01T00:53:18Z</time>
      </trkpt>
      <trkpt lat="32.52671600" lon="35.37554200">
        <ele>228.00000</ele>
        <time>2010-01-01T00:53:22Z</time>
      </trkpt>
      <trkpt lat="32.52674200" lon="35.37566100">
        <ele>228.00000</ele>
        <time>2010-01-01T00:53:26Z</time>
      </trkpt>
      <trkpt lat="32.52672900" lon="35.37571800">
        <ele>228.00000</ele>
        <time>2010-01-01T00:53:28Z</time>
      </trkpt>
      <trkpt lat="32.52670800" lon="35.37579700">
        <ele>228.00000</ele>
        <time>2010-01-01T00:53:31Z</time>
      </trkpt>
      <trkpt lat="32.52668100" lon="35.37583900">
        <ele>229.00000</ele>
        <time>2010-01-01T00:53:32Z</time>
      </trkpt>
      <trkpt lat="32.52665700" lon="35.37593600">
        <ele>229.00000</ele>
        <time>2010-01-01T00:53:36Z</time>
      </trkpt>
      <trkpt lat="32.52665700" lon="35.37599500">
        <ele>229.00000</ele>
        <time>2010-01-01T00:53:38Z</time>
      </trkpt>
      <trkpt lat="32.52664400" lon="35.37617900">
        <ele>229.00000</ele>
        <time>2010-01-01T00:53:44Z</time>
      </trkpt>
      <trkpt lat="32.52662100" lon="35.37626300">
        <ele>230.00000</ele>
        <time>2010-01-01T00:53:47Z</time>
      </trkpt>
      <trkpt lat="32.52659100" lon="35.37638800">
        <ele>230.00000</ele>
        <time>2010-01-01T00:53:51Z</time>
      </trkpt>
      <trkpt lat="32.52658200" lon="35.37640400">
        <ele>231.00000</ele>
        <time>2010-01-01T00:53:52Z</time>
      </trkpt>
      <trkpt lat="32.52656700" lon="35.37649800">
        <ele>231.00000</ele>
        <time>2010-01-01T00:53:55Z</time>
      </trkpt>
      <trkpt lat="32.52653800" lon="35.37663600">
        <ele>231.00000</ele>
        <time>2010-01-01T00:54:00Z</time>
      </trkpt>
      <trkpt lat="32.52650700" lon="35.37675700">
        <ele>231.00000</ele>
        <time>2010-01-01T00:54:04Z</time>
      </trkpt>
      <trkpt lat="32.52645500" lon="35.37691600">
        <ele>231.00000</ele>
        <time>2010-01-01T00:54:10Z</time>
      </trkpt>
      <trkpt lat="32.52637900" lon="35.37707200">
        <ele>231.00000</ele>
        <time>2010-01-01T00:54:16Z</time>
      </trkpt>
      <trkpt lat="32.52633500" lon="35.37725100">
        <ele>230.00000</ele>
        <time>2010-01-01T00:54:22Z</time>
      </trkpt>
      <trkpt lat="32.52620700" lon="35.37742500">
        <ele>232.00000</ele>
        <time>2010-01-01T00:54:30Z</time>
      </trkpt>
      <trkpt lat="32.52612900" lon="35.37754000">
        <ele>232.00000</ele>
        <time>2010-01-01T00:54:35Z</time>
      </trkpt>
      <trkpt lat="32.52604900" lon="35.37762800">
        <ele>233.00000</ele>
        <time>2010-01-01T00:54:40Z</time>
      </trkpt>
      <trkpt lat="32.52595700" lon="35.37777400">
        <ele>233.00000</ele>
        <time>2010-01-01T00:54:46Z</time>
      </trkpt>
      <trkpt lat="32.52585000" lon="35.37790100">
        <ele>233.00000</ele>
        <time>2010-01-01T00:54:52Z</time>
      </trkpt>
      <trkpt lat="32.52572700" lon="35.37802500">
        <ele>233.00000</ele>
        <time>2010-01-01T00:54:58Z</time>
      </trkpt>
      <trkpt lat="32.52560700" lon="35.37812500">
        <ele>233.00000</ele>
        <time>2010-01-01T00:55:04Z</time>
      </trkpt>
      <trkpt lat="32.52551700" lon="35.37813800">
        <ele>234.00000</ele>
        <time>2010-01-01T00:55:08Z</time>
      </trkpt>
      <trkpt lat="32.52535000" lon="35.37829400">
        <ele>234.00000</ele>
        <time>2010-01-01T00:55:16Z</time>
      </trkpt>
      <trkpt lat="32.52519400" lon="35.37847100">
        <ele>234.00000</ele>
        <time>2010-01-01T00:55:25Z</time>
      </trkpt>
      <trkpt lat="32.52506800" lon="35.37861900">
        <ele>234.00000</ele>
        <time>2010-01-01T00:55:32Z</time>
      </trkpt>
      <trkpt lat="32.52488800" lon="35.37873900">
        <ele>234.00000</ele>
        <time>2010-01-01T00:55:40Z</time>
      </trkpt>
      <trkpt lat="32.52479300" lon="35.37879000">
        <ele>234.00000</ele>
        <time>2010-01-01T00:55:44Z</time>
      </trkpt>
      <trkpt lat="32.52461300" lon="35.37879500">
        <ele>236.00000</ele>
        <time>2010-01-01T00:55:52Z</time>
      </trkpt>
      <trkpt lat="32.52458100" lon="35.37879600">
        <ele>236.00000</ele>
        <time>2010-01-01T00:55:53Z</time>
      </trkpt>
      <trkpt lat="32.52436900" lon="35.37881500">
        <ele>238.00000</ele>
        <time>2010-01-01T00:56:01Z</time>
      </trkpt>
      <trkpt lat="32.52428100" lon="35.37879800">
        <ele>239.00000</ele>
        <time>2010-01-01T00:56:05Z</time>
      </trkpt>
      <trkpt lat="32.52416100" lon="35.37874100">
        <ele>241.00000</ele>
        <time>2010-01-01T00:56:10Z</time>
      </trkpt>
      <trkpt lat="32.52414200" lon="35.37874000">
        <ele>241.00000</ele>
        <time>2010-01-01T00:56:11Z</time>
      </trkpt>
      <trkpt lat="32.52406200" lon="35.37884800">
        <ele>242.00000</ele>
        <time>2010-01-01T00:56:16Z</time>
      </trkpt>
      <trkpt lat="32.52406000" lon="35.37897300">
        <ele>241.00000</ele>
        <time>2010-01-01T00:56:20Z</time>
      </trkpt>
      <trkpt lat="32.52418400" lon="35.37911300">
        <ele>239.00000</ele>
        <time>2010-01-01T00:56:27Z</time>
      </trkpt>
      <trkpt lat="32.52424400" lon="35.37923300">
        <ele>239.00000</ele>
        <time>2010-01-01T00:56:32Z</time>
      </trkpt>
      <trkpt lat="32.52427300" lon="35.37935600">
        <ele>239.00000</ele>
        <time>2010-01-01T00:56:36Z</time>
      </trkpt>
      <trkpt lat="32.52427800" lon="35.37940200">
        <ele>239.00000</ele>
        <time>2010-01-01T00:56:37Z</time>
      </trkpt>
      <trkpt lat="32.52431900" lon="35.37950400">
        <ele>240.00000</ele>
        <time>2010-01-01T00:56:41Z</time>
      </trkpt>
      <trkpt lat="32.52433600" lon="35.37969600">
        <ele>241.00000</ele>
        <time>2010-01-01T00:56:48Z</time>
      </trkpt>
      <trkpt lat="32.52435100" lon="35.37981800">
        <ele>241.00000</ele>
        <time>2010-01-01T00:56:52Z</time>
      </trkpt>
      <trkpt lat="32.52438200" lon="35.37998900">
        <ele>241.00000</ele>
        <time>2010-01-01T00:56:58Z</time>
      </trkpt>
      <trkpt lat="32.52445400" lon="35.38018900">
        <ele>239.00000</ele>
        <time>2010-01-01T00:57:05Z</time>
      </trkpt>
      <trkpt lat="32.52445300" lon="35.38036000">
        <ele>239.00000</ele>
        <time>2010-01-01T00:57:11Z</time>
      </trkpt>
      <trkpt lat="32.52440100" lon="35.38050500">
        <ele>241.00000</ele>
        <time>2010-01-01T00:57:16Z</time>
      </trkpt>
      <trkpt lat="32.52437400" lon="35.38062300">
        <ele>241.00000</ele>
        <time>2010-01-01T00:57:20Z</time>
      </trkpt>
      <trkpt lat="32.52436400" lon="35.38074200">
        <ele>242.00000</ele>
        <time>2010-01-01T00:57:24Z</time>
      </trkpt>
      <trkpt lat="32.52433200" lon="35.38088300">
        <ele>242.00000</ele>
        <time>2010-01-01T00:57:29Z</time>
      </trkpt>
      <trkpt lat="32.52426000" lon="35.38102700">
        <ele>243.00000</ele>
        <time>2010-01-01T00:57:35Z</time>
      </trkpt>
      <trkpt lat="32.52422900" lon="35.38118900">
        <ele>243.00000</ele>
        <time>2010-01-01T00:57:41Z</time>
      </trkpt>
      <trkpt lat="32.52416500" lon="35.38134900">
        <ele>244.00000</ele>
        <time>2010-01-01T00:57:47Z</time>
      </trkpt>
      <trkpt lat="32.52412700" lon="35.38154500">
        <ele>243.00000</ele>
        <time>2010-01-01T00:57:53Z</time>
      </trkpt>
      <trkpt lat="32.52409300" lon="35.38164300">
        <ele>243.00000</ele>
        <time>2010-01-01T00:57:57Z</time>
      </trkpt>
      <trkpt lat="32.52399700" lon="35.38177200">
        <ele>244.00000</ele>
        <time>2010-01-01T00:58:03Z</time>
      </trkpt>
      <trkpt lat="32.52389600" lon="35.38186700">
        <ele>245.00000</ele>
        <time>2010-01-01T00:58:08Z</time>
      </trkpt>
      <trkpt lat="32.52382600" lon="35.38193300">
        <ele>245.00000</ele>
        <time>2010-01-01T00:58:11Z</time>
      </trkpt>
      <trkpt lat="32.52380200" lon="35.38194500">
        <ele>246.00000</ele>
        <time>2010-01-01T00:58:13Z</time>
      </trkpt>
      <trkpt lat="32.52373500" lon="35.38204200">
        <ele>246.00000</ele>
        <time>2010-01-01T00:58:17Z</time>
      </trkpt>
      <trkpt lat="32.52367100" lon="35.38211600">
        <ele>246.00000</ele>
        <time>2010-01-01T00:58:20Z</time>
      </trkpt>
      <trkpt lat="32.52356500" lon="35.38219200">
        <ele>247.00000</ele>
        <time>2010-01-01T00:58:25Z</time>
      </trkpt>
      <trkpt lat="32.52347800" lon="35.38225100">
        <ele>247.00000</ele>
        <time>2010-01-01T00:58:29Z</time>
      </trkpt>
      <trkpt lat="32.52333600" lon="35.38233800">
        <ele>248.00000</ele>
        <time>2010-01-01T00:58:36Z</time>
      </trkpt>
      <trkpt lat="32.52331300" lon="35.38234900">
        <ele>248.00000</ele>
        <time>2010-01-01T00:58:37Z</time>
      </trkpt>
      <trkpt lat="32.52323500" lon="35.38243000">
        <ele>247.00000</ele>
        <time>2010-01-01T00:58:41Z</time>
      </trkpt>
      <trkpt lat="32.52309500" lon="35.38256600">
        <ele>246.00000</ele>
        <time>2010-01-01T00:58:48Z</time>
      </trkpt>
      <trkpt lat="32.52303600" lon="35.38259500">
        <ele>246.00000</ele>
        <time>2010-01-01T00:58:51Z</time>
      </trkpt>
      <trkpt lat="32.52290800" lon="35.38267000">
        <ele>246.00000</ele>
        <time>2010-01-01T00:58:56Z</time>
      </trkpt>
      <trkpt lat="32.52286200" lon="35.38265800">
        <ele>246.00000</ele>
        <time>2010-01-01T00:58:58Z</time>
      </trkpt>
      <trkpt lat="32.52274700" lon="35.38257300">
        <ele>248.00000</ele>
        <time>2010-01-01T00:59:04Z</time>
      </trkpt>
      <trkpt lat="32.52262900" lon="35.38249300">
        <ele>249.00000</ele>
        <time>2010-01-01T00:59:09Z</time>
      </trkpt>
      <trkpt lat="32.52246000" lon="35.38239200">
        <ele>253.00000</ele>
        <time>2010-01-01T00:59:17Z</time>
      </trkpt>
      <trkpt lat="32.52236200" lon="35.38231000">
        <ele>257.00000</ele>
        <time>2010-01-01T00:59:21Z</time>
      </trkpt>
      <trkpt lat="32.52229500" lon="35.38230100">
        <ele>258.00000</ele>
        <time>2010-01-01T00:59:24Z</time>
      </trkpt>
      <trkpt lat="32.52222600" lon="35.38232700">
        <ele>259.00000</ele>
        <time>2010-01-01T00:59:27Z</time>
      </trkpt>
      <trkpt lat="32.52223100" lon="35.38230300">
        <ele>259.00000</ele>
        <time>2010-01-01T00:59:28Z</time>
      </trkpt>
      <trkpt lat="32.52223500" lon="35.38230200">
        <ele>259.00000</ele>
        <time>2010-01-01T00:59:28Z</time>
      </trkpt>
      <trkpt lat="32.52223900" lon="35.38230200">
        <ele>259.00000</ele>
        <time>2010-01-01T00:59:28Z</time>
      </trkpt>
      <trkpt lat="32.52224100" lon="35.38230000">
        <ele>259.00000</ele>
        <time>2010-01-01T00:59:28Z</time>
      </trkpt>
      <trkpt lat="32.52221600" lon="35.38233400">
        <ele>259.00000</ele>
        <time>2010-01-01T00:59:30Z</time>
      </trkpt>
      <trkpt lat="32.52219500" lon="35.38234600">
        <ele>259.00000</ele>
        <time>2010-01-01T00:59:31Z</time>
      </trkpt>
      <trkpt lat="32.52219100" lon="35.38234300">
        <ele>259.00000</ele>
        <time>2010-01-01T00:59:31Z</time>
      </trkpt>
      <trkpt lat="32.52219300" lon="35.38232300">
        <ele>260.00000</ele>
        <time>2010-01-01T00:59:32Z</time>
      </trkpt>
      <trkpt lat="32.52224700" lon="35.38231200">
        <ele>259.00000</ele>
        <time>2010-01-01T00:59:34Z</time>
      </trkpt>
      <trkpt lat="32.52223700" lon="35.38237700">
        <ele>258.00000</ele>
        <time>2010-01-01T00:59:36Z</time>
      </trkpt>
      <trkpt lat="32.52221100" lon="35.38241900">
        <ele>257.00000</ele>
        <time>2010-01-01T00:59:38Z</time>
      </trkpt>
      <trkpt lat="32.52216900" lon="35.38256200">
        <ele>256.00000</ele>
        <time>2010-01-01T00:59:43Z</time>
      </trkpt>
      <trkpt lat="32.52214400" lon="35.38284000">
        <ele>256.00000</ele>
        <time>2010-01-01T00:59:52Z</time>
      </trkpt>
      <trkpt lat="32.52214800" lon="35.38289300">
        <ele>255.00000</ele>
        <time>2010-01-01T00:59:54Z</time>
      </trkpt>
      <trkpt lat="32.52220400" lon="35.38304700">
        <ele>253.00000</ele>
        <time>2010-01-01T01:00:00Z</time>
      </trkpt>
      <trkpt lat="32.52228600" lon="35.38320500">
        <ele>251.00000</ele>
        <time>2010-01-01T01:00:06Z</time>
      </trkpt>
      <trkpt lat="32.52230400" lon="35.38333900">
        <ele>250.00000</ele>
        <time>2010-01-01T01:00:11Z</time>
      </trkpt>
      <trkpt lat="32.52230200" lon="35.38345900">
        <ele>250.00000</ele>
        <time>2010-01-01T01:00:15Z</time>
      </trkpt>
      <trkpt lat="32.52229700" lon="35.38357100">
        <ele>249.00000</ele>
        <time>2010-01-01T01:00:19Z</time>
      </trkpt>
      <trkpt lat="32.52228100" lon="35.38367800">
        <ele>249.00000</ele>
        <time>2010-01-01T01:00:22Z</time>
      </trkpt>
      <trkpt lat="32.52225300" lon="35.38381600">
        <ele>249.00000</ele>
        <time>2010-01-01T01:00:27Z</time>
      </trkpt>
      <trkpt lat="32.52220100" lon="35.38402300">
        <ele>249.00000</ele>
        <time>2010-01-01T01:00:34Z</time>
      </trkpt>
      <trkpt lat="32.52209500" lon="35.38420000">
        <ele>249.00000</ele>
        <time>2010-01-01T01:00:42Z</time>
      </trkpt>
      <trkpt lat="32.52195900" lon="35.38431300">
        <ele>249.00000</ele>
        <time>2010-01-01T01:00:48Z</time>
      </trkpt>
      <trkpt lat="32.52177000" lon="35.38448200">
        <ele>248.00000</ele>
        <time>2010-01-01T01:00:58Z</time>
      </trkpt>
      <trkpt lat="32.52154500" lon="35.38464100">
        <ele>248.00000</ele>
        <time>2010-01-01T01:01:08Z</time>
      </trkpt>
      <trkpt lat="32.52148900" lon="35.38466800">
        <ele>248.00000</ele>
        <time>2010-01-01T01:01:11Z</time>
      </trkpt>
      <trkpt lat="32.52127300" lon="35.38468500">
        <ele>250.00000</ele>
        <time>2010-01-01T01:01:19Z</time>
      </trkpt>
      <trkpt lat="32.52116200" lon="35.38473800">
        <ele>250.00000</ele>
        <time>2010-01-01T01:01:24Z</time>
      </trkpt>
      <trkpt lat="32.52116000" lon="35.38485200">
        <ele>248.00000</ele>
        <time>2010-01-01T01:01:28Z</time>
      </trkpt>
      <trkpt lat="32.52119000" lon="35.38496500">
        <ele>246.00000</ele>
        <time>2010-01-01T01:01:32Z</time>
      </trkpt>
      <trkpt lat="32.52124400" lon="35.38508700">
        <ele>245.00000</ele>
        <time>2010-01-01T01:01:37Z</time>
      </trkpt>
      <trkpt lat="32.52125200" lon="35.38529900">
        <ele>246.00000</ele>
        <time>2010-01-01T01:01:44Z</time>
      </trkpt>
      <trkpt lat="32.52118200" lon="35.38541700">
        <ele>248.00000</ele>
        <time>2010-01-01T01:01:49Z</time>
      </trkpt>
      <trkpt lat="32.52119500" lon="35.38560800">
        <ele>248.00000</ele>
        <time>2010-01-01T01:01:55Z</time>
      </trkpt>
      <trkpt lat="32.52122800" lon="35.38566800">
        <ele>248.00000</ele>
        <time>2010-01-01T01:01:58Z</time>
      </trkpt>
      <trkpt lat="32.52132000" lon="35.38576300">
        <ele>246.00000</ele>
        <time>2010-01-01T01:02:02Z</time>
      </trkpt>
      <trkpt lat="32.52135100" lon="35.38578800">
        <ele>246.00000</ele>
        <time>2010-01-01T01:02:04Z</time>
      </trkpt>
      <trkpt lat="32.52141000" lon="35.38583200">
        <ele>245.00000</ele>
        <time>2010-01-01T01:02:07Z</time>
      </trkpt>
      <trkpt lat="32.52157800" lon="35.38595600">
        <ele>243.00000</ele>
        <time>2010-01-01T01:02:15Z</time>
      </trkpt>
      <trkpt lat="32.52168600" lon="35.38600400">
        <ele>243.00000</ele>
        <time>2010-01-01T01:02:19Z</time>
      </trkpt>
      <trkpt lat="32.52173900" lon="35.38603400">
        <ele>243.00000</ele>
        <time>2010-01-01T01:02:22Z</time>
      </trkpt>
      <trkpt lat="32.52172800" lon="35.38609600">
        <ele>245.00000</ele>
        <time>2010-01-01T01:02:24Z</time>
      </trkpt>
      <trkpt lat="32.52167500" lon="35.38615200">
        <ele>246.00000</ele>
        <time>2010-01-01T01:02:27Z</time>
      </trkpt>
      <trkpt lat="32.52159600" lon="35.38622600">
        <ele>249.00000</ele>
        <time>2010-01-01T01:02:31Z</time>
      </trkpt>
      <trkpt lat="32.52151100" lon="35.38630500">
        <ele>252.00000</ele>
        <time>2010-01-01T01:02:35Z</time>
      </trkpt>
      <trkpt lat="32.52156700" lon="35.38636000">
        <ele>252.00000</ele>
        <time>2010-01-01T01:02:38Z</time>
      </trkpt>
      <trkpt lat="32.52158300" lon="35.38637400">
        <ele>252.00000</ele>
        <time>2010-01-01T01:02:39Z</time>
      </trkpt>
      <trkpt lat="32.52163900" lon="35.38642500">
        <ele>253.00000</ele>
        <time>2010-01-01T01:02:41Z</time>
      </trkpt>
      <trkpt lat="32.52166300" lon="35.38644700">
        <ele>253.00000</ele>
        <time>2010-01-01T01:02:43Z</time>
      </trkpt>
      <trkpt lat="32.52174900" lon="35.38650200">
        <ele>254.00000</ele>
        <time>2010-01-01T01:02:47Z</time>
      </trkpt>
      <trkpt lat="32.52187900" lon="35.38649700">
        <ele>254.00000</ele>
        <time>2010-01-01T01:02:52Z</time>
      </trkpt>
      <trkpt lat="32.52200100" lon="35.38648500">
        <ele>254.00000</ele>
        <time>2010-01-01T01:02:57Z</time>
      </trkpt>
      <trkpt lat="32.52210500" lon="35.38640700">
        <ele>252.00000</ele>
        <time>2010-01-01T01:03:02Z</time>
      </trkpt>
      <trkpt lat="32.52225200" lon="35.38633600">
        <ele>251.00000</ele>
        <time>2010-01-01T01:03:08Z</time>
      </trkpt>
      <trkpt lat="32.52232700" lon="35.38629000">
        <ele>250.00000</ele>
        <time>2010-01-01T01:03:11Z</time>
      </trkpt>
      <trkpt lat="32.52243700" lon="35.38620100">
        <ele>247.00000</ele>
        <time>2010-01-01T01:03:17Z</time>
      </trkpt>
      <trkpt lat="32.52248700" lon="35.38622800">
        <ele>248.00000</ele>
        <time>2010-01-01T01:03:19Z</time>
      </trkpt>
      <trkpt lat="32.52246300" lon="35.38626800">
        <ele>249.00000</ele>
        <time>2010-01-01T01:03:21Z</time>
      </trkpt>
      <trkpt lat="32.52234500" lon="35.38636200">
        <ele>251.00000</ele>
        <time>2010-01-01T01:03:26Z</time>
      </trkpt>
      <trkpt lat="32.52227000" lon="35.38646200">
        <ele>254.00000</ele>
        <time>2010-01-01T01:03:31Z</time>
      </trkpt>
      <trkpt lat="32.52222300" lon="35.38654900">
        <ele>256.00000</ele>
        <time>2010-01-01T01:03:34Z</time>
      </trkpt>
      <trkpt lat="32.52218800" lon="35.38660000">
        <ele>257.00000</ele>
        <time>2010-01-01T01:03:36Z</time>
      </trkpt>
      <trkpt lat="32.52213400" lon="35.38667600">
        <ele>259.00000</ele>
        <time>2010-01-01T01:03:40Z</time>
      </trkpt>
      <trkpt lat="32.52212600" lon="35.38670100">
        <ele>259.00000</ele>
        <time>2010-01-01T01:03:41Z</time>
      </trkpt>
      <trkpt lat="32.52212000" lon="35.38672700">
        <ele>260.00000</ele>
        <time>2010-01-01T01:03:42Z</time>
      </trkpt>
      <trkpt lat="32.52214800" lon="35.38680300">
        <ele>262.00000</ele>
        <time>2010-01-01T01:03:44Z</time>
      </trkpt>
      <trkpt lat="32.52216900" lon="35.38682200">
        <ele>262.00000</ele>
        <time>2010-01-01T01:03:45Z</time>
      </trkpt>
      <trkpt lat="32.52227500" lon="35.38682900">
        <ele>262.00000</ele>
        <time>2010-01-01T01:03:50Z</time>
      </trkpt>
      <trkpt lat="32.52236000" lon="35.38683600">
        <ele>263.00000</ele>
        <time>2010-01-01T01:03:53Z</time>
      </trkpt>
      <trkpt lat="32.52245200" lon="35.38686400">
        <ele>263.00000</ele>
        <time>2010-01-01T01:03:57Z</time>
      </trkpt>
      <trkpt lat="32.52247600" lon="35.38689300">
        <ele>264.00000</ele>
        <time>2010-01-01T01:03:58Z</time>
      </trkpt>
      <trkpt lat="32.52246600" lon="35.38695500">
        <ele>265.00000</ele>
        <time>2010-01-01T01:04:00Z</time>
      </trkpt>
      <trkpt lat="32.52241200" lon="35.38699300">
        <ele>266.00000</ele>
        <time>2010-01-01T01:04:03Z</time>
      </trkpt>
      <trkpt lat="32.52235400" lon="35.38701600">
        <ele>267.00000</ele>
        <time>2010-01-01T01:04:05Z</time>
      </trkpt>
      <trkpt lat="32.52232700" lon="35.38704000">
        <ele>267.00000</ele>
        <time>2010-01-01T01:04:07Z</time>
      </trkpt>
      <trkpt lat="32.52234900" lon="35.38710300">
        <ele>269.00000</ele>
        <time>2010-01-01T01:04:09Z</time>
      </trkpt>
      <trkpt lat="32.52243900" lon="35.38714800">
        <ele>269.00000</ele>
        <time>2010-01-01T01:04:13Z</time>
      </trkpt>
      <trkpt lat="32.52253800" lon="35.38711300">
        <ele>268.00000</ele>
        <time>2010-01-01T01:04:17Z</time>
      </trkpt>
      <trkpt lat="32.52272200" lon="35.38705400">
        <ele>265.00000</ele>
        <time>2010-01-01T01:04:25Z</time>
      </trkpt>
      <trkpt lat="32.52287000" lon="35.38703800">
        <ele>263.00000</ele>
        <time>2010-01-01T01:04:31Z</time>
      </trkpt>
      <trkpt lat="32.52295200" lon="35.38711700">
        <ele>263.00000</ele>
        <time>2010-01-01T01:04:35Z</time>
      </trkpt>
      <trkpt lat="32.52299000" lon="35.38724000">
        <ele>266.00000</ele>
        <time>2010-01-01T01:04:39Z</time>
      </trkpt>
      <trkpt lat="32.52301600" lon="35.38727000">
        <ele>266.00000</ele>
        <time>2010-01-01T01:04:41Z</time>
      </trkpt>
      <trkpt lat="32.52309500" lon="35.38742500">
        <ele>269.00000</ele>
        <time>2010-01-01T01:04:47Z</time>
      </trkpt>
      <trkpt lat="32.52313900" lon="35.38758600">
        <ele>271.00000</ele>
        <time>2010-01-01T01:04:53Z</time>
      </trkpt>
      <trkpt lat="32.52316700" lon="35.38767600">
        <ele>271.00000</ele>
        <time>2010-01-01T01:04:56Z</time>
      </trkpt>
      <trkpt lat="32.52316200" lon="35.38769800">
        <ele>271.00000</ele>
        <time>2010-01-01T01:04:57Z</time>
      </trkpt>
      <trkpt lat="32.52316600" lon="35.38770500">
        <ele>271.00000</ele>
        <time>2010-01-01T01:04:57Z</time>
      </trkpt>
      <trkpt lat="32.52317000" lon="35.38771400">
        <ele>271.00000</ele>
        <time>2010-01-01T01:04:57Z</time>
      </trkpt>
      <trkpt lat="32.52317800" lon="35.38772200">
        <ele>271.00000</ele>
        <time>2010-01-01T01:04:58Z</time>
      </trkpt>
      <trkpt lat="32.52318400" lon="35.38772600">
        <ele>271.00000</ele>
        <time>2010-01-01T01:04:58Z</time>
      </trkpt>
      <trkpt lat="32.52318900" lon="35.38772900">
        <ele>271.00000</ele>
        <time>2010-01-01T01:04:58Z</time>
      </trkpt>
      <trkpt lat="32.52319300" lon="35.38773100">
        <ele>271.00000</ele>
        <time>2010-01-01T01:04:58Z</time>
      </trkpt>
      <trkpt lat="32.52319400" lon="35.38773200">
        <ele>271.00000</ele>
        <time>2010-01-01T01:04:58Z</time>
      </trkpt>
      <trkpt lat="32.52319000" lon="35.38776400">
        <ele>272.00000</ele>
        <time>2010-01-01T01:04:59Z</time>
      </trkpt>
      <trkpt lat="32.52318700" lon="35.38779200">
        <ele>272.00000</ele>
        <time>2010-01-01T01:05:00Z</time>
      </trkpt>
      <trkpt lat="32.52319500" lon="35.38780100">
        <ele>272.00000</ele>
        <time>2010-01-01T01:05:01Z</time>
      </trkpt>
      <trkpt lat="32.52319900" lon="35.38780300">
        <ele>272.00000</ele>
        <time>2010-01-01T01:05:01Z</time>
      </trkpt>
      <trkpt lat="32.52319900" lon="35.38778200">
        <ele>272.00000</ele>
        <time>2010-01-01T01:05:02Z</time>
      </trkpt>
      <trkpt lat="32.52314100" lon="35.38772100">
        <ele>272.00000</ele>
        <time>2010-01-01T01:05:05Z</time>
      </trkpt>
      <trkpt lat="32.52313100" lon="35.38770500">
        <ele>272.00000</ele>
        <time>2010-01-01T01:05:06Z</time>
      </trkpt>
      <trkpt lat="32.52313500" lon="35.38770500">
        <ele>272.00000</ele>
        <time>2010-01-01T01:05:06Z</time>
      </trkpt>
      <trkpt lat="32.52312400" lon="35.38769100">
        <ele>272.00000</ele>
        <time>2010-01-01T01:05:06Z</time>
      </trkpt>
      <trkpt lat="32.52309500" lon="35.38768900">
        <ele>272.00000</ele>
        <time>2010-01-01T01:05:07Z</time>
      </trkpt>
      <trkpt lat="32.52311000" lon="35.38769600">
        <ele>272.00000</ele>
        <time>2010-01-01T01:05:08Z</time>
      </trkpt>
      <trkpt lat="32.52311100" lon="35.38769800">
        <ele>272.00000</ele>
        <time>2010-01-01T01:05:08Z</time>
      </trkpt>
      <trkpt lat="32.52313100" lon="35.38769900">
        <ele>272.00000</ele>
        <time>2010-01-01T01:05:09Z</time>
      </trkpt>
      <trkpt lat="32.52311800" lon="35.38778300">
        <ele>273.00000</ele>
        <time>2010-01-01T01:05:12Z</time>
      </trkpt>
      <trkpt lat="32.52308800" lon="35.38783500">
        <ele>273.00000</ele>
        <time>2010-01-01T01:05:14Z</time>
      </trkpt>
      <trkpt lat="32.52308100" lon="35.38784500">
        <ele>273.00000</ele>
        <time>2010-01-01T01:05:14Z</time>
      </trkpt>
      <trkpt lat="32.52301400" lon="35.38786800">
        <ele>274.00000</ele>
        <time>2010-01-01T01:05:17Z</time>
      </trkpt>
      <trkpt lat="32.52294700" lon="35.38789700">
        <ele>275.00000</ele>
        <time>2010-01-01T01:05:20Z</time>
      </trkpt>
      <trkpt lat="32.52284300" lon="35.38793800">
        <ele>276.00000</ele>
        <time>2010-01-01T01:05:25Z</time>
      </trkpt>
      <trkpt lat="32.52276300" lon="35.38796200">
        <ele>277.00000</ele>
        <time>2010-01-01T01:05:28Z</time>
      </trkpt>
      <trkpt lat="32.52266700" lon="35.38799500">
        <ele>278.00000</ele>
        <time>2010-01-01T01:05:32Z</time>
      </trkpt>
      <trkpt lat="32.52255400" lon="35.38803800">
        <ele>280.00000</ele>
        <time>2010-01-01T01:05:37Z</time>
      </trkpt>
      <trkpt lat="32.52245200" lon="35.38804800">
        <ele>281.00000</ele>
        <time>2010-01-01T01:05:41Z</time>
      </trkpt>
      <trkpt lat="32.52244000" lon="35.38803600">
        <ele>281.00000</ele>
        <time>2010-01-01T01:05:41Z</time>
      </trkpt>
      <trkpt lat="32.52238000" lon="35.38797800">
        <ele>281.00000</ele>
        <time>2010-01-01T01:05:44Z</time>
      </trkpt>
      <trkpt lat="32.52235900" lon="35.38797000">
        <ele>281.00000</ele>
        <time>2010-01-01T01:05:45Z</time>
      </trkpt>
      <trkpt lat="32.52232400" lon="35.38795000">
        <ele>281.00000</ele>
        <time>2010-01-01T01:05:47Z</time>
      </trkpt>
      <trkpt lat="32.52227800" lon="35.38795300">
        <ele>282.00000</ele>
        <time>2010-01-01T01:05:49Z</time>
      </trkpt>
      <trkpt lat="32.52226000" lon="35.38795700">
        <ele>282.00000</ele>
        <time>2010-01-01T01:05:49Z</time>
      </trkpt>
      <trkpt lat="32.52220500" lon="35.38800900">
        <ele>283.00000</ele>
        <time>2010-01-01T01:05:52Z</time>
      </trkpt>
      <trkpt lat="32.52213500" lon="35.38803600">
        <ele>284.00000</ele>
        <time>2010-01-01T01:05:55Z</time>
      </trkpt>
      <trkpt lat="32.52209600" lon="35.38804400">
        <ele>284.00000</ele>
        <time>2010-01-01T01:05:57Z</time>
      </trkpt>
      <trkpt lat="32.52201800" lon="35.38803200">
        <ele>285.00000</ele>
        <time>2010-01-01T01:06:00Z</time>
      </trkpt>
      <trkpt lat="32.52195400" lon="35.38802100">
        <ele>285.00000</ele>
        <time>2010-01-01T01:06:02Z</time>
      </trkpt>
      <trkpt lat="32.52183500" lon="35.38809100">
        <ele>287.00000</ele>
        <time>2010-01-01T01:06:08Z</time>
      </trkpt>
      <trkpt lat="32.52176800" lon="35.38811000">
        <ele>288.00000</ele>
        <time>2010-01-01T01:06:11Z</time>
      </trkpt>
      <trkpt lat="32.52168500" lon="35.38817000">
        <ele>290.00000</ele>
        <time>2010-01-01T01:06:14Z</time>
      </trkpt>
      <trkpt lat="32.52164400" lon="35.38832700">
        <ele>293.00000</ele>
        <time>2010-01-01T01:06:20Z</time>
      </trkpt>
      <trkpt lat="32.52155700" lon="35.38843600">
        <ele>296.00000</ele>
        <time>2010-01-01T01:06:25Z</time>
      </trkpt>
      <trkpt lat="32.52147400" lon="35.38852700">
        <ele>298.00000</ele>
        <time>2010-01-01T01:06:30Z</time>
      </trkpt>
      <trkpt lat="32.52143700" lon="35.38870100">
        <ele>301.00000</ele>
        <time>2010-01-01T01:06:36Z</time>
      </trkpt>
      <trkpt lat="32.52141000" lon="35.38884200">
        <ele>303.00000</ele>
        <time>2010-01-01T01:06:41Z</time>
      </trkpt>
      <trkpt lat="32.52137400" lon="35.38899500">
        <ele>305.00000</ele>
        <time>2010-01-01T01:06:46Z</time>
      </trkpt>
      <trkpt lat="32.52136100" lon="35.38905900">
        <ele>306.00000</ele>
        <time>2010-01-01T01:06:48Z</time>
      </trkpt>
      <trkpt lat="32.52138000" lon="35.38913500">
        <ele>307.00000</ele>
        <time>2010-01-01T01:06:51Z</time>
      </trkpt>
      <trkpt lat="32.52142900" lon="35.38926800">
        <ele>307.00000</ele>
        <time>2010-01-01T01:06:56Z</time>
      </trkpt>
      <trkpt lat="32.52143400" lon="35.38927700">
        <ele>307.00000</ele>
        <time>2010-01-01T01:06:56Z</time>
      </trkpt>
      <trkpt lat="32.52152300" lon="35.38934100">
        <ele>307.00000</ele>
        <time>2010-01-01T01:07:00Z</time>
      </trkpt>
      <trkpt lat="32.52157100" lon="35.38942700">
        <ele>307.00000</ele>
        <time>2010-01-01T01:07:04Z</time>
      </trkpt>
      <trkpt lat="32.52164000" lon="35.38954100">
        <ele>307.00000</ele>
        <time>2010-01-01T01:07:08Z</time>
      </trkpt>
      <trkpt lat="32.52169900" lon="35.38958600">
        <ele>307.00000</ele>
        <time>2010-01-01T01:07:11Z</time>
      </trkpt>
      <trkpt lat="32.52178200" lon="35.38966500">
        <ele>306.00000</ele>
        <time>2010-01-01T01:07:15Z</time>
      </trkpt>
      <trkpt lat="32.52186800" lon="35.38970300">
        <ele>306.00000</ele>
        <time>2010-01-01T01:07:19Z</time>
      </trkpt>
      <trkpt lat="32.52195100" lon="35.38977500">
        <ele>305.00000</ele>
        <time>2010-01-01T01:07:23Z</time>
      </trkpt>
      <trkpt lat="32.52197300" lon="35.38991100">
        <ele>307.00000</ele>
        <time>2010-01-01T01:07:28Z</time>
      </trkpt>
      <trkpt lat="32.52198000" lon="35.38993200">
        <ele>307.00000</ele>
        <time>2010-01-01T01:07:29Z</time>
      </trkpt>
      <trkpt lat="32.52199500" lon="35.39007400">
        <ele>308.00000</ele>
        <time>2010-01-01T01:07:34Z</time>
      </trkpt>
      <trkpt lat="32.52201400" lon="35.39014300">
        <ele>308.00000</ele>
        <time>2010-01-01T01:07:36Z</time>
      </trkpt>
      <trkpt lat="32.52208500" lon="35.39030500">
        <ele>308.00000</ele>
        <time>2010-01-01T01:07:42Z</time>
      </trkpt>
      <trkpt lat="32.52210600" lon="35.39046600">
        <ele>308.00000</ele>
        <time>2010-01-01T01:07:48Z</time>
      </trkpt>
      <trkpt lat="32.52209500" lon="35.39057900">
        <ele>309.00000</ele>
        <time>2010-01-01T01:07:52Z</time>
      </trkpt>
      <trkpt lat="32.52203600" lon="35.39076100">
        <ele>311.00000</ele>
        <time>2010-01-01T01:07:58Z</time>
      </trkpt>
      <trkpt lat="32.52199400" lon="35.39093200">
        <ele>311.00000</ele>
        <time>2010-01-01T01:08:04Z</time>
      </trkpt>
      <trkpt lat="32.52195200" lon="35.39113000">
        <ele>310.00000</ele>
        <time>2010-01-01T01:08:11Z</time>
      </trkpt>
      <trkpt lat="32.52187300" lon="35.39143200">
        <ele>308.00000</ele>
        <time>2010-01-01T01:08:22Z</time>
      </trkpt>
      <trkpt lat="32.52185100" lon="35.39148800">
        <ele>308.00000</ele>
        <time>2010-01-01T01:08:24Z</time>
      </trkpt>
      <trkpt lat="32.52172200" lon="35.39164900">
        <ele>311.00000</ele>
        <time>2010-01-01T01:08:31Z</time>
      </trkpt>
      <trkpt lat="32.52157200" lon="35.39171100">
        <ele>313.00000</ele>
        <time>2010-01-01T01:08:38Z</time>
      </trkpt>
      <trkpt lat="32.52151700" lon="35.39171000">
        <ele>314.00000</ele>
        <time>2010-01-01T01:08:40Z</time>
      </trkpt>
      <trkpt lat="32.52136300" lon="35.39180600">
        <ele>316.00000</ele>
        <time>2010-01-01T01:08:47Z</time>
      </trkpt>
      <trkpt lat="32.52126700" lon="35.39185500">
        <ele>318.00000</ele>
        <time>2010-01-01T01:08:51Z</time>
      </trkpt>
      <trkpt lat="32.52113600" lon="35.39182500">
        <ele>321.00000</ele>
        <time>2010-01-01T01:08:56Z</time>
      </trkpt>
      <trkpt lat="32.52101500" lon="35.39183800">
        <ele>323.00000</ele>
        <time>2010-01-01T01:09:01Z</time>
      </trkpt>
      <trkpt lat="32.52092600" lon="35.39187900">
        <ele>324.00000</ele>
        <time>2010-01-01T01:09:05Z</time>
      </trkpt>
      <trkpt lat="32.52090900" lon="35.39189200">
        <ele>325.00000</ele>
        <time>2010-01-01T01:09:06Z</time>
      </trkpt>
      <trkpt lat="32.52089200" lon="35.39197500">
        <ele>325.00000</ele>
        <time>2010-01-01T01:09:09Z</time>
      </trkpt>
      <trkpt lat="32.52094100" lon="35.39210100">
        <ele>324.00000</ele>
        <time>2010-01-01T01:09:13Z</time>
      </trkpt>
      <trkpt lat="32.52096100" lon="35.39216800">
        <ele>324.00000</ele>
        <time>2010-01-01T01:09:16Z</time>
      </trkpt>
      <trkpt lat="32.52100100" lon="35.39230300">
        <ele>323.00000</ele>
        <time>2010-01-01T01:09:21Z</time>
      </trkpt>
      <trkpt lat="32.52102800" lon="35.39247400">
        <ele>322.00000</ele>
        <time>2010-01-01T01:09:26Z</time>
      </trkpt>
      <trkpt lat="32.52102600" lon="35.39254700">
        <ele>322.00000</ele>
        <time>2010-01-01T01:09:29Z</time>
      </trkpt>
      <trkpt lat="32.52106600" lon="35.39260000">
        <ele>321.00000</ele>
        <time>2010-01-01T01:09:31Z</time>
      </trkpt>
      <trkpt lat="32.52111700" lon="35.39265800">
        <ele>320.00000</ele>
        <time>2010-01-01T01:09:34Z</time>
      </trkpt>
      <trkpt lat="32.52116200" lon="35.39271100">
        <ele>319.00000</ele>
        <time>2010-01-01T01:09:37Z</time>
      </trkpt>
      <trkpt lat="32.52123000" lon="35.39283200">
        <ele>318.00000</ele>
        <time>2010-01-01T01:09:42Z</time>
      </trkpt>
      <trkpt lat="32.52130400" lon="35.39300400">
        <ele>317.00000</ele>
        <time>2010-01-01T01:09:48Z</time>
      </trkpt>
      <trkpt lat="32.52137100" lon="35.39322600">
        <ele>317.00000</ele>
        <time>2010-01-01T01:09:56Z</time>
      </trkpt>
      <trkpt lat="32.52138400" lon="35.39327400">
        <ele>317.00000</ele>
        <time>2010-01-01T01:09:58Z</time>
      </trkpt>
      <trkpt lat="32.52136000" lon="35.39343400">
        <ele>317.00000</ele>
        <time>2010-01-01T01:10:03Z</time>
      </trkpt>
      <trkpt lat="32.52135000" lon="35.39346800">
        <ele>316.00000</ele>
        <time>2010-01-01T01:10:04Z</time>
      </trkpt>
      <trkpt lat="32.52128200" lon="35.39367500">
        <ele>315.00000</ele>
        <time>2010-01-01T01:10:12Z</time>
      </trkpt>
      <trkpt lat="32.52122100" lon="35.39381100">
        <ele>315.00000</ele>
        <time>2010-01-01T01:10:17Z</time>
      </trkpt>
      <trkpt lat="32.52111900" lon="35.39387300">
        <ele>317.00000</ele>
        <time>2010-01-01T01:10:22Z</time>
      </trkpt>
      <trkpt lat="32.52107400" lon="35.39388400">
        <ele>317.00000</ele>
        <time>2010-01-01T01:10:24Z</time>
      </trkpt>
      <trkpt lat="32.52100400" lon="35.39380800">
        <ele>320.00000</ele>
        <time>2010-01-01T01:10:27Z</time>
      </trkpt>
      <trkpt lat="32.52095400" lon="35.39380400">
        <ele>321.00000</ele>
        <time>2010-01-01T01:10:29Z</time>
      </trkpt>
      <trkpt lat="32.52082200" lon="35.39385500">
        <ele>323.00000</ele>
        <time>2010-01-01T01:10:35Z</time>
      </trkpt>
      <trkpt lat="32.52074600" lon="35.39383200">
        <ele>323.00000</ele>
        <time>2010-01-01T01:10:38Z</time>
      </trkpt>
      <trkpt lat="32.52066700" lon="35.39379300">
        <ele>324.00000</ele>
        <time>2010-01-01T01:10:42Z</time>
      </trkpt>
      <trkpt lat="32.52059600" lon="35.39369600">
        <ele>326.00000</ele>
        <time>2010-01-01T01:10:46Z</time>
      </trkpt>
      <trkpt lat="32.52049100" lon="35.39358400">
        <ele>328.00000</ele>
        <time>2010-01-01T01:10:52Z</time>
      </trkpt>
      <trkpt lat="32.52038200" lon="35.39356000">
        <ele>329.00000</ele>
        <time>2010-01-01T01:10:56Z</time>
      </trkpt>
      <trkpt lat="32.52027800" lon="35.39350000">
        <ele>330.00000</ele>
        <time>2010-01-01T01:11:01Z</time>
      </trkpt>
      <trkpt lat="32.52018900" lon="35.39342900">
        <ele>332.00000</ele>
        <time>2010-01-01T01:11:05Z</time>
      </trkpt>
      <trkpt lat="32.52010500" lon="35.39337700">
        <ele>334.00000</ele>
        <time>2010-01-01T01:11:09Z</time>
      </trkpt>
      <trkpt lat="32.51997100" lon="35.39331900">
        <ele>336.00000</ele>
        <time>2010-01-01T01:11:14Z</time>
      </trkpt>
      <trkpt lat="32.51984200" lon="35.39327900">
        <ele>338.00000</ele>
        <time>2010-01-01T01:11:20Z</time>
      </trkpt>
      <trkpt lat="32.51972500" lon="35.39323200">
        <ele>340.00000</ele>
        <time>2010-01-01T01:11:25Z</time>
      </trkpt>
      <trkpt lat="32.51963500" lon="35.39320200">
        <ele>342.00000</ele>
        <time>2010-01-01T01:11:28Z</time>
      </trkpt>
      <trkpt lat="32.51953400" lon="35.39317200">
        <ele>344.00000</ele>
        <time>2010-01-01T01:11:33Z</time>
      </trkpt>
      <trkpt lat="32.51944100" lon="35.39316000">
        <ele>345.00000</ele>
        <time>2010-01-01T01:11:36Z</time>
      </trkpt>
      <trkpt lat="32.51935600" lon="35.39314800">
        <ele>347.00000</ele>
        <time>2010-01-01T01:11:40Z</time>
      </trkpt>
      <trkpt lat="32.51930000" lon="35.39316800">
        <ele>347.00000</ele>
        <time>2010-01-01T01:11:42Z</time>
      </trkpt>
      <trkpt lat="32.51917500" lon="35.39322900">
        <ele>347.00000</ele>
        <time>2010-01-01T01:11:47Z</time>
      </trkpt>
      <trkpt lat="32.51905500" lon="35.39332000">
        <ele>348.00000</ele>
        <time>2010-01-01T01:11:53Z</time>
      </trkpt>
      <trkpt lat="32.51895500" lon="35.39338000">
        <ele>348.00000</ele>
        <time>2010-01-01T01:11:58Z</time>
      </trkpt>
      <trkpt lat="32.51891500" lon="35.39341500">
        <ele>348.00000</ele>
        <time>2010-01-01T01:12:00Z</time>
      </trkpt>
      <trkpt lat="32.51876800" lon="35.39352100">
        <ele>348.00000</ele>
        <time>2010-01-01T01:12:07Z</time>
      </trkpt>
      <trkpt lat="32.51870100" lon="35.39358000">
        <ele>348.00000</ele>
        <time>2010-01-01T01:12:10Z</time>
      </trkpt>
      <trkpt lat="32.51859200" lon="35.39366500">
        <ele>348.00000</ele>
        <time>2010-01-01T01:12:15Z</time>
      </trkpt>
      <trkpt lat="32.51853800" lon="35.39370300">
        <ele>348.00000</ele>
        <time>2010-01-01T01:12:18Z</time>
      </trkpt>
      <trkpt lat="32.51849800" lon="35.39370400">
        <ele>349.00000</ele>
        <time>2010-01-01T01:12:19Z</time>
      </trkpt>
      <trkpt lat="32.51840200" lon="35.39375900">
        <ele>349.00000</ele>
        <time>2010-01-01T01:12:24Z</time>
      </trkpt>
      <trkpt lat="32.51830000" lon="35.39378900">
        <ele>351.00000</ele>
        <time>2010-01-01T01:12:28Z</time>
      </trkpt>
      <trkpt lat="32.51819300" lon="35.39382100">
        <ele>352.00000</ele>
        <time>2010-01-01T01:12:32Z</time>
      </trkpt>
      <trkpt lat="32.51804700" lon="35.39390800">
        <ele>352.00000</ele>
        <time>2010-01-01T01:12:39Z</time>
      </trkpt>
      <trkpt lat="32.51788800" lon="35.39399800">
        <ele>353.00000</ele>
        <time>2010-01-01T01:12:46Z</time>
      </trkpt>
      <trkpt lat="32.51776800" lon="35.39407300">
        <ele>353.00000</ele>
        <time>2010-01-01T01:12:51Z</time>
      </trkpt>
      <trkpt lat="32.51773100" lon="35.39411200">
        <ele>353.00000</ele>
        <time>2010-01-01T01:12:53Z</time>
      </trkpt>
      <trkpt lat="32.51759500" lon="35.39415900">
        <ele>354.00000</ele>
        <time>2010-01-01T01:12:59Z</time>
      </trkpt>
      <trkpt lat="32.51746600" lon="35.39423900">
        <ele>355.00000</ele>
        <time>2010-01-01T01:13:05Z</time>
      </trkpt>
      <trkpt lat="32.51735100" lon="35.39431600">
        <ele>357.00000</ele>
        <time>2010-01-01T01:13:10Z</time>
      </trkpt>
      <trkpt lat="32.51723300" lon="35.39441200">
        <ele>358.00000</ele>
        <time>2010-01-01T01:13:16Z</time>
      </trkpt>
      <trkpt lat="32.51711500" lon="35.39452000">
        <ele>359.00000</ele>
        <time>2010-01-01T01:13:22Z</time>
      </trkpt>
      <trkpt lat="32.51703000" lon="35.39464600">
        <ele>360.00000</ele>
        <time>2010-01-01T01:13:27Z</time>
      </trkpt>
      <trkpt lat="32.51695900" lon="35.39481100">
        <ele>359.00000</ele>
        <time>2010-01-01T01:13:33Z</time>
      </trkpt>
      <trkpt lat="32.51693500" lon="35.39490400">
        <ele>359.00000</ele>
        <time>2010-01-01T01:13:37Z</time>
      </trkpt>
      <trkpt lat="32.51687600" lon="35.39507100">
        <ele>359.00000</ele>
        <time>2010-01-01T01:13:43Z</time>
      </trkpt>
      <trkpt lat="32.51682100" lon="35.39522800">
        <ele>359.00000</ele>
        <time>2010-01-01T01:13:48Z</time>
      </trkpt>
      <trkpt lat="32.51678300" lon="35.39536700">
        <ele>359.00000</ele>
        <time>2010-01-01T01:13:53Z</time>
      </trkpt>
      <trkpt lat="32.51672900" lon="35.39549300">
        <ele>360.00000</ele>
        <time>2010-01-01T01:13:58Z</time>
      </trkpt>
      <trkpt lat="32.51670100" lon="35.39556700">
        <ele>360.00000</ele>
        <time>2010-01-01T01:14:01Z</time>
      </trkpt>
      <trkpt lat="32.51669100" lon="35.39571700">
        <ele>359.00000</ele>
        <time>2010-01-01T01:14:06Z</time>
      </trkpt>
      <trkpt lat="32.51671000" lon="35.39588700">
        <ele>357.00000</ele>
        <time>2010-01-01T01:14:12Z</time>
      </trkpt>
      <trkpt lat="32.51669300" lon="35.39602700">
        <ele>356.00000</ele>
        <time>2010-01-01T01:14:17Z</time>
      </trkpt>
      <trkpt lat="32.51663400" lon="35.39622700">
        <ele>356.00000</ele>
        <time>2010-01-01T01:14:24Z</time>
      </trkpt>
      <trkpt lat="32.51659400" lon="35.39634700">
        <ele>357.00000</ele>
        <time>2010-01-01T01:14:28Z</time>
      </trkpt>
      <trkpt lat="32.51657300" lon="35.39637800">
        <ele>357.00000</ele>
        <time>2010-01-01T01:14:29Z</time>
      </trkpt>
      <trkpt lat="32.51654800" lon="35.39649300">
        <ele>357.00000</ele>
        <time>2010-01-01T01:14:33Z</time>
      </trkpt>
      <trkpt lat="32.51650100" lon="35.39663200">
        <ele>358.00000</ele>
        <time>2010-01-01T01:14:38Z</time>
      </trkpt>
      <trkpt lat="32.51644500" lon="35.39673400">
        <ele>359.00000</ele>
        <time>2010-01-01T01:14:43Z</time>
      </trkpt>
      <trkpt lat="32.51634500" lon="35.39688100">
        <ele>361.00000</ele>
        <time>2010-01-01T01:14:49Z</time>
      </trkpt>
      <trkpt lat="32.51628500" lon="35.39702800">
        <ele>361.00000</ele>
        <time>2010-01-01T01:14:54Z</time>
      </trkpt>
      <trkpt lat="32.51625400" lon="35.39709300">
        <ele>361.00000</ele>
        <time>2010-01-01T01:14:57Z</time>
      </trkpt>
      <trkpt lat="32.51615700" lon="35.39717400">
        <ele>363.00000</ele>
        <time>2010-01-01T01:15:02Z</time>
      </trkpt>
      <trkpt lat="32.51610600" lon="35.39723400">
        <ele>364.00000</ele>
        <time>2010-01-01T01:15:05Z</time>
      </trkpt>
      <trkpt lat="32.51599600" lon="35.39738300">
        <ele>366.00000</ele>
        <time>2010-01-01T01:15:11Z</time>
      </trkpt>
      <trkpt lat="32.51590700" lon="35.39750700">
        <ele>367.00000</ele>
        <time>2010-01-01T01:15:17Z</time>
      </trkpt>
      <trkpt lat="32.51588500" lon="35.39753400">
        <ele>367.00000</ele>
        <time>2010-01-01T01:15:18Z</time>
      </trkpt>
      <trkpt lat="32.51584100" lon="35.39760600">
        <ele>368.00000</ele>
        <time>2010-01-01T01:15:21Z</time>
      </trkpt>
      <trkpt lat="32.51578100" lon="35.39769100">
        <ele>369.00000</ele>
        <time>2010-01-01T01:15:25Z</time>
      </trkpt>
      <trkpt lat="32.51571900" lon="35.39780100">
        <ele>371.00000</ele>
        <time>2010-01-01T01:15:29Z</time>
      </trkpt>
      <trkpt lat="32.51571600" lon="35.39781900">
        <ele>371.00000</ele>
        <time>2010-01-01T01:15:30Z</time>
      </trkpt>
      <trkpt lat="32.51566700" lon="35.39803400">
        <ele>371.00000</ele>
        <time>2010-01-01T01:15:37Z</time>
      </trkpt>
      <trkpt lat="32.51561900" lon="35.39818700">
        <ele>372.00000</ele>
        <time>2010-01-01T01:15:43Z</time>
      </trkpt>
      <trkpt lat="32.51560900" lon="35.39823400">
        <ele>372.00000</ele>
        <time>2010-01-01T01:15:45Z</time>
      </trkpt>
      <trkpt lat="32.51558200" lon="35.39841900">
        <ele>372.00000</ele>
        <time>2010-01-01T01:15:51Z</time>
      </trkpt>
      <trkpt lat="32.51560500" lon="35.39856700">
        <ele>371.00000</ele>
        <time>2010-01-01T01:15:56Z</time>
      </trkpt>
      <trkpt lat="32.51559900" lon="35.39870200">
        <ele>371.00000</ele>
        <time>2010-01-01T01:16:01Z</time>
      </trkpt>
      <trkpt lat="32.51555400" lon="35.39884200">
        <ele>373.00000</ele>
        <time>2010-01-01T01:16:06Z</time>
      </trkpt>
      <trkpt lat="32.51555100" lon="35.39897200">
        <ele>373.00000</ele>
        <time>2010-01-01T01:16:10Z</time>
      </trkpt>
      <trkpt lat="32.51556000" lon="35.39912100">
        <ele>373.00000</ele>
        <time>2010-01-01T01:16:15Z</time>
      </trkpt>
      <trkpt lat="32.51557700" lon="35.39923000">
        <ele>372.00000</ele>
        <time>2010-01-01T01:16:19Z</time>
      </trkpt>
      <trkpt lat="32.51558500" lon="35.39937400">
        <ele>372.00000</ele>
        <time>2010-01-01T01:16:24Z</time>
      </trkpt>
      <trkpt lat="32.51559700" lon="35.39948400">
        <ele>372.00000</ele>
        <time>2010-01-01T01:16:27Z</time>
      </trkpt>
      <trkpt lat="32.51560400" lon="35.39963600">
        <ele>372.00000</ele>
        <time>2010-01-01T01:16:32Z</time>
      </trkpt>
      <trkpt lat="32.51561900" lon="35.39975000">
        <ele>372.00000</ele>
        <time>2010-01-01T01:16:36Z</time>
      </trkpt>
      <trkpt lat="32.51564500" lon="35.39984400">
        <ele>371.00000</ele>
        <time>2010-01-01T01:16:40Z</time>
      </trkpt>
      <trkpt lat="32.51563600" lon="35.39997300">
        <ele>372.00000</ele>
        <time>2010-01-01T01:16:44Z</time>
      </trkpt>
      <trkpt lat="32.51568000" lon="35.40010000">
        <ele>371.00000</ele>
        <time>2010-01-01T01:16:49Z</time>
      </trkpt>
      <trkpt lat="32.51572000" lon="35.40023600">
        <ele>370.00000</ele>
        <time>2010-01-01T01:16:54Z</time>
      </trkpt>
      <trkpt lat="32.51572600" lon="35.40027200">
        <ele>370.00000</ele>
        <time>2010-01-01T01:16:55Z</time>
      </trkpt>
      <trkpt lat="32.51570900" lon="35.40033700">
        <ele>371.00000</ele>
        <time>2010-01-01T01:16:57Z</time>
      </trkpt>
      <trkpt lat="32.51571100" lon="35.40035600">
        <ele>371.00000</ele>
        <time>2010-01-01T01:16:58Z</time>
      </trkpt>
      <trkpt lat="32.51570500" lon="35.40037400">
        <ele>372.00000</ele>
        <time>2010-01-01T01:16:58Z</time>
      </trkpt>
      <trkpt lat="32.51570500" lon="35.40038500">
        <ele>372.00000</ele>
        <time>2010-01-01T01:16:59Z</time>
      </trkpt>
      <trkpt lat="32.51570100" lon="35.40040100">
        <ele>372.00000</ele>
        <time>2010-01-01T01:16:59Z</time>
      </trkpt>
      <trkpt lat="32.51569700" lon="35.40041200">
        <ele>372.00000</ele>
        <time>2010-01-01T01:17:00Z</time>
      </trkpt>
      <trkpt lat="32.51569300" lon="35.40042400">
        <ele>372.00000</ele>
        <time>2010-01-01T01:17:00Z</time>
      </trkpt>
      <trkpt lat="32.51570100" lon="35.40040400">
        <ele>372.00000</ele>
        <time>2010-01-01T01:17:01Z</time>
      </trkpt>
      <trkpt lat="32.51569900" lon="35.40041100">
        <ele>372.00000</ele>
        <time>2010-01-01T01:17:01Z</time>
      </trkpt>
      <trkpt lat="32.51570900" lon="35.40037700">
        <ele>372.00000</ele>
        <time>2010-01-01T01:17:02Z</time>
      </trkpt>
      <trkpt lat="32.51573200" lon="35.40041200">
        <ele>371.00000</ele>
        <time>2010-01-01T01:17:04Z</time>
      </trkpt>
      <trkpt lat="32.51572400" lon="35.40042700">
        <ele>371.00000</ele>
        <time>2010-01-01T01:17:05Z</time>
      </trkpt>
      <trkpt lat="32.51571500" lon="35.40050500">
        <ele>372.00000</ele>
        <time>2010-01-01T01:17:07Z</time>
      </trkpt>
      <trkpt lat="32.51571600" lon="35.40054100">
        <ele>372.00000</ele>
        <time>2010-01-01T01:17:08Z</time>
      </trkpt>
      <trkpt lat="32.51570600" lon="35.40071700">
        <ele>374.00000</ele>
        <time>2010-01-01T01:17:14Z</time>
      </trkpt>
      <trkpt lat="32.51569300" lon="35.40082600">
        <ele>375.00000</ele>
        <time>2010-01-01T01:17:18Z</time>
      </trkpt>
      <trkpt lat="32.51567700" lon="35.40086900">
        <ele>375.00000</ele>
        <time>2010-01-01T01:17:20Z</time>
      </trkpt>
      <trkpt lat="32.51565900" lon="35.40090100">
        <ele>376.00000</ele>
        <time>2010-01-01T01:17:21Z</time>
      </trkpt>
      <trkpt lat="32.51563600" lon="35.40094200">
        <ele>377.00000</ele>
        <time>2010-01-01T01:17:23Z</time>
      </trkpt>
      <trkpt lat="32.51559800" lon="35.40102200">
        <ele>377.00000</ele>
        <time>2010-01-01T01:17:26Z</time>
      </trkpt>
      <trkpt lat="32.51556500" lon="35.40116200">
        <ele>378.00000</ele>
        <time>2010-01-01T01:17:31Z</time>
      </trkpt>
      <trkpt lat="32.51555600" lon="35.40118200">
        <ele>378.00000</ele>
        <time>2010-01-01T01:17:31Z</time>
      </trkpt>
      <trkpt lat="32.51552800" lon="35.40131300">
        <ele>378.00000</ele>
        <time>2010-01-01T01:17:36Z</time>
      </trkpt>
      <trkpt lat="32.51544100" lon="35.40150600">
        <ele>380.00000</ele>
        <time>2010-01-01T01:17:43Z</time>
      </trkpt>
      <trkpt lat="32.51535500" lon="35.40165300">
        <ele>383.00000</ele>
        <time>2010-01-01T01:17:49Z</time>
      </trkpt>
      <trkpt lat="32.51530600" lon="35.40172200">
        <ele>384.00000</ele>
        <time>2010-01-01T01:17:52Z</time>
      </trkpt>
      <trkpt lat="32.51524300" lon="35.40181300">
        <ele>385.00000</ele>
        <time>2010-01-01T01:17:56Z</time>
      </trkpt>
      <trkpt lat="32.51518300" lon="35.40189400">
        <ele>386.00000</ele>
        <time>2010-01-01T01:18:00Z</time>
      </trkpt>
      <trkpt lat="32.51515300" lon="35.40193900">
        <ele>387.00000</ele>
        <time>2010-01-01T01:18:02Z</time>
      </trkpt>
      <trkpt lat="32.51510100" lon="35.40205400">
        <ele>387.00000</ele>
        <time>2010-01-01T01:18:06Z</time>
      </trkpt>
      <trkpt lat="32.51504400" lon="35.40213400">
        <ele>389.00000</ele>
        <time>2010-01-01T01:18:10Z</time>
      </trkpt>
      <trkpt lat="32.51498500" lon="35.40222300">
        <ele>390.00000</ele>
        <time>2010-01-01T01:18:14Z</time>
      </trkpt>
      <trkpt lat="32.51492300" lon="35.40234100">
        <ele>391.00000</ele>
        <time>2010-01-01T01:18:18Z</time>
      </trkpt>
      <trkpt lat="32.51486200" lon="35.40246100">
        <ele>392.00000</ele>
        <time>2010-01-01T01:18:23Z</time>
      </trkpt>
      <trkpt lat="32.51482800" lon="35.40259000">
        <ele>393.00000</ele>
        <time>2010-01-01T01:18:28Z</time>
      </trkpt>
      <trkpt lat="32.51479800" lon="35.40269200">
        <ele>393.00000</ele>
        <time>2010-01-01T01:18:31Z</time>
      </trkpt>
      <trkpt lat="32.51473400" lon="35.40281400">
        <ele>394.00000</ele>
        <time>2010-01-01T01:18:36Z</time>
      </trkpt>
      <trkpt lat="32.51467800" lon="35.40290600">
        <ele>395.00000</ele>
        <time>2010-01-01T01:18:40Z</time>
      </trkpt>
      <trkpt lat="32.51462300" lon="35.40301600">
        <ele>396.00000</ele>
        <time>2010-01-01T01:18:44Z</time>
      </trkpt>
      <trkpt lat="32.51456000" lon="35.40319900">
        <ele>397.00000</ele>
        <time>2010-01-01T01:18:51Z</time>
      </trkpt>
      <trkpt lat="32.51453600" lon="35.40330200">
        <ele>396.00000</ele>
        <time>2010-01-01T01:18:55Z</time>
      </trkpt>
      <trkpt lat="32.51450200" lon="35.40344500">
        <ele>396.00000</ele>
        <time>2010-01-01T01:19:00Z</time>
      </trkpt>
      <trkpt lat="32.51443800" lon="35.40361500">
        <ele>397.00000</ele>
        <time>2010-01-01T01:19:06Z</time>
      </trkpt>
      <trkpt lat="32.51437000" lon="35.40381200">
        <ele>398.00000</ele>
        <time>2010-01-01T01:19:13Z</time>
      </trkpt>
      <trkpt lat="32.51434700" lon="35.40392900">
        <ele>399.00000</ele>
        <time>2010-01-01T01:19:17Z</time>
      </trkpt>
      <trkpt lat="32.51431600" lon="35.40408100">
        <ele>399.00000</ele>
        <time>2010-01-01T01:19:22Z</time>
      </trkpt>
      <trkpt lat="32.51425500" lon="35.40424600">
        <ele>399.00000</ele>
        <time>2010-01-01T01:19:29Z</time>
      </trkpt>
      <trkpt lat="32.51418900" lon="35.40442600">
        <ele>399.00000</ele>
        <time>2010-01-01T01:19:35Z</time>
      </trkpt>
      <trkpt lat="32.51416600" lon="35.40451600">
        <ele>399.00000</ele>
        <time>2010-01-01T01:19:38Z</time>
      </trkpt>
      <trkpt lat="32.51412700" lon="35.40460900">
        <ele>399.00000</ele>
        <time>2010-01-01T01:19:42Z</time>
      </trkpt>
      <trkpt lat="32.51409100" lon="35.40475000">
        <ele>398.00000</ele>
        <time>2010-01-01T01:19:47Z</time>
      </trkpt>
      <trkpt lat="32.51401700" lon="35.40495100">
        <ele>399.00000</ele>
        <time>2010-01-01T01:19:54Z</time>
      </trkpt>
      <trkpt lat="32.51396600" lon="35.40517300">
        <ele>399.00000</ele>
        <time>2010-01-01T01:20:02Z</time>
      </trkpt>
      <trkpt lat="32.51393100" lon="35.40529600">
        <ele>400.00000</ele>
        <time>2010-01-01T01:20:06Z</time>
      </trkpt>
      <trkpt lat="32.51391100" lon="35.40543100">
        <ele>399.00000</ele>
        <time>2010-01-01T01:20:11Z</time>
      </trkpt>
      <trkpt lat="32.51388400" lon="35.40559600">
        <ele>399.00000</ele>
        <time>2010-01-01T01:20:17Z</time>
      </trkpt>
      <trkpt lat="32.51384000" lon="35.40572100">
        <ele>400.00000</ele>
        <time>2010-01-01T01:20:21Z</time>
      </trkpt>
      <trkpt lat="32.51378800" lon="35.40589800">
        <ele>400.00000</ele>
        <time>2010-01-01T01:20:28Z</time>
      </trkpt>
      <trkpt lat="32.51376400" lon="35.40593800">
        <ele>401.00000</ele>
        <time>2010-01-01T01:20:29Z</time>
      </trkpt>
      <trkpt lat="32.51371800" lon="35.40607300">
        <ele>401.00000</ele>
        <time>2010-01-01T01:20:34Z</time>
      </trkpt>
      <trkpt lat="32.51367200" lon="35.40624000">
        <ele>401.00000</ele>
        <time>2010-01-01T01:20:40Z</time>
      </trkpt>
      <trkpt lat="32.51365900" lon="35.40629800">
        <ele>401.00000</ele>
        <time>2010-01-01T01:20:42Z</time>
      </trkpt>
      <trkpt lat="32.51362000" lon="35.40638500">
        <ele>402.00000</ele>
        <time>2010-01-01T01:20:45Z</time>
      </trkpt>
      <trkpt lat="32.51363800" lon="35.40657000">
        <ele>400.00000</ele>
        <time>2010-01-01T01:20:52Z</time>
      </trkpt>
      <trkpt lat="32.51368900" lon="35.40668800">
        <ele>398.00000</ele>
        <time>2010-01-01T01:20:56Z</time>
      </trkpt>
      <trkpt lat="32.51377200" lon="35.40694700">
        <ele>395.00000</ele>
        <time>2010-01-01T01:21:06Z</time>
      </trkpt>
      <trkpt lat="32.51381100" lon="35.40708400">
        <ele>394.00000</ele>
        <time>2010-01-01T01:21:10Z</time>
      </trkpt>
      <trkpt lat="32.51385800" lon="35.40727800">
        <ele>392.00000</ele>
        <time>2010-01-01T01:21:17Z</time>
      </trkpt>
      <trkpt lat="32.51387800" lon="35.40739600">
        <ele>391.00000</ele>
        <time>2010-01-01T01:21:21Z</time>
      </trkpt>
      <trkpt lat="32.51383400" lon="35.40750600">
        <ele>393.00000</ele>
        <time>2010-01-01T01:21:25Z</time>
      </trkpt>
      <trkpt lat="32.51380900" lon="35.40754900">
        <ele>394.00000</ele>
        <time>2010-01-01T01:21:27Z</time>
      </trkpt>
      <trkpt lat="32.51380500" lon="35.40757800">
        <ele>394.00000</ele>
        <time>2010-01-01T01:21:28Z</time>
      </trkpt>
      <trkpt lat="32.51379300" lon="35.40768700">
        <ele>395.00000</ele>
        <time>2010-01-01T01:21:32Z</time>
      </trkpt>
      <trkpt lat="32.51379100" lon="35.40774200">
        <ele>395.00000</ele>
        <time>2010-01-01T01:21:34Z</time>
      </trkpt>
      <trkpt lat="32.51373500" lon="35.40787500">
        <ele>397.00000</ele>
        <time>2010-01-01T01:21:39Z</time>
      </trkpt>
      <trkpt lat="32.51369900" lon="35.40804200">
        <ele>399.00000</ele>
        <time>2010-01-01T01:21:45Z</time>
      </trkpt>
      <trkpt lat="32.51365900" lon="35.40817300">
        <ele>401.00000</ele>
        <time>2010-01-01T01:21:49Z</time>
      </trkpt>
      <trkpt lat="32.51361800" lon="35.40829200">
        <ele>402.00000</ele>
        <time>2010-01-01T01:21:54Z</time>
      </trkpt>
      <trkpt lat="32.51357700" lon="35.40843200">
        <ele>403.00000</ele>
        <time>2010-01-01T01:21:59Z</time>
      </trkpt>
      <trkpt lat="32.51352300" lon="35.40856000">
        <ele>403.00000</ele>
        <time>2010-01-01T01:22:03Z</time>
      </trkpt>
      <trkpt lat="32.51344500" lon="35.40870500">
        <ele>403.00000</ele>
        <time>2010-01-01T01:22:09Z</time>
      </trkpt>
      <trkpt lat="32.51340400" lon="35.40879400">
        <ele>404.00000</ele>
        <time>2010-01-01T01:22:13Z</time>
      </trkpt>
      <trkpt lat="32.51334000" lon="35.40887100">
        <ele>404.00000</ele>
        <time>2010-01-01T01:22:16Z</time>
      </trkpt>
      <trkpt lat="32.51326400" lon="35.40895400">
        <ele>406.00000</ele>
        <time>2010-01-01T01:22:20Z</time>
      </trkpt>
      <trkpt lat="32.51325200" lon="35.40896600">
        <ele>406.00000</ele>
        <time>2010-01-01T01:22:21Z</time>
      </trkpt>
      <trkpt lat="32.51323800" lon="35.40896100">
        <ele>406.00000</ele>
        <time>2010-01-01T01:22:22Z</time>
      </trkpt>
      <trkpt lat="32.51326600" lon="35.40891700">
        <ele>406.00000</ele>
        <time>2010-01-01T01:22:24Z</time>
      </trkpt>
      <trkpt lat="32.51332000" lon="35.40879400">
        <ele>406.00000</ele>
        <time>2010-01-01T01:22:28Z</time>
      </trkpt>
      <trkpt lat="32.51336000" lon="35.40869300">
        <ele>406.00000</ele>
        <time>2010-01-01T01:22:32Z</time>
      </trkpt>
      <trkpt lat="32.51338700" lon="35.40863000">
        <ele>406.00000</ele>
        <time>2010-01-01T01:22:34Z</time>
      </trkpt>
      <trkpt lat="32.51340100" lon="35.40854700">
        <ele>406.00000</ele>
        <time>2010-01-01T01:22:37Z</time>
      </trkpt>
      <trkpt lat="32.51337700" lon="35.40855700">
        <ele>407.00000</ele>
        <time>2010-01-01T01:22:38Z</time>
      </trkpt>
      <trkpt lat="32.51332100" lon="35.40864900">
        <ele>408.00000</ele>
        <time>2010-01-01T01:22:42Z</time>
      </trkpt>
      <trkpt lat="32.51329900" lon="35.40867800">
        <ele>408.00000</ele>
        <time>2010-01-01T01:22:43Z</time>
      </trkpt>
      <trkpt lat="32.51323100" lon="35.40876100">
        <ele>409.00000</ele>
        <time>2010-01-01T01:22:47Z</time>
      </trkpt>
      <trkpt lat="32.51322100" lon="35.40876900">
        <ele>409.00000</ele>
        <time>2010-01-01T01:22:48Z</time>
      </trkpt>
      <trkpt lat="32.51318400" lon="35.40875700">
        <ele>411.00000</ele>
        <time>2010-01-01T01:22:49Z</time>
      </trkpt>
      <trkpt lat="32.51317700" lon="35.40873500">
        <ele>411.00000</ele>
        <time>2010-01-01T01:22:50Z</time>
      </trkpt>
      <trkpt lat="32.51318200" lon="35.40872400">
        <ele>411.00000</ele>
        <time>2010-01-01T01:22:51Z</time>
      </trkpt>
      <trkpt lat="32.51319800" lon="35.40864800">
        <ele>412.00000</ele>
        <time>2010-01-01T01:22:53Z</time>
      </trkpt>
      <trkpt lat="32.51321100" lon="35.40864700">
        <ele>411.00000</ele>
        <time>2010-01-01T01:22:54Z</time>
      </trkpt>
      <trkpt lat="32.51322300" lon="35.40865500">
        <ele>411.00000</ele>
        <time>2010-01-01T01:22:54Z</time>
      </trkpt>
      <trkpt lat="32.51320100" lon="35.40866300">
        <ele>411.00000</ele>
        <time>2010-01-01T01:22:55Z</time>
      </trkpt>
      <trkpt lat="32.51321000" lon="35.40865800">
        <ele>411.00000</ele>
        <time>2010-01-01T01:22:56Z</time>
      </trkpt>
      <trkpt lat="32.51320900" lon="35.40865600">
        <ele>411.00000</ele>
        <time>2010-01-01T01:22:56Z</time>
      </trkpt>
      <trkpt lat="32.51322100" lon="35.40865500">
        <ele>411.00000</ele>
        <time>2010-01-01T01:22:56Z</time>
      </trkpt>
      <trkpt lat="32.51324400" lon="35.40857900">
        <ele>411.00000</ele>
        <time>2010-01-01T01:22:59Z</time>
      </trkpt>
      <trkpt lat="32.51326400" lon="35.40852200">
        <ele>411.00000</ele>
        <time>2010-01-01T01:23:01Z</time>
      </trkpt>
      <trkpt lat="32.51327500" lon="35.40849300">
        <ele>411.00000</ele>
        <time>2010-01-01T01:23:02Z</time>
      </trkpt>
      <trkpt lat="32.51323100" lon="35.40855200">
        <ele>412.00000</ele>
        <time>2010-01-01T01:23:05Z</time>
      </trkpt>
      <trkpt lat="32.51317300" lon="35.40859600">
        <ele>413.00000</ele>
        <time>2010-01-01T01:23:07Z</time>
      </trkpt>
      <trkpt lat="32.51316400" lon="35.40860500">
        <ele>413.00000</ele>
        <time>2010-01-01T01:23:08Z</time>
      </trkpt>
      <trkpt lat="32.51316000" lon="35.40860700">
        <ele>413.00000</ele>
        <time>2010-01-01T01:23:08Z</time>
      </trkpt>
      <trkpt lat="32.51313400" lon="35.40861100">
        <ele>414.00000</ele>
        <time>2010-01-01T01:23:09Z</time>
      </trkpt>
      <trkpt lat="32.51322300" lon="35.40864400">
        <ele>411.00000</ele>
        <time>2010-01-01T01:23:13Z</time>
      </trkpt>
      <trkpt lat="32.51325700" lon="35.40859300">
        <ele>410.00000</ele>
        <time>2010-01-01T01:23:15Z</time>
      </trkpt>
      <trkpt lat="32.51327200" lon="35.40854600">
        <ele>410.00000</ele>
        <time>2010-01-01T01:23:17Z</time>
      </trkpt>
      <trkpt lat="32.51333000" lon="35.40841300">
        <ele>410.00000</ele>
        <time>2010-01-01T01:23:22Z</time>
      </trkpt>
      <trkpt lat="32.51338400" lon="35.40825000">
        <ele>409.00000</ele>
        <time>2010-01-01T01:23:28Z</time>
      </trkpt>
      <trkpt lat="32.51342600" lon="35.40805100">
        <ele>407.00000</ele>
        <time>2010-01-01T01:23:35Z</time>
      </trkpt>
      <trkpt lat="32.51342800" lon="35.40782200">
        <ele>407.00000</ele>
        <time>2010-01-01T01:23:42Z</time>
      </trkpt>
      <trkpt lat="32.51341300" lon="35.40752300">
        <ele>406.00000</ele>
        <time>2010-01-01T01:23:52Z</time>
      </trkpt>
      <trkpt lat="32.51339300" lon="35.40729300">
        <ele>407.00000</ele>
        <time>2010-01-01T01:24:00Z</time>
      </trkpt>
      <trkpt lat="32.51336200" lon="35.40709200">
        <ele>408.00000</ele>
        <time>2010-01-01T01:24:07Z</time>
      </trkpt>
      <trkpt lat="32.51335400" lon="35.40705900">
        <ele>408.00000</ele>
        <time>2010-01-01T01:24:08Z</time>
      </trkpt>
      <trkpt lat="32.51332700" lon="35.40690800">
        <ele>408.00000</ele>
        <time>2010-01-01T01:24:14Z</time>
      </trkpt>
      <trkpt lat="32.51333000" lon="35.40675000">
        <ele>408.00000</ele>
        <time>2010-01-01T01:24:19Z</time>
      </trkpt>
      <trkpt lat="32.51335000" lon="35.40658000">
        <ele>408.00000</ele>
        <time>2010-01-01T01:24:25Z</time>
      </trkpt>
      <trkpt lat="32.51340300" lon="35.40639600">
        <ele>408.00000</ele>
        <time>2010-01-01T01:24:31Z</time>
      </trkpt>
      <trkpt lat="32.51341000" lon="35.40623000">
        <ele>409.00000</ele>
        <time>2010-01-01T01:24:37Z</time>
      </trkpt>
      <trkpt lat="32.51342500" lon="35.40605600">
        <ele>410.00000</ele>
        <time>2010-01-01T01:24:43Z</time>
      </trkpt>
      <trkpt lat="32.51344100" lon="35.40601700">
        <ele>410.00000</ele>
        <time>2010-01-01T01:24:44Z</time>
      </trkpt>
      <trkpt lat="32.51345700" lon="35.40589300">
        <ele>410.00000</ele>
        <time>2010-01-01T01:24:48Z</time>
      </trkpt>
      <trkpt lat="32.51347300" lon="35.40584400">
        <ele>410.00000</ele>
        <time>2010-01-01T01:24:50Z</time>
      </trkpt>
      <trkpt lat="32.51354400" lon="35.40565400">
        <ele>410.00000</ele>
        <time>2010-01-01T01:24:57Z</time>
      </trkpt>
      <trkpt lat="32.51360400" lon="35.40543700">
        <ele>410.00000</ele>
        <time>2010-01-01T01:25:05Z</time>
      </trkpt>
      <trkpt lat="32.51368200" lon="35.40523200">
        <ele>409.00000</ele>
        <time>2010-01-01T01:25:13Z</time>
      </trkpt>
      <trkpt lat="32.51371900" lon="35.40507900">
        <ele>409.00000</ele>
        <time>2010-01-01T01:25:18Z</time>
      </trkpt>
      <trkpt lat="32.51374900" lon="35.40495500">
        <ele>409.00000</ele>
        <time>2010-01-01T01:25:22Z</time>
      </trkpt>
      <trkpt lat="32.51378000" lon="35.40484900">
        <ele>409.00000</ele>
        <time>2010-01-01T01:25:26Z</time>
      </trkpt>
      <trkpt lat="32.51378100" lon="35.40479900">
        <ele>410.00000</ele>
        <time>2010-01-01T01:25:28Z</time>
      </trkpt>
      <trkpt lat="32.51382200" lon="35.40463900">
        <ele>410.00000</ele>
        <time>2010-01-01T01:25:33Z</time>
      </trkpt>
      <trkpt lat="32.51389200" lon="35.40448000">
        <ele>410.00000</ele>
        <time>2010-01-01T01:25:39Z</time>
      </trkpt>
      <trkpt lat="32.51392300" lon="35.40440600">
        <ele>410.00000</ele>
        <time>2010-01-01T01:25:42Z</time>
      </trkpt>
      <trkpt lat="32.51401500" lon="35.40421600">
        <ele>409.00000</ele>
        <time>2010-01-01T01:25:50Z</time>
      </trkpt>
      <trkpt lat="32.51406600" lon="35.40410300">
        <ele>408.00000</ele>
        <time>2010-01-01T01:25:54Z</time>
      </trkpt>
      <trkpt lat="32.51411200" lon="35.40394600">
        <ele>407.00000</ele>
        <time>2010-01-01T01:26:00Z</time>
      </trkpt>
      <trkpt lat="32.51413700" lon="35.40378400">
        <ele>407.00000</ele>
        <time>2010-01-01T01:26:05Z</time>
      </trkpt>
      <trkpt lat="32.51419200" lon="35.40362100">
        <ele>406.00000</ele>
        <time>2010-01-01T01:26:11Z</time>
      </trkpt>
      <trkpt lat="32.51427200" lon="35.40344900">
        <ele>405.00000</ele>
        <time>2010-01-01T01:26:18Z</time>
      </trkpt>
      <trkpt lat="32.51430400" lon="35.40332600">
        <ele>404.00000</ele>
        <time>2010-01-01T01:26:22Z</time>
      </trkpt>
      <trkpt lat="32.51435000" lon="35.40314400">
        <ele>405.00000</ele>
        <time>2010-01-01T01:26:28Z</time>
      </trkpt>
      <trkpt lat="32.51434500" lon="35.40299300">
        <ele>406.00000</ele>
        <time>2010-01-01T01:26:34Z</time>
      </trkpt>
      <trkpt lat="32.51431600" lon="35.40283900">
        <ele>409.00000</ele>
        <time>2010-01-01T01:26:39Z</time>
      </trkpt>
      <trkpt lat="32.51427700" lon="35.40275300">
        <ele>411.00000</ele>
        <time>2010-01-01T01:26:42Z</time>
      </trkpt>
      <trkpt lat="32.51427800" lon="35.40272100">
        <ele>412.00000</ele>
        <time>2010-01-01T01:26:43Z</time>
      </trkpt>
      <trkpt lat="32.51427500" lon="35.40254200">
        <ele>414.00000</ele>
        <time>2010-01-01T01:26:49Z</time>
      </trkpt>
      <trkpt lat="32.51425800" lon="35.40245400">
        <ele>415.00000</ele>
        <time>2010-01-01T01:26:52Z</time>
      </trkpt>
      <trkpt lat="32.51424800" lon="35.40234800">
        <ele>416.00000</ele>
        <time>2010-01-01T01:26:56Z</time>
      </trkpt>
      <trkpt lat="32.51428200" lon="35.40216600">
        <ele>416.00000</ele>
        <time>2010-01-01T01:27:02Z</time>
      </trkpt>
      <trkpt lat="32.51433300" lon="35.40203200">
        <ele>415.00000</ele>
        <time>2010-01-01T01:27:07Z</time>
      </trkpt>
      <trkpt lat="32.51441300" lon="35.40183000">
        <ele>414.00000</ele>
        <time>2010-01-01T01:27:15Z</time>
      </trkpt>
      <trkpt lat="32.51448000" lon="35.40160600">
        <ele>413.00000</ele>
        <time>2010-01-01T01:27:23Z</time>
      </trkpt>
      <trkpt lat="32.51452300" lon="35.40140600">
        <ele>413.00000</ele>
        <time>2010-01-01T01:27:30Z</time>
      </trkpt>
      <trkpt lat="32.51454100" lon="35.40135100">
        <ele>412.00000</ele>
        <time>2010-01-01T01:27:32Z</time>
      </trkpt>
      <trkpt lat="32.51455400" lon="35.40117600">
        <ele>413.00000</ele>
        <time>2010-01-01T01:27:38Z</time>
      </trkpt>
      <trkpt lat="32.51458300" lon="35.40100500">
        <ele>412.00000</ele>
        <time>2010-01-01T01:27:44Z</time>
      </trkpt>
      <trkpt lat="32.51462100" lon="35.40085500">
        <ele>412.00000</ele>
        <time>2010-01-01T01:27:49Z</time>
      </trkpt>
      <trkpt lat="32.51468000" lon="35.40067300">
        <ele>410.00000</ele>
        <time>2010-01-01T01:27:55Z</time>
      </trkpt>
      <trkpt lat="32.51472000" lon="35.40050400">
        <ele>408.00000</ele>
        <time>2010-01-01T01:28:01Z</time>
      </trkpt>
      <trkpt lat="32.51475100" lon="35.40034300">
        <ele>407.00000</ele>
        <time>2010-01-01T01:28:07Z</time>
      </trkpt>
      <trkpt lat="32.51477500" lon="35.40020300">
        <ele>406.00000</ele>
        <time>2010-01-01T01:28:12Z</time>
      </trkpt>
      <trkpt lat="32.51479900" lon="35.40001200">
        <ele>405.00000</ele>
        <time>2010-01-01T01:28:18Z</time>
      </trkpt>
      <trkpt lat="32.51480000" lon="35.39991500">
        <ele>405.00000</ele>
        <time>2010-01-01T01:28:21Z</time>
      </trkpt>
      <trkpt lat="32.51482000" lon="35.39975900">
        <ele>403.00000</ele>
        <time>2010-01-01T01:28:27Z</time>
      </trkpt>
      <trkpt lat="32.51485600" lon="35.39963500">
        <ele>401.00000</ele>
        <time>2010-01-01T01:28:31Z</time>
      </trkpt>
      <trkpt lat="32.51490300" lon="35.39944700">
        <ele>399.00000</ele>
        <time>2010-01-01T01:28:38Z</time>
      </trkpt>
      <trkpt lat="32.51485800" lon="35.39915300">
        <ele>399.00000</ele>
        <time>2010-01-01T01:28:48Z</time>
      </trkpt>
      <trkpt lat="32.51483700" lon="35.39890000">
        <ele>400.00000</ele>
        <time>2010-01-01T01:28:57Z</time>
      </trkpt>
      <trkpt lat="32.51478800" lon="35.39861200">
        <ele>401.00000</ele>
        <time>2010-01-01T01:29:06Z</time>
      </trkpt>
      <trkpt lat="32.51475200" lon="35.39825400">
        <ele>402.00000</ele>
        <time>2010-01-01T01:29:19Z</time>
      </trkpt>
      <trkpt lat="32.51473200" lon="35.39807200">
        <ele>403.00000</ele>
        <time>2010-01-01T01:29:25Z</time>
      </trkpt>
      <trkpt lat="32.51470500" lon="35.39788200">
        <ele>404.00000</ele>
        <time>2010-01-01T01:29:31Z</time>
      </trkpt>
      <trkpt lat="32.51468200" lon="35.39776900">
        <ele>405.00000</ele>
        <time>2010-01-01T01:29:35Z</time>
      </trkpt>
      <trkpt lat="32.51467600" lon="35.39756600">
        <ele>406.00000</ele>
        <time>2010-01-01T01:29:42Z</time>
      </trkpt>
      <trkpt lat="32.51468000" lon="35.39740900">
        <ele>407.00000</ele>
        <time>2010-01-01T01:29:47Z</time>
      </trkpt>
      <trkpt lat="32.51468100" lon="35.39738100">
        <ele>407.00000</ele>
        <time>2010-01-01T01:29:48Z</time>
      </trkpt>
      <trkpt lat="32.51465400" lon="35.39729100">
        <ele>407.00000</ele>
        <time>2010-01-01T01:29:52Z</time>
      </trkpt>
      <trkpt lat="32.51463500" lon="35.39728200">
        <ele>408.00000</ele>
        <time>2010-01-01T01:29:52Z</time>
      </trkpt>
      <trkpt lat="32.51464700" lon="35.39725800">
        <ele>408.00000</ele>
        <time>2010-01-01T01:29:53Z</time>
      </trkpt>
      <trkpt lat="32.51464500" lon="35.39726200">
        <ele>408.00000</ele>
        <time>2010-01-01T01:29:53Z</time>
      </trkpt>
      <trkpt lat="32.51456000" lon="35.39741300">
        <ele>408.00000</ele>
        <time>2010-01-01T01:30:00Z</time>
      </trkpt>
      <trkpt lat="32.51446100" lon="35.39753900">
        <ele>409.00000</ele>
        <time>2010-01-01T01:30:05Z</time>
      </trkpt>
      <trkpt lat="32.51439100" lon="35.39756300">
        <ele>410.00000</ele>
        <time>2010-01-01T01:30:08Z</time>
      </trkpt>
      <trkpt lat="32.51431500" lon="35.39756700">
        <ele>411.00000</ele>
        <time>2010-01-01T01:30:11Z</time>
      </trkpt>
      <trkpt lat="32.51414900" lon="35.39756800">
        <ele>413.00000</ele>
        <time>2010-01-01T01:30:18Z</time>
      </trkpt>
      <trkpt lat="32.51399300" lon="35.39762500">
        <ele>413.00000</ele>
        <time>2010-01-01T01:30:25Z</time>
      </trkpt>
      <trkpt lat="32.51399900" lon="35.39763800">
        <ele>413.00000</ele>
        <time>2010-01-01T01:30:25Z</time>
      </trkpt>
      <trkpt lat="32.51386900" lon="35.39774600">
        <ele>413.00000</ele>
        <time>2010-01-01T01:30:31Z</time>
      </trkpt>
      <trkpt lat="32.51379100" lon="35.39778200">
        <ele>414.00000</ele>
        <time>2010-01-01T01:30:35Z</time>
      </trkpt>
      <trkpt lat="32.51374800" lon="35.39781600">
        <ele>414.00000</ele>
        <time>2010-01-01T01:30:37Z</time>
      </trkpt>
      <trkpt lat="32.51375400" lon="35.39782000">
        <ele>414.00000</ele>
        <time>2010-01-01T01:30:37Z</time>
      </trkpt>
      <trkpt lat="32.51378400" lon="35.39780200">
        <ele>414.00000</ele>
        <time>2010-01-01T01:30:38Z</time>
      </trkpt>
      <trkpt lat="32.51379100" lon="35.39779500">
        <ele>414.00000</ele>
        <time>2010-01-01T01:30:39Z</time>
      </trkpt>
      <trkpt lat="32.51379200" lon="35.39779700">
        <ele>414.00000</ele>
        <time>2010-01-01T01:30:39Z</time>
      </trkpt>
      <trkpt lat="32.51379100" lon="35.39779800">
        <ele>414.00000</ele>
        <time>2010-01-01T01:30:39Z</time>
      </trkpt>
      <trkpt lat="32.51378600" lon="35.39783600">
        <ele>414.00000</ele>
        <time>2010-01-01T01:30:40Z</time>
      </trkpt>
      <trkpt lat="32.51378100" lon="35.39784700">
        <ele>414.00000</ele>
        <time>2010-01-01T01:30:41Z</time>
      </trkpt>
      <trkpt lat="32.51378000" lon="35.39784900">
        <ele>414.00000</ele>
        <time>2010-01-01T01:30:41Z</time>
      </trkpt>
      <trkpt lat="32.51374100" lon="35.39790100">
        <ele>414.00000</ele>
        <time>2010-01-01T01:30:43Z</time>
      </trkpt>
      <trkpt lat="32.51374200" lon="35.39782700">
        <ele>414.00000</ele>
        <time>2010-01-01T01:30:46Z</time>
      </trkpt>
      <trkpt lat="32.51375700" lon="35.39785800">
        <ele>414.00000</ele>
        <time>2010-01-01T01:30:47Z</time>
      </trkpt>
      <trkpt lat="32.51374900" lon="35.39786900">
        <ele>414.00000</ele>
        <time>2010-01-01T01:30:47Z</time>
      </trkpt>
      <trkpt lat="32.51372500" lon="35.39788500">
        <ele>414.00000</ele>
        <time>2010-01-01T01:30:48Z</time>
      </trkpt>
      <trkpt lat="32.51370900" lon="35.39785300">
        <ele>414.00000</ele>
        <time>2010-01-01T01:30:50Z</time>
      </trkpt>
      <trkpt lat="32.51375700" lon="35.39785600">
        <ele>414.00000</ele>
        <time>2010-01-01T01:30:52Z</time>
      </trkpt>
      <trkpt lat="32.51376900" lon="35.39787700">
        <ele>414.00000</ele>
        <time>2010-01-01T01:30:52Z</time>
      </trkpt>
      <trkpt lat="32.51377500" lon="35.39791900">
        <ele>414.00000</ele>
        <time>2010-01-01T01:30:54Z</time>
      </trkpt>
      <trkpt lat="32.51377600" lon="35.39792100">
        <ele>414.00000</ele>
        <time>2010-01-01T01:30:54Z</time>
      </trkpt>
      <trkpt lat="32.51378800" lon="35.39790900">
        <ele>414.00000</ele>
        <time>2010-01-01T01:30:55Z</time>
      </trkpt>
      <trkpt lat="32.51380300" lon="35.39786900">
        <ele>414.00000</ele>
        <time>2010-01-01T01:30:56Z</time>
      </trkpt>
      <trkpt lat="32.51380500" lon="35.39786400">
        <ele>414.00000</ele>
        <time>2010-01-01T01:30:56Z</time>
      </trkpt>
      <trkpt lat="32.51384100" lon="35.39785100">
        <ele>414.00000</ele>
        <time>2010-01-01T01:30:58Z</time>
      </trkpt>
      <trkpt lat="32.51385500" lon="35.39785600">
        <ele>414.00000</ele>
        <time>2010-01-01T01:30:58Z</time>
      </trkpt>
      <trkpt lat="32.51385600" lon="35.39785500">
        <ele>414.00000</ele>
        <time>2010-01-01T01:30:58Z</time>
      </trkpt>
      <trkpt lat="32.51380000" lon="35.39787100">
        <ele>414.00000</ele>
        <time>2010-01-01T01:31:01Z</time>
      </trkpt>
      <trkpt lat="32.51375200" lon="35.39791900">
        <ele>414.00000</ele>
        <time>2010-01-01T01:31:03Z</time>
      </trkpt>
      <trkpt lat="32.51371500" lon="35.39800500">
        <ele>415.00000</ele>
        <time>2010-01-01T01:31:07Z</time>
      </trkpt>
      <trkpt lat="32.51369900" lon="35.39814900">
        <ele>416.00000</ele>
        <time>2010-01-01T01:31:11Z</time>
      </trkpt>
      <trkpt lat="32.51370600" lon="35.39820700">
        <ele>416.00000</ele>
        <time>2010-01-01T01:31:13Z</time>
      </trkpt>
      <trkpt lat="32.51370100" lon="35.39826400">
        <ele>416.00000</ele>
        <time>2010-01-01T01:31:15Z</time>
      </trkpt>
      <trkpt lat="32.51371100" lon="35.39831600">
        <ele>417.00000</ele>
        <time>2010-01-01T01:31:17Z</time>
      </trkpt>
      <trkpt lat="32.51368400" lon="35.39836800">
        <ele>417.00000</ele>
        <time>2010-01-01T01:31:19Z</time>
      </trkpt>
      <trkpt lat="32.51366100" lon="35.39839800">
        <ele>417.00000</ele>
        <time>2010-01-01T01:31:21Z</time>
      </trkpt>
      <trkpt lat="32.51365100" lon="35.39840400">
        <ele>417.00000</ele>
        <time>2010-01-01T01:31:21Z</time>
      </trkpt>
      <trkpt lat="32.51360000" lon="35.39845000">
        <ele>418.00000</ele>
        <time>2010-01-01T01:31:24Z</time>
      </trkpt>
      <trkpt lat="32.51354000" lon="35.39846600">
        <ele>418.00000</ele>
        <time>2010-01-01T01:31:26Z</time>
      </trkpt>
      <trkpt lat="32.51340200" lon="35.39851800">
        <ele>419.00000</ele>
        <time>2010-01-01T01:31:32Z</time>
      </trkpt>
      <trkpt lat="32.51324800" lon="35.39856500">
        <ele>419.00000</ele>
        <time>2010-01-01T01:31:38Z</time>
      </trkpt>
      <trkpt lat="32.51321000" lon="35.39859500">
        <ele>419.00000</ele>
        <time>2010-01-01T01:31:40Z</time>
      </trkpt>
      <trkpt lat="32.51308000" lon="35.39865300">
        <ele>419.00000</ele>
        <time>2010-01-01T01:31:46Z</time>
      </trkpt>
      <trkpt lat="32.51305700" lon="35.39867600">
        <ele>419.00000</ele>
        <time>2010-01-01T01:31:47Z</time>
      </trkpt>
      <trkpt lat="32.51303700" lon="35.39870600">
        <ele>419.00000</ele>
        <time>2010-01-01T01:31:48Z</time>
      </trkpt>
      <trkpt lat="32.51301300" lon="35.39872900">
        <ele>419.00000</ele>
        <time>2010-01-01T01:31:49Z</time>
      </trkpt>
      <trkpt lat="32.51296100" lon="35.39875500">
        <ele>418.00000</ele>
        <time>2010-01-01T01:31:52Z</time>
      </trkpt>
      <trkpt lat="32.51297000" lon="35.39875800">
        <ele>419.00000</ele>
        <time>2010-01-01T01:31:52Z</time>
      </trkpt>
      <trkpt lat="32.51299900" lon="35.39873300">
        <ele>419.00000</ele>
        <time>2010-01-01T01:31:53Z</time>
      </trkpt>
      <trkpt lat="32.51301700" lon="35.39872000">
        <ele>419.00000</ele>
        <time>2010-01-01T01:31:54Z</time>
      </trkpt>
      <trkpt lat="32.51304700" lon="35.39870700">
        <ele>419.00000</ele>
        <time>2010-01-01T01:31:55Z</time>
      </trkpt>
      <trkpt lat="32.51305700" lon="35.39871100">
        <ele>419.00000</ele>
        <time>2010-01-01T01:31:56Z</time>
      </trkpt>
      <trkpt lat="32.51302400" lon="35.39873700">
        <ele>419.00000</ele>
        <time>2010-01-01T01:31:58Z</time>
      </trkpt>
      <trkpt lat="32.51301800" lon="35.39874200">
        <ele>419.00000</ele>
        <time>2010-01-01T01:31:58Z</time>
      </trkpt>
      <trkpt lat="32.51298800" lon="35.39875600">
        <ele>419.00000</ele>
        <time>2010-01-01T01:31:59Z</time>
      </trkpt>
      <trkpt lat="32.51294400" lon="35.39879100">
        <ele>419.00000</ele>
        <time>2010-01-01T01:32:01Z</time>
      </trkpt>
      <trkpt lat="32.51291400" lon="35.39876700">
        <ele>418.00000</ele>
        <time>2010-01-01T01:32:03Z</time>
      </trkpt>
      <trkpt lat="32.51290400" lon="35.39876100">
        <ele>418.00000</ele>
        <time>2010-01-01T01:32:03Z</time>
      </trkpt>
      <trkpt lat="32.51288800" lon="35.39875300">
        <ele>418.00000</ele>
        <time>2010-01-01T01:32:04Z</time>
      </trkpt>
      <trkpt lat="32.51289200" lon="35.39875800">
        <ele>418.00000</ele>
        <time>2010-01-01T01:32:04Z</time>
      </trkpt>
      <trkpt lat="32.51284800" lon="35.39873200">
        <ele>417.00000</ele>
        <time>2010-01-01T01:32:06Z</time>
      </trkpt>
      <trkpt lat="32.51287600" lon="35.39874400">
        <ele>418.00000</ele>
        <time>2010-01-01T01:32:07Z</time>
      </trkpt>
      <trkpt lat="32.51287900" lon="35.39874700">
        <ele>418.00000</ele>
        <time>2010-01-01T01:32:07Z</time>
      </trkpt>
      <trkpt lat="32.51289400" lon="35.39877300">
        <ele>418.00000</ele>
        <time>2010-01-01T01:32:08Z</time>
      </trkpt>
      <trkpt lat="32.51288100" lon="35.39878200">
        <ele>418.00000</ele>
        <time>2010-01-01T01:32:09Z</time>
      </trkpt>
      <trkpt lat="32.51287400" lon="35.39878900">
        <ele>418.00000</ele>
        <time>2010-01-01T01:32:09Z</time>
      </trkpt>
      <trkpt lat="32.51286400" lon="35.39881200">
        <ele>418.00000</ele>
        <time>2010-01-01T01:32:10Z</time>
      </trkpt>
      <trkpt lat="32.51281900" lon="35.39885900">
        <ele>418.00000</ele>
        <time>2010-01-01T01:32:13Z</time>
      </trkpt>
      <trkpt lat="32.51280500" lon="35.39888100">
        <ele>418.00000</ele>
        <time>2010-01-01T01:32:14Z</time>
      </trkpt>
      <trkpt lat="32.51276100" lon="35.39894700">
        <ele>418.00000</ele>
        <time>2010-01-01T01:32:16Z</time>
      </trkpt>
      <trkpt lat="32.51274400" lon="35.39899900">
        <ele>419.00000</ele>
        <time>2010-01-01T01:32:18Z</time>
      </trkpt>
      <trkpt lat="32.51272500" lon="35.39902600">
        <ele>419.00000</ele>
        <time>2010-01-01T01:32:19Z</time>
      </trkpt>
      <trkpt lat="32.51267800" lon="35.39908000">
        <ele>419.00000</ele>
        <time>2010-01-01T01:32:22Z</time>
      </trkpt>
      <trkpt lat="32.51259000" lon="35.39914800">
        <ele>419.00000</ele>
        <time>2010-01-01T01:32:26Z</time>
      </trkpt>
      <trkpt lat="32.51257700" lon="35.39916600">
        <ele>419.00000</ele>
        <time>2010-01-01T01:32:27Z</time>
      </trkpt>
      <trkpt lat="32.51248500" lon="35.39925200">
        <ele>419.00000</ele>
        <time>2010-01-01T01:32:32Z</time>
      </trkpt>
      <trkpt lat="32.51243300" lon="35.39936800">
        <ele>419.00000</ele>
        <time>2010-01-01T01:32:36Z</time>
      </trkpt>
      <trkpt lat="32.51242700" lon="35.39938000">
        <ele>419.00000</ele>
        <time>2010-01-01T01:32:37Z</time>
      </trkpt>
      <trkpt lat="32.51239600" lon="35.39941400">
        <ele>418.00000</ele>
        <time>2010-01-01T01:32:38Z</time>
      </trkpt>
      <trkpt lat="32.51239000" lon="35.39942600">
        <ele>418.00000</ele>
        <time>2010-01-01T01:32:39Z</time>
      </trkpt>
      <trkpt lat="32.51238600" lon="35.39942800">
        <ele>418.00000</ele>
        <time>2010-01-01T01:32:39Z</time>
      </trkpt>
      <trkpt lat="32.51238700" lon="35.39942800">
        <ele>418.00000</ele>
        <time>2010-01-01T01:32:39Z</time>
      </trkpt>
      <trkpt lat="32.51238100" lon="35.39942900">
        <ele>418.00000</ele>
        <time>2010-01-01T01:32:39Z</time>
      </trkpt>
      <trkpt lat="32.51236400" lon="35.39943500">
        <ele>418.00000</ele>
        <time>2010-01-01T01:32:40Z</time>
      </trkpt>
      <trkpt lat="32.51236400" lon="35.39948200">
        <ele>418.00000</ele>
        <time>2010-01-01T01:32:42Z</time>
      </trkpt>
      <trkpt lat="32.51236100" lon="35.39951100">
        <ele>419.00000</ele>
        <time>2010-01-01T01:32:43Z</time>
      </trkpt>
      <trkpt lat="32.51228000" lon="35.39962300">
        <ele>418.00000</ele>
        <time>2010-01-01T01:32:48Z</time>
      </trkpt>
      <trkpt lat="32.51226100" lon="35.39967500">
        <ele>418.00000</ele>
        <time>2010-01-01T01:32:49Z</time>
      </trkpt>
      <trkpt lat="32.51217900" lon="35.39976400">
        <ele>418.00000</ele>
        <time>2010-01-01T01:32:54Z</time>
      </trkpt>
      <trkpt lat="32.51216800" lon="35.39981700">
        <ele>418.00000</ele>
        <time>2010-01-01T01:32:56Z</time>
      </trkpt>
      <trkpt lat="32.51213100" lon="35.39996100">
        <ele>418.00000</ele>
        <time>2010-01-01T01:33:01Z</time>
      </trkpt>
      <trkpt lat="32.51211300" lon="35.40002400">
        <ele>419.00000</ele>
        <time>2010-01-01T01:33:03Z</time>
      </trkpt>
      <trkpt lat="32.51207700" lon="35.40015600">
        <ele>419.00000</ele>
        <time>2010-01-01T01:33:08Z</time>
      </trkpt>
      <trkpt lat="32.51205800" lon="35.40022300">
        <ele>419.00000</ele>
        <time>2010-01-01T01:33:10Z</time>
      </trkpt>
      <trkpt lat="32.51205200" lon="35.40028500">
        <ele>419.00000</ele>
        <time>2010-01-01T01:33:12Z</time>
      </trkpt>
      <trkpt lat="32.51204000" lon="35.40037500">
        <ele>420.00000</ele>
        <time>2010-01-01T01:33:15Z</time>
      </trkpt>
      <trkpt lat="32.51205500" lon="35.40042800">
        <ele>420.00000</ele>
        <time>2010-01-01T01:33:17Z</time>
      </trkpt>
      <trkpt lat="32.51203800" lon="35.40054900">
        <ele>421.00000</ele>
        <time>2010-01-01T01:33:21Z</time>
      </trkpt>
      <trkpt lat="32.51202800" lon="35.40059400">
        <ele>421.00000</ele>
        <time>2010-01-01T01:33:23Z</time>
      </trkpt>
      <trkpt lat="32.51201200" lon="35.40068300">
        <ele>421.00000</ele>
        <time>2010-01-01T01:33:26Z</time>
      </trkpt>
      <trkpt lat="32.51196700" lon="35.40079500">
        <ele>421.00000</ele>
        <time>2010-01-01T01:33:30Z</time>
      </trkpt>
      <trkpt lat="32.51193100" lon="35.40091300">
        <ele>421.00000</ele>
        <time>2010-01-01T01:33:34Z</time>
      </trkpt>
      <trkpt lat="32.51187800" lon="35.40108900">
        <ele>422.00000</ele>
        <time>2010-01-01T01:33:41Z</time>
      </trkpt>
      <trkpt lat="32.51181200" lon="35.40129500">
        <ele>422.00000</ele>
        <time>2010-01-01T01:33:48Z</time>
      </trkpt>
      <trkpt lat="32.51175800" lon="35.40145000">
        <ele>423.00000</ele>
        <time>2010-01-01T01:33:54Z</time>
      </trkpt>
      <trkpt lat="32.51167200" lon="35.40159900">
        <ele>423.00000</ele>
        <time>2010-01-01T01:34:00Z</time>
      </trkpt>
      <trkpt lat="32.51163600" lon="35.40171100">
        <ele>423.00000</ele>
        <time>2010-01-01T01:34:04Z</time>
      </trkpt>
      <trkpt lat="32.51158500" lon="35.40183700">
        <ele>423.00000</ele>
        <time>2010-01-01T01:34:09Z</time>
      </trkpt>
      <trkpt lat="32.51156800" lon="35.40187400">
        <ele>422.00000</ele>
        <time>2010-01-01T01:34:10Z</time>
      </trkpt>
      <trkpt lat="32.51153200" lon="35.40191700">
        <ele>422.00000</ele>
        <time>2010-01-01T01:34:12Z</time>
      </trkpt>
      <trkpt lat="32.51152800" lon="35.40192700">
        <ele>422.00000</ele>
        <time>2010-01-01T01:34:13Z</time>
      </trkpt>
      <trkpt lat="32.51152300" lon="35.40194400">
        <ele>422.00000</ele>
        <time>2010-01-01T01:34:13Z</time>
      </trkpt>
      <trkpt lat="32.51147100" lon="35.40204800">
        <ele>422.00000</ele>
        <time>2010-01-01T01:34:17Z</time>
      </trkpt>
      <trkpt lat="32.51142100" lon="35.40215100">
        <ele>421.00000</ele>
        <time>2010-01-01T01:34:21Z</time>
      </trkpt>
      <trkpt lat="32.51132000" lon="35.40229200">
        <ele>420.00000</ele>
        <time>2010-01-01T01:34:28Z</time>
      </trkpt>
      <trkpt lat="32.51121400" lon="35.40245400">
        <ele>419.00000</ele>
        <time>2010-01-01T01:34:34Z</time>
      </trkpt>
      <trkpt lat="32.51115700" lon="35.40257100">
        <ele>419.00000</ele>
        <time>2010-01-01T01:34:39Z</time>
      </trkpt>
      <trkpt lat="32.51111100" lon="35.40267900">
        <ele>419.00000</ele>
        <time>2010-01-01T01:34:43Z</time>
      </trkpt>
      <trkpt lat="32.51108500" lon="35.40273500">
        <ele>419.00000</ele>
        <time>2010-01-01T01:34:45Z</time>
      </trkpt>
      <trkpt lat="32.51103100" lon="35.40286100">
        <ele>419.00000</ele>
        <time>2010-01-01T01:34:50Z</time>
      </trkpt>
      <trkpt lat="32.51096900" lon="35.40296300">
        <ele>418.00000</ele>
        <time>2010-01-01T01:34:54Z</time>
      </trkpt>
      <trkpt lat="32.51092600" lon="35.40306100">
        <ele>419.00000</ele>
        <time>2010-01-01T01:34:58Z</time>
      </trkpt>
      <trkpt lat="32.51084100" lon="35.40318900">
        <ele>418.00000</ele>
        <time>2010-01-01T01:35:03Z</time>
      </trkpt>
      <trkpt lat="32.51072300" lon="35.40330800">
        <ele>418.00000</ele>
        <time>2010-01-01T01:35:10Z</time>
      </trkpt>
      <trkpt lat="32.51054500" lon="35.40343000">
        <ele>418.00000</ele>
        <time>2010-01-01T01:35:18Z</time>
      </trkpt>
      <trkpt lat="32.51042100" lon="35.40352400">
        <ele>419.00000</ele>
        <time>2010-01-01T01:35:24Z</time>
      </trkpt>
      <trkpt lat="32.51023300" lon="35.40361200">
        <ele>419.00000</ele>
        <time>2010-01-01T01:35:32Z</time>
      </trkpt>
      <trkpt lat="32.51004500" lon="35.40372100">
        <ele>419.00000</ele>
        <time>2010-01-01T01:35:40Z</time>
      </trkpt>
      <trkpt lat="32.50990100" lon="35.40380600">
        <ele>420.00000</ele>
        <time>2010-01-01T01:35:47Z</time>
      </trkpt>
      <trkpt lat="32.50978700" lon="35.40383400">
        <ele>420.00000</ele>
        <time>2010-01-01T01:35:51Z</time>
      </trkpt>
      <trkpt lat="32.50964600" lon="35.40386300">
        <ele>419.00000</ele>
        <time>2010-01-01T01:35:57Z</time>
      </trkpt>
      <trkpt lat="32.50950500" lon="35.40391800">
        <ele>419.00000</ele>
        <time>2010-01-01T01:36:03Z</time>
      </trkpt>
      <trkpt lat="32.50937000" lon="35.40397300">
        <ele>420.00000</ele>
        <time>2010-01-01T01:36:09Z</time>
      </trkpt>
      <trkpt lat="32.50926300" lon="35.40402400">
        <ele>420.00000</ele>
        <time>2010-01-01T01:36:13Z</time>
      </trkpt>
      <trkpt lat="32.50915500" lon="35.40406700">
        <ele>421.00000</ele>
        <time>2010-01-01T01:36:18Z</time>
      </trkpt>
      <trkpt lat="32.50898500" lon="35.40410300">
        <ele>420.00000</ele>
        <time>2010-01-01T01:36:25Z</time>
      </trkpt>
      <trkpt lat="32.50885900" lon="35.40410000">
        <ele>420.00000</ele>
        <time>2010-01-01T01:36:30Z</time>
      </trkpt>
      <trkpt lat="32.50874000" lon="35.40408400">
        <ele>419.00000</ele>
        <time>2010-01-01T01:36:35Z</time>
      </trkpt>
      <trkpt lat="32.50860400" lon="35.40404000">
        <ele>417.00000</ele>
        <time>2010-01-01T01:36:40Z</time>
      </trkpt>
      <trkpt lat="32.50847500" lon="35.40402400">
        <ele>416.00000</ele>
        <time>2010-01-01T01:36:46Z</time>
      </trkpt>
      <trkpt lat="32.50844300" lon="35.40402300">
        <ele>415.00000</ele>
        <time>2010-01-01T01:36:47Z</time>
      </trkpt>
      <trkpt lat="32.50827500" lon="35.40400900">
        <ele>415.00000</ele>
        <time>2010-01-01T01:36:54Z</time>
      </trkpt>
      <trkpt lat="32.50809000" lon="35.40398600">
        <ele>416.00000</ele>
        <time>2010-01-01T01:37:01Z</time>
      </trkpt>
      <trkpt lat="32.50792600" lon="35.40394700">
        <ele>416.00000</ele>
        <time>2010-01-01T01:37:08Z</time>
      </trkpt>
      <trkpt lat="32.50779000" lon="35.40392700">
        <ele>416.00000</ele>
        <time>2010-01-01T01:37:13Z</time>
      </trkpt>
      <trkpt lat="32.50762000" lon="35.40387100">
        <ele>415.00000</ele>
        <time>2010-01-01T01:37:20Z</time>
      </trkpt>
      <trkpt lat="32.50747700" lon="35.40383900">
        <ele>415.00000</ele>
        <time>2010-01-01T01:37:26Z</time>
      </trkpt>
      <trkpt lat="32.50732900" lon="35.40374200">
        <ele>413.00000</ele>
        <time>2010-01-01T01:37:33Z</time>
      </trkpt>
      <trkpt lat="32.50715100" lon="35.40363400">
        <ele>410.00000</ele>
        <time>2010-01-01T01:37:41Z</time>
      </trkpt>
      <trkpt lat="32.50711200" lon="35.40361400">
        <ele>410.00000</ele>
        <time>2010-01-01T01:37:43Z</time>
      </trkpt>
      <trkpt lat="32.50694200" lon="35.40347200">
        <ele>407.00000</ele>
        <time>2010-01-01T01:37:51Z</time>
      </trkpt>
      <trkpt lat="32.50686100" lon="35.40339000">
        <ele>406.00000</ele>
        <time>2010-01-01T01:37:55Z</time>
      </trkpt>
      <trkpt lat="32.50672600" lon="35.40319300">
        <ele>402.00000</ele>
        <time>2010-01-01T01:38:04Z</time>
      </trkpt>
      <trkpt lat="32.50657500" lon="35.40308500">
        <ele>400.00000</ele>
        <time>2010-01-01T01:38:11Z</time>
      </trkpt>
      <trkpt lat="32.50639400" lon="35.40301600">
        <ele>400.00000</ele>
        <time>2010-01-01T01:38:18Z</time>
      </trkpt>
      <trkpt lat="32.50630400" lon="35.40296200">
        <ele>399.00000</ele>
        <time>2010-01-01T01:38:22Z</time>
      </trkpt>
      <trkpt lat="32.50620100" lon="35.40282900">
        <ele>398.00000</ele>
        <time>2010-01-01T01:38:29Z</time>
      </trkpt>
      <trkpt lat="32.50611900" lon="35.40263700">
        <ele>395.00000</ele>
        <time>2010-01-01T01:38:36Z</time>
      </trkpt>
      <trkpt lat="32.50603900" lon="35.40253500">
        <ele>395.00000</ele>
        <time>2010-01-01T01:38:40Z</time>
      </trkpt>
      <trkpt lat="32.50588100" lon="35.40237400">
        <ele>393.00000</ele>
        <time>2010-01-01T01:38:49Z</time>
      </trkpt>
      <trkpt lat="32.50571100" lon="35.40227100">
        <ele>391.00000</ele>
        <time>2010-01-01T01:38:56Z</time>
      </trkpt>
      <trkpt lat="32.50558800" lon="35.40216200">
        <ele>388.00000</ele>
        <time>2010-01-01T01:39:03Z</time>
      </trkpt>
      <trkpt lat="32.50538400" lon="35.40210700">
        <ele>386.00000</ele>
        <time>2010-01-01T01:39:11Z</time>
      </trkpt>
      <trkpt lat="32.50530100" lon="35.40213700">
        <ele>386.00000</ele>
        <time>2010-01-01T01:39:14Z</time>
      </trkpt>
      <trkpt lat="32.50503000" lon="35.40222200">
        <ele>387.00000</ele>
        <time>2010-01-01T01:39:26Z</time>
      </trkpt>
      <trkpt lat="32.50500200" lon="35.40223400">
        <ele>387.00000</ele>
        <time>2010-01-01T01:39:27Z</time>
      </trkpt>
      <trkpt lat="32.50488500" lon="35.40232500">
        <ele>386.00000</ele>
        <time>2010-01-01T01:39:32Z</time>
      </trkpt>
      <trkpt lat="32.50487000" lon="35.40240200">
        <ele>387.00000</ele>
        <time>2010-01-01T01:39:35Z</time>
      </trkpt>
      <trkpt lat="32.50491600" lon="35.40240500">
        <ele>388.00000</ele>
        <time>2010-01-01T01:39:37Z</time>
      </trkpt>
      <trkpt lat="32.50502100" lon="35.40238200">
        <ele>390.00000</ele>
        <time>2010-01-01T01:39:41Z</time>
      </trkpt>
      <trkpt lat="32.50512500" lon="35.40237100">
        <ele>390.00000</ele>
        <time>2010-01-01T01:39:45Z</time>
      </trkpt>
      <trkpt lat="32.50523300" lon="35.40239300">
        <ele>391.00000</ele>
        <time>2010-01-01T01:39:50Z</time>
      </trkpt>
      <trkpt lat="32.50524700" lon="35.40239400">
        <ele>391.00000</ele>
        <time>2010-01-01T01:39:50Z</time>
      </trkpt>
      <trkpt lat="32.50528700" lon="35.40247000">
        <ele>393.00000</ele>
        <time>2010-01-01T01:39:53Z</time>
      </trkpt>
      <trkpt lat="32.50526400" lon="35.40249300">
        <ele>393.00000</ele>
        <time>2010-01-01T01:39:55Z</time>
      </trkpt>
      <trkpt lat="32.50516900" lon="35.40257500">
        <ele>394.00000</ele>
        <time>2010-01-01T01:39:59Z</time>
      </trkpt>
      <trkpt lat="32.50509600" lon="35.40262900">
        <ele>394.00000</ele>
        <time>2010-01-01T01:40:03Z</time>
      </trkpt>
      <trkpt lat="32.50493900" lon="35.40279000">
        <ele>393.00000</ele>
        <time>2010-01-01T01:40:11Z</time>
      </trkpt>
      <trkpt lat="32.50487000" lon="35.40289200">
        <ele>391.00000</ele>
        <time>2010-01-01T01:40:15Z</time>
      </trkpt>
      <trkpt lat="32.50484600" lon="35.40302000">
        <ele>392.00000</ele>
        <time>2010-01-01T01:40:20Z</time>
      </trkpt>
      <trkpt lat="32.50481700" lon="35.40318200">
        <ele>392.00000</ele>
        <time>2010-01-01T01:40:25Z</time>
      </trkpt>
      <trkpt lat="32.50482000" lon="35.40334200">
        <ele>393.00000</ele>
        <time>2010-01-01T01:40:31Z</time>
      </trkpt>
      <trkpt lat="32.50485800" lon="35.40349200">
        <ele>394.00000</ele>
        <time>2010-01-01T01:40:36Z</time>
      </trkpt>
      <trkpt lat="32.50487100" lon="35.40352000">
        <ele>394.00000</ele>
        <time>2010-01-01T01:40:37Z</time>
      </trkpt>
      <trkpt lat="32.50491900" lon="35.40369700">
        <ele>395.00000</ele>
        <time>2010-01-01T01:40:44Z</time>
      </trkpt>
      <trkpt lat="32.50491700" lon="35.40392200">
        <ele>395.00000</ele>
        <time>2010-01-01T01:40:51Z</time>
      </trkpt>
      <trkpt lat="32.50497300" lon="35.40409000">
        <ele>396.00000</ele>
        <time>2010-01-01T01:40:57Z</time>
      </trkpt>
      <trkpt lat="32.50499300" lon="35.40422300">
        <ele>397.00000</ele>
        <time>2010-01-01T01:41:02Z</time>
      </trkpt>
      <trkpt lat="32.50502200" lon="35.40435900">
        <ele>397.00000</ele>
        <time>2010-01-01T01:41:07Z</time>
      </trkpt>
      <trkpt lat="32.50504200" lon="35.40453700">
        <ele>397.00000</ele>
        <time>2010-01-01T01:41:13Z</time>
      </trkpt>
      <trkpt lat="32.50504400" lon="35.40470000">
        <ele>397.00000</ele>
        <time>2010-01-01T01:41:18Z</time>
      </trkpt>
      <trkpt lat="32.50508500" lon="35.40492200">
        <ele>398.00000</ele>
        <time>2010-01-01T01:41:26Z</time>
      </trkpt>
      <trkpt lat="32.50516700" lon="35.40504000">
        <ele>399.00000</ele>
        <time>2010-01-01T01:41:31Z</time>
      </trkpt>
      <trkpt lat="32.50523600" lon="35.40515900">
        <ele>401.00000</ele>
        <time>2010-01-01T01:41:36Z</time>
      </trkpt>
      <trkpt lat="32.50528500" lon="35.40530300">
        <ele>402.00000</ele>
        <time>2010-01-01T01:41:41Z</time>
      </trkpt>
      <trkpt lat="32.50530300" lon="35.40545500">
        <ele>402.00000</ele>
        <time>2010-01-01T01:41:46Z</time>
      </trkpt>
      <trkpt lat="32.50534000" lon="35.40562700">
        <ele>403.00000</ele>
        <time>2010-01-01T01:41:52Z</time>
      </trkpt>
      <trkpt lat="32.50538900" lon="35.40581600">
        <ele>404.00000</ele>
        <time>2010-01-01T01:41:59Z</time>
      </trkpt>
      <trkpt lat="32.50539500" lon="35.40599700">
        <ele>403.00000</ele>
        <time>2010-01-01T01:42:05Z</time>
      </trkpt>
      <trkpt lat="32.50540700" lon="35.40612200">
        <ele>402.00000</ele>
        <time>2010-01-01T01:42:09Z</time>
      </trkpt>
      <trkpt lat="32.50553600" lon="35.40620000">
        <ele>404.00000</ele>
        <time>2010-01-01T01:42:15Z</time>
      </trkpt>
      <trkpt lat="32.50563700" lon="35.40612900">
        <ele>406.00000</ele>
        <time>2010-01-01T01:42:20Z</time>
      </trkpt>
      <trkpt lat="32.50571100" lon="35.40606500">
        <ele>408.00000</ele>
        <time>2010-01-01T01:42:23Z</time>
      </trkpt>
      <trkpt lat="32.50575500" lon="35.40605200">
        <ele>409.00000</ele>
        <time>2010-01-01T01:42:25Z</time>
      </trkpt>
      <trkpt lat="32.50579000" lon="35.40610000">
        <ele>409.00000</ele>
        <time>2010-01-01T01:42:27Z</time>
      </trkpt>
      <trkpt lat="32.50578800" lon="35.40627000">
        <ele>408.00000</ele>
        <time>2010-01-01T01:42:33Z</time>
      </trkpt>
      <trkpt lat="32.50578600" lon="35.40639500">
        <ele>407.00000</ele>
        <time>2010-01-01T01:42:37Z</time>
      </trkpt>
      <trkpt lat="32.50580200" lon="35.40645600">
        <ele>407.00000</ele>
        <time>2010-01-01T01:42:39Z</time>
      </trkpt>
      <trkpt lat="32.50587800" lon="35.40650200">
        <ele>409.00000</ele>
        <time>2010-01-01T01:42:43Z</time>
      </trkpt>
      <trkpt lat="32.50590600" lon="35.40654400">
        <ele>409.00000</ele>
        <time>2010-01-01T01:42:45Z</time>
      </trkpt>
      <trkpt lat="32.50591300" lon="35.40659200">
        <ele>409.00000</ele>
        <time>2010-01-01T01:42:46Z</time>
      </trkpt>
      <trkpt lat="32.50595000" lon="35.40667800">
        <ele>410.00000</ele>
        <time>2010-01-01T01:42:50Z</time>
      </trkpt>
      <trkpt lat="32.50599200" lon="35.40675400">
        <ele>411.00000</ele>
        <time>2010-01-01T01:42:53Z</time>
      </trkpt>
      <trkpt lat="32.50600700" lon="35.40676200">
        <ele>412.00000</ele>
        <time>2010-01-01T01:42:53Z</time>
      </trkpt>
      <trkpt lat="32.50601300" lon="35.40677100">
        <ele>412.00000</ele>
        <time>2010-01-01T01:42:54Z</time>
      </trkpt>
      <trkpt lat="32.50599400" lon="35.40679300">
        <ele>411.00000</ele>
        <time>2010-01-01T01:42:55Z</time>
      </trkpt>
      <trkpt lat="32.50598500" lon="35.40678600">
        <ele>411.00000</ele>
        <time>2010-01-01T01:42:55Z</time>
      </trkpt>
      <trkpt lat="32.50598200" lon="35.40678500">
        <ele>411.00000</ele>
        <time>2010-01-01T01:42:55Z</time>
      </trkpt>
      <trkpt lat="32.50598100" lon="35.40678400">
        <ele>411.00000</ele>
        <time>2010-01-01T01:42:55Z</time>
      </trkpt>
      <trkpt lat="32.50598100" lon="35.40678100">
        <ele>411.00000</ele>
        <time>2010-01-01T01:42:55Z</time>
      </trkpt>
      <trkpt lat="32.50598700" lon="35.40677800">
        <ele>411.00000</ele>
        <time>2010-01-01T01:42:56Z</time>
      </trkpt>
      <trkpt lat="32.50600000" lon="35.40678800">
        <ele>412.00000</ele>
        <time>2010-01-01T01:42:56Z</time>
      </trkpt>
      <trkpt lat="32.50599500" lon="35.40678100">
        <ele>411.00000</ele>
        <time>2010-01-01T01:42:57Z</time>
      </trkpt>
      <trkpt lat="32.50597700" lon="35.40675400">
        <ele>411.00000</ele>
        <time>2010-01-01T01:42:58Z</time>
      </trkpt>
      <trkpt lat="32.50596000" lon="35.40676300">
        <ele>410.00000</ele>
        <time>2010-01-01T01:42:59Z</time>
      </trkpt>
      <trkpt lat="32.50596900" lon="35.40676800">
        <ele>411.00000</ele>
        <time>2010-01-01T01:42:59Z</time>
      </trkpt>
      <trkpt lat="32.50596100" lon="35.40676700">
        <ele>411.00000</ele>
        <time>2010-01-01T01:42:59Z</time>
      </trkpt>
      <trkpt lat="32.50597800" lon="35.40674600">
        <ele>411.00000</ele>
        <time>2010-01-01T01:43:00Z</time>
      </trkpt>
      <trkpt lat="32.50601100" lon="35.40674100">
        <ele>412.00000</ele>
        <time>2010-01-01T01:43:02Z</time>
      </trkpt>
      <trkpt lat="32.50601100" lon="35.40674700">
        <ele>412.00000</ele>
        <time>2010-01-01T01:43:02Z</time>
      </trkpt>
      <trkpt lat="32.50601100" lon="35.40676600">
        <ele>412.00000</ele>
        <time>2010-01-01T01:43:02Z</time>
      </trkpt>
      <trkpt lat="32.50599800" lon="35.40677900">
        <ele>411.00000</ele>
        <time>2010-01-01T01:43:03Z</time>
      </trkpt>
      <trkpt lat="32.50597000" lon="35.40681600">
        <ele>411.00000</ele>
        <time>2010-01-01T01:43:05Z</time>
      </trkpt>
      <trkpt lat="32.50597600" lon="35.40680700">
        <ele>411.00000</ele>
        <time>2010-01-01T01:43:05Z</time>
      </trkpt>
      <trkpt lat="32.50595700" lon="35.40681500">
        <ele>411.00000</ele>
        <time>2010-01-01T01:43:06Z</time>
      </trkpt>
      <trkpt lat="32.50596600" lon="35.40680700">
        <ele>411.00000</ele>
        <time>2010-01-01T01:43:06Z</time>
      </trkpt>
      <trkpt lat="32.50596900" lon="35.40679800">
        <ele>411.00000</ele>
        <time>2010-01-01T01:43:07Z</time>
      </trkpt>
      <trkpt lat="32.50595900" lon="35.40684300">
        <ele>411.00000</ele>
        <time>2010-01-01T01:43:08Z</time>
      </trkpt>
      <trkpt lat="32.50597600" lon="35.40685300">
        <ele>411.00000</ele>
        <time>2010-01-01T01:43:09Z</time>
      </trkpt>
      <trkpt lat="32.50598400" lon="35.40683500">
        <ele>411.00000</ele>
        <time>2010-01-01T01:43:10Z</time>
      </trkpt>
      <trkpt lat="32.50598600" lon="35.40683000">
        <ele>411.00000</ele>
        <time>2010-01-01T01:43:10Z</time>
      </trkpt>
      <trkpt lat="32.50599100" lon="35.40680400">
        <ele>411.00000</ele>
        <time>2010-01-01T01:43:11Z</time>
      </trkpt>
      <trkpt lat="32.50599000" lon="35.40680300">
        <ele>411.00000</ele>
        <time>2010-01-01T01:43:11Z</time>
      </trkpt>
      <trkpt lat="32.50600200" lon="35.40682600">
        <ele>412.00000</ele>
        <time>2010-01-01T01:43:12Z</time>
      </trkpt>
      <trkpt lat="32.50603200" lon="35.40688500">
        <ele>413.00000</ele>
        <time>2010-01-01T01:43:14Z</time>
      </trkpt>
      <trkpt lat="32.50604400" lon="35.40690400">
        <ele>413.00000</ele>
        <time>2010-01-01T01:43:15Z</time>
      </trkpt>
      <trkpt lat="32.50606800" lon="35.40696900">
        <ele>414.00000</ele>
        <time>2010-01-01T01:43:17Z</time>
      </trkpt>
      <trkpt lat="32.50611100" lon="35.40707900">
        <ele>415.00000</ele>
        <time>2010-01-01T01:43:21Z</time>
      </trkpt>
      <trkpt lat="32.50612500" lon="35.40714900">
        <ele>416.00000</ele>
        <time>2010-01-01T01:43:24Z</time>
      </trkpt>
      <trkpt lat="32.50615600" lon="35.40728400">
        <ele>417.00000</ele>
        <time>2010-01-01T01:43:29Z</time>
      </trkpt>
      <trkpt lat="32.50609300" lon="35.40747000">
        <ele>416.00000</ele>
        <time>2010-01-01T01:43:35Z</time>
      </trkpt>
      <trkpt lat="32.50598600" lon="35.40768400">
        <ele>416.00000</ele>
        <time>2010-01-01T01:43:44Z</time>
      </trkpt>
      <trkpt lat="32.50584900" lon="35.40774900">
        <ele>414.00000</ele>
        <time>2010-01-01T01:43:50Z</time>
      </trkpt>
      <trkpt lat="32.50577400" lon="35.40781500">
        <ele>414.00000</ele>
        <time>2010-01-01T01:43:53Z</time>
      </trkpt>
      <trkpt lat="32.50567900" lon="35.40790400">
        <ele>414.00000</ele>
        <time>2010-01-01T01:43:58Z</time>
      </trkpt>
      <trkpt lat="32.50557400" lon="35.40802400">
        <ele>415.00000</ele>
        <time>2010-01-01T01:44:04Z</time>
      </trkpt>
      <trkpt lat="32.50543500" lon="35.40810300">
        <ele>415.00000</ele>
        <time>2010-01-01T01:44:10Z</time>
      </trkpt>
      <trkpt lat="32.50530100" lon="35.40814200">
        <ele>414.00000</ele>
        <time>2010-01-01T01:44:16Z</time>
      </trkpt>
      <trkpt lat="32.50518900" lon="35.40818800">
        <ele>414.00000</ele>
        <time>2010-01-01T01:44:21Z</time>
      </trkpt>
      <trkpt lat="32.50507000" lon="35.40822900">
        <ele>413.00000</ele>
        <time>2010-01-01T01:44:26Z</time>
      </trkpt>
      <trkpt lat="32.50498200" lon="35.40828100">
        <ele>414.00000</ele>
        <time>2010-01-01T01:44:29Z</time>
      </trkpt>
      <trkpt lat="32.50484800" lon="35.40838200">
        <ele>413.00000</ele>
        <time>2010-01-01T01:44:36Z</time>
      </trkpt>
      <trkpt lat="32.50475800" lon="35.40845600">
        <ele>413.00000</ele>
        <time>2010-01-01T01:44:40Z</time>
      </trkpt>
      <trkpt lat="32.50464600" lon="35.40853600">
        <ele>413.00000</ele>
        <time>2010-01-01T01:44:45Z</time>
      </trkpt>
      <trkpt lat="32.50456600" lon="35.40861900">
        <ele>413.00000</ele>
        <time>2010-01-01T01:44:50Z</time>
      </trkpt>
      <trkpt lat="32.50452500" lon="35.40866900">
        <ele>413.00000</ele>
        <time>2010-01-01T01:44:52Z</time>
      </trkpt>
      <trkpt lat="32.50451100" lon="35.40875500">
        <ele>414.00000</ele>
        <time>2010-01-01T01:44:55Z</time>
      </trkpt>
      <trkpt lat="32.50445100" lon="35.40886600">
        <ele>415.00000</ele>
        <time>2010-01-01T01:44:59Z</time>
      </trkpt>
      <trkpt lat="32.50436900" lon="35.40896200">
        <ele>415.00000</ele>
        <time>2010-01-01T01:45:04Z</time>
      </trkpt>
      <trkpt lat="32.50434000" lon="35.40900400">
        <ele>415.00000</ele>
        <time>2010-01-01T01:45:06Z</time>
      </trkpt>
      <trkpt lat="32.50431400" lon="35.40912000">
        <ele>416.00000</ele>
        <time>2010-01-01T01:45:10Z</time>
      </trkpt>
      <trkpt lat="32.50426800" lon="35.40922400">
        <ele>417.00000</ele>
        <time>2010-01-01T01:45:14Z</time>
      </trkpt>
      <trkpt lat="32.50423900" lon="35.40935700">
        <ele>418.00000</ele>
        <time>2010-01-01T01:45:19Z</time>
      </trkpt>
      <trkpt lat="32.50423000" lon="35.40938400">
        <ele>418.00000</ele>
        <time>2010-01-01T01:45:20Z</time>
      </trkpt>
      <trkpt lat="32.50416000" lon="35.40953900">
        <ele>419.00000</ele>
        <time>2010-01-01T01:45:25Z</time>
      </trkpt>
      <trkpt lat="32.50409700" lon="35.40967300">
        <ele>420.00000</ele>
        <time>2010-01-01T01:45:31Z</time>
      </trkpt>
      <trkpt lat="32.50403500" lon="35.40977000">
        <ele>420.00000</ele>
        <time>2010-01-01T01:45:35Z</time>
      </trkpt>
      <trkpt lat="32.50397800" lon="35.40986900">
        <ele>421.00000</ele>
        <time>2010-01-01T01:45:39Z</time>
      </trkpt>
      <trkpt lat="32.50392800" lon="35.41000100">
        <ele>422.00000</ele>
        <time>2010-01-01T01:45:44Z</time>
      </trkpt>
      <trkpt lat="32.50389100" lon="35.41008800">
        <ele>422.00000</ele>
        <time>2010-01-01T01:45:47Z</time>
      </trkpt>
      <trkpt lat="32.50386200" lon="35.41011300">
        <ele>422.00000</ele>
        <time>2010-01-01T01:45:48Z</time>
      </trkpt>
      <trkpt lat="32.50386600" lon="35.41012900">
        <ele>422.00000</ele>
        <time>2010-01-01T01:45:49Z</time>
      </trkpt>
      <trkpt lat="32.50383500" lon="35.41021400">
        <ele>423.00000</ele>
        <time>2010-01-01T01:45:52Z</time>
      </trkpt>
      <trkpt lat="32.50380700" lon="35.41025300">
        <ele>423.00000</ele>
        <time>2010-01-01T01:45:54Z</time>
      </trkpt>
      <trkpt lat="32.50381100" lon="35.41032500">
        <ele>424.00000</ele>
        <time>2010-01-01T01:45:56Z</time>
      </trkpt>
      <trkpt lat="32.50373600" lon="35.41049100">
        <ele>425.00000</ele>
        <time>2010-01-01T01:46:03Z</time>
      </trkpt>
      <trkpt lat="32.50365300" lon="35.41061600">
        <ele>426.00000</ele>
        <time>2010-01-01T01:46:08Z</time>
      </trkpt>
      <trkpt lat="32.50358200" lon="35.41073500">
        <ele>427.00000</ele>
        <time>2010-01-01T01:46:13Z</time>
      </trkpt>
      <trkpt lat="32.50346900" lon="35.41087400">
        <ele>427.00000</ele>
        <time>2010-01-01T01:46:19Z</time>
      </trkpt>
      <trkpt lat="32.50335300" lon="35.41098900">
        <ele>427.00000</ele>
        <time>2010-01-01T01:46:25Z</time>
      </trkpt>
      <trkpt lat="32.50319800" lon="35.41101400">
        <ele>427.00000</ele>
        <time>2010-01-01T01:46:32Z</time>
      </trkpt>
      <trkpt lat="32.50308400" lon="35.41097200">
        <ele>426.00000</ele>
        <time>2010-01-01T01:46:37Z</time>
      </trkpt>
      <trkpt lat="32.50293900" lon="35.41094800">
        <ele>425.00000</ele>
        <time>2010-01-01T01:46:42Z</time>
      </trkpt>
      <trkpt lat="32.50276000" lon="35.41096300">
        <ele>424.00000</ele>
        <time>2010-01-01T01:46:50Z</time>
      </trkpt>
      <trkpt lat="32.50262800" lon="35.41098800">
        <ele>424.00000</ele>
        <time>2010-01-01T01:46:55Z</time>
      </trkpt>
      <trkpt lat="32.50252200" lon="35.41103300">
        <ele>424.00000</ele>
        <time>2010-01-01T01:46:59Z</time>
      </trkpt>
      <trkpt lat="32.50239000" lon="35.41107200">
        <ele>423.00000</ele>
        <time>2010-01-01T01:47:05Z</time>
      </trkpt>
      <trkpt lat="32.50226600" lon="35.41112600">
        <ele>423.00000</ele>
        <time>2010-01-01T01:47:10Z</time>
      </trkpt>
      <trkpt lat="32.50215300" lon="35.41118800">
        <ele>422.00000</ele>
        <time>2010-01-01T01:47:15Z</time>
      </trkpt>
      <trkpt lat="32.50201000" lon="35.41123600">
        <ele>422.00000</ele>
        <time>2010-01-01T01:47:21Z</time>
      </trkpt>
      <trkpt lat="32.50186500" lon="35.41121700">
        <ele>420.00000</ele>
        <time>2010-01-01T01:47:27Z</time>
      </trkpt>
      <trkpt lat="32.50161600" lon="35.41112700">
        <ele>418.00000</ele>
        <time>2010-01-01T01:47:37Z</time>
      </trkpt>
      <trkpt lat="32.50152200" lon="35.41109700">
        <ele>417.00000</ele>
        <time>2010-01-01T01:47:41Z</time>
      </trkpt>
      <trkpt lat="32.50136400" lon="35.41113200">
        <ele>417.00000</ele>
        <time>2010-01-01T01:47:48Z</time>
      </trkpt>
      <trkpt lat="32.50119900" lon="35.41133400">
        <ele>417.00000</ele>
        <time>2010-01-01T01:47:57Z</time>
      </trkpt>
      <trkpt lat="32.50114300" lon="35.41144400">
        <ele>418.00000</ele>
        <time>2010-01-01T01:48:02Z</time>
      </trkpt>
      <trkpt lat="32.50101700" lon="35.41153200">
        <ele>418.00000</ele>
        <time>2010-01-01T01:48:07Z</time>
      </trkpt>
      <trkpt lat="32.50097700" lon="35.41165200">
        <ele>418.00000</ele>
        <time>2010-01-01T01:48:12Z</time>
      </trkpt>
      <trkpt lat="32.50094500" lon="35.41178100">
        <ele>418.00000</ele>
        <time>2010-01-01T01:48:16Z</time>
      </trkpt>
      <trkpt lat="32.50095600" lon="35.41192100">
        <ele>419.00000</ele>
        <time>2010-01-01T01:48:21Z</time>
      </trkpt>
      <trkpt lat="32.50092900" lon="35.41204200">
        <ele>420.00000</ele>
        <time>2010-01-01T01:48:25Z</time>
      </trkpt>
      <trkpt lat="32.50081000" lon="35.41218100">
        <ele>420.00000</ele>
        <time>2010-01-01T01:48:32Z</time>
      </trkpt>
      <trkpt lat="32.50064400" lon="35.41243100">
        <ele>419.00000</ele>
        <time>2010-01-01T01:48:43Z</time>
      </trkpt>
      <trkpt lat="32.50053700" lon="35.41248300">
        <ele>418.00000</ele>
        <time>2010-01-01T01:48:47Z</time>
      </trkpt>
      <trkpt lat="32.50053000" lon="35.41248300">
        <ele>418.00000</ele>
        <time>2010-01-01T01:48:48Z</time>
      </trkpt>
      <trkpt lat="32.50054000" lon="35.41244700">
        <ele>418.00000</ele>
        <time>2010-01-01T01:48:49Z</time>
      </trkpt>
      <trkpt lat="32.50054800" lon="35.41244500">
        <ele>418.00000</ele>
        <time>2010-01-01T01:48:49Z</time>
      </trkpt>
      <trkpt lat="32.50054800" lon="35.41244400">
        <ele>418.00000</ele>
        <time>2010-01-01T01:48:49Z</time>
      </trkpt>
      <trkpt lat="32.50054900" lon="35.41244400">
        <ele>418.00000</ele>
        <time>2010-01-01T01:48:49Z</time>
      </trkpt>
      <trkpt lat="32.50054900" lon="35.41244500">
        <ele>418.00000</ele>
        <time>2010-01-01T01:48:49Z</time>
      </trkpt>
      <trkpt lat="32.50054800" lon="35.41244500">
        <ele>418.00000</ele>
        <time>2010-01-01T01:48:49Z</time>
      </trkpt>
      <trkpt lat="32.50054600" lon="35.41244500">
        <ele>418.00000</ele>
        <time>2010-01-01T01:48:49Z</time>
      </trkpt>
      <trkpt lat="32.50054500" lon="35.41244600">
        <ele>418.00000</ele>
        <time>2010-01-01T01:48:50Z</time>
      </trkpt>
      <trkpt lat="32.50054300" lon="35.41244500">
        <ele>418.00000</ele>
        <time>2010-01-01T01:48:50Z</time>
      </trkpt>
      <trkpt lat="32.50054200" lon="35.41244500">
        <ele>418.00000</ele>
        <time>2010-01-01T01:48:50Z</time>
      </trkpt>
      <trkpt lat="32.50054000" lon="35.41244800">
        <ele>418.00000</ele>
        <time>2010-01-01T01:48:50Z</time>
      </trkpt>
      <trkpt lat="32.50054400" lon="35.41245800">
        <ele>418.00000</ele>
        <time>2010-01-01T01:48:50Z</time>
      </trkpt>
      <trkpt lat="32.50054000" lon="35.41244800">
        <ele>418.00000</ele>
        <time>2010-01-01T01:48:51Z</time>
      </trkpt>
      <trkpt lat="32.50051800" lon="35.41248600">
        <ele>417.00000</ele>
        <time>2010-01-01T01:48:52Z</time>
      </trkpt>
      <trkpt lat="32.50048200" lon="35.41251600">
        <ele>417.00000</ele>
        <time>2010-01-01T01:48:54Z</time>
      </trkpt>
      <trkpt lat="32.50032700" lon="35.41265000">
        <ele>416.00000</ele>
        <time>2010-01-01T01:49:02Z</time>
      </trkpt>
      <trkpt lat="32.50015000" lon="35.41283100">
        <ele>414.00000</ele>
        <time>2010-01-01T01:49:11Z</time>
      </trkpt>
      <trkpt lat="32.49989700" lon="35.41303100">
        <ele>411.00000</ele>
        <time>2010-01-01T01:49:23Z</time>
      </trkpt>
      <trkpt lat="32.49966700" lon="35.41321100">
        <ele>409.00000</ele>
        <time>2010-01-01T01:49:34Z</time>
      </trkpt>
      <trkpt lat="32.49927300" lon="35.41358600">
        <ele>404.00000</ele>
        <time>2010-01-01T01:49:54Z</time>
      </trkpt>
      <trkpt lat="32.49922700" lon="35.41363800">
        <ele>404.00000</ele>
        <time>2010-01-01T01:49:57Z</time>
      </trkpt>
      <trkpt lat="32.49907400" lon="35.41368700">
        <ele>402.00000</ele>
        <time>2010-01-01T01:50:03Z</time>
      </trkpt>
      <trkpt lat="32.49900800" lon="35.41358000">
        <ele>401.00000</ele>
        <time>2010-01-01T01:50:08Z</time>
      </trkpt>
      <trkpt lat="32.49899400" lon="35.41353700">
        <ele>401.00000</ele>
        <time>2010-01-01T01:50:09Z</time>
      </trkpt>
      <trkpt lat="32.49891300" lon="35.41331000">
        <ele>401.00000</ele>
        <time>2010-01-01T01:50:18Z</time>
      </trkpt>
      <trkpt lat="32.49884400" lon="35.41319100">
        <ele>402.00000</ele>
        <time>2010-01-01T01:50:22Z</time>
      </trkpt>
      <trkpt lat="32.49875600" lon="35.41309600">
        <ele>402.00000</ele>
        <time>2010-01-01T01:50:27Z</time>
      </trkpt>
      <trkpt lat="32.49854600" lon="35.41299000">
        <ele>403.00000</ele>
        <time>2010-01-01T01:50:36Z</time>
      </trkpt>
      <trkpt lat="32.49832500" lon="35.41297600">
        <ele>403.00000</ele>
        <time>2010-01-01T01:50:45Z</time>
      </trkpt>
      <trkpt lat="32.49818700" lon="35.41301500">
        <ele>405.00000</ele>
        <time>2010-01-01T01:50:51Z</time>
      </trkpt>
      <trkpt lat="32.49806200" lon="35.41308300">
        <ele>405.00000</ele>
        <time>2010-01-01T01:50:56Z</time>
      </trkpt>
      <trkpt lat="32.49796800" lon="35.41313600">
        <ele>406.00000</ele>
        <time>2010-01-01T01:51:01Z</time>
      </trkpt>
      <trkpt lat="32.49788500" lon="35.41327500">
        <ele>405.00000</ele>
        <time>2010-01-01T01:51:06Z</time>
      </trkpt>
      <trkpt lat="32.49778400" lon="35.41348200">
        <ele>403.00000</ele>
        <time>2010-01-01T01:51:14Z</time>
      </trkpt>
      <trkpt lat="32.49775900" lon="35.41353400">
        <ele>402.00000</ele>
        <time>2010-01-01T01:51:16Z</time>
      </trkpt>
      <trkpt lat="32.49775200" lon="35.41354900">
        <ele>402.00000</ele>
        <time>2010-01-01T01:51:17Z</time>
      </trkpt>
      <trkpt lat="32.49777100" lon="35.41355800">
        <ele>402.00000</ele>
        <time>2010-01-01T01:51:18Z</time>
      </trkpt>
      <trkpt lat="32.49777800" lon="35.41355800">
        <ele>402.00000</ele>
        <time>2010-01-01T01:51:18Z</time>
      </trkpt>
      <trkpt lat="32.49778000" lon="35.41355900">
        <ele>402.00000</ele>
        <time>2010-01-01T01:51:18Z</time>
      </trkpt>
      <trkpt lat="32.49775300" lon="35.41357800">
        <ele>402.00000</ele>
        <time>2010-01-01T01:51:19Z</time>
      </trkpt>
      <trkpt lat="32.49774700" lon="35.41358100">
        <ele>402.00000</ele>
        <time>2010-01-01T01:51:20Z</time>
      </trkpt>
      <trkpt lat="32.49774600" lon="35.41358100">
        <ele>402.00000</ele>
        <time>2010-01-01T01:51:20Z</time>
      </trkpt>
      <trkpt lat="32.49774200" lon="35.41356200">
        <ele>402.00000</ele>
        <time>2010-01-01T01:51:20Z</time>
      </trkpt>
      <trkpt lat="32.49775100" lon="35.41354500">
        <ele>402.00000</ele>
        <time>2010-01-01T01:51:21Z</time>
      </trkpt>
      <trkpt lat="32.49780000" lon="35.41346800">
        <ele>403.00000</ele>
        <time>2010-01-01T01:51:24Z</time>
      </trkpt>
      <trkpt lat="32.49786100" lon="35.41338500">
        <ele>403.00000</ele>
        <time>2010-01-01T01:51:28Z</time>
      </trkpt>
      <trkpt lat="32.49788600" lon="35.41335200">
        <ele>404.00000</ele>
        <time>2010-01-01T01:51:30Z</time>
      </trkpt>
      <trkpt lat="32.49793100" lon="35.41332300">
        <ele>403.00000</ele>
        <time>2010-01-01T01:51:32Z</time>
      </trkpt>
      <trkpt lat="32.49794700" lon="35.41330100">
        <ele>404.00000</ele>
        <time>2010-01-01T01:51:33Z</time>
      </trkpt>
      <trkpt lat="32.49795400" lon="35.41326400">
        <ele>404.00000</ele>
        <time>2010-01-01T01:51:34Z</time>
      </trkpt>
      <trkpt lat="32.49797700" lon="35.41322900">
        <ele>404.00000</ele>
        <time>2010-01-01T01:51:35Z</time>
      </trkpt>
      <trkpt lat="32.49799700" lon="35.41316700">
        <ele>405.00000</ele>
        <time>2010-01-01T01:51:38Z</time>
      </trkpt>
      <trkpt lat="32.49802500" lon="35.41313600">
        <ele>405.00000</ele>
        <time>2010-01-01T01:51:39Z</time>
      </trkpt>
      <trkpt lat="32.49805600" lon="35.41312700">
        <ele>405.00000</ele>
        <time>2010-01-01T01:51:40Z</time>
      </trkpt>
      <trkpt lat="32.49804500" lon="35.41317100">
        <ele>404.00000</ele>
        <time>2010-01-01T01:51:42Z</time>
      </trkpt>
      <trkpt lat="32.49802600" lon="35.41318300">
        <ele>404.00000</ele>
        <time>2010-01-01T01:51:43Z</time>
      </trkpt>
      <trkpt lat="32.49803300" lon="35.41317300">
        <ele>405.00000</ele>
        <time>2010-01-01T01:51:43Z</time>
      </trkpt>
      <trkpt lat="32.49803500" lon="35.41317100">
        <ele>405.00000</ele>
        <time>2010-01-01T01:51:43Z</time>
      </trkpt>
      <trkpt lat="32.49803500" lon="35.41316600">
        <ele>405.00000</ele>
        <time>2010-01-01T01:51:43Z</time>
      </trkpt>
      <trkpt lat="32.49803500" lon="35.41316100">
        <ele>405.00000</ele>
        <time>2010-01-01T01:51:44Z</time>
      </trkpt>
      <trkpt lat="32.49803900" lon="35.41314600">
        <ele>405.00000</ele>
        <time>2010-01-01T01:51:44Z</time>
      </trkpt>
      <trkpt lat="32.49805200" lon="35.41313400">
        <ele>405.00000</ele>
        <time>2010-01-01T01:51:45Z</time>
      </trkpt>
      <trkpt lat="32.49809000" lon="35.41308900">
        <ele>405.00000</ele>
        <time>2010-01-01T01:51:47Z</time>
      </trkpt>
      <trkpt lat="32.49812500" lon="35.41305000">
        <ele>405.00000</ele>
        <time>2010-01-01T01:51:49Z</time>
      </trkpt>
      <trkpt lat="32.49808600" lon="35.41303500">
        <ele>406.00000</ele>
        <time>2010-01-01T01:51:51Z</time>
      </trkpt>
      <trkpt lat="32.49807000" lon="35.41304100">
        <ele>406.00000</ele>
        <time>2010-01-01T01:51:51Z</time>
      </trkpt>
      <trkpt lat="32.49806100" lon="35.41303800">
        <ele>406.00000</ele>
        <time>2010-01-01T01:51:52Z</time>
      </trkpt>
      <trkpt lat="32.49798500" lon="35.41300000">
        <ele>408.00000</ele>
        <time>2010-01-01T01:51:55Z</time>
      </trkpt>
      <trkpt lat="32.49789500" lon="35.41298700">
        <ele>409.00000</ele>
        <time>2010-01-01T01:51:59Z</time>
      </trkpt>
      <trkpt lat="32.49786000" lon="35.41298400">
        <ele>410.00000</ele>
        <time>2010-01-01T01:52:00Z</time>
      </trkpt>
      <trkpt lat="32.49774700" lon="35.41300500">
        <ele>411.00000</ele>
        <time>2010-01-01T01:52:05Z</time>
      </trkpt>
      <trkpt lat="32.49768300" lon="35.41299100">
        <ele>412.00000</ele>
        <time>2010-01-01T01:52:07Z</time>
      </trkpt>
      <trkpt lat="32.49765500" lon="35.41294100">
        <ele>414.00000</ele>
        <time>2010-01-01T01:52:09Z</time>
      </trkpt>
      <trkpt lat="32.49765800" lon="35.41290300">
        <ele>414.00000</ele>
        <time>2010-01-01T01:52:10Z</time>
      </trkpt>
      <trkpt lat="32.49768600" lon="35.41281000">
        <ele>416.00000</ele>
        <time>2010-01-01T01:52:14Z</time>
      </trkpt>
      <trkpt lat="32.49768900" lon="35.41279700">
        <ele>416.00000</ele>
        <time>2010-01-01T01:52:14Z</time>
      </trkpt>
      <trkpt lat="32.49771300" lon="35.41270100">
        <ele>417.00000</ele>
        <time>2010-01-01T01:52:18Z</time>
      </trkpt>
      <trkpt lat="32.49774000" lon="35.41262100">
        <ele>418.00000</ele>
        <time>2010-01-01T01:52:21Z</time>
      </trkpt>
      <trkpt lat="32.49775000" lon="35.41250200">
        <ele>420.00000</ele>
        <time>2010-01-01T01:52:25Z</time>
      </trkpt>
      <trkpt lat="32.49771600" lon="35.41244900">
        <ele>421.00000</ele>
        <time>2010-01-01T01:52:27Z</time>
      </trkpt>
      <trkpt lat="32.49772300" lon="35.41232300">
        <ele>422.00000</ele>
        <time>2010-01-01T01:52:31Z</time>
      </trkpt>
      <trkpt lat="32.49767900" lon="35.41229600">
        <ele>423.00000</ele>
        <time>2010-01-01T01:52:33Z</time>
      </trkpt>
      <trkpt lat="32.49764200" lon="35.41232800">
        <ele>423.00000</ele>
        <time>2010-01-01T01:52:35Z</time>
      </trkpt>
      <trkpt lat="32.49755800" lon="35.41244000">
        <ele>424.00000</ele>
        <time>2010-01-01T01:52:40Z</time>
      </trkpt>
      <trkpt lat="32.49749000" lon="35.41253000">
        <ele>425.00000</ele>
        <time>2010-01-01T01:52:44Z</time>
      </trkpt>
      <trkpt lat="32.49738900" lon="35.41261900">
        <ele>424.00000</ele>
        <time>2010-01-01T01:52:49Z</time>
      </trkpt>
      <trkpt lat="32.49728500" lon="35.41272800">
        <ele>424.00000</ele>
        <time>2010-01-01T01:52:55Z</time>
      </trkpt>
      <trkpt lat="32.49720800" lon="35.41278300">
        <ele>424.00000</ele>
        <time>2010-01-01T01:52:58Z</time>
      </trkpt>
      <trkpt lat="32.49710200" lon="35.41283100">
        <ele>425.00000</ele>
        <time>2010-01-01T01:53:03Z</time>
      </trkpt>
      <trkpt lat="32.49699200" lon="35.41289100">
        <ele>425.00000</ele>
        <time>2010-01-01T01:53:08Z</time>
      </trkpt>
      <trkpt lat="32.49687900" lon="35.41298100">
        <ele>425.00000</ele>
        <time>2010-01-01T01:53:13Z</time>
      </trkpt>
      <trkpt lat="32.49673500" lon="35.41301700">
        <ele>427.00000</ele>
        <time>2010-01-01T01:53:19Z</time>
      </trkpt>
      <trkpt lat="32.49664300" lon="35.41304100">
        <ele>428.00000</ele>
        <time>2010-01-01T01:53:23Z</time>
      </trkpt>
      <trkpt lat="32.49649300" lon="35.41313800">
        <ele>428.00000</ele>
        <time>2010-01-01T01:53:30Z</time>
      </trkpt>
      <trkpt lat="32.49636300" lon="35.41324100">
        <ele>428.00000</ele>
        <time>2010-01-01T01:53:36Z</time>
      </trkpt>
      <trkpt lat="32.49625600" lon="35.41329900">
        <ele>428.00000</ele>
        <time>2010-01-01T01:53:41Z</time>
      </trkpt>
      <trkpt lat="32.49612100" lon="35.41334300">
        <ele>429.00000</ele>
        <time>2010-01-01T01:53:46Z</time>
      </trkpt>
      <trkpt lat="32.49600700" lon="35.41337000">
        <ele>430.00000</ele>
        <time>2010-01-01T01:53:51Z</time>
      </trkpt>
      <trkpt lat="32.49587700" lon="35.41345700">
        <ele>430.00000</ele>
        <time>2010-01-01T01:53:57Z</time>
      </trkpt>
      <trkpt lat="32.49574700" lon="35.41356500">
        <ele>431.00000</ele>
        <time>2010-01-01T01:54:03Z</time>
      </trkpt>
      <trkpt lat="32.49564800" lon="35.41356300">
        <ele>432.00000</ele>
        <time>2010-01-01T01:54:07Z</time>
      </trkpt>
      <trkpt lat="32.49557400" lon="35.41353600">
        <ele>434.00000</ele>
        <time>2010-01-01T01:54:10Z</time>
      </trkpt>
      <trkpt lat="32.49543200" lon="35.41364200">
        <ele>435.00000</ele>
        <time>2010-01-01T01:54:17Z</time>
      </trkpt>
      <trkpt lat="32.49530500" lon="35.41374300">
        <ele>435.00000</ele>
        <time>2010-01-01T01:54:23Z</time>
      </trkpt>
      <trkpt lat="32.49516400" lon="35.41386900">
        <ele>436.00000</ele>
        <time>2010-01-01T01:54:30Z</time>
      </trkpt>
      <trkpt lat="32.49505000" lon="35.41393900">
        <ele>437.00000</ele>
        <time>2010-01-01T01:54:35Z</time>
      </trkpt>
      <trkpt lat="32.49495300" lon="35.41411600">
        <ele>436.00000</ele>
        <time>2010-01-01T01:54:42Z</time>
      </trkpt>
      <trkpt lat="32.49486500" lon="35.41424700">
        <ele>436.00000</ele>
        <time>2010-01-01T01:54:48Z</time>
      </trkpt>
      <trkpt lat="32.49479600" lon="35.41437600">
        <ele>437.00000</ele>
        <time>2010-01-01T01:54:53Z</time>
      </trkpt>
      <trkpt lat="32.49477100" lon="35.41444700">
        <ele>437.00000</ele>
        <time>2010-01-01T01:54:56Z</time>
      </trkpt>
      <trkpt lat="32.49476000" lon="35.41449900">
        <ele>436.00000</ele>
        <time>2010-01-01T01:54:58Z</time>
      </trkpt>
      <trkpt lat="32.49466100" lon="35.41470200">
        <ele>436.00000</ele>
        <time>2010-01-01T01:55:05Z</time>
      </trkpt>
      <trkpt lat="32.49459700" lon="35.41484400">
        <ele>436.00000</ele>
        <time>2010-01-01T01:55:11Z</time>
      </trkpt>
      <trkpt lat="32.49449000" lon="35.41497000">
        <ele>438.00000</ele>
        <time>2010-01-01T01:55:17Z</time>
      </trkpt>
      <trkpt lat="32.49439400" lon="35.41507800">
        <ele>439.00000</ele>
        <time>2010-01-01T01:55:22Z</time>
      </trkpt>
      <trkpt lat="32.49430700" lon="35.41518400">
        <ele>440.00000</ele>
        <time>2010-01-01T01:55:27Z</time>
      </trkpt>
      <trkpt lat="32.49422100" lon="35.41530200">
        <ele>440.00000</ele>
        <time>2010-01-01T01:55:33Z</time>
      </trkpt>
      <trkpt lat="32.49413600" lon="35.41541200">
        <ele>440.00000</ele>
        <time>2010-01-01T01:55:38Z</time>
      </trkpt>
      <trkpt lat="32.49406600" lon="35.41553200">
        <ele>438.00000</ele>
        <time>2010-01-01T01:55:42Z</time>
      </trkpt>
      <trkpt lat="32.49393000" lon="35.41574000">
        <ele>436.00000</ele>
        <time>2010-01-01T01:55:51Z</time>
      </trkpt>
      <trkpt lat="32.49379300" lon="35.41592100">
        <ele>434.00000</ele>
        <time>2010-01-01T01:56:00Z</time>
      </trkpt>
      <trkpt lat="32.49369900" lon="35.41600600">
        <ele>434.00000</ele>
        <time>2010-01-01T01:56:04Z</time>
      </trkpt>
      <trkpt lat="32.49357200" lon="35.41611600">
        <ele>432.00000</ele>
        <time>2010-01-01T01:56:11Z</time>
      </trkpt>
      <trkpt lat="32.49346400" lon="35.41618900">
        <ele>432.00000</ele>
        <time>2010-01-01T01:56:16Z</time>
      </trkpt>
      <trkpt lat="32.49343200" lon="35.41624000">
        <ele>431.00000</ele>
        <time>2010-01-01T01:56:18Z</time>
      </trkpt>
      <trkpt lat="32.49335900" lon="35.41633400">
        <ele>430.00000</ele>
        <time>2010-01-01T01:56:22Z</time>
      </trkpt>
      <trkpt lat="32.49325100" lon="35.41642300">
        <ele>427.00000</ele>
        <time>2010-01-01T01:56:27Z</time>
      </trkpt>
      <trkpt lat="32.49313800" lon="35.41642700">
        <ele>425.00000</ele>
        <time>2010-01-01T01:56:32Z</time>
      </trkpt>
      <trkpt lat="32.49306800" lon="35.41642000">
        <ele>424.00000</ele>
        <time>2010-01-01T01:56:35Z</time>
      </trkpt>
      <trkpt lat="32.49295600" lon="35.41635800">
        <ele>424.00000</ele>
        <time>2010-01-01T01:56:40Z</time>
      </trkpt>
      <trkpt lat="32.49290300" lon="35.41630600">
        <ele>424.00000</ele>
        <time>2010-01-01T01:56:42Z</time>
      </trkpt>
      <trkpt lat="32.49282400" lon="35.41622200">
        <ele>425.00000</ele>
        <time>2010-01-01T01:56:47Z</time>
      </trkpt>
      <trkpt lat="32.49276400" lon="35.41608500">
        <ele>427.00000</ele>
        <time>2010-01-01T01:56:52Z</time>
      </trkpt>
      <trkpt lat="32.49266800" lon="35.41596900">
        <ele>428.00000</ele>
        <time>2010-01-01T01:56:57Z</time>
      </trkpt>
      <trkpt lat="32.49257300" lon="35.41586700">
        <ele>429.00000</ele>
        <time>2010-01-01T01:57:02Z</time>
      </trkpt>
      <trkpt lat="32.49245400" lon="35.41574400">
        <ele>429.00000</ele>
        <time>2010-01-01T01:57:09Z</time>
      </trkpt>
      <trkpt lat="32.49231300" lon="35.41561700">
        <ele>429.00000</ele>
        <time>2010-01-01T01:57:16Z</time>
      </trkpt>
      <trkpt lat="32.49224500" lon="35.41551200">
        <ele>429.00000</ele>
        <time>2010-01-01T01:57:20Z</time>
      </trkpt>
      <trkpt lat="32.49218200" lon="35.41543900">
        <ele>429.00000</ele>
        <time>2010-01-01T01:57:24Z</time>
      </trkpt>
      <trkpt lat="32.49218000" lon="35.41542100">
        <ele>430.00000</ele>
        <time>2010-01-01T01:57:24Z</time>
      </trkpt>
      <trkpt lat="32.49216400" lon="35.41535200">
        <ele>431.00000</ele>
        <time>2010-01-01T01:57:27Z</time>
      </trkpt>
      <trkpt lat="32.49211300" lon="35.41526900">
        <ele>431.00000</ele>
        <time>2010-01-01T01:57:30Z</time>
      </trkpt>
      <trkpt lat="32.49194200" lon="35.41512000">
        <ele>431.00000</ele>
        <time>2010-01-01T01:57:39Z</time>
      </trkpt>
      <trkpt lat="32.49185500" lon="35.41499600">
        <ele>433.00000</ele>
        <time>2010-01-01T01:57:44Z</time>
      </trkpt>
      <trkpt lat="32.49175400" lon="35.41485300">
        <ele>433.00000</ele>
        <time>2010-01-01T01:57:51Z</time>
      </trkpt>
      <trkpt lat="32.49162300" lon="35.41467600">
        <ele>434.00000</ele>
        <time>2010-01-01T01:57:59Z</time>
      </trkpt>
      <trkpt lat="32.49151500" lon="35.41457700">
        <ele>434.00000</ele>
        <time>2010-01-01T01:58:04Z</time>
      </trkpt>
      <trkpt lat="32.49131300" lon="35.41437400">
        <ele>434.00000</ele>
        <time>2010-01-01T01:58:15Z</time>
      </trkpt>
      <trkpt lat="32.49115700" lon="35.41427500">
        <ele>432.00000</ele>
        <time>2010-01-01T01:58:22Z</time>
      </trkpt>
      <trkpt lat="32.49101700" lon="35.41417200">
        <ele>431.00000</ele>
        <time>2010-01-01T01:58:28Z</time>
      </trkpt>
      <trkpt lat="32.49082400" lon="35.41400500">
        <ele>429.00000</ele>
        <time>2010-01-01T01:58:38Z</time>
      </trkpt>
      <trkpt lat="32.49065100" lon="35.41394600">
        <ele>427.00000</ele>
        <time>2010-01-01T01:58:45Z</time>
      </trkpt>
      <trkpt lat="32.49053800" lon="35.41407900">
        <ele>424.00000</ele>
        <time>2010-01-01T01:58:51Z</time>
      </trkpt>
      <trkpt lat="32.49050900" lon="35.41415200">
        <ele>423.00000</ele>
        <time>2010-01-01T01:58:54Z</time>
      </trkpt>
      <trkpt lat="32.49041300" lon="35.41433700">
        <ele>420.00000</ele>
        <time>2010-01-01T01:59:01Z</time>
      </trkpt>
      <trkpt lat="32.49025100" lon="35.41449100">
        <ele>415.00000</ele>
        <time>2010-01-01T01:59:10Z</time>
      </trkpt>
      <trkpt lat="32.49013000" lon="35.41448600">
        <ele>414.00000</ele>
        <time>2010-01-01T01:59:15Z</time>
      </trkpt>
      <trkpt lat="32.48983300" lon="35.41449300">
        <ele>411.00000</ele>
        <time>2010-01-01T01:59:27Z</time>
      </trkpt>
      <trkpt lat="32.48973400" lon="35.41453500">
        <ele>409.00000</ele>
        <time>2010-01-01T01:59:31Z</time>
      </trkpt>
      <trkpt lat="32.48952200" lon="35.41464400">
        <ele>407.00000</ele>
        <time>2010-01-01T01:59:40Z</time>
      </trkpt>
      <trkpt lat="32.48946800" lon="35.41469400">
        <ele>406.00000</ele>
        <time>2010-01-01T01:59:43Z</time>
      </trkpt>
      <trkpt lat="32.48939400" lon="35.41472300">
        <ele>405.00000</ele>
        <time>2010-01-01T01:59:46Z</time>
      </trkpt>
      <trkpt lat="32.48932700" lon="35.41483000">
        <ele>404.00000</ele>
        <time>2010-01-01T01:59:50Z</time>
      </trkpt>
      <trkpt lat="32.48929900" lon="35.41498200">
        <ele>402.00000</ele>
        <time>2010-01-01T01:59:56Z</time>
      </trkpt>
      <trkpt lat="32.48920800" lon="35.41503600">
        <ele>401.00000</ele>
        <time>2010-01-01T02:00:00Z</time>
      </trkpt>
      <trkpt lat="32.48903900" lon="35.41498400">
        <ele>400.00000</ele>
        <time>2010-01-01T02:00:07Z</time>
      </trkpt>
      <trkpt lat="32.48899900" lon="35.41489900">
        <ele>400.00000</ele>
        <time>2010-01-01T02:00:10Z</time>
      </trkpt>
      <trkpt lat="32.48896300" lon="35.41477600">
        <ele>400.00000</ele>
        <time>2010-01-01T02:00:14Z</time>
      </trkpt>
      <trkpt lat="32.48886000" lon="35.41465900">
        <ele>400.00000</ele>
        <time>2010-01-01T02:00:20Z</time>
      </trkpt>
      <trkpt lat="32.48877600" lon="35.41450500">
        <ele>400.00000</ele>
        <time>2010-01-01T02:00:26Z</time>
      </trkpt>
      <trkpt lat="32.48864700" lon="35.41439500">
        <ele>399.00000</ele>
        <time>2010-01-01T02:00:33Z</time>
      </trkpt>
      <trkpt lat="32.48854300" lon="35.41422700">
        <ele>399.00000</ele>
        <time>2010-01-01T02:00:40Z</time>
      </trkpt>
      <trkpt lat="32.48847400" lon="35.41407600">
        <ele>400.00000</ele>
        <time>2010-01-01T02:00:45Z</time>
      </trkpt>
      <trkpt lat="32.48844900" lon="35.41404900">
        <ele>399.00000</ele>
        <time>2010-01-01T02:00:47Z</time>
      </trkpt>
      <trkpt lat="32.48832800" lon="35.41386800">
        <ele>399.00000</ele>
        <time>2010-01-01T02:00:55Z</time>
      </trkpt>
      <trkpt lat="32.48831400" lon="35.41382900">
        <ele>399.00000</ele>
        <time>2010-01-01T02:00:56Z</time>
      </trkpt>
      <trkpt lat="32.48823700" lon="35.41366400">
        <ele>398.00000</ele>
        <time>2010-01-01T02:01:02Z</time>
      </trkpt>
      <trkpt lat="32.48821000" lon="35.41359700">
        <ele>398.00000</ele>
        <time>2010-01-01T02:01:05Z</time>
      </trkpt>
      <trkpt lat="32.48821500" lon="35.41341900">
        <ele>400.00000</ele>
        <time>2010-01-01T02:01:11Z</time>
      </trkpt>
      <trkpt lat="32.48821500" lon="35.41326600">
        <ele>401.00000</ele>
        <time>2010-01-01T02:01:16Z</time>
      </trkpt>
      <trkpt lat="32.48821700" lon="35.41324600">
        <ele>401.00000</ele>
        <time>2010-01-01T02:01:17Z</time>
      </trkpt>
      <trkpt lat="32.48822700" lon="35.41307100">
        <ele>402.00000</ele>
        <time>2010-01-01T02:01:23Z</time>
      </trkpt>
      <trkpt lat="32.48822700" lon="35.41292700">
        <ele>403.00000</ele>
        <time>2010-01-01T02:01:28Z</time>
      </trkpt>
      <trkpt lat="32.48819900" lon="35.41266900">
        <ele>403.00000</ele>
        <time>2010-01-01T02:01:36Z</time>
      </trkpt>
      <trkpt lat="32.48818500" lon="35.41253100">
        <ele>403.00000</ele>
        <time>2010-01-01T02:01:41Z</time>
      </trkpt>
      <trkpt lat="32.48819500" lon="35.41242900">
        <ele>404.00000</ele>
        <time>2010-01-01T02:01:44Z</time>
      </trkpt>
      <trkpt lat="32.48819400" lon="35.41218500">
        <ele>404.00000</ele>
        <time>2010-01-01T02:01:53Z</time>
      </trkpt>
      <trkpt lat="32.48816500" lon="35.41200100">
        <ele>403.00000</ele>
        <time>2010-01-01T02:01:59Z</time>
      </trkpt>
      <trkpt lat="32.48814300" lon="35.41184200">
        <ele>403.00000</ele>
        <time>2010-01-01T02:02:04Z</time>
      </trkpt>
      <trkpt lat="32.48812200" lon="35.41166300">
        <ele>403.00000</ele>
        <time>2010-01-01T02:02:11Z</time>
      </trkpt>
      <trkpt lat="32.48802900" lon="35.41147700">
        <ele>401.00000</ele>
        <time>2010-01-01T02:02:18Z</time>
      </trkpt>
      <trkpt lat="32.48799500" lon="35.41125700">
        <ele>400.00000</ele>
        <time>2010-01-01T02:02:25Z</time>
      </trkpt>
      <trkpt lat="32.48798100" lon="35.41121600">
        <ele>400.00000</ele>
        <time>2010-01-01T02:02:27Z</time>
      </trkpt>
      <trkpt lat="32.48789000" lon="35.41103100">
        <ele>398.00000</ele>
        <time>2010-01-01T02:02:34Z</time>
      </trkpt>
      <trkpt lat="32.48788100" lon="35.41100500">
        <ele>398.00000</ele>
        <time>2010-01-01T02:02:35Z</time>
      </trkpt>
      <trkpt lat="32.48788900" lon="35.41086500">
        <ele>398.00000</ele>
        <time>2010-01-01T02:02:40Z</time>
      </trkpt>
      <trkpt lat="32.48786600" lon="35.41083900">
        <ele>398.00000</ele>
        <time>2010-01-01T02:02:41Z</time>
      </trkpt>
      <trkpt lat="32.48785600" lon="35.41081000">
        <ele>398.00000</ele>
        <time>2010-01-01T02:02:42Z</time>
      </trkpt>
      <trkpt lat="32.48785900" lon="35.41079500">
        <ele>398.00000</ele>
        <time>2010-01-01T02:02:43Z</time>
      </trkpt>
      <trkpt lat="32.48787800" lon="35.41075100">
        <ele>399.00000</ele>
        <time>2010-01-01T02:02:44Z</time>
      </trkpt>
      <trkpt lat="32.48787400" lon="35.41074300">
        <ele>399.00000</ele>
        <time>2010-01-01T02:02:45Z</time>
      </trkpt>
      <trkpt lat="32.48787900" lon="35.41073300">
        <ele>399.00000</ele>
        <time>2010-01-01T02:02:45Z</time>
      </trkpt>
      <trkpt lat="32.48788800" lon="35.41065100">
        <ele>399.00000</ele>
        <time>2010-01-01T02:02:48Z</time>
      </trkpt>
      <trkpt lat="32.48788800" lon="35.41059600">
        <ele>400.00000</ele>
        <time>2010-01-01T02:02:50Z</time>
      </trkpt>
      <trkpt lat="32.48788200" lon="35.41058600">
        <ele>399.00000</ele>
        <time>2010-01-01T02:02:50Z</time>
      </trkpt>
      <trkpt lat="32.48786800" lon="35.41061700">
        <ele>399.00000</ele>
        <time>2010-01-01T02:02:51Z</time>
      </trkpt>
      <trkpt lat="32.48786600" lon="35.41062000">
        <ele>399.00000</ele>
        <time>2010-01-01T02:02:51Z</time>
      </trkpt>
      <trkpt lat="32.48785900" lon="35.41062000">
        <ele>399.00000</ele>
        <time>2010-01-01T02:02:52Z</time>
      </trkpt>
      <trkpt lat="32.48786500" lon="35.41060200">
        <ele>399.00000</ele>
        <time>2010-01-01T02:02:52Z</time>
      </trkpt>
      <trkpt lat="32.48785500" lon="35.41060000">
        <ele>399.00000</ele>
        <time>2010-01-01T02:02:53Z</time>
      </trkpt>
      <trkpt lat="32.48785500" lon="35.41059900">
        <ele>399.00000</ele>
        <time>2010-01-01T02:02:53Z</time>
      </trkpt>
      <trkpt lat="32.48782200" lon="35.41061500">
        <ele>398.00000</ele>
        <time>2010-01-01T02:02:54Z</time>
      </trkpt>
      <trkpt lat="32.48782000" lon="35.41063200">
        <ele>398.00000</ele>
        <time>2010-01-01T02:02:55Z</time>
      </trkpt>
      <trkpt lat="32.48779900" lon="35.41066800">
        <ele>398.00000</ele>
        <time>2010-01-01T02:02:56Z</time>
      </trkpt>
      <trkpt lat="32.48779800" lon="35.41068200">
        <ele>397.00000</ele>
        <time>2010-01-01T02:02:57Z</time>
      </trkpt>
      <trkpt lat="32.48779600" lon="35.41068900">
        <ele>397.00000</ele>
        <time>2010-01-01T02:02:57Z</time>
      </trkpt>
      <trkpt lat="32.48780500" lon="35.41070000">
        <ele>398.00000</ele>
        <time>2010-01-01T02:02:58Z</time>
      </trkpt>
      <trkpt lat="32.48781500" lon="35.41072300">
        <ele>398.00000</ele>
        <time>2010-01-01T02:02:58Z</time>
      </trkpt>
      <trkpt lat="32.48781000" lon="35.41073500">
        <ele>397.00000</ele>
        <time>2010-01-01T02:02:59Z</time>
      </trkpt>
      <trkpt lat="32.48778800" lon="35.41071000">
        <ele>397.00000</ele>
        <time>2010-01-01T02:03:00Z</time>
      </trkpt>
      <trkpt lat="32.48777800" lon="35.41069200">
        <ele>397.00000</ele>
        <time>2010-01-01T02:03:01Z</time>
      </trkpt>
      <trkpt lat="32.48777300" lon="35.41057800">
        <ele>398.00000</ele>
        <time>2010-01-01T02:03:05Z</time>
      </trkpt>
      <trkpt lat="32.48771800" lon="35.41043500">
        <ele>397.00000</ele>
        <time>2010-01-01T02:03:10Z</time>
      </trkpt>
      <trkpt lat="32.48770600" lon="35.41039400">
        <ele>397.00000</ele>
        <time>2010-01-01T02:03:11Z</time>
      </trkpt>
      <trkpt lat="32.48758700" lon="35.41007100">
        <ele>398.00000</ele>
        <time>2010-01-01T02:03:23Z</time>
      </trkpt>
      <trkpt lat="32.48744300" lon="35.40977700">
        <ele>397.00000</ele>
        <time>2010-01-01T02:03:35Z</time>
      </trkpt>
      <trkpt lat="32.48742400" lon="35.40973500">
        <ele>397.00000</ele>
        <time>2010-01-01T02:03:36Z</time>
      </trkpt>
      <trkpt lat="32.48736100" lon="35.40966500">
        <ele>397.00000</ele>
        <time>2010-01-01T02:03:40Z</time>
      </trkpt>
      <trkpt lat="32.48729000" lon="35.40960900">
        <ele>397.00000</ele>
        <time>2010-01-01T02:03:43Z</time>
      </trkpt>
      <trkpt lat="32.48721000" lon="35.40956800">
        <ele>396.00000</ele>
        <time>2010-01-01T02:03:47Z</time>
      </trkpt>
      <trkpt lat="32.48706000" lon="35.40945000">
        <ele>395.00000</ele>
        <time>2010-01-01T02:03:54Z</time>
      </trkpt>
      <trkpt lat="32.48696300" lon="35.40936300">
        <ele>395.00000</ele>
        <time>2010-01-01T02:03:59Z</time>
      </trkpt>
      <trkpt lat="32.48683500" lon="35.40916600">
        <ele>396.00000</ele>
        <time>2010-01-01T02:04:07Z</time>
      </trkpt>
      <trkpt lat="32.48681800" lon="35.40906600">
        <ele>397.00000</ele>
        <time>2010-01-01T02:04:11Z</time>
      </trkpt>
      <trkpt lat="32.48679800" lon="35.40892500">
        <ele>398.00000</ele>
        <time>2010-01-01T02:04:16Z</time>
      </trkpt>
      <trkpt lat="32.48674500" lon="35.40884800">
        <ele>398.00000</ele>
        <time>2010-01-01T02:04:19Z</time>
      </trkpt>
      <trkpt lat="32.48661800" lon="35.40868500">
        <ele>399.00000</ele>
        <time>2010-01-01T02:04:26Z</time>
      </trkpt>
      <trkpt lat="32.48647800" lon="35.40855900">
        <ele>400.00000</ele>
        <time>2010-01-01T02:04:33Z</time>
      </trkpt>
      <trkpt lat="32.48631300" lon="35.40842600">
        <ele>401.00000</ele>
        <time>2010-01-01T02:04:41Z</time>
      </trkpt>
      <trkpt lat="32.48618300" lon="35.40837000">
        <ele>402.00000</ele>
        <time>2010-01-01T02:04:47Z</time>
      </trkpt>
      <trkpt lat="32.48600000" lon="35.40833400">
        <ele>402.00000</ele>
        <time>2010-01-01T02:04:54Z</time>
      </trkpt>
      <trkpt lat="32.48584000" lon="35.40832500">
        <ele>402.00000</ele>
        <time>2010-01-01T02:05:01Z</time>
      </trkpt>
      <trkpt lat="32.48571200" lon="35.40834300">
        <ele>402.00000</ele>
        <time>2010-01-01T02:05:06Z</time>
      </trkpt>
      <trkpt lat="32.48557300" lon="35.40836200">
        <ele>401.00000</ele>
        <time>2010-01-01T02:05:12Z</time>
      </trkpt>
      <trkpt lat="32.48540300" lon="35.40835700">
        <ele>401.00000</ele>
        <time>2010-01-01T02:05:18Z</time>
      </trkpt>
      <trkpt lat="32.48521600" lon="35.40833200">
        <ele>401.00000</ele>
        <time>2010-01-01T02:05:26Z</time>
      </trkpt>
      <trkpt lat="32.48501800" lon="35.40831900">
        <ele>400.00000</ele>
        <time>2010-01-01T02:05:34Z</time>
      </trkpt>
      <trkpt lat="32.48496000" lon="35.40833900">
        <ele>400.00000</ele>
        <time>2010-01-01T02:05:36Z</time>
      </trkpt>
      <trkpt lat="32.48479100" lon="35.40830600">
        <ele>401.00000</ele>
        <time>2010-01-01T02:05:43Z</time>
      </trkpt>
      <trkpt lat="32.48462300" lon="35.40825700">
        <ele>401.00000</ele>
        <time>2010-01-01T02:05:50Z</time>
      </trkpt>
      <trkpt lat="32.48446400" lon="35.40822700">
        <ele>402.00000</ele>
        <time>2010-01-01T02:05:56Z</time>
      </trkpt>
      <trkpt lat="32.48431900" lon="35.40819300">
        <ele>402.00000</ele>
        <time>2010-01-01T02:06:02Z</time>
      </trkpt>
      <trkpt lat="32.48426800" lon="35.40818500">
        <ele>403.00000</ele>
        <time>2010-01-01T02:06:04Z</time>
      </trkpt>
      <trkpt lat="32.48419400" lon="35.40821300">
        <ele>402.00000</ele>
        <time>2010-01-01T02:06:08Z</time>
      </trkpt>
      <trkpt lat="32.48407300" lon="35.40822100">
        <ele>402.00000</ele>
        <time>2010-01-01T02:06:12Z</time>
      </trkpt>
      <trkpt lat="32.48394700" lon="35.40829300">
        <ele>401.00000</ele>
        <time>2010-01-01T02:06:18Z</time>
      </trkpt>
      <trkpt lat="32.48390300" lon="35.40829400">
        <ele>401.00000</ele>
        <time>2010-01-01T02:06:20Z</time>
      </trkpt>
      <trkpt lat="32.48370700" lon="35.40836100">
        <ele>401.00000</ele>
        <time>2010-01-01T02:06:28Z</time>
      </trkpt>
      <trkpt lat="32.48355400" lon="35.40845300">
        <ele>399.00000</ele>
        <time>2010-01-01T02:06:35Z</time>
      </trkpt>
      <trkpt lat="32.48338100" lon="35.40850300">
        <ele>399.00000</ele>
        <time>2010-01-01T02:06:42Z</time>
      </trkpt>
      <trkpt lat="32.48313900" lon="35.40861400">
        <ele>398.00000</ele>
        <time>2010-01-01T02:06:52Z</time>
      </trkpt>
      <trkpt lat="32.48301800" lon="35.40863100">
        <ele>399.00000</ele>
        <time>2010-01-01T02:06:57Z</time>
      </trkpt>
      <trkpt lat="32.48293300" lon="35.40862700">
        <ele>399.00000</ele>
        <time>2010-01-01T02:07:01Z</time>
      </trkpt>
      <trkpt lat="32.48270500" lon="35.40858600">
        <ele>401.00000</ele>
        <time>2010-01-01T02:07:10Z</time>
      </trkpt>
      <trkpt lat="32.48251300" lon="35.40855800">
        <ele>402.00000</ele>
        <time>2010-01-01T02:07:18Z</time>
      </trkpt>
      <trkpt lat="32.48237700" lon="35.40866400">
        <ele>403.00000</ele>
        <time>2010-01-01T02:07:24Z</time>
      </trkpt>
      <trkpt lat="32.48223700" lon="35.40874500">
        <ele>404.00000</ele>
        <time>2010-01-01T02:07:30Z</time>
      </trkpt>
      <trkpt lat="32.48209100" lon="35.40892000">
        <ele>405.00000</ele>
        <time>2010-01-01T02:07:39Z</time>
      </trkpt>
      <trkpt lat="32.48205300" lon="35.40915200">
        <ele>405.00000</ele>
        <time>2010-01-01T02:07:47Z</time>
      </trkpt>
      <trkpt lat="32.48204700" lon="35.40937500">
        <ele>407.00000</ele>
        <time>2010-01-01T02:07:54Z</time>
      </trkpt>
      <trkpt lat="32.48200500" lon="35.40961600">
        <ele>409.00000</ele>
        <time>2010-01-01T02:08:02Z</time>
      </trkpt>
      <trkpt lat="32.48192300" lon="35.40970400">
        <ele>411.00000</ele>
        <time>2010-01-01T02:08:07Z</time>
      </trkpt>
      <trkpt lat="32.48186100" lon="35.40966100">
        <ele>412.00000</ele>
        <time>2010-01-01T02:08:10Z</time>
      </trkpt>
      <trkpt lat="32.48181400" lon="35.40948200">
        <ele>411.00000</ele>
        <time>2010-01-01T02:08:16Z</time>
      </trkpt>
      <trkpt lat="32.48173900" lon="35.40935100">
        <ele>411.00000</ele>
        <time>2010-01-01T02:08:21Z</time>
      </trkpt>
      <trkpt lat="32.48166100" lon="35.40935500">
        <ele>413.00000</ele>
        <time>2010-01-01T02:08:25Z</time>
      </trkpt>
      <trkpt lat="32.48162100" lon="35.40948100">
        <ele>414.00000</ele>
        <time>2010-01-01T02:08:29Z</time>
      </trkpt>
      <trkpt lat="32.48162100" lon="35.40950200">
        <ele>414.00000</ele>
        <time>2010-01-01T02:08:30Z</time>
      </trkpt>
      <trkpt lat="32.48159800" lon="35.40966600">
        <ele>416.00000</ele>
        <time>2010-01-01T02:08:35Z</time>
      </trkpt>
      <trkpt lat="32.48152400" lon="35.40972700">
        <ele>417.00000</ele>
        <time>2010-01-01T02:08:39Z</time>
      </trkpt>
      <trkpt lat="32.48143900" lon="35.40967500">
        <ele>418.00000</ele>
        <time>2010-01-01T02:08:43Z</time>
      </trkpt>
      <trkpt lat="32.48139500" lon="35.40955400">
        <ele>417.00000</ele>
        <time>2010-01-01T02:08:47Z</time>
      </trkpt>
      <trkpt lat="32.48137900" lon="35.40943700">
        <ele>416.00000</ele>
        <time>2010-01-01T02:08:51Z</time>
      </trkpt>
      <trkpt lat="32.48135100" lon="35.40931000">
        <ele>415.00000</ele>
        <time>2010-01-01T02:08:56Z</time>
      </trkpt>
      <trkpt lat="32.48130400" lon="35.40930700">
        <ele>416.00000</ele>
        <time>2010-01-01T02:08:58Z</time>
      </trkpt>
      <trkpt lat="32.48127600" lon="35.40948100">
        <ele>418.00000</ele>
        <time>2010-01-01T02:09:04Z</time>
      </trkpt>
      <trkpt lat="32.48126900" lon="35.40960000">
        <ele>419.00000</ele>
        <time>2010-01-01T02:09:08Z</time>
      </trkpt>
      <trkpt lat="32.48128400" lon="35.40981100">
        <ele>420.00000</ele>
        <time>2010-01-01T02:09:15Z</time>
      </trkpt>
      <trkpt lat="32.48130200" lon="35.41008900">
        <ele>423.00000</ele>
        <time>2010-01-01T02:09:24Z</time>
      </trkpt>
      <trkpt lat="32.48136700" lon="35.41028200">
        <ele>424.00000</ele>
        <time>2010-01-01T02:09:31Z</time>
      </trkpt>
      <trkpt lat="32.48145700" lon="35.41047100">
        <ele>425.00000</ele>
        <time>2010-01-01T02:09:39Z</time>
      </trkpt>
      <trkpt lat="32.48159600" lon="35.41060700">
        <ele>425.00000</ele>
        <time>2010-01-01T02:09:46Z</time>
      </trkpt>
      <trkpt lat="32.48171500" lon="35.41071700">
        <ele>425.00000</ele>
        <time>2010-01-01T02:09:52Z</time>
      </trkpt>
      <trkpt lat="32.48179900" lon="35.41087000">
        <ele>426.00000</ele>
        <time>2010-01-01T02:09:58Z</time>
      </trkpt>
      <trkpt lat="32.48190500" lon="35.41104000">
        <ele>429.00000</ele>
        <time>2010-01-01T02:10:05Z</time>
      </trkpt>
      <trkpt lat="32.48199800" lon="35.41113800">
        <ele>430.00000</ele>
        <time>2010-01-01T02:10:10Z</time>
      </trkpt>
      <trkpt lat="32.48208500" lon="35.41127400">
        <ele>431.00000</ele>
        <time>2010-01-01T02:10:16Z</time>
      </trkpt>
      <trkpt lat="32.48217900" lon="35.41142500">
        <ele>434.00000</ele>
        <time>2010-01-01T02:10:22Z</time>
      </trkpt>
      <trkpt lat="32.48223300" lon="35.41153900">
        <ele>435.00000</ele>
        <time>2010-01-01T02:10:27Z</time>
      </trkpt>
      <trkpt lat="32.48229200" lon="35.41163500">
        <ele>437.00000</ele>
        <time>2010-01-01T02:10:31Z</time>
      </trkpt>
      <trkpt lat="32.48234300" lon="35.41172100">
        <ele>438.00000</ele>
        <time>2010-01-01T02:10:34Z</time>
      </trkpt>
      <trkpt lat="32.48237700" lon="35.41181900">
        <ele>439.00000</ele>
        <time>2010-01-01T02:10:38Z</time>
      </trkpt>
      <trkpt lat="32.48238300" lon="35.41185300">
        <ele>439.00000</ele>
        <time>2010-01-01T02:10:39Z</time>
      </trkpt>
      <trkpt lat="32.48238900" lon="35.41191600">
        <ele>440.00000</ele>
        <time>2010-01-01T02:10:41Z</time>
      </trkpt>
      <trkpt lat="32.48237700" lon="35.41191600">
        <ele>441.00000</ele>
        <time>2010-01-01T02:10:42Z</time>
      </trkpt>
      <trkpt lat="32.48235700" lon="35.41191800">
        <ele>441.00000</ele>
        <time>2010-01-01T02:10:42Z</time>
      </trkpt>
      <trkpt lat="32.48234400" lon="35.41191100">
        <ele>441.00000</ele>
        <time>2010-01-01T02:10:43Z</time>
      </trkpt>
      <trkpt lat="32.48231000" lon="35.41193100">
        <ele>442.00000</ele>
        <time>2010-01-01T02:10:44Z</time>
      </trkpt>
      <trkpt lat="32.48231000" lon="35.41192500">
        <ele>442.00000</ele>
        <time>2010-01-01T02:10:45Z</time>
      </trkpt>
      <trkpt lat="32.48231800" lon="35.41190700">
        <ele>441.00000</ele>
        <time>2010-01-01T02:10:45Z</time>
      </trkpt>
      <trkpt lat="32.48233100" lon="35.41187800">
        <ele>441.00000</ele>
        <time>2010-01-01T02:10:46Z</time>
      </trkpt>
      <trkpt lat="32.48234000" lon="35.41187500">
        <ele>440.00000</ele>
        <time>2010-01-01T02:10:47Z</time>
      </trkpt>
      <trkpt lat="32.48234300" lon="35.41187600">
        <ele>440.00000</ele>
        <time>2010-01-01T02:10:47Z</time>
      </trkpt>
      <trkpt lat="32.48235700" lon="35.41188500">
        <ele>440.00000</ele>
        <time>2010-01-01T02:10:48Z</time>
      </trkpt>
      <trkpt lat="32.48238000" lon="35.41184200">
        <ele>439.00000</ele>
        <time>2010-01-01T02:10:49Z</time>
      </trkpt>
      <trkpt lat="32.48238300" lon="35.41183700">
        <ele>439.00000</ele>
        <time>2010-01-01T02:10:50Z</time>
      </trkpt>
      <trkpt lat="32.48238300" lon="35.41183100">
        <ele>439.00000</ele>
        <time>2010-01-01T02:10:50Z</time>
      </trkpt>
      <trkpt lat="32.48238000" lon="35.41181600">
        <ele>439.00000</ele>
        <time>2010-01-01T02:10:50Z</time>
      </trkpt>
      <trkpt lat="32.48237300" lon="35.41181800">
        <ele>439.00000</ele>
        <time>2010-01-01T02:10:51Z</time>
      </trkpt>
      <trkpt lat="32.48234800" lon="35.41182900">
        <ele>440.00000</ele>
        <time>2010-01-01T02:10:52Z</time>
      </trkpt>
      <trkpt lat="32.48231800" lon="35.41183200">
        <ele>440.00000</ele>
        <time>2010-01-01T02:10:53Z</time>
      </trkpt>
      <trkpt lat="32.48229200" lon="35.41181600">
        <ele>440.00000</ele>
        <time>2010-01-01T02:10:54Z</time>
      </trkpt>
      <trkpt lat="32.48228400" lon="35.41180100">
        <ele>440.00000</ele>
        <time>2010-01-01T02:10:55Z</time>
      </trkpt>
      <trkpt lat="32.48227900" lon="35.41179100">
        <ele>440.00000</ele>
        <time>2010-01-01T02:10:55Z</time>
      </trkpt>
      <trkpt lat="32.48227500" lon="35.41177700">
        <ele>440.00000</ele>
        <time>2010-01-01T02:10:55Z</time>
      </trkpt>
      <trkpt lat="32.48222200" lon="35.41163600">
        <ele>438.00000</ele>
        <time>2010-01-01T02:11:01Z</time>
      </trkpt>
      <trkpt lat="32.48213500" lon="35.41150800">
        <ele>436.00000</ele>
        <time>2010-01-01T02:11:06Z</time>
      </trkpt>
      <trkpt lat="32.48204000" lon="35.41138600">
        <ele>434.00000</ele>
        <time>2010-01-01T02:11:12Z</time>
      </trkpt>
      <trkpt lat="32.48195700" lon="35.41123300">
        <ele>432.00000</ele>
        <time>2010-01-01T02:11:18Z</time>
      </trkpt>
      <trkpt lat="32.48179600" lon="35.41108500">
        <ele>431.00000</ele>
        <time>2010-01-01T02:11:26Z</time>
      </trkpt>
      <trkpt lat="32.48169800" lon="35.41096600">
        <ele>429.00000</ele>
        <time>2010-01-01T02:11:32Z</time>
      </trkpt>
      <trkpt lat="32.48159600" lon="35.41086900">
        <ele>428.00000</ele>
        <time>2010-01-01T02:11:37Z</time>
      </trkpt>
      <trkpt lat="32.48146200" lon="35.41079400">
        <ele>428.00000</ele>
        <time>2010-01-01T02:11:43Z</time>
      </trkpt>
      <trkpt lat="32.48137000" lon="35.41079700">
        <ele>429.00000</ele>
        <time>2010-01-01T02:11:47Z</time>
      </trkpt>
      <trkpt lat="32.48129900" lon="35.41087800">
        <ele>431.00000</ele>
        <time>2010-01-01T02:11:51Z</time>
      </trkpt>
      <trkpt lat="32.48122300" lon="35.41092300">
        <ele>432.00000</ele>
        <time>2010-01-01T02:11:54Z</time>
      </trkpt>
      <trkpt lat="32.48108400" lon="35.41100600">
        <ele>435.00000</ele>
        <time>2010-01-01T02:12:00Z</time>
      </trkpt>
      <trkpt lat="32.48090300" lon="35.41114800">
        <ele>438.00000</ele>
        <time>2010-01-01T02:12:09Z</time>
      </trkpt>
      <trkpt lat="32.48075800" lon="35.41123200">
        <ele>440.00000</ele>
        <time>2010-01-01T02:12:15Z</time>
      </trkpt>
      <trkpt lat="32.48060300" lon="35.41122500">
        <ele>440.00000</ele>
        <time>2010-01-01T02:12:22Z</time>
      </trkpt>
      <trkpt lat="32.48044900" lon="35.41124700">
        <ele>440.00000</ele>
        <time>2010-01-01T02:12:28Z</time>
      </trkpt>
      <trkpt lat="32.48033700" lon="35.41128100">
        <ele>441.00000</ele>
        <time>2010-01-01T02:12:32Z</time>
      </trkpt>
      <trkpt lat="32.48020800" lon="35.41121800">
        <ele>440.00000</ele>
        <time>2010-01-01T02:12:38Z</time>
      </trkpt>
      <trkpt lat="32.48015900" lon="35.41111000">
        <ele>439.00000</ele>
        <time>2010-01-01T02:12:42Z</time>
      </trkpt>
      <trkpt lat="32.48016200" lon="35.41111000">
        <ele>439.00000</ele>
        <time>2010-01-01T02:12:42Z</time>
      </trkpt>
      <trkpt lat="32.48016600" lon="35.41111500">
        <ele>439.00000</ele>
        <time>2010-01-01T02:12:42Z</time>
      </trkpt>
      <trkpt lat="32.48017200" lon="35.41111200">
        <ele>439.00000</ele>
        <time>2010-01-01T02:12:43Z</time>
      </trkpt>
      <trkpt lat="32.48017300" lon="35.41110900">
        <ele>439.00000</ele>
        <time>2010-01-01T02:12:43Z</time>
      </trkpt>
      <trkpt lat="32.48017400" lon="35.41110700">
        <ele>439.00000</ele>
        <time>2010-01-01T02:12:43Z</time>
      </trkpt>
      <trkpt lat="32.48017500" lon="35.41110400">
        <ele>439.00000</ele>
        <time>2010-01-01T02:12:43Z</time>
      </trkpt>
      <trkpt lat="32.48017600" lon="35.41110300">
        <ele>439.00000</ele>
        <time>2010-01-01T02:12:43Z</time>
      </trkpt>
      <trkpt lat="32.48017800" lon="35.41110200">
        <ele>439.00000</ele>
        <time>2010-01-01T02:12:43Z</time>
      </trkpt>
      <trkpt lat="32.48017900" lon="35.41110100">
        <ele>439.00000</ele>
        <time>2010-01-01T02:12:43Z</time>
      </trkpt>
      <trkpt lat="32.48017200" lon="35.41110400">
        <ele>439.00000</ele>
        <time>2010-01-01T02:12:43Z</time>
      </trkpt>
      <trkpt lat="32.48017100" lon="35.41110800">
        <ele>439.00000</ele>
        <time>2010-01-01T02:12:44Z</time>
      </trkpt>
      <trkpt lat="32.48017000" lon="35.41111400">
        <ele>439.00000</ele>
        <time>2010-01-01T02:12:44Z</time>
      </trkpt>
      <trkpt lat="32.48017100" lon="35.41112000">
        <ele>439.00000</ele>
        <time>2010-01-01T02:12:44Z</time>
      </trkpt>
      <trkpt lat="32.48017900" lon="35.41113100">
        <ele>439.00000</ele>
        <time>2010-01-01T02:12:45Z</time>
      </trkpt>
      <trkpt lat="32.48019300" lon="35.41115300">
        <ele>440.00000</ele>
        <time>2010-01-01T02:12:45Z</time>
      </trkpt>
      <trkpt lat="32.48019400" lon="35.41116400">
        <ele>440.00000</ele>
        <time>2010-01-01T02:12:46Z</time>
      </trkpt>
      <trkpt lat="32.48018200" lon="35.41114700">
        <ele>440.00000</ele>
        <time>2010-01-01T02:12:47Z</time>
      </trkpt>
      <trkpt lat="32.48020700" lon="35.41114700">
        <ele>439.00000</ele>
        <time>2010-01-01T02:12:48Z</time>
      </trkpt>
      <trkpt lat="32.48015600" lon="35.41114700">
        <ele>440.00000</ele>
        <time>2010-01-01T02:12:50Z</time>
      </trkpt>
      <trkpt lat="32.48012200" lon="35.41112000">
        <ele>439.00000</ele>
        <time>2010-01-01T02:12:51Z</time>
      </trkpt>
      <trkpt lat="32.48010900" lon="35.41109900">
        <ele>439.00000</ele>
        <time>2010-01-01T02:12:52Z</time>
      </trkpt>
      <trkpt lat="32.48011600" lon="35.41106300">
        <ele>439.00000</ele>
        <time>2010-01-01T02:12:53Z</time>
      </trkpt>
      <trkpt lat="32.48012300" lon="35.41105900">
        <ele>439.00000</ele>
        <time>2010-01-01T02:12:54Z</time>
      </trkpt>
      <trkpt lat="32.48015900" lon="35.41099300">
        <ele>438.00000</ele>
        <time>2010-01-01T02:12:56Z</time>
      </trkpt>
      <trkpt lat="32.48023900" lon="35.41099800">
        <ele>438.00000</ele>
        <time>2010-01-01T02:13:00Z</time>
      </trkpt>
      <trkpt lat="32.48033300" lon="35.41103000">
        <ele>438.00000</ele>
        <time>2010-01-01T02:13:03Z</time>
      </trkpt>
      <trkpt lat="32.48044400" lon="35.41101000">
        <ele>437.00000</ele>
        <time>2010-01-01T02:13:08Z</time>
      </trkpt>
      <trkpt lat="32.48054100" lon="35.41094000">
        <ele>436.00000</ele>
        <time>2010-01-01T02:13:12Z</time>
      </trkpt>
      <trkpt lat="32.48072700" lon="35.41088100">
        <ele>435.00000</ele>
        <time>2010-01-01T02:13:20Z</time>
      </trkpt>
      <trkpt lat="32.48082900" lon="35.41090600">
        <ele>435.00000</ele>
        <time>2010-01-01T02:13:24Z</time>
      </trkpt>
      <trkpt lat="32.48098300" lon="35.41082400">
        <ele>433.00000</ele>
        <time>2010-01-01T02:13:31Z</time>
      </trkpt>
      <trkpt lat="32.48089100" lon="35.41067300">
        <ele>432.00000</ele>
        <time>2010-01-01T02:13:37Z</time>
      </trkpt>
      <trkpt lat="32.48079300" lon="35.41061500">
        <ele>432.00000</ele>
        <time>2010-01-01T02:13:42Z</time>
      </trkpt>
      <trkpt lat="32.48061600" lon="35.41040200">
        <ele>431.00000</ele>
        <time>2010-01-01T02:13:52Z</time>
      </trkpt>
      <trkpt lat="32.48056900" lon="35.41036200">
        <ele>430.00000</ele>
        <time>2010-01-01T02:13:54Z</time>
      </trkpt>
      <trkpt lat="32.48043400" lon="35.41020100">
        <ele>429.00000</ele>
        <time>2010-01-01T02:14:02Z</time>
      </trkpt>
      <trkpt lat="32.48048300" lon="35.41013500">
        <ele>429.00000</ele>
        <time>2010-01-01T02:14:05Z</time>
      </trkpt>
      <trkpt lat="32.48060800" lon="35.41016700">
        <ele>429.00000</ele>
        <time>2010-01-01T02:14:10Z</time>
      </trkpt>
      <trkpt lat="32.48077000" lon="35.41022500">
        <ele>429.00000</ele>
        <time>2010-01-01T02:14:17Z</time>
      </trkpt>
      <trkpt lat="32.48092300" lon="35.41024300">
        <ele>428.00000</ele>
        <time>2010-01-01T02:14:23Z</time>
      </trkpt>
      <trkpt lat="32.48091800" lon="35.41012300">
        <ele>427.00000</ele>
        <time>2010-01-01T02:14:27Z</time>
      </trkpt>
      <trkpt lat="32.48079400" lon="35.41001200">
        <ele>427.00000</ele>
        <time>2010-01-01T02:14:33Z</time>
      </trkpt>
      <trkpt lat="32.48068200" lon="35.40982300">
        <ele>426.00000</ele>
        <time>2010-01-01T02:14:41Z</time>
      </trkpt>
      <trkpt lat="32.48078100" lon="35.40973000">
        <ele>424.00000</ele>
        <time>2010-01-01T02:14:46Z</time>
      </trkpt>
      <trkpt lat="32.48089500" lon="35.40959500">
        <ele>422.00000</ele>
        <time>2010-01-01T02:14:52Z</time>
      </trkpt>
      <trkpt lat="32.48087900" lon="35.40930600">
        <ele>420.00000</ele>
        <time>2010-01-01T02:15:02Z</time>
      </trkpt>
      <trkpt lat="32.48097400" lon="35.40911000">
        <ele>417.00000</ele>
        <time>2010-01-01T02:15:10Z</time>
      </trkpt>
      <trkpt lat="32.48113600" lon="35.40876500">
        <ele>414.00000</ele>
        <time>2010-01-01T02:15:23Z</time>
      </trkpt>
      <trkpt lat="32.48115700" lon="35.40868400">
        <ele>414.00000</ele>
        <time>2010-01-01T02:15:26Z</time>
      </trkpt>
      <trkpt lat="32.48132100" lon="35.40830000">
        <ele>412.00000</ele>
        <time>2010-01-01T02:15:41Z</time>
      </trkpt>
      <trkpt lat="32.48143300" lon="35.40815100">
        <ele>411.00000</ele>
        <time>2010-01-01T02:15:47Z</time>
      </trkpt>
      <trkpt lat="32.48144100" lon="35.40814900">
        <ele>411.00000</ele>
        <time>2010-01-01T02:15:48Z</time>
      </trkpt>
      <trkpt lat="32.48143800" lon="35.40816200">
        <ele>411.00000</ele>
        <time>2010-01-01T02:15:48Z</time>
      </trkpt>
      <trkpt lat="32.48143500" lon="35.40816900">
        <ele>411.00000</ele>
        <time>2010-01-01T02:15:48Z</time>
      </trkpt>
      <trkpt lat="32.48143300" lon="35.40817700">
        <ele>411.00000</ele>
        <time>2010-01-01T02:15:49Z</time>
      </trkpt>
      <trkpt lat="32.48148300" lon="35.40814500">
        <ele>411.00000</ele>
        <time>2010-01-01T02:15:51Z</time>
      </trkpt>
      <trkpt lat="32.48160800" lon="35.40807500">
        <ele>411.00000</ele>
        <time>2010-01-01T02:15:56Z</time>
      </trkpt>
      <trkpt lat="32.48189500" lon="35.40792600">
        <ele>410.00000</ele>
        <time>2010-01-01T02:16:09Z</time>
      </trkpt>
      <trkpt lat="32.48211600" lon="35.40776700">
        <ele>411.00000</ele>
        <time>2010-01-01T02:16:19Z</time>
      </trkpt>
      <trkpt lat="32.48235100" lon="35.40758000">
        <ele>412.00000</ele>
        <time>2010-01-01T02:16:31Z</time>
      </trkpt>
      <trkpt lat="32.48246900" lon="35.40750600">
        <ele>413.00000</ele>
        <time>2010-01-01T02:16:36Z</time>
      </trkpt>
      <trkpt lat="32.48254700" lon="35.40746700">
        <ele>413.00000</ele>
        <time>2010-01-01T02:16:39Z</time>
      </trkpt>
      <trkpt lat="32.48258500" lon="35.40745000">
        <ele>413.00000</ele>
        <time>2010-01-01T02:16:41Z</time>
      </trkpt>
      <trkpt lat="32.48262200" lon="35.40743500">
        <ele>413.00000</ele>
        <time>2010-01-01T02:16:43Z</time>
      </trkpt>
      <trkpt lat="32.48280200" lon="35.40737100">
        <ele>413.00000</ele>
        <time>2010-01-01T02:16:50Z</time>
      </trkpt>
      <trkpt lat="32.48295400" lon="35.40731800">
        <ele>412.00000</ele>
        <time>2010-01-01T02:16:56Z</time>
      </trkpt>
      <trkpt lat="32.48321100" lon="35.40721700">
        <ele>413.00000</ele>
        <time>2010-01-01T02:17:07Z</time>
      </trkpt>
      <trkpt lat="32.48346300" lon="35.40712000">
        <ele>413.00000</ele>
        <time>2010-01-01T02:17:18Z</time>
      </trkpt>
      <trkpt lat="32.48354500" lon="35.40707000">
        <ele>413.00000</ele>
        <time>2010-01-01T02:17:22Z</time>
      </trkpt>
      <trkpt lat="32.48364000" lon="35.40700400">
        <ele>413.00000</ele>
        <time>2010-01-01T02:17:26Z</time>
      </trkpt>
      <trkpt lat="32.48370500" lon="35.40690800">
        <ele>414.00000</ele>
        <time>2010-01-01T02:17:30Z</time>
      </trkpt>
      <trkpt lat="32.48368900" lon="35.40679000">
        <ele>414.00000</ele>
        <time>2010-01-01T02:17:34Z</time>
      </trkpt>
      <trkpt lat="32.48368200" lon="35.40676800">
        <ele>414.00000</ele>
        <time>2010-01-01T02:17:35Z</time>
      </trkpt>
      <trkpt lat="32.48361100" lon="35.40670600">
        <ele>415.00000</ele>
        <time>2010-01-01T02:17:39Z</time>
      </trkpt>
      <trkpt lat="32.48347600" lon="35.40657900">
        <ele>414.00000</ele>
        <time>2010-01-01T02:17:45Z</time>
      </trkpt>
      <trkpt lat="32.48341100" lon="35.40638800">
        <ele>413.00000</ele>
        <time>2010-01-01T02:17:52Z</time>
      </trkpt>
      <trkpt lat="32.48343600" lon="35.40621000">
        <ele>413.00000</ele>
        <time>2010-01-01T02:17:59Z</time>
      </trkpt>
      <trkpt lat="32.48354300" lon="35.40601000">
        <ele>413.00000</ele>
        <time>2010-01-01T02:18:07Z</time>
      </trkpt>
      <trkpt lat="32.48366500" lon="35.40590800">
        <ele>413.00000</ele>
        <time>2010-01-01T02:18:12Z</time>
      </trkpt>
      <trkpt lat="32.48379700" lon="35.40585900">
        <ele>413.00000</ele>
        <time>2010-01-01T02:18:18Z</time>
      </trkpt>
      <trkpt lat="32.48396900" lon="35.40586800">
        <ele>413.00000</ele>
        <time>2010-01-01T02:18:25Z</time>
      </trkpt>
      <trkpt lat="32.48401000" lon="35.40597700">
        <ele>413.00000</ele>
        <time>2010-01-01T02:18:29Z</time>
      </trkpt>
      <trkpt lat="32.48402500" lon="35.40605000">
        <ele>414.00000</ele>
        <time>2010-01-01T02:18:31Z</time>
      </trkpt>
      <trkpt lat="32.48413900" lon="35.40605600">
        <ele>414.00000</ele>
        <time>2010-01-01T02:18:36Z</time>
      </trkpt>
      <trkpt lat="32.48421500" lon="35.40604300">
        <ele>413.00000</ele>
        <time>2010-01-01T02:18:39Z</time>
      </trkpt>
      <trkpt lat="32.48423300" lon="35.40605500">
        <ele>413.00000</ele>
        <time>2010-01-01T02:18:40Z</time>
      </trkpt>
      <trkpt lat="32.48427200" lon="35.40616100">
        <ele>413.00000</ele>
        <time>2010-01-01T02:18:44Z</time>
      </trkpt>
      <trkpt lat="32.48425400" lon="35.40629000">
        <ele>414.00000</ele>
        <time>2010-01-01T02:18:48Z</time>
      </trkpt>
      <trkpt lat="32.48430700" lon="35.40630700">
        <ele>414.00000</ele>
        <time>2010-01-01T02:18:50Z</time>
      </trkpt>
      <trkpt lat="32.48438800" lon="35.40636000">
        <ele>413.00000</ele>
        <time>2010-01-01T02:18:54Z</time>
      </trkpt>
      <trkpt lat="32.48447400" lon="35.40643200">
        <ele>413.00000</ele>
        <time>2010-01-01T02:18:58Z</time>
      </trkpt>
      <trkpt lat="32.48461000" lon="35.40651900">
        <ele>412.00000</ele>
        <time>2010-01-01T02:19:05Z</time>
      </trkpt>
      <trkpt lat="32.48471400" lon="35.40656200">
        <ele>412.00000</ele>
        <time>2010-01-01T02:19:09Z</time>
      </trkpt>
      <trkpt lat="32.48475700" lon="35.40659600">
        <ele>411.00000</ele>
        <time>2010-01-01T02:19:11Z</time>
      </trkpt>
      <trkpt lat="32.48474200" lon="35.40665700">
        <ele>412.00000</ele>
        <time>2010-01-01T02:19:13Z</time>
      </trkpt>
      <trkpt lat="32.48475500" lon="35.40670500">
        <ele>412.00000</ele>
        <time>2010-01-01T02:19:15Z</time>
      </trkpt>
      <trkpt lat="32.48490000" lon="35.40672100">
        <ele>411.00000</ele>
        <time>2010-01-01T02:19:21Z</time>
      </trkpt>
      <trkpt lat="32.48508200" lon="35.40680200">
        <ele>410.00000</ele>
        <time>2010-01-01T02:19:29Z</time>
      </trkpt>
      <trkpt lat="32.48518200" lon="35.40685700">
        <ele>409.00000</ele>
        <time>2010-01-01T02:19:33Z</time>
      </trkpt>
      <trkpt lat="32.48531800" lon="35.40695900">
        <ele>409.00000</ele>
        <time>2010-01-01T02:19:39Z</time>
      </trkpt>
      <trkpt lat="32.48554800" lon="35.40706000">
        <ele>408.00000</ele>
        <time>2010-01-01T02:19:49Z</time>
      </trkpt>
      <trkpt lat="32.48563600" lon="35.40709000">
        <ele>408.00000</ele>
        <time>2010-01-01T02:19:53Z</time>
      </trkpt>
      <trkpt lat="32.48584800" lon="35.40721300">
        <ele>408.00000</ele>
        <time>2010-01-01T02:20:02Z</time>
      </trkpt>
      <trkpt lat="32.48588200" lon="35.40723000">
        <ele>408.00000</ele>
        <time>2010-01-01T02:20:04Z</time>
      </trkpt>
      <trkpt lat="32.48617100" lon="35.40734200">
        <ele>408.00000</ele>
        <time>2010-01-01T02:20:16Z</time>
      </trkpt>
      <trkpt lat="32.48627300" lon="35.40742400">
        <ele>408.00000</ele>
        <time>2010-01-01T02:20:21Z</time>
      </trkpt>
      <trkpt lat="32.48635600" lon="35.40741000">
        <ele>408.00000</ele>
        <time>2010-01-01T02:20:24Z</time>
      </trkpt>
      <trkpt lat="32.48636400" lon="35.40733900">
        <ele>407.00000</ele>
        <time>2010-01-01T02:20:27Z</time>
      </trkpt>
      <trkpt lat="32.48636800" lon="35.40726500">
        <ele>407.00000</ele>
        <time>2010-01-01T02:20:29Z</time>
      </trkpt>
      <trkpt lat="32.48646100" lon="35.40719800">
        <ele>407.00000</ele>
        <time>2010-01-01T02:20:34Z</time>
      </trkpt>
      <trkpt lat="32.48659000" lon="35.40720800">
        <ele>407.00000</ele>
        <time>2010-01-01T02:20:39Z</time>
      </trkpt>
      <trkpt lat="32.48669400" lon="35.40723300">
        <ele>406.00000</ele>
        <time>2010-01-01T02:20:43Z</time>
      </trkpt>
      <trkpt lat="32.48674900" lon="35.40736700">
        <ele>407.00000</ele>
        <time>2010-01-01T02:20:48Z</time>
      </trkpt>
      <trkpt lat="32.48672200" lon="35.40751300">
        <ele>408.00000</ele>
        <time>2010-01-01T02:20:53Z</time>
      </trkpt>
      <trkpt lat="32.48674600" lon="35.40760400">
        <ele>407.00000</ele>
        <time>2010-01-01T02:20:56Z</time>
      </trkpt>
      <trkpt lat="32.48692300" lon="35.40768700">
        <ele>405.00000</ele>
        <time>2010-01-01T02:21:04Z</time>
      </trkpt>
      <trkpt lat="32.48702400" lon="35.40767600">
        <ele>405.00000</ele>
        <time>2010-01-01T02:21:08Z</time>
      </trkpt>
      <trkpt lat="32.48714500" lon="35.40766400">
        <ele>404.00000</ele>
        <time>2010-01-01T02:21:13Z</time>
      </trkpt>
      <trkpt lat="32.48724000" lon="35.40776200">
        <ele>404.00000</ele>
        <time>2010-01-01T02:21:18Z</time>
      </trkpt>
      <trkpt lat="32.48731100" lon="35.40802100">
        <ele>403.00000</ele>
        <time>2010-01-01T02:21:27Z</time>
      </trkpt>
      <trkpt lat="32.48732000" lon="35.40819100">
        <ele>404.00000</ele>
        <time>2010-01-01T02:21:33Z</time>
      </trkpt>
      <trkpt lat="32.48738800" lon="35.40841800">
        <ele>403.00000</ele>
        <time>2010-01-01T02:21:41Z</time>
      </trkpt>
      <trkpt lat="32.48741700" lon="35.40846000">
        <ele>403.00000</ele>
        <time>2010-01-01T02:21:43Z</time>
      </trkpt>
      <trkpt lat="32.48745700" lon="35.40868100">
        <ele>403.00000</ele>
        <time>2010-01-01T02:21:50Z</time>
      </trkpt>
      <trkpt lat="32.48746900" lon="35.40899100">
        <ele>401.00000</ele>
        <time>2010-01-01T02:22:01Z</time>
      </trkpt>
      <trkpt lat="32.48751900" lon="35.40921000">
        <ele>401.00000</ele>
        <time>2010-01-01T02:22:08Z</time>
      </trkpt>
      <trkpt lat="32.48761500" lon="35.40938600">
        <ele>401.00000</ele>
        <time>2010-01-01T02:22:16Z</time>
      </trkpt>
      <trkpt lat="32.48778300" lon="35.40959300">
        <ele>402.00000</ele>
        <time>2010-01-01T02:22:25Z</time>
      </trkpt>
      <trkpt lat="32.48789200" lon="35.40984700">
        <ele>402.00000</ele>
        <time>2010-01-01T02:22:35Z</time>
      </trkpt>
      <trkpt lat="32.48798300" lon="35.41003400">
        <ele>403.00000</ele>
        <time>2010-01-01T02:22:42Z</time>
      </trkpt>
      <trkpt lat="32.48810500" lon="35.41030000">
        <ele>404.00000</ele>
        <time>2010-01-01T02:22:52Z</time>
      </trkpt>
      <trkpt lat="32.48814300" lon="35.41034300">
        <ele>405.00000</ele>
        <time>2010-01-01T02:22:55Z</time>
      </trkpt>
      <trkpt lat="32.48821700" lon="35.41032000">
        <ele>406.00000</ele>
        <time>2010-01-01T02:22:58Z</time>
      </trkpt>
      <trkpt lat="32.48828000" lon="35.41033600">
        <ele>407.00000</ele>
        <time>2010-01-01T02:23:00Z</time>
      </trkpt>
      <trkpt lat="32.48828600" lon="35.41035500">
        <ele>407.00000</ele>
        <time>2010-01-01T02:23:01Z</time>
      </trkpt>
      <trkpt lat="32.48835100" lon="35.41060300">
        <ele>407.00000</ele>
        <time>2010-01-01T02:23:10Z</time>
      </trkpt>
      <trkpt lat="32.48838800" lon="35.41076400">
        <ele>408.00000</ele>
        <time>2010-01-01T02:23:15Z</time>
      </trkpt>
      <trkpt lat="32.48841400" lon="35.41092500">
        <ele>408.00000</ele>
        <time>2010-01-01T02:23:21Z</time>
      </trkpt>
      <trkpt lat="32.48840100" lon="35.41105000">
        <ele>408.00000</ele>
        <time>2010-01-01T02:23:25Z</time>
      </trkpt>
      <trkpt lat="32.48842600" lon="35.41133500">
        <ele>408.00000</ele>
        <time>2010-01-01T02:23:35Z</time>
      </trkpt>
      <trkpt lat="32.48841200" lon="35.41151900">
        <ele>408.00000</ele>
        <time>2010-01-01T02:23:41Z</time>
      </trkpt>
      <trkpt lat="32.48843500" lon="35.41164200">
        <ele>408.00000</ele>
        <time>2010-01-01T02:23:45Z</time>
      </trkpt>
      <trkpt lat="32.48848900" lon="35.41176600">
        <ele>409.00000</ele>
        <time>2010-01-01T02:23:50Z</time>
      </trkpt>
      <trkpt lat="32.48852200" lon="35.41179500">
        <ele>409.00000</ele>
        <time>2010-01-01T02:23:52Z</time>
      </trkpt>
      <trkpt lat="32.48863600" lon="35.41174300">
        <ele>410.00000</ele>
        <time>2010-01-01T02:23:56Z</time>
      </trkpt>
      <trkpt lat="32.48866700" lon="35.41164700">
        <ele>411.00000</ele>
        <time>2010-01-01T02:24:00Z</time>
      </trkpt>
      <trkpt lat="32.48869000" lon="35.41157600">
        <ele>411.00000</ele>
        <time>2010-01-01T02:24:02Z</time>
      </trkpt>
      <trkpt lat="32.48875900" lon="35.41143700">
        <ele>412.00000</ele>
        <time>2010-01-01T02:24:08Z</time>
      </trkpt>
      <trkpt lat="32.48885700" lon="35.41134900">
        <ele>413.00000</ele>
        <time>2010-01-01T02:24:13Z</time>
      </trkpt>
      <trkpt lat="32.48894300" lon="35.41132500">
        <ele>414.00000</ele>
        <time>2010-01-01T02:24:16Z</time>
      </trkpt>
      <trkpt lat="32.48898400" lon="35.41140200">
        <ele>414.00000</ele>
        <time>2010-01-01T02:24:19Z</time>
      </trkpt>
      <trkpt lat="32.48900700" lon="35.41152100">
        <ele>414.00000</ele>
        <time>2010-01-01T02:24:24Z</time>
      </trkpt>
      <trkpt lat="32.48899600" lon="35.41163300">
        <ele>414.00000</ele>
        <time>2010-01-01T02:24:27Z</time>
      </trkpt>
      <trkpt lat="32.48903900" lon="35.41181400">
        <ele>415.00000</ele>
        <time>2010-01-01T02:24:34Z</time>
      </trkpt>
      <trkpt lat="32.48904100" lon="35.41204200">
        <ele>415.00000</ele>
        <time>2010-01-01T02:24:41Z</time>
      </trkpt>
      <trkpt lat="32.48903700" lon="35.41222700">
        <ele>415.00000</ele>
        <time>2010-01-01T02:24:48Z</time>
      </trkpt>
      <trkpt lat="32.48897100" lon="35.41237100">
        <ele>414.00000</ele>
        <time>2010-01-01T02:24:53Z</time>
      </trkpt>
      <trkpt lat="32.48895600" lon="35.41241000">
        <ele>414.00000</ele>
        <time>2010-01-01T02:24:55Z</time>
      </trkpt>
      <trkpt lat="32.48889600" lon="35.41271400">
        <ele>412.00000</ele>
        <time>2010-01-01T02:25:05Z</time>
      </trkpt>
      <trkpt lat="32.48895900" lon="35.41286000">
        <ele>412.00000</ele>
        <time>2010-01-01T02:25:11Z</time>
      </trkpt>
      <trkpt lat="32.48898700" lon="35.41288600">
        <ele>412.00000</ele>
        <time>2010-01-01T02:25:12Z</time>
      </trkpt>
      <trkpt lat="32.48908200" lon="35.41286500">
        <ele>413.00000</ele>
        <time>2010-01-01T02:25:16Z</time>
      </trkpt>
      <trkpt lat="32.48911000" lon="35.41280600">
        <ele>414.00000</ele>
        <time>2010-01-01T02:25:18Z</time>
      </trkpt>
      <trkpt lat="32.48912200" lon="35.41273100">
        <ele>414.00000</ele>
        <time>2010-01-01T02:25:21Z</time>
      </trkpt>
      <trkpt lat="32.48921700" lon="35.41263300">
        <ele>416.00000</ele>
        <time>2010-01-01T02:25:26Z</time>
      </trkpt>
      <trkpt lat="32.48926900" lon="35.41271300">
        <ele>416.00000</ele>
        <time>2010-01-01T02:25:29Z</time>
      </trkpt>
      <trkpt lat="32.48930300" lon="35.41280300">
        <ele>416.00000</ele>
        <time>2010-01-01T02:25:33Z</time>
      </trkpt>
      <trkpt lat="32.48938000" lon="35.41296100">
        <ele>416.00000</ele>
        <time>2010-01-01T02:25:39Z</time>
      </trkpt>
      <trkpt lat="32.48946300" lon="35.41304500">
        <ele>417.00000</ele>
        <time>2010-01-01T02:25:43Z</time>
      </trkpt>
      <trkpt lat="32.48962200" lon="35.41312900">
        <ele>419.00000</ele>
        <time>2010-01-01T02:25:50Z</time>
      </trkpt>
      <trkpt lat="32.48969300" lon="35.41320800">
        <ele>419.00000</ele>
        <time>2010-01-01T02:25:54Z</time>
      </trkpt>
      <trkpt lat="32.48979600" lon="35.41331300">
        <ele>420.00000</ele>
        <time>2010-01-01T02:26:00Z</time>
      </trkpt>
      <trkpt lat="32.48996300" lon="35.41343200">
        <ele>422.00000</ele>
        <time>2010-01-01T02:26:07Z</time>
      </trkpt>
      <trkpt lat="32.49015100" lon="35.41351900">
        <ele>423.00000</ele>
        <time>2010-01-01T02:26:15Z</time>
      </trkpt>
      <trkpt lat="32.49032300" lon="35.41357000">
        <ele>425.00000</ele>
        <time>2010-01-01T02:26:22Z</time>
      </trkpt>
      <trkpt lat="32.49043400" lon="35.41360700">
        <ele>426.00000</ele>
        <time>2010-01-01T02:26:27Z</time>
      </trkpt>
      <trkpt lat="32.49054000" lon="35.41362900">
        <ele>427.00000</ele>
        <time>2010-01-01T02:26:31Z</time>
      </trkpt>
      <trkpt lat="32.49065500" lon="35.41364100">
        <ele>429.00000</ele>
        <time>2010-01-01T02:26:36Z</time>
      </trkpt>
      <trkpt lat="32.49076300" lon="35.41364400">
        <ele>430.00000</ele>
        <time>2010-01-01T02:26:40Z</time>
      </trkpt>
      <trkpt lat="32.49080700" lon="35.41363000">
        <ele>431.00000</ele>
        <time>2010-01-01T02:26:42Z</time>
      </trkpt>
      <trkpt lat="32.49082800" lon="35.41361600">
        <ele>431.00000</ele>
        <time>2010-01-01T02:26:43Z</time>
      </trkpt>
      <trkpt lat="32.49084700" lon="35.41360000">
        <ele>432.00000</ele>
        <time>2010-01-01T02:26:44Z</time>
      </trkpt>
      <trkpt lat="32.49087300" lon="35.41354500">
        <ele>432.00000</ele>
        <time>2010-01-01T02:26:46Z</time>
      </trkpt>
      <trkpt lat="32.49088900" lon="35.41350900">
        <ele>433.00000</ele>
        <time>2010-01-01T02:26:48Z</time>
      </trkpt>
      <trkpt lat="32.49088700" lon="35.41348100">
        <ele>433.00000</ele>
        <time>2010-01-01T02:26:49Z</time>
      </trkpt>
      <trkpt lat="32.49088700" lon="35.41331400">
        <ele>434.00000</ele>
        <time>2010-01-01T02:26:54Z</time>
      </trkpt>
      <trkpt lat="32.49087100" lon="35.41313800">
        <ele>434.00000</ele>
        <time>2010-01-01T02:27:00Z</time>
      </trkpt>
      <trkpt lat="32.49089000" lon="35.41299800">
        <ele>435.00000</ele>
        <time>2010-01-01T02:27:05Z</time>
      </trkpt>
      <trkpt lat="32.49089300" lon="35.41295700">
        <ele>435.00000</ele>
        <time>2010-01-01T02:27:06Z</time>
      </trkpt>
      <trkpt lat="32.49089600" lon="35.41295600">
        <ele>435.00000</ele>
        <time>2010-01-01T02:27:06Z</time>
      </trkpt>
      <trkpt lat="32.49088100" lon="35.41293500">
        <ele>435.00000</ele>
        <time>2010-01-01T02:27:07Z</time>
      </trkpt>
      <trkpt lat="32.49087600" lon="35.41293300">
        <ele>435.00000</ele>
        <time>2010-01-01T02:27:08Z</time>
      </trkpt>
      <trkpt lat="32.49086600" lon="35.41294200">
        <ele>435.00000</ele>
        <time>2010-01-01T02:27:08Z</time>
      </trkpt>
      <trkpt lat="32.49086900" lon="35.41289000">
        <ele>435.00000</ele>
        <time>2010-01-01T02:27:10Z</time>
      </trkpt>
      <trkpt lat="32.49090900" lon="35.41278600">
        <ele>436.00000</ele>
        <time>2010-01-01T02:27:14Z</time>
      </trkpt>
      <trkpt lat="32.49092300" lon="35.41266100">
        <ele>436.00000</ele>
        <time>2010-01-01T02:27:18Z</time>
      </trkpt>
      <trkpt lat="32.49094000" lon="35.41253200">
        <ele>437.00000</ele>
        <time>2010-01-01T02:27:22Z</time>
      </trkpt>
      <trkpt lat="32.49095800" lon="35.41237800">
        <ele>437.00000</ele>
        <time>2010-01-01T02:27:28Z</time>
      </trkpt>
      <trkpt lat="32.49098100" lon="35.41225200">
        <ele>437.00000</ele>
        <time>2010-01-01T02:27:32Z</time>
      </trkpt>
      <trkpt lat="32.49101100" lon="35.41212000">
        <ele>436.00000</ele>
        <time>2010-01-01T02:27:37Z</time>
      </trkpt>
      <trkpt lat="32.49105000" lon="35.41196000">
        <ele>436.00000</ele>
        <time>2010-01-01T02:27:42Z</time>
      </trkpt>
      <trkpt lat="32.49105300" lon="35.41191600">
        <ele>436.00000</ele>
        <time>2010-01-01T02:27:44Z</time>
      </trkpt>
      <trkpt lat="32.49106300" lon="35.41182300">
        <ele>436.00000</ele>
        <time>2010-01-01T02:27:47Z</time>
      </trkpt>
      <trkpt lat="32.49109100" lon="35.41162500">
        <ele>435.00000</ele>
        <time>2010-01-01T02:27:54Z</time>
      </trkpt>
      <trkpt lat="32.49115000" lon="35.41149700">
        <ele>435.00000</ele>
        <time>2010-01-01T02:27:59Z</time>
      </trkpt>
      <trkpt lat="32.49123800" lon="35.41135700">
        <ele>435.00000</ele>
        <time>2010-01-01T02:28:04Z</time>
      </trkpt>
      <trkpt lat="32.49133900" lon="35.41129600">
        <ele>435.00000</ele>
        <time>2010-01-01T02:28:09Z</time>
      </trkpt>
      <trkpt lat="32.49141900" lon="35.41126900">
        <ele>436.00000</ele>
        <time>2010-01-01T02:28:12Z</time>
      </trkpt>
      <trkpt lat="32.49147500" lon="35.41119500">
        <ele>436.00000</ele>
        <time>2010-01-01T02:28:16Z</time>
      </trkpt>
      <trkpt lat="32.49159800" lon="35.41101800">
        <ele>436.00000</ele>
        <time>2010-01-01T02:28:23Z</time>
      </trkpt>
      <trkpt lat="32.49171000" lon="35.41087500">
        <ele>437.00000</ele>
        <time>2010-01-01T02:28:30Z</time>
      </trkpt>
      <trkpt lat="32.49186700" lon="35.41071900">
        <ele>438.00000</ele>
        <time>2010-01-01T02:28:38Z</time>
      </trkpt>
      <trkpt lat="32.49193000" lon="35.41057700">
        <ele>438.00000</ele>
        <time>2010-01-01T02:28:44Z</time>
      </trkpt>
      <trkpt lat="32.49203100" lon="35.41043900">
        <ele>438.00000</ele>
        <time>2010-01-01T02:28:50Z</time>
      </trkpt>
      <trkpt lat="32.49213700" lon="35.41022900">
        <ele>438.00000</ele>
        <time>2010-01-01T02:28:58Z</time>
      </trkpt>
      <trkpt lat="32.49221000" lon="35.41002300">
        <ele>437.00000</ele>
        <time>2010-01-01T02:29:06Z</time>
      </trkpt>
      <trkpt lat="32.49229800" lon="35.40986000">
        <ele>436.00000</ele>
        <time>2010-01-01T02:29:12Z</time>
      </trkpt>
      <trkpt lat="32.49244300" lon="35.40968600">
        <ele>437.00000</ele>
        <time>2010-01-01T02:29:20Z</time>
      </trkpt>
      <trkpt lat="32.49255700" lon="35.40953700">
        <ele>437.00000</ele>
        <time>2010-01-01T02:29:27Z</time>
      </trkpt>
      <trkpt lat="32.49267000" lon="35.40936700">
        <ele>436.00000</ele>
        <time>2010-01-01T02:29:35Z</time>
      </trkpt>
      <trkpt lat="32.49276600" lon="35.40928000">
        <ele>436.00000</ele>
        <time>2010-01-01T02:29:39Z</time>
      </trkpt>
      <trkpt lat="32.49293800" lon="35.40919500">
        <ele>436.00000</ele>
        <time>2010-01-01T02:29:47Z</time>
      </trkpt>
      <trkpt lat="32.49310800" lon="35.40913900">
        <ele>437.00000</ele>
        <time>2010-01-01T02:29:54Z</time>
      </trkpt>
      <trkpt lat="32.49323700" lon="35.40903200">
        <ele>436.00000</ele>
        <time>2010-01-01T02:30:00Z</time>
      </trkpt>
      <trkpt lat="32.49334400" lon="35.40891800">
        <ele>436.00000</ele>
        <time>2010-01-01T02:30:06Z</time>
      </trkpt>
      <trkpt lat="32.49343300" lon="35.40882800">
        <ele>435.00000</ele>
        <time>2010-01-01T02:30:11Z</time>
      </trkpt>
      <trkpt lat="32.49350900" lon="35.40871500">
        <ele>434.00000</ele>
        <time>2010-01-01T02:30:16Z</time>
      </trkpt>
      <trkpt lat="32.49360900" lon="35.40864500">
        <ele>433.00000</ele>
        <time>2010-01-01T02:30:20Z</time>
      </trkpt>
      <trkpt lat="32.49369400" lon="35.40865700">
        <ele>433.00000</ele>
        <time>2010-01-01T02:30:24Z</time>
      </trkpt>
      <trkpt lat="32.49377100" lon="35.40872400">
        <ele>434.00000</ele>
        <time>2010-01-01T02:30:27Z</time>
      </trkpt>
      <trkpt lat="32.49382400" lon="35.40878000">
        <ele>435.00000</ele>
        <time>2010-01-01T02:30:30Z</time>
      </trkpt>
      <trkpt lat="32.49389200" lon="35.40882900">
        <ele>435.00000</ele>
        <time>2010-01-01T02:30:33Z</time>
      </trkpt>
      <trkpt lat="32.49393000" lon="35.40886400">
        <ele>436.00000</ele>
        <time>2010-01-01T02:30:35Z</time>
      </trkpt>
      <trkpt lat="32.49400900" lon="35.40895500">
        <ele>437.00000</ele>
        <time>2010-01-01T02:30:40Z</time>
      </trkpt>
      <trkpt lat="32.49409500" lon="35.40905100">
        <ele>438.00000</ele>
        <time>2010-01-01T02:30:44Z</time>
      </trkpt>
      <trkpt lat="32.49421100" lon="35.40917600">
        <ele>439.00000</ele>
        <time>2010-01-01T02:30:51Z</time>
      </trkpt>
      <trkpt lat="32.49426500" lon="35.40921900">
        <ele>439.00000</ele>
        <time>2010-01-01T02:30:53Z</time>
      </trkpt>
      <trkpt lat="32.49433800" lon="35.40927900">
        <ele>440.00000</ele>
        <time>2010-01-01T02:30:57Z</time>
      </trkpt>
      <trkpt lat="32.49445000" lon="35.40931700">
        <ele>440.00000</ele>
        <time>2010-01-01T02:31:02Z</time>
      </trkpt>
      <trkpt lat="32.49470200" lon="35.40932200">
        <ele>439.00000</ele>
        <time>2010-01-01T02:31:12Z</time>
      </trkpt>
      <trkpt lat="32.49487300" lon="35.40925100">
        <ele>438.00000</ele>
        <time>2010-01-01T02:31:19Z</time>
      </trkpt>
      <trkpt lat="32.49504800" lon="35.40918500">
        <ele>436.00000</ele>
        <time>2010-01-01T02:31:26Z</time>
      </trkpt>
      <trkpt lat="32.49519400" lon="35.40914600">
        <ele>436.00000</ele>
        <time>2010-01-01T02:31:32Z</time>
      </trkpt>
      <trkpt lat="32.49530900" lon="35.40908100">
        <ele>436.00000</ele>
        <time>2010-01-01T02:31:37Z</time>
      </trkpt>
      <trkpt lat="32.49541100" lon="35.40893700">
        <ele>435.00000</ele>
        <time>2010-01-01T02:31:44Z</time>
      </trkpt>
      <trkpt lat="32.49559100" lon="35.40869400">
        <ele>432.00000</ele>
        <time>2010-01-01T02:31:55Z</time>
      </trkpt>
      <trkpt lat="32.49576700" lon="35.40868200">
        <ele>433.00000</ele>
        <time>2010-01-01T02:32:02Z</time>
      </trkpt>
      <trkpt lat="32.49580000" lon="35.40860800">
        <ele>432.00000</ele>
        <time>2010-01-01T02:32:05Z</time>
      </trkpt>
      <trkpt lat="32.49570600" lon="35.40854400">
        <ele>431.00000</ele>
        <time>2010-01-01T02:32:09Z</time>
      </trkpt>
      <trkpt lat="32.49558400" lon="35.40855000">
        <ele>431.00000</ele>
        <time>2010-01-01T02:32:14Z</time>
      </trkpt>
      <trkpt lat="32.49548300" lon="35.40847900">
        <ele>430.00000</ele>
        <time>2010-01-01T02:32:18Z</time>
      </trkpt>
      <trkpt lat="32.49556200" lon="35.40838300">
        <ele>429.00000</ele>
        <time>2010-01-01T02:32:23Z</time>
      </trkpt>
      <trkpt lat="32.49563400" lon="35.40837200">
        <ele>428.00000</ele>
        <time>2010-01-01T02:32:26Z</time>
      </trkpt>
      <trkpt lat="32.49578400" lon="35.40838700">
        <ele>429.00000</ele>
        <time>2010-01-01T02:32:32Z</time>
      </trkpt>
      <trkpt lat="32.49595600" lon="35.40839900">
        <ele>429.00000</ele>
        <time>2010-01-01T02:32:39Z</time>
      </trkpt>
      <trkpt lat="32.49609400" lon="35.40834600">
        <ele>428.00000</ele>
        <time>2010-01-01T02:32:45Z</time>
      </trkpt>
      <trkpt lat="32.49628200" lon="35.40827900">
        <ele>427.00000</ele>
        <time>2010-01-01T02:32:52Z</time>
      </trkpt>
      <trkpt lat="32.49634400" lon="35.40829500">
        <ele>427.00000</ele>
        <time>2010-01-01T02:32:55Z</time>
      </trkpt>
      <trkpt lat="32.49646300" lon="35.40835100">
        <ele>427.00000</ele>
        <time>2010-01-01T02:33:00Z</time>
      </trkpt>
      <trkpt lat="32.49655200" lon="35.40839500">
        <ele>428.00000</ele>
        <time>2010-01-01T02:33:04Z</time>
      </trkpt>
      <trkpt lat="32.49658200" lon="35.40837900">
        <ele>428.00000</ele>
        <time>2010-01-01T02:33:05Z</time>
      </trkpt>
      <trkpt lat="32.49658500" lon="35.40837600">
        <ele>428.00000</ele>
        <time>2010-01-01T02:33:05Z</time>
      </trkpt>
      <trkpt lat="32.49657900" lon="35.40839900">
        <ele>428.00000</ele>
        <time>2010-01-01T02:33:06Z</time>
      </trkpt>
      <trkpt lat="32.49658100" lon="35.40839500">
        <ele>428.00000</ele>
        <time>2010-01-01T02:33:06Z</time>
      </trkpt>
      <trkpt lat="32.49660300" lon="35.40838400">
        <ele>428.00000</ele>
        <time>2010-01-01T02:33:07Z</time>
      </trkpt>
      <trkpt lat="32.49663000" lon="35.40833900">
        <ele>427.00000</ele>
        <time>2010-01-01T02:33:09Z</time>
      </trkpt>
      <trkpt lat="32.49662600" lon="35.40836700">
        <ele>427.00000</ele>
        <time>2010-01-01T02:33:10Z</time>
      </trkpt>
      <trkpt lat="32.49661200" lon="35.40836400">
        <ele>427.00000</ele>
        <time>2010-01-01T02:33:11Z</time>
      </trkpt>
      <trkpt lat="32.49662500" lon="35.40837200">
        <ele>427.00000</ele>
        <time>2010-01-01T02:33:11Z</time>
      </trkpt>
      <trkpt lat="32.49663500" lon="35.40840900">
        <ele>428.00000</ele>
        <time>2010-01-01T02:33:13Z</time>
      </trkpt>
      <trkpt lat="32.49663100" lon="35.40843700">
        <ele>428.00000</ele>
        <time>2010-01-01T02:33:14Z</time>
      </trkpt>
      <trkpt lat="32.49663300" lon="35.40844600">
        <ele>428.00000</ele>
        <time>2010-01-01T02:33:14Z</time>
      </trkpt>
      <trkpt lat="32.49661400" lon="35.40847700">
        <ele>429.00000</ele>
        <time>2010-01-01T02:33:15Z</time>
      </trkpt>
      <trkpt lat="32.49661300" lon="35.40847300">
        <ele>429.00000</ele>
        <time>2010-01-01T02:33:15Z</time>
      </trkpt>
      <trkpt lat="32.49660600" lon="35.40843600">
        <ele>428.00000</ele>
        <time>2010-01-01T02:33:17Z</time>
      </trkpt>
      <trkpt lat="32.49658100" lon="35.40841100">
        <ele>428.00000</ele>
        <time>2010-01-01T02:33:18Z</time>
      </trkpt>
      <trkpt lat="32.49658000" lon="35.40841000">
        <ele>428.00000</ele>
        <time>2010-01-01T02:33:18Z</time>
      </trkpt>
      <trkpt lat="32.49657300" lon="35.40839500">
        <ele>428.00000</ele>
        <time>2010-01-01T02:33:19Z</time>
      </trkpt>
      <trkpt lat="32.49662600" lon="35.40837500">
        <ele>427.00000</ele>
        <time>2010-01-01T02:33:21Z</time>
      </trkpt>
      <trkpt lat="32.49665900" lon="35.40838700">
        <ele>428.00000</ele>
        <time>2010-01-01T02:33:22Z</time>
      </trkpt>
      <trkpt lat="32.49666200" lon="35.40840100">
        <ele>428.00000</ele>
        <time>2010-01-01T02:33:23Z</time>
      </trkpt>
      <trkpt lat="32.49665800" lon="35.40842200">
        <ele>428.00000</ele>
        <time>2010-01-01T02:33:23Z</time>
      </trkpt>
      <trkpt lat="32.49663700" lon="35.40841700">
        <ele>428.00000</ele>
        <time>2010-01-01T02:33:24Z</time>
      </trkpt>
      <trkpt lat="32.49664500" lon="35.40842500">
        <ele>428.00000</ele>
        <time>2010-01-01T02:33:25Z</time>
      </trkpt>
      <trkpt lat="32.49665200" lon="35.40843500">
        <ele>428.00000</ele>
        <time>2010-01-01T02:33:25Z</time>
      </trkpt>
      <trkpt lat="32.49662300" lon="35.40842000">
        <ele>428.00000</ele>
        <time>2010-01-01T02:33:26Z</time>
      </trkpt>
      <trkpt lat="32.49661500" lon="35.40842000">
        <ele>428.00000</ele>
        <time>2010-01-01T02:33:27Z</time>
      </trkpt>
      <trkpt lat="32.49661700" lon="35.40841600">
        <ele>428.00000</ele>
        <time>2010-01-01T02:33:27Z</time>
      </trkpt>
      <trkpt lat="32.49670300" lon="35.40831700">
        <ele>427.00000</ele>
        <time>2010-01-01T02:33:32Z</time>
      </trkpt>
      <trkpt lat="32.49679200" lon="35.40831300">
        <ele>426.00000</ele>
        <time>2010-01-01T02:33:35Z</time>
      </trkpt>
      <trkpt lat="32.49686900" lon="35.40832600">
        <ele>426.00000</ele>
        <time>2010-01-01T02:33:38Z</time>
      </trkpt>
      <trkpt lat="32.49694900" lon="35.40838000">
        <ele>426.00000</ele>
        <time>2010-01-01T02:33:42Z</time>
      </trkpt>
      <trkpt lat="32.49697300" lon="35.40839300">
        <ele>427.00000</ele>
        <time>2010-01-01T02:33:43Z</time>
      </trkpt>
      <trkpt lat="32.49707700" lon="35.40838200">
        <ele>426.00000</ele>
        <time>2010-01-01T02:33:47Z</time>
      </trkpt>
      <trkpt lat="32.49710700" lon="35.40838000">
        <ele>426.00000</ele>
        <time>2010-01-01T02:33:49Z</time>
      </trkpt>
      <trkpt lat="32.49731800" lon="35.40840600">
        <ele>425.00000</ele>
        <time>2010-01-01T02:33:57Z</time>
      </trkpt>
      <trkpt lat="32.49752700" lon="35.40839300">
        <ele>424.00000</ele>
        <time>2010-01-01T02:34:05Z</time>
      </trkpt>
      <trkpt lat="32.49769300" lon="35.40841900">
        <ele>424.00000</ele>
        <time>2010-01-01T02:34:12Z</time>
      </trkpt>
      <trkpt lat="32.49784100" lon="35.40844800">
        <ele>424.00000</ele>
        <time>2010-01-01T02:34:18Z</time>
      </trkpt>
      <trkpt lat="32.49797900" lon="35.40846800">
        <ele>424.00000</ele>
        <time>2010-01-01T02:34:24Z</time>
      </trkpt>
      <trkpt lat="32.49807000" lon="35.40850700">
        <ele>423.00000</ele>
        <time>2010-01-01T02:34:28Z</time>
      </trkpt>
      <trkpt lat="32.49817800" lon="35.40849900">
        <ele>423.00000</ele>
        <time>2010-01-01T02:34:32Z</time>
      </trkpt>
      <trkpt lat="32.49823800" lon="35.40847900">
        <ele>423.00000</ele>
        <time>2010-01-01T02:34:34Z</time>
      </trkpt>
      <trkpt lat="32.49840700" lon="35.40839500">
        <ele>422.00000</ele>
        <time>2010-01-01T02:34:42Z</time>
      </trkpt>
      <trkpt lat="32.49848200" lon="35.40827100">
        <ele>420.00000</ele>
        <time>2010-01-01T02:34:47Z</time>
      </trkpt>
      <trkpt lat="32.49845100" lon="35.40814400">
        <ele>419.00000</ele>
        <time>2010-01-01T02:34:51Z</time>
      </trkpt>
      <trkpt lat="32.49848100" lon="35.40811200">
        <ele>418.00000</ele>
        <time>2010-01-01T02:34:53Z</time>
      </trkpt>
      <trkpt lat="32.49861300" lon="35.40801800">
        <ele>416.00000</ele>
        <time>2010-01-01T02:34:59Z</time>
      </trkpt>
      <trkpt lat="32.49863200" lon="35.40792600">
        <ele>415.00000</ele>
        <time>2010-01-01T02:35:02Z</time>
      </trkpt>
      <trkpt lat="32.49862300" lon="35.40787400">
        <ele>415.00000</ele>
        <time>2010-01-01T02:35:04Z</time>
      </trkpt>
      <trkpt lat="32.49873700" lon="35.40771100">
        <ele>413.00000</ele>
        <time>2010-01-01T02:35:11Z</time>
      </trkpt>
      <trkpt lat="32.49880300" lon="35.40767700">
        <ele>412.00000</ele>
        <time>2010-01-01T02:35:14Z</time>
      </trkpt>
      <trkpt lat="32.49882700" lon="35.40757300">
        <ele>411.00000</ele>
        <time>2010-01-01T02:35:18Z</time>
      </trkpt>
      <trkpt lat="32.49880200" lon="35.40754800">
        <ele>411.00000</ele>
        <time>2010-01-01T02:35:19Z</time>
      </trkpt>
      <trkpt lat="32.49871600" lon="35.40744900">
        <ele>410.00000</ele>
        <time>2010-01-01T02:35:24Z</time>
      </trkpt>
      <trkpt lat="32.49875800" lon="35.40740600">
        <ele>409.00000</ele>
        <time>2010-01-01T02:35:26Z</time>
      </trkpt>
      <trkpt lat="32.49882600" lon="35.40743900">
        <ele>410.00000</ele>
        <time>2010-01-01T02:35:29Z</time>
      </trkpt>
      <trkpt lat="32.49896300" lon="35.40745900">
        <ele>410.00000</ele>
        <time>2010-01-01T02:35:35Z</time>
      </trkpt>
      <trkpt lat="32.49904400" lon="35.40748600">
        <ele>411.00000</ele>
        <time>2010-01-01T02:35:38Z</time>
      </trkpt>
      <trkpt lat="32.49921900" lon="35.40753300">
        <ele>411.00000</ele>
        <time>2010-01-01T02:35:45Z</time>
      </trkpt>
      <trkpt lat="32.49927200" lon="35.40756900">
        <ele>411.00000</ele>
        <time>2010-01-01T02:35:48Z</time>
      </trkpt>
      <trkpt lat="32.49948200" lon="35.40762900">
        <ele>410.00000</ele>
        <time>2010-01-01T02:35:56Z</time>
      </trkpt>
      <trkpt lat="32.49968900" lon="35.40773000">
        <ele>409.00000</ele>
        <time>2010-01-01T02:36:05Z</time>
      </trkpt>
      <trkpt lat="32.49981800" lon="35.40778000">
        <ele>409.00000</ele>
        <time>2010-01-01T02:36:11Z</time>
      </trkpt>
      <trkpt lat="32.50004300" lon="35.40786100">
        <ele>407.00000</ele>
        <time>2010-01-01T02:36:20Z</time>
      </trkpt>
      <trkpt lat="32.50019400" lon="35.40798600">
        <ele>406.00000</ele>
        <time>2010-01-01T02:36:27Z</time>
      </trkpt>
      <trkpt lat="32.50036700" lon="35.40818400">
        <ele>406.00000</ele>
        <time>2010-01-01T02:36:37Z</time>
      </trkpt>
      <trkpt lat="32.50047900" lon="35.40836200">
        <ele>406.00000</ele>
        <time>2010-01-01T02:36:44Z</time>
      </trkpt>
      <trkpt lat="32.50059100" lon="35.40850700">
        <ele>406.00000</ele>
        <time>2010-01-01T02:36:51Z</time>
      </trkpt>
      <trkpt lat="32.50066900" lon="35.40857400">
        <ele>405.00000</ele>
        <time>2010-01-01T02:36:55Z</time>
      </trkpt>
      <trkpt lat="32.50074400" lon="35.40875300">
        <ele>406.00000</ele>
        <time>2010-01-01T02:37:02Z</time>
      </trkpt>
      <trkpt lat="32.50082200" lon="35.40894500">
        <ele>407.00000</ele>
        <time>2010-01-01T02:37:09Z</time>
      </trkpt>
      <trkpt lat="32.50088900" lon="35.40913700">
        <ele>407.00000</ele>
        <time>2010-01-01T02:37:16Z</time>
      </trkpt>
      <trkpt lat="32.50094900" lon="35.40921600">
        <ele>406.00000</ele>
        <time>2010-01-01T02:37:20Z</time>
      </trkpt>
      <trkpt lat="32.50114400" lon="35.40939200">
        <ele>404.00000</ele>
        <time>2010-01-01T02:37:29Z</time>
      </trkpt>
      <trkpt lat="32.50123700" lon="35.40954200">
        <ele>404.00000</ele>
        <time>2010-01-01T02:37:36Z</time>
      </trkpt>
      <trkpt lat="32.50142400" lon="35.40962700">
        <ele>404.00000</ele>
        <time>2010-01-01T02:37:44Z</time>
      </trkpt>
      <trkpt lat="32.50147000" lon="35.40963800">
        <ele>404.00000</ele>
        <time>2010-01-01T02:37:46Z</time>
      </trkpt>
      <trkpt lat="32.50165400" lon="35.40963600">
        <ele>403.00000</ele>
        <time>2010-01-01T02:37:53Z</time>
      </trkpt>
      <trkpt lat="32.50169900" lon="35.40961800">
        <ele>403.00000</ele>
        <time>2010-01-01T02:37:55Z</time>
      </trkpt>
      <trkpt lat="32.50187400" lon="35.40955500">
        <ele>402.00000</ele>
        <time>2010-01-01T02:38:02Z</time>
      </trkpt>
      <trkpt lat="32.50202400" lon="35.40955000">
        <ele>402.00000</ele>
        <time>2010-01-01T02:38:08Z</time>
      </trkpt>
      <trkpt lat="32.50212700" lon="35.40954100">
        <ele>402.00000</ele>
        <time>2010-01-01T02:38:12Z</time>
      </trkpt>
      <trkpt lat="32.50226900" lon="35.40961000">
        <ele>403.00000</ele>
        <time>2010-01-01T02:38:18Z</time>
      </trkpt>
      <trkpt lat="32.50233400" lon="35.40969700">
        <ele>404.00000</ele>
        <time>2010-01-01T02:38:22Z</time>
      </trkpt>
      <trkpt lat="32.50238500" lon="35.40976600">
        <ele>405.00000</ele>
        <time>2010-01-01T02:38:25Z</time>
      </trkpt>
      <trkpt lat="32.50247100" lon="35.40982000">
        <ele>406.00000</ele>
        <time>2010-01-01T02:38:29Z</time>
      </trkpt>
      <trkpt lat="32.50258300" lon="35.40983900">
        <ele>407.00000</ele>
        <time>2010-01-01T02:38:34Z</time>
      </trkpt>
      <trkpt lat="32.50270000" lon="35.40981700">
        <ele>407.00000</ele>
        <time>2010-01-01T02:38:39Z</time>
      </trkpt>
      <trkpt lat="32.50282200" lon="35.40978800">
        <ele>407.00000</ele>
        <time>2010-01-01T02:38:44Z</time>
      </trkpt>
      <trkpt lat="32.50294600" lon="35.40969800">
        <ele>407.00000</ele>
        <time>2010-01-01T02:38:49Z</time>
      </trkpt>
      <trkpt lat="32.50307800" lon="35.40961400">
        <ele>406.00000</ele>
        <time>2010-01-01T02:38:55Z</time>
      </trkpt>
      <trkpt lat="32.50329300" lon="35.40947600">
        <ele>405.00000</ele>
        <time>2010-01-01T02:39:05Z</time>
      </trkpt>
      <trkpt lat="32.50344700" lon="35.40934800">
        <ele>405.00000</ele>
        <time>2010-01-01T02:39:13Z</time>
      </trkpt>
      <trkpt lat="32.50349400" lon="35.40927600">
        <ele>405.00000</ele>
        <time>2010-01-01T02:39:16Z</time>
      </trkpt>
      <trkpt lat="32.50356500" lon="35.40912900">
        <ele>404.00000</ele>
        <time>2010-01-01T02:39:21Z</time>
      </trkpt>
      <trkpt lat="32.50357000" lon="35.40908000">
        <ele>403.00000</ele>
        <time>2010-01-01T02:39:23Z</time>
      </trkpt>
      <trkpt lat="32.50351700" lon="35.40900300">
        <ele>402.00000</ele>
        <time>2010-01-01T02:39:27Z</time>
      </trkpt>
      <trkpt lat="32.50348700" lon="35.40899800">
        <ele>401.00000</ele>
        <time>2010-01-01T02:39:28Z</time>
      </trkpt>
      <trkpt lat="32.50343600" lon="35.40900400">
        <ele>400.00000</ele>
        <time>2010-01-01T02:39:30Z</time>
      </trkpt>
      <trkpt lat="32.50327200" lon="35.40907900">
        <ele>399.00000</ele>
        <time>2010-01-01T02:39:37Z</time>
      </trkpt>
      <trkpt lat="32.50317600" lon="35.40910100">
        <ele>399.00000</ele>
        <time>2010-01-01T02:39:41Z</time>
      </trkpt>
      <trkpt lat="32.50307500" lon="35.40909800">
        <ele>398.00000</ele>
        <time>2010-01-01T02:39:45Z</time>
      </trkpt>
      <trkpt lat="32.50304400" lon="35.40907900">
        <ele>398.00000</ele>
        <time>2010-01-01T02:39:46Z</time>
      </trkpt>
      <trkpt lat="32.50300500" lon="35.40898400">
        <ele>396.00000</ele>
        <time>2010-01-01T02:39:50Z</time>
      </trkpt>
      <trkpt lat="32.50301600" lon="35.40894400">
        <ele>396.00000</ele>
        <time>2010-01-01T02:39:51Z</time>
      </trkpt>
      <trkpt lat="32.50303500" lon="35.40890300">
        <ele>395.00000</ele>
        <time>2010-01-01T02:39:53Z</time>
      </trkpt>
      <trkpt lat="32.50322200" lon="35.40866300">
        <ele>393.00000</ele>
        <time>2010-01-01T02:40:04Z</time>
      </trkpt>
      <trkpt lat="32.50326100" lon="35.40861700">
        <ele>393.00000</ele>
        <time>2010-01-01T02:40:06Z</time>
      </trkpt>
      <trkpt lat="32.50338200" lon="35.40839500">
        <ele>391.00000</ele>
        <time>2010-01-01T02:40:15Z</time>
      </trkpt>
      <trkpt lat="32.50344300" lon="35.40819300">
        <ele>389.00000</ele>
        <time>2010-01-01T02:40:22Z</time>
      </trkpt>
      <trkpt lat="32.50358600" lon="35.40796700">
        <ele>388.00000</ele>
        <time>2010-01-01T02:40:32Z</time>
      </trkpt>
      <trkpt lat="32.50372400" lon="35.40789100">
        <ele>388.00000</ele>
        <time>2010-01-01T02:40:38Z</time>
      </trkpt>
      <trkpt lat="32.50394000" lon="35.40778900">
        <ele>389.00000</ele>
        <time>2010-01-01T02:40:47Z</time>
      </trkpt>
      <trkpt lat="32.50415500" lon="35.40768500">
        <ele>389.00000</ele>
        <time>2010-01-01T02:40:56Z</time>
      </trkpt>
      <trkpt lat="32.50424500" lon="35.40764100">
        <ele>389.00000</ele>
        <time>2010-01-01T02:41:00Z</time>
      </trkpt>
      <trkpt lat="32.50431500" lon="35.40758200">
        <ele>389.00000</ele>
        <time>2010-01-01T02:41:04Z</time>
      </trkpt>
      <trkpt lat="32.50437400" lon="35.40754600">
        <ele>389.00000</ele>
        <time>2010-01-01T02:41:06Z</time>
      </trkpt>
      <trkpt lat="32.50451700" lon="35.40742200">
        <ele>389.00000</ele>
        <time>2010-01-01T02:41:13Z</time>
      </trkpt>
      <trkpt lat="32.50464600" lon="35.40724700">
        <ele>390.00000</ele>
        <time>2010-01-01T02:41:21Z</time>
      </trkpt>
      <trkpt lat="32.50471500" lon="35.40706000">
        <ele>389.00000</ele>
        <time>2010-01-01T02:41:28Z</time>
      </trkpt>
      <trkpt lat="32.50471800" lon="35.40675400">
        <ele>387.00000</ele>
        <time>2010-01-01T02:41:39Z</time>
      </trkpt>
      <trkpt lat="32.50466100" lon="35.40658500">
        <ele>386.00000</ele>
        <time>2010-01-01T02:41:45Z</time>
      </trkpt>
      <trkpt lat="32.50456700" lon="35.40645600">
        <ele>385.00000</ele>
        <time>2010-01-01T02:41:50Z</time>
      </trkpt>
      <trkpt lat="32.50455000" lon="35.40643700">
        <ele>385.00000</ele>
        <time>2010-01-01T02:41:51Z</time>
      </trkpt>
      <trkpt lat="32.50445400" lon="35.40630800">
        <ele>384.00000</ele>
        <time>2010-01-01T02:41:57Z</time>
      </trkpt>
      <trkpt lat="32.50442900" lon="35.40627100">
        <ele>384.00000</ele>
        <time>2010-01-01T02:41:59Z</time>
      </trkpt>
      <trkpt lat="32.50441500" lon="35.40620500">
        <ele>384.00000</ele>
        <time>2010-01-01T02:42:01Z</time>
      </trkpt>
      <trkpt lat="32.50435800" lon="35.40610400">
        <ele>384.00000</ele>
        <time>2010-01-01T02:42:05Z</time>
      </trkpt>
      <trkpt lat="32.50429700" lon="35.40598700">
        <ele>383.00000</ele>
        <time>2010-01-01T02:42:10Z</time>
      </trkpt>
      <trkpt lat="32.50421900" lon="35.40584800">
        <ele>383.00000</ele>
        <time>2010-01-01T02:42:15Z</time>
      </trkpt>
      <trkpt lat="32.50419600" lon="35.40577500">
        <ele>382.00000</ele>
        <time>2010-01-01T02:42:18Z</time>
      </trkpt>
      <trkpt lat="32.50413300" lon="35.40564700">
        <ele>381.00000</ele>
        <time>2010-01-01T02:42:23Z</time>
      </trkpt>
      <trkpt lat="32.50408700" lon="35.40546800">
        <ele>380.00000</ele>
        <time>2010-01-01T02:42:29Z</time>
      </trkpt>
      <trkpt lat="32.50405900" lon="35.40525500">
        <ele>379.00000</ele>
        <time>2010-01-01T02:42:37Z</time>
      </trkpt>
      <trkpt lat="32.50401700" lon="35.40507000">
        <ele>378.00000</ele>
        <time>2010-01-01T02:42:43Z</time>
      </trkpt>
      <trkpt lat="32.50404600" lon="35.40484600">
        <ele>378.00000</ele>
        <time>2010-01-01T02:42:51Z</time>
      </trkpt>
      <trkpt lat="32.50404100" lon="35.40482000">
        <ele>377.00000</ele>
        <time>2010-01-01T02:42:52Z</time>
      </trkpt>
      <trkpt lat="32.50402000" lon="35.40469500">
        <ele>376.00000</ele>
        <time>2010-01-01T02:42:56Z</time>
      </trkpt>
      <trkpt lat="32.50400900" lon="35.40451500">
        <ele>375.00000</ele>
        <time>2010-01-01T02:43:02Z</time>
      </trkpt>
      <trkpt lat="32.50399800" lon="35.40433300">
        <ele>375.00000</ele>
        <time>2010-01-01T02:43:08Z</time>
      </trkpt>
      <trkpt lat="32.50400600" lon="35.40427100">
        <ele>375.00000</ele>
        <time>2010-01-01T02:43:10Z</time>
      </trkpt>
      <trkpt lat="32.50401000" lon="35.40425200">
        <ele>375.00000</ele>
        <time>2010-01-01T02:43:11Z</time>
      </trkpt>
      <trkpt lat="32.50400100" lon="35.40423900">
        <ele>374.00000</ele>
        <time>2010-01-01T02:43:12Z</time>
      </trkpt>
      <trkpt lat="32.50398800" lon="35.40423300">
        <ele>374.00000</ele>
        <time>2010-01-01T02:43:12Z</time>
      </trkpt>
      <trkpt lat="32.50399100" lon="35.40422000">
        <ele>374.00000</ele>
        <time>2010-01-01T02:43:13Z</time>
      </trkpt>
      <trkpt lat="32.50400100" lon="35.40420900">
        <ele>374.00000</ele>
        <time>2010-01-01T02:43:13Z</time>
      </trkpt>
      <trkpt lat="32.50400600" lon="35.40419000">
        <ele>374.00000</ele>
        <time>2010-01-01T02:43:14Z</time>
      </trkpt>
      <trkpt lat="32.50398200" lon="35.40418300">
        <ele>374.00000</ele>
        <time>2010-01-01T02:43:15Z</time>
      </trkpt>
      <trkpt lat="32.50395900" lon="35.40415900">
        <ele>373.00000</ele>
        <time>2010-01-01T02:43:16Z</time>
      </trkpt>
      <trkpt lat="32.50394700" lon="35.40412700">
        <ele>373.00000</ele>
        <time>2010-01-01T02:43:17Z</time>
      </trkpt>
      <trkpt lat="32.50395400" lon="35.40409900">
        <ele>373.00000</ele>
        <time>2010-01-01T02:43:18Z</time>
      </trkpt>
      <trkpt lat="32.50394800" lon="35.40403500">
        <ele>372.00000</ele>
        <time>2010-01-01T02:43:20Z</time>
      </trkpt>
      <trkpt lat="32.50394700" lon="35.40396200">
        <ele>372.00000</ele>
        <time>2010-01-01T02:43:23Z</time>
      </trkpt>
      <trkpt lat="32.50395600" lon="35.40387700">
        <ele>372.00000</ele>
        <time>2010-01-01T02:43:26Z</time>
      </trkpt>
      <trkpt lat="32.50396300" lon="35.40386000">
        <ele>372.00000</ele>
        <time>2010-01-01T02:43:26Z</time>
      </trkpt>
      <trkpt lat="32.50400100" lon="35.40384600">
        <ele>373.00000</ele>
        <time>2010-01-01T02:43:28Z</time>
      </trkpt>
      <trkpt lat="32.50401700" lon="35.40385200">
        <ele>373.00000</ele>
        <time>2010-01-01T02:43:29Z</time>
      </trkpt>
      <trkpt lat="32.50402700" lon="35.40386000">
        <ele>373.00000</ele>
        <time>2010-01-01T02:43:29Z</time>
      </trkpt>
      <trkpt lat="32.50405900" lon="35.40386600">
        <ele>374.00000</ele>
        <time>2010-01-01T02:43:30Z</time>
      </trkpt>
      <trkpt lat="32.50408800" lon="35.40386700">
        <ele>375.00000</ele>
        <time>2010-01-01T02:43:32Z</time>
      </trkpt>
      <trkpt lat="32.50410300" lon="35.40386600">
        <ele>375.00000</ele>
        <time>2010-01-01T02:43:32Z</time>
      </trkpt>
      <trkpt lat="32.50411900" lon="35.40386500">
        <ele>375.00000</ele>
        <time>2010-01-01T02:43:33Z</time>
      </trkpt>
      <trkpt lat="32.50414200" lon="35.40383600">
        <ele>376.00000</ele>
        <time>2010-01-01T02:43:34Z</time>
      </trkpt>
      <trkpt lat="32.50413600" lon="35.40381600">
        <ele>376.00000</ele>
        <time>2010-01-01T02:43:35Z</time>
      </trkpt>
      <trkpt lat="32.50413800" lon="35.40380000">
        <ele>376.00000</ele>
        <time>2010-01-01T02:43:35Z</time>
      </trkpt>
      <trkpt lat="32.50414400" lon="35.40379400">
        <ele>376.00000</ele>
        <time>2010-01-01T02:43:36Z</time>
      </trkpt>
      <trkpt lat="32.50410800" lon="35.40368200">
        <ele>374.00000</ele>
        <time>2010-01-01T02:43:40Z</time>
      </trkpt>
      <trkpt lat="32.50398900" lon="35.40345200">
        <ele>371.00000</ele>
        <time>2010-01-01T02:43:49Z</time>
      </trkpt>
      <trkpt lat="32.50394500" lon="35.40331600">
        <ele>369.00000</ele>
        <time>2010-01-01T02:43:54Z</time>
      </trkpt>
      <trkpt lat="32.50392100" lon="35.40293100">
        <ele>368.00000</ele>
        <time>2010-01-01T02:44:07Z</time>
      </trkpt>
      <trkpt lat="32.50395800" lon="35.40262400">
        <ele>368.00000</ele>
        <time>2010-01-01T02:44:17Z</time>
      </trkpt>
      <trkpt lat="32.50396200" lon="35.40258800">
        <ele>368.00000</ele>
        <time>2010-01-01T02:44:19Z</time>
      </trkpt>
      <trkpt lat="32.50398500" lon="35.40227600">
        <ele>366.00000</ele>
        <time>2010-01-01T02:44:29Z</time>
      </trkpt>
      <trkpt lat="32.50399600" lon="35.40203400">
        <ele>365.00000</ele>
        <time>2010-01-01T02:44:37Z</time>
      </trkpt>
      <trkpt lat="32.50404000" lon="35.40180100">
        <ele>364.00000</ele>
        <time>2010-01-01T02:44:45Z</time>
      </trkpt>
      <trkpt lat="32.50407700" lon="35.40166100">
        <ele>363.00000</ele>
        <time>2010-01-01T02:44:50Z</time>
      </trkpt>
      <trkpt lat="32.50417600" lon="35.40153300">
        <ele>363.00000</ele>
        <time>2010-01-01T02:44:56Z</time>
      </trkpt>
      <trkpt lat="32.50422400" lon="35.40151300">
        <ele>363.00000</ele>
        <time>2010-01-01T02:44:58Z</time>
      </trkpt>
      <trkpt lat="32.50428000" lon="35.40149400">
        <ele>363.00000</ele>
        <time>2010-01-01T02:45:01Z</time>
      </trkpt>
      <trkpt lat="32.50431000" lon="35.40149200">
        <ele>364.00000</ele>
        <time>2010-01-01T02:45:02Z</time>
      </trkpt>
      <trkpt lat="32.50432600" lon="35.40148700">
        <ele>364.00000</ele>
        <time>2010-01-01T02:45:02Z</time>
      </trkpt>
      <trkpt lat="32.50434200" lon="35.40147900">
        <ele>364.00000</ele>
        <time>2010-01-01T02:45:03Z</time>
      </trkpt>
      <trkpt lat="32.50445700" lon="35.40143300">
        <ele>364.00000</ele>
        <time>2010-01-01T02:45:08Z</time>
      </trkpt>
      <trkpt lat="32.50454100" lon="35.40142700">
        <ele>365.00000</ele>
        <time>2010-01-01T02:45:11Z</time>
      </trkpt>
      <trkpt lat="32.50467300" lon="35.40145600">
        <ele>367.00000</ele>
        <time>2010-01-01T02:45:17Z</time>
      </trkpt>
      <trkpt lat="32.50477400" lon="35.40151700">
        <ele>369.00000</ele>
        <time>2010-01-01T02:45:21Z</time>
      </trkpt>
      <trkpt lat="32.50487200" lon="35.40158300">
        <ele>372.00000</ele>
        <time>2010-01-01T02:45:26Z</time>
      </trkpt>
      <trkpt lat="32.50499200" lon="35.40163900">
        <ele>375.00000</ele>
        <time>2010-01-01T02:45:31Z</time>
      </trkpt>
      <trkpt lat="32.50511000" lon="35.40168600">
        <ele>376.00000</ele>
        <time>2010-01-01T02:45:36Z</time>
      </trkpt>
      <trkpt lat="32.50523100" lon="35.40176700">
        <ele>378.00000</ele>
        <time>2010-01-01T02:45:41Z</time>
      </trkpt>
      <trkpt lat="32.50529700" lon="35.40180000">
        <ele>379.00000</ele>
        <time>2010-01-01T02:45:44Z</time>
      </trkpt>
      <trkpt lat="32.50540300" lon="35.40184500">
        <ele>380.00000</ele>
        <time>2010-01-01T02:45:49Z</time>
      </trkpt>
      <trkpt lat="32.50552400" lon="35.40187500">
        <ele>381.00000</ele>
        <time>2010-01-01T02:45:54Z</time>
      </trkpt>
      <trkpt lat="32.50564800" lon="35.40194700">
        <ele>383.00000</ele>
        <time>2010-01-01T02:45:59Z</time>
      </trkpt>
      <trkpt lat="32.50573900" lon="35.40200400">
        <ele>384.00000</ele>
        <time>2010-01-01T02:46:03Z</time>
      </trkpt>
      <trkpt lat="32.50582600" lon="35.40212100">
        <ele>387.00000</ele>
        <time>2010-01-01T02:46:09Z</time>
      </trkpt>
      <trkpt lat="32.50591300" lon="35.40225400">
        <ele>390.00000</ele>
        <time>2010-01-01T02:46:14Z</time>
      </trkpt>
      <trkpt lat="32.50598100" lon="35.40236400">
        <ele>391.00000</ele>
        <time>2010-01-01T02:46:19Z</time>
      </trkpt>
      <trkpt lat="32.50609400" lon="35.40248300">
        <ele>393.00000</ele>
        <time>2010-01-01T02:46:25Z</time>
      </trkpt>
      <trkpt lat="32.50620100" lon="35.40255700">
        <ele>393.00000</ele>
        <time>2010-01-01T02:46:30Z</time>
      </trkpt>
      <trkpt lat="32.50630500" lon="35.40265800">
        <ele>393.00000</ele>
        <time>2010-01-01T02:46:35Z</time>
      </trkpt>
      <trkpt lat="32.50638200" lon="35.40273800">
        <ele>394.00000</ele>
        <time>2010-01-01T02:46:39Z</time>
      </trkpt>
      <trkpt lat="32.50650000" lon="35.40283500">
        <ele>395.00000</ele>
        <time>2010-01-01T02:46:45Z</time>
      </trkpt>
      <trkpt lat="32.50661000" lon="35.40291700">
        <ele>396.00000</ele>
        <time>2010-01-01T02:46:50Z</time>
      </trkpt>
      <trkpt lat="32.50672400" lon="35.40301000">
        <ele>397.00000</ele>
        <time>2010-01-01T02:46:56Z</time>
      </trkpt>
      <trkpt lat="32.50681700" lon="35.40309000">
        <ele>399.00000</ele>
        <time>2010-01-01T02:47:01Z</time>
      </trkpt>
      <trkpt lat="32.50694900" lon="35.40318200">
        <ele>400.00000</ele>
        <time>2010-01-01T02:47:07Z</time>
      </trkpt>
      <trkpt lat="32.50708900" lon="35.40326000">
        <ele>401.00000</ele>
        <time>2010-01-01T02:47:13Z</time>
      </trkpt>
      <trkpt lat="32.50724300" lon="35.40334200">
        <ele>402.00000</ele>
        <time>2010-01-01T02:47:20Z</time>
      </trkpt>
      <trkpt lat="32.50735800" lon="35.40339500">
        <ele>403.00000</ele>
        <time>2010-01-01T02:47:25Z</time>
      </trkpt>
      <trkpt lat="32.50746000" lon="35.40345000">
        <ele>404.00000</ele>
        <time>2010-01-01T02:47:29Z</time>
      </trkpt>
      <trkpt lat="32.50759500" lon="35.40351400">
        <ele>405.00000</ele>
        <time>2010-01-01T02:47:35Z</time>
      </trkpt>
      <trkpt lat="32.50774900" lon="35.40356800">
        <ele>406.00000</ele>
        <time>2010-01-01T02:47:41Z</time>
      </trkpt>
      <trkpt lat="32.50795800" lon="35.40359500">
        <ele>407.00000</ele>
        <time>2010-01-01T02:47:50Z</time>
      </trkpt>
      <trkpt lat="32.50823200" lon="35.40361100">
        <ele>406.00000</ele>
        <time>2010-01-01T02:48:01Z</time>
      </trkpt>
      <trkpt lat="32.50845000" lon="35.40360800">
        <ele>406.00000</ele>
        <time>2010-01-01T02:48:09Z</time>
      </trkpt>
      <trkpt lat="32.50861900" lon="35.40358600">
        <ele>407.00000</ele>
        <time>2010-01-01T02:48:16Z</time>
      </trkpt>
      <trkpt lat="32.50885600" lon="35.40354000">
        <ele>407.00000</ele>
        <time>2010-01-01T02:48:26Z</time>
      </trkpt>
      <trkpt lat="32.50910100" lon="35.40348300">
        <ele>406.00000</ele>
        <time>2010-01-01T02:48:36Z</time>
      </trkpt>
      <trkpt lat="32.50927400" lon="35.40342100">
        <ele>406.00000</ele>
        <time>2010-01-01T02:48:43Z</time>
      </trkpt>
      <trkpt lat="32.50942500" lon="35.40337100">
        <ele>407.00000</ele>
        <time>2010-01-01T02:48:49Z</time>
      </trkpt>
      <trkpt lat="32.50952400" lon="35.40331700">
        <ele>407.00000</ele>
        <time>2010-01-01T02:48:54Z</time>
      </trkpt>
      <trkpt lat="32.50955700" lon="35.40330300">
        <ele>407.00000</ele>
        <time>2010-01-01T02:48:55Z</time>
      </trkpt>
      <trkpt lat="32.50971200" lon="35.40329800">
        <ele>408.00000</ele>
        <time>2010-01-01T02:49:01Z</time>
      </trkpt>
      <trkpt lat="32.50987900" lon="35.40327900">
        <ele>410.00000</ele>
        <time>2010-01-01T02:49:08Z</time>
      </trkpt>
      <trkpt lat="32.51004900" lon="35.40327200">
        <ele>411.00000</ele>
        <time>2010-01-01T02:49:15Z</time>
      </trkpt>
      <trkpt lat="32.51015800" lon="35.40327000">
        <ele>412.00000</ele>
        <time>2010-01-01T02:49:19Z</time>
      </trkpt>
      <trkpt lat="32.51030600" lon="35.40324800">
        <ele>414.00000</ele>
        <time>2010-01-01T02:49:25Z</time>
      </trkpt>
      <trkpt lat="32.51043500" lon="35.40312500">
        <ele>413.00000</ele>
        <time>2010-01-01T02:49:32Z</time>
      </trkpt>
      <trkpt lat="32.51052600" lon="35.40291400">
        <ele>412.00000</ele>
        <time>2010-01-01T02:49:40Z</time>
      </trkpt>
      <trkpt lat="32.51061400" lon="35.40266900">
        <ele>411.00000</ele>
        <time>2010-01-01T02:49:49Z</time>
      </trkpt>
      <trkpt lat="32.51067000" lon="35.40245900">
        <ele>410.00000</ele>
        <time>2010-01-01T02:49:56Z</time>
      </trkpt>
      <trkpt lat="32.51068200" lon="35.40218500">
        <ele>409.00000</ele>
        <time>2010-01-01T02:50:05Z</time>
      </trkpt>
      <trkpt lat="32.51070200" lon="35.40191900">
        <ele>408.00000</ele>
        <time>2010-01-01T02:50:15Z</time>
      </trkpt>
      <trkpt lat="32.51074100" lon="35.40167200">
        <ele>408.00000</ele>
        <time>2010-01-01T02:50:23Z</time>
      </trkpt>
      <trkpt lat="32.51075100" lon="35.40153400">
        <ele>407.00000</ele>
        <time>2010-01-01T02:50:28Z</time>
      </trkpt>
      <trkpt lat="32.51078300" lon="35.40134200">
        <ele>407.00000</ele>
        <time>2010-01-01T02:50:34Z</time>
      </trkpt>
      <trkpt lat="32.51073300" lon="35.40108000">
        <ele>404.00000</ele>
        <time>2010-01-01T02:50:43Z</time>
      </trkpt>
      <trkpt lat="32.51069000" lon="35.40112100">
        <ele>403.00000</ele>
        <time>2010-01-01T02:50:46Z</time>
      </trkpt>
      <trkpt lat="32.51035900" lon="35.40150200">
        <ele>400.00000</ele>
        <time>2010-01-01T02:51:04Z</time>
      </trkpt>
      <trkpt lat="32.51006600" lon="35.40184100">
        <ele>396.00000</ele>
        <time>2010-01-01T02:51:20Z</time>
      </trkpt>
      <trkpt lat="32.50991000" lon="35.40202000">
        <ele>395.00000</ele>
        <time>2010-01-01T02:51:29Z</time>
      </trkpt>
      <trkpt lat="32.50978200" lon="35.40206300">
        <ele>393.00000</ele>
        <time>2010-01-01T02:51:34Z</time>
      </trkpt>
      <trkpt lat="32.50974200" lon="35.40201600">
        <ele>392.00000</ele>
        <time>2010-01-01T02:51:37Z</time>
      </trkpt>
      <trkpt lat="32.50972300" lon="35.40192600">
        <ele>391.00000</ele>
        <time>2010-01-01T02:51:40Z</time>
      </trkpt>
      <trkpt lat="32.50968500" lon="35.40155200">
        <ele>388.00000</ele>
        <time>2010-01-01T02:51:53Z</time>
      </trkpt>
      <trkpt lat="32.50975200" lon="35.40112200">
        <ele>387.00000</ele>
        <time>2010-01-01T02:52:07Z</time>
      </trkpt>
      <trkpt lat="32.50968700" lon="35.40083600">
        <ele>384.00000</ele>
        <time>2010-01-01T02:52:17Z</time>
      </trkpt>
      <trkpt lat="32.50944400" lon="35.40043600">
        <ele>381.00000</ele>
        <time>2010-01-01T02:52:34Z</time>
      </trkpt>
      <trkpt lat="32.50926300" lon="35.39998800">
        <ele>381.00000</ele>
        <time>2010-01-01T02:52:51Z</time>
      </trkpt>
      <trkpt lat="32.50906400" lon="35.39957300">
        <ele>380.00000</ele>
        <time>2010-01-01T02:53:07Z</time>
      </trkpt>
      <trkpt lat="32.50898800" lon="35.39941600">
        <ele>379.00000</ele>
        <time>2010-01-01T02:53:13Z</time>
      </trkpt>
      <trkpt lat="32.50893400" lon="35.39925900">
        <ele>379.00000</ele>
        <time>2010-01-01T02:53:19Z</time>
      </trkpt>
      <trkpt lat="32.50880800" lon="35.39903500">
        <ele>377.00000</ele>
        <time>2010-01-01T02:53:28Z</time>
      </trkpt>
      <trkpt lat="32.50877100" lon="35.39898800">
        <ele>377.00000</ele>
        <time>2010-01-01T02:53:30Z</time>
      </trkpt>
      <trkpt lat="32.50870400" lon="35.39889400">
        <ele>376.00000</ele>
        <time>2010-01-01T02:53:34Z</time>
      </trkpt>
      <trkpt lat="32.50855900" lon="35.39877300">
        <ele>374.00000</ele>
        <time>2010-01-01T02:53:41Z</time>
      </trkpt>
      <trkpt lat="32.50837400" lon="35.39867200">
        <ele>372.00000</ele>
        <time>2010-01-01T02:53:49Z</time>
      </trkpt>
      <trkpt lat="32.50825100" lon="35.39858800">
        <ele>371.00000</ele>
        <time>2010-01-01T02:53:55Z</time>
      </trkpt>
      <trkpt lat="32.50810800" lon="35.39839000">
        <ele>369.00000</ele>
        <time>2010-01-01T02:54:04Z</time>
      </trkpt>
      <trkpt lat="32.50794100" lon="35.39826800">
        <ele>367.00000</ele>
        <time>2010-01-01T02:54:12Z</time>
      </trkpt>
      <trkpt lat="32.50781100" lon="35.39810100">
        <ele>366.00000</ele>
        <time>2010-01-01T02:54:19Z</time>
      </trkpt>
      <trkpt lat="32.50776100" lon="35.39794900">
        <ele>366.00000</ele>
        <time>2010-01-01T02:54:25Z</time>
      </trkpt>
      <trkpt lat="32.50762300" lon="35.39784200">
        <ele>365.00000</ele>
        <time>2010-01-01T02:54:31Z</time>
      </trkpt>
      <trkpt lat="32.50750800" lon="35.39770700">
        <ele>364.00000</ele>
        <time>2010-01-01T02:54:38Z</time>
      </trkpt>
      <trkpt lat="32.50746100" lon="35.39754800">
        <ele>364.00000</ele>
        <time>2010-01-01T02:54:44Z</time>
      </trkpt>
      <trkpt lat="32.50747700" lon="35.39735800">
        <ele>364.00000</ele>
        <time>2010-01-01T02:54:50Z</time>
      </trkpt>
      <trkpt lat="32.50748700" lon="35.39725700">
        <ele>365.00000</ele>
        <time>2010-01-01T02:54:53Z</time>
      </trkpt>
      <trkpt lat="32.50751900" lon="35.39712100">
        <ele>365.00000</ele>
        <time>2010-01-01T02:54:58Z</time>
      </trkpt>
      <trkpt lat="32.50749100" lon="35.39694100">
        <ele>366.00000</ele>
        <time>2010-01-01T02:55:04Z</time>
      </trkpt>
      <trkpt lat="32.50736900" lon="35.39676600">
        <ele>366.00000</ele>
        <time>2010-01-01T02:55:12Z</time>
      </trkpt>
      <trkpt lat="32.50726900" lon="35.39653200">
        <ele>365.00000</ele>
        <time>2010-01-01T02:55:21Z</time>
      </trkpt>
      <trkpt lat="32.50728800" lon="35.39637100">
        <ele>364.00000</ele>
        <time>2010-01-01T02:55:26Z</time>
      </trkpt>
      <trkpt lat="32.50729200" lon="35.39621800">
        <ele>364.00000</ele>
        <time>2010-01-01T02:55:32Z</time>
      </trkpt>
      <trkpt lat="32.50726200" lon="35.39605700">
        <ele>363.00000</ele>
        <time>2010-01-01T02:55:37Z</time>
      </trkpt>
      <trkpt lat="32.50725300" lon="35.39605300">
        <ele>363.00000</ele>
        <time>2010-01-01T02:55:38Z</time>
      </trkpt>
      <trkpt lat="32.50726900" lon="35.39598500">
        <ele>363.00000</ele>
        <time>2010-01-01T02:55:40Z</time>
      </trkpt>
      <trkpt lat="32.50730600" lon="35.39581700">
        <ele>363.00000</ele>
        <time>2010-01-01T02:55:46Z</time>
      </trkpt>
      <trkpt lat="32.50724600" lon="35.39573000">
        <ele>362.00000</ele>
        <time>2010-01-01T02:55:50Z</time>
      </trkpt>
      <trkpt lat="32.50720200" lon="35.39574400">
        <ele>362.00000</ele>
        <time>2010-01-01T02:55:51Z</time>
      </trkpt>
      <trkpt lat="32.50706200" lon="35.39581400">
        <ele>361.00000</ele>
        <time>2010-01-01T02:55:57Z</time>
      </trkpt>
      <trkpt lat="32.50690000" lon="35.39577100">
        <ele>360.00000</ele>
        <time>2010-01-01T02:56:04Z</time>
      </trkpt>
      <trkpt lat="32.50686700" lon="35.39572900">
        <ele>360.00000</ele>
        <time>2010-01-01T02:56:06Z</time>
      </trkpt>
      <trkpt lat="32.50679800" lon="35.39564000">
        <ele>359.00000</ele>
        <time>2010-01-01T02:56:10Z</time>
      </trkpt>
      <trkpt lat="32.50674500" lon="35.39553300">
        <ele>358.00000</ele>
        <time>2010-01-01T02:56:14Z</time>
      </trkpt>
      <trkpt lat="32.50652500" lon="35.39537800">
        <ele>356.00000</ele>
        <time>2010-01-01T02:56:25Z</time>
      </trkpt>
      <trkpt lat="32.50639000" lon="35.39535700">
        <ele>354.00000</ele>
        <time>2010-01-01T02:56:30Z</time>
      </trkpt>
      <trkpt lat="32.50633200" lon="35.39529100">
        <ele>353.00000</ele>
        <time>2010-01-01T02:56:33Z</time>
      </trkpt>
      <trkpt lat="32.50626500" lon="35.39517800">
        <ele>353.00000</ele>
        <time>2010-01-01T02:56:38Z</time>
      </trkpt>
      <trkpt lat="32.50617900" lon="35.39495300">
        <ele>352.00000</ele>
        <time>2010-01-01T02:56:46Z</time>
      </trkpt>
      <trkpt lat="32.50609100" lon="35.39475200">
        <ele>351.00000</ele>
        <time>2010-01-01T02:56:54Z</time>
      </trkpt>
      <trkpt lat="32.50600500" lon="35.39458000">
        <ele>350.00000</ele>
        <time>2010-01-01T02:57:01Z</time>
      </trkpt>
      <trkpt lat="32.50596000" lon="35.39442900">
        <ele>350.00000</ele>
        <time>2010-01-01T02:57:06Z</time>
      </trkpt>
      <trkpt lat="32.50591800" lon="35.39428400">
        <ele>350.00000</ele>
        <time>2010-01-01T02:57:11Z</time>
      </trkpt>
      <trkpt lat="32.50587800" lon="35.39419700">
        <ele>349.00000</ele>
        <time>2010-01-01T02:57:15Z</time>
      </trkpt>
      <trkpt lat="32.50583400" lon="35.39402900">
        <ele>350.00000</ele>
        <time>2010-01-01T02:57:21Z</time>
      </trkpt>
      <trkpt lat="32.50586100" lon="35.39379800">
        <ele>352.00000</ele>
        <time>2010-01-01T02:57:28Z</time>
      </trkpt>
      <trkpt lat="32.50587200" lon="35.39377000">
        <ele>353.00000</ele>
        <time>2010-01-01T02:57:29Z</time>
      </trkpt>
      <trkpt lat="32.50587400" lon="35.39357100">
        <ele>354.00000</ele>
        <time>2010-01-01T02:57:36Z</time>
      </trkpt>
      <trkpt lat="32.50587900" lon="35.39345500">
        <ele>355.00000</ele>
        <time>2010-01-01T02:57:40Z</time>
      </trkpt>
      <trkpt lat="32.50587300" lon="35.39337800">
        <ele>356.00000</ele>
        <time>2010-01-01T02:57:43Z</time>
      </trkpt>
      <trkpt lat="32.50593100" lon="35.39330400">
        <ele>356.00000</ele>
        <time>2010-01-01T02:57:46Z</time>
      </trkpt>
      <trkpt lat="32.50596200" lon="35.39327600">
        <ele>357.00000</ele>
        <time>2010-01-01T02:57:48Z</time>
      </trkpt>
      <trkpt lat="32.50598500" lon="35.39324600">
        <ele>357.00000</ele>
        <time>2010-01-01T02:57:49Z</time>
      </trkpt>
      <trkpt lat="32.50599300" lon="35.39314600">
        <ele>357.00000</ele>
        <time>2010-01-01T02:57:52Z</time>
      </trkpt>
      <trkpt lat="32.50593900" lon="35.39295700">
        <ele>358.00000</ele>
        <time>2010-01-01T02:57:59Z</time>
      </trkpt>
      <trkpt lat="32.50598800" lon="35.39286700">
        <ele>358.00000</ele>
        <time>2010-01-01T02:58:03Z</time>
      </trkpt>
      <trkpt lat="32.50600400" lon="35.39286400">
        <ele>358.00000</ele>
        <time>2010-01-01T02:58:03Z</time>
      </trkpt>
      <trkpt lat="32.50614900" lon="35.39286600">
        <ele>359.00000</ele>
        <time>2010-01-01T02:58:09Z</time>
      </trkpt>
      <trkpt lat="32.50620900" lon="35.39284000">
        <ele>360.00000</ele>
        <time>2010-01-01T02:58:12Z</time>
      </trkpt>
      <trkpt lat="32.50623800" lon="35.39269600">
        <ele>360.00000</ele>
        <time>2010-01-01T02:58:17Z</time>
      </trkpt>
      <trkpt lat="32.50620400" lon="35.39253800">
        <ele>361.00000</ele>
        <time>2010-01-01T02:58:22Z</time>
      </trkpt>
      <trkpt lat="32.50620600" lon="35.39245700">
        <ele>361.00000</ele>
        <time>2010-01-01T02:58:25Z</time>
      </trkpt>
      <trkpt lat="32.50625800" lon="35.39239600">
        <ele>362.00000</ele>
        <time>2010-01-01T02:58:28Z</time>
      </trkpt>
      <trkpt lat="32.50636600" lon="35.39237100">
        <ele>363.00000</ele>
        <time>2010-01-01T02:58:32Z</time>
      </trkpt>
      <trkpt lat="32.50649000" lon="35.39237700">
        <ele>364.00000</ele>
        <time>2010-01-01T02:58:37Z</time>
      </trkpt>
      <trkpt lat="32.50666300" lon="35.39232300">
        <ele>366.00000</ele>
        <time>2010-01-01T02:58:44Z</time>
      </trkpt>
      <trkpt lat="32.50677400" lon="35.39224600">
        <ele>366.00000</ele>
        <time>2010-01-01T02:58:50Z</time>
      </trkpt>
      <trkpt lat="32.50690400" lon="35.39211200">
        <ele>365.00000</ele>
        <time>2010-01-01T02:58:57Z</time>
      </trkpt>
      <trkpt lat="32.50701600" lon="35.39203500">
        <ele>365.00000</ele>
        <time>2010-01-01T02:59:02Z</time>
      </trkpt>
      <trkpt lat="32.50714300" lon="35.39191500">
        <ele>365.00000</ele>
        <time>2010-01-01T02:59:08Z</time>
      </trkpt>
      <trkpt lat="32.50717900" lon="35.39187100">
        <ele>365.00000</ele>
        <time>2010-01-01T02:59:10Z</time>
      </trkpt>
      <trkpt lat="32.50719400" lon="35.39166300">
        <ele>366.00000</ele>
        <time>2010-01-01T02:59:17Z</time>
      </trkpt>
      <trkpt lat="32.50722000" lon="35.39160000">
        <ele>366.00000</ele>
        <time>2010-01-01T02:59:20Z</time>
      </trkpt>
      <trkpt lat="32.50728100" lon="35.39142300">
        <ele>366.00000</ele>
        <time>2010-01-01T02:59:26Z</time>
      </trkpt>
      <trkpt lat="32.50728100" lon="35.39138600">
        <ele>366.00000</ele>
        <time>2010-01-01T02:59:27Z</time>
      </trkpt>
      <trkpt lat="32.50733800" lon="35.39122600">
        <ele>365.00000</ele>
        <time>2010-01-01T02:59:33Z</time>
      </trkpt>
      <trkpt lat="32.50743900" lon="35.39102900">
        <ele>365.00000</ele>
        <time>2010-01-01T02:59:41Z</time>
      </trkpt>
      <trkpt lat="32.50747700" lon="35.39083900">
        <ele>365.00000</ele>
        <time>2010-01-01T02:59:48Z</time>
      </trkpt>
      <trkpt lat="32.50745500" lon="35.39070700">
        <ele>365.00000</ele>
        <time>2010-01-01T02:59:52Z</time>
      </trkpt>
      <trkpt lat="32.50743800" lon="35.39066700">
        <ele>366.00000</ele>
        <time>2010-01-01T02:59:54Z</time>
      </trkpt>
      <trkpt lat="32.50743700" lon="35.39066700">
        <ele>366.00000</ele>
        <time>2010-01-01T02:59:54Z</time>
      </trkpt>
      <trkpt lat="32.50743500" lon="35.39066800">
        <ele>366.00000</ele>
        <time>2010-01-01T02:59:54Z</time>
      </trkpt>
      <trkpt lat="32.50742600" lon="35.39066800">
        <ele>366.00000</ele>
        <time>2010-01-01T02:59:54Z</time>
      </trkpt>
      <trkpt lat="32.50743200" lon="35.39066400">
        <ele>366.00000</ele>
        <time>2010-01-01T02:59:54Z</time>
      </trkpt>
      <trkpt lat="32.50743400" lon="35.39066700">
        <ele>366.00000</ele>
        <time>2010-01-01T02:59:55Z</time>
      </trkpt>
      <trkpt lat="32.50743300" lon="35.39066800">
        <ele>366.00000</ele>
        <time>2010-01-01T02:59:55Z</time>
      </trkpt>
      <trkpt lat="32.50742400" lon="35.39067700">
        <ele>366.00000</ele>
        <time>2010-01-01T02:59:55Z</time>
      </trkpt>
      <trkpt lat="32.50741400" lon="35.39064000">
        <ele>366.00000</ele>
        <time>2010-01-01T02:59:56Z</time>
      </trkpt>
      <trkpt lat="32.50741900" lon="35.39061500">
        <ele>366.00000</ele>
        <time>2010-01-01T02:59:57Z</time>
      </trkpt>
      <trkpt lat="32.50745300" lon="35.39050000">
        <ele>366.00000</ele>
        <time>2010-01-01T03:00:01Z</time>
      </trkpt>
      <trkpt lat="32.50745400" lon="35.39046200">
        <ele>366.00000</ele>
        <time>2010-01-01T03:00:03Z</time>
      </trkpt>
      <trkpt lat="32.50743500" lon="35.39021600">
        <ele>366.00000</ele>
        <time>2010-01-01T03:00:11Z</time>
      </trkpt>
      <trkpt lat="32.50744500" lon="35.39017000">
        <ele>366.00000</ele>
        <time>2010-01-01T03:00:13Z</time>
      </trkpt>
      <trkpt lat="32.50748100" lon="35.39006000">
        <ele>366.00000</ele>
        <time>2010-01-01T03:00:17Z</time>
      </trkpt>
      <trkpt lat="32.50756200" lon="35.38981300">
        <ele>363.00000</ele>
        <time>2010-01-01T03:00:26Z</time>
      </trkpt>
      <trkpt lat="32.50760500" lon="35.38970100">
        <ele>361.00000</ele>
        <time>2010-01-01T03:00:30Z</time>
      </trkpt>
      <trkpt lat="32.50763400" lon="35.38957800">
        <ele>359.00000</ele>
        <time>2010-01-01T03:00:34Z</time>
      </trkpt>
      <trkpt lat="32.50770700" lon="35.38938400">
        <ele>356.00000</ele>
        <time>2010-01-01T03:00:41Z</time>
      </trkpt>
      <trkpt lat="32.50778500" lon="35.38910900">
        <ele>351.00000</ele>
        <time>2010-01-01T03:00:51Z</time>
      </trkpt>
      <trkpt lat="32.50782000" lon="35.38891500">
        <ele>348.00000</ele>
        <time>2010-01-01T03:00:58Z</time>
      </trkpt>
      <trkpt lat="32.50778000" lon="35.38866000">
        <ele>348.00000</ele>
        <time>2010-01-01T03:01:06Z</time>
      </trkpt>
      <trkpt lat="32.50776500" lon="35.38861900">
        <ele>348.00000</ele>
        <time>2010-01-01T03:01:08Z</time>
      </trkpt>
      <trkpt lat="32.50773200" lon="35.38850700">
        <ele>348.00000</ele>
        <time>2010-01-01T03:01:12Z</time>
      </trkpt>
      <trkpt lat="32.50769400" lon="35.38843000">
        <ele>349.00000</ele>
        <time>2010-01-01T03:01:15Z</time>
      </trkpt>
      <trkpt lat="32.50762100" lon="35.38824300">
        <ele>349.00000</ele>
        <time>2010-01-01T03:01:22Z</time>
      </trkpt>
      <trkpt lat="32.50757400" lon="35.38813700">
        <ele>349.00000</ele>
        <time>2010-01-01T03:01:26Z</time>
      </trkpt>
      <trkpt lat="32.50741600" lon="35.38792100">
        <ele>349.00000</ele>
        <time>2010-01-01T03:01:36Z</time>
      </trkpt>
      <trkpt lat="32.50735500" lon="35.38785300">
        <ele>350.00000</ele>
        <time>2010-01-01T03:01:39Z</time>
      </trkpt>
      <trkpt lat="32.50721300" lon="35.38757700">
        <ele>349.00000</ele>
        <time>2010-01-01T03:01:50Z</time>
      </trkpt>
      <trkpt lat="32.50715200" lon="35.38717100">
        <ele>348.00000</ele>
        <time>2010-01-01T03:02:04Z</time>
      </trkpt>
      <trkpt lat="32.50715300" lon="35.38703800">
        <ele>347.00000</ele>
        <time>2010-01-01T03:02:08Z</time>
      </trkpt>
      <trkpt lat="32.50714300" lon="35.38691000">
        <ele>347.00000</ele>
        <time>2010-01-01T03:02:13Z</time>
      </trkpt>
      <trkpt lat="32.50718700" lon="35.38652500">
        <ele>346.00000</ele>
        <time>2010-01-01T03:02:26Z</time>
      </trkpt>
      <trkpt lat="32.50719500" lon="35.38643800">
        <ele>347.00000</ele>
        <time>2010-01-01T03:02:29Z</time>
      </trkpt>
      <trkpt lat="32.50727000" lon="35.38626200">
        <ele>346.00000</ele>
        <time>2010-01-01T03:02:35Z</time>
      </trkpt>
      <trkpt lat="32.50733600" lon="35.38607600">
        <ele>346.00000</ele>
        <time>2010-01-01T03:02:42Z</time>
      </trkpt>
      <trkpt lat="32.50740600" lon="35.38594500">
        <ele>346.00000</ele>
        <time>2010-01-01T03:02:47Z</time>
      </trkpt>
      <trkpt lat="32.50756200" lon="35.38558300">
        <ele>345.00000</ele>
        <time>2010-01-01T03:03:01Z</time>
      </trkpt>
      <trkpt lat="32.50764500" lon="35.38535300">
        <ele>344.00000</ele>
        <time>2010-01-01T03:03:10Z</time>
      </trkpt>
      <trkpt lat="32.50776400" lon="35.38511400">
        <ele>342.00000</ele>
        <time>2010-01-01T03:03:19Z</time>
      </trkpt>
      <trkpt lat="32.50791200" lon="35.38482100">
        <ele>339.00000</ele>
        <time>2010-01-01T03:03:30Z</time>
      </trkpt>
      <trkpt lat="32.50798200" lon="35.38461800">
        <ele>338.00000</ele>
        <time>2010-01-01T03:03:38Z</time>
      </trkpt>
      <trkpt lat="32.50809500" lon="35.38439700">
        <ele>336.00000</ele>
        <time>2010-01-01T03:03:47Z</time>
      </trkpt>
      <trkpt lat="32.50815900" lon="35.38421600">
        <ele>336.00000</ele>
        <time>2010-01-01T03:03:53Z</time>
      </trkpt>
      <trkpt lat="32.50820500" lon="35.38401900">
        <ele>335.00000</ele>
        <time>2010-01-01T03:04:00Z</time>
      </trkpt>
      <trkpt lat="32.50825200" lon="35.38381500">
        <ele>334.00000</ele>
        <time>2010-01-01T03:04:07Z</time>
      </trkpt>
      <trkpt lat="32.50827700" lon="35.38365700">
        <ele>334.00000</ele>
        <time>2010-01-01T03:04:13Z</time>
      </trkpt>
      <trkpt lat="32.50828400" lon="35.38353600">
        <ele>334.00000</ele>
        <time>2010-01-01T03:04:17Z</time>
      </trkpt>
      <trkpt lat="32.50829600" lon="35.38350000">
        <ele>334.00000</ele>
        <time>2010-01-01T03:04:18Z</time>
      </trkpt>
      <trkpt lat="32.50834200" lon="35.38330800">
        <ele>333.00000</ele>
        <time>2010-01-01T03:04:25Z</time>
      </trkpt>
      <trkpt lat="32.50836300" lon="35.38315200">
        <ele>330.00000</ele>
        <time>2010-01-01T03:04:30Z</time>
      </trkpt>
      <trkpt lat="32.50838400" lon="35.38283600">
        <ele>325.00000</ele>
        <time>2010-01-01T03:04:41Z</time>
      </trkpt>
      <trkpt lat="32.50831500" lon="35.38259500">
        <ele>324.00000</ele>
        <time>2010-01-01T03:04:49Z</time>
      </trkpt>
      <trkpt lat="32.50821600" lon="35.38231500">
        <ele>322.00000</ele>
        <time>2010-01-01T03:05:00Z</time>
      </trkpt>
      <trkpt lat="32.50812900" lon="35.38219600">
        <ele>322.00000</ele>
        <time>2010-01-01T03:05:05Z</time>
      </trkpt>
      <trkpt lat="32.50806900" lon="35.38199800">
        <ele>321.00000</ele>
        <time>2010-01-01T03:05:12Z</time>
      </trkpt>
      <trkpt lat="32.50796400" lon="35.38173000">
        <ele>319.00000</ele>
        <time>2010-01-01T03:05:22Z</time>
      </trkpt>
      <trkpt lat="32.50788900" lon="35.38161000">
        <ele>319.00000</ele>
        <time>2010-01-01T03:05:27Z</time>
      </trkpt>
      <trkpt lat="32.50778100" lon="35.38144000">
        <ele>319.00000</ele>
        <time>2010-01-01T03:05:34Z</time>
      </trkpt>
      <trkpt lat="32.50767000" lon="35.38123700">
        <ele>318.00000</ele>
        <time>2010-01-01T03:05:42Z</time>
      </trkpt>
      <trkpt lat="32.50756400" lon="35.38108100">
        <ele>318.00000</ele>
        <time>2010-01-01T03:05:49Z</time>
      </trkpt>
      <trkpt lat="32.50751600" lon="35.38090300">
        <ele>317.00000</ele>
        <time>2010-01-01T03:05:56Z</time>
      </trkpt>
      <trkpt lat="32.50746300" lon="35.38073900">
        <ele>316.00000</ele>
        <time>2010-01-01T03:06:01Z</time>
      </trkpt>
      <trkpt lat="32.50736100" lon="35.38053000">
        <ele>317.00000</ele>
        <time>2010-01-01T03:06:10Z</time>
      </trkpt>
      <trkpt lat="32.50732500" lon="35.38028500">
        <ele>318.00000</ele>
        <time>2010-01-01T03:06:18Z</time>
      </trkpt>
      <trkpt lat="32.50734200" lon="35.38017200">
        <ele>317.00000</ele>
        <time>2010-01-01T03:06:22Z</time>
      </trkpt>
      <trkpt lat="32.50739300" lon="35.38005000">
        <ele>317.00000</ele>
        <time>2010-01-01T03:06:27Z</time>
      </trkpt>
      <trkpt lat="32.50738700" lon="35.38004300">
        <ele>317.00000</ele>
        <time>2010-01-01T03:06:27Z</time>
      </trkpt>
      <trkpt lat="32.50738600" lon="35.38004100">
        <ele>317.00000</ele>
        <time>2010-01-01T03:06:27Z</time>
      </trkpt>
      <trkpt lat="32.50740600" lon="35.37998800">
        <ele>317.00000</ele>
        <time>2010-01-01T03:06:29Z</time>
      </trkpt>
      <trkpt lat="32.50745100" lon="35.37978900">
        <ele>318.00000</ele>
        <time>2010-01-01T03:06:36Z</time>
      </trkpt>
      <trkpt lat="32.50742700" lon="35.37957800">
        <ele>319.00000</ele>
        <time>2010-01-01T03:06:43Z</time>
      </trkpt>
      <trkpt lat="32.50734900" lon="35.37942300">
        <ele>320.00000</ele>
        <time>2010-01-01T03:06:49Z</time>
      </trkpt>
      <trkpt lat="32.50733200" lon="35.37939700">
        <ele>320.00000</ele>
        <time>2010-01-01T03:06:50Z</time>
      </trkpt>
      <trkpt lat="32.50738000" lon="35.37925700">
        <ele>321.00000</ele>
        <time>2010-01-01T03:06:55Z</time>
      </trkpt>
      <trkpt lat="32.50740100" lon="35.37923600">
        <ele>321.00000</ele>
        <time>2010-01-01T03:06:56Z</time>
      </trkpt>
      <trkpt lat="32.50755900" lon="35.37921200">
        <ele>321.00000</ele>
        <time>2010-01-01T03:07:03Z</time>
      </trkpt>
      <trkpt lat="32.50768000" lon="35.37913300">
        <ele>321.00000</ele>
        <time>2010-01-01T03:07:08Z</time>
      </trkpt>
      <trkpt lat="32.50777400" lon="35.37898700">
        <ele>321.00000</ele>
        <time>2010-01-01T03:07:15Z</time>
      </trkpt>
      <trkpt lat="32.50790200" lon="35.37891400">
        <ele>320.00000</ele>
        <time>2010-01-01T03:07:20Z</time>
      </trkpt>
      <trkpt lat="32.50806000" lon="35.37882000">
        <ele>320.00000</ele>
        <time>2010-01-01T03:07:27Z</time>
      </trkpt>
      <trkpt lat="32.50809500" lon="35.37868200">
        <ele>321.00000</ele>
        <time>2010-01-01T03:07:32Z</time>
      </trkpt>
      <trkpt lat="32.50808200" lon="35.37843900">
        <ele>322.00000</ele>
        <time>2010-01-01T03:07:40Z</time>
      </trkpt>
      <trkpt lat="32.50806100" lon="35.37834500">
        <ele>323.00000</ele>
        <time>2010-01-01T03:07:44Z</time>
      </trkpt>
      <trkpt lat="32.50797000" lon="35.37823400">
        <ele>323.00000</ele>
        <time>2010-01-01T03:07:49Z</time>
      </trkpt>
      <trkpt lat="32.50802500" lon="35.37810000">
        <ele>323.00000</ele>
        <time>2010-01-01T03:07:54Z</time>
      </trkpt>
      <trkpt lat="32.50806600" lon="35.37799200">
        <ele>323.00000</ele>
        <time>2010-01-01T03:07:58Z</time>
      </trkpt>
      <trkpt lat="32.50802700" lon="35.37775600">
        <ele>323.00000</ele>
        <time>2010-01-01T03:08:06Z</time>
      </trkpt>
      <trkpt lat="32.50801200" lon="35.37764400">
        <ele>323.00000</ele>
        <time>2010-01-01T03:08:10Z</time>
      </trkpt>
      <trkpt lat="32.50810900" lon="35.37748400">
        <ele>324.00000</ele>
        <time>2010-01-01T03:08:17Z</time>
      </trkpt>
      <trkpt lat="32.50815600" lon="35.37749100">
        <ele>324.00000</ele>
        <time>2010-01-01T03:08:18Z</time>
      </trkpt>
      <trkpt lat="32.50826900" lon="35.37740200">
        <ele>325.00000</ele>
        <time>2010-01-01T03:08:24Z</time>
      </trkpt>
      <trkpt lat="32.50831100" lon="35.37719100">
        <ele>326.00000</ele>
        <time>2010-01-01T03:08:31Z</time>
      </trkpt>
      <trkpt lat="32.50822300" lon="35.37700500">
        <ele>325.00000</ele>
        <time>2010-01-01T03:08:38Z</time>
      </trkpt>
      <trkpt lat="32.50816200" lon="35.37680700">
        <ele>324.00000</ele>
        <time>2010-01-01T03:08:45Z</time>
      </trkpt>
      <trkpt lat="32.50813700" lon="35.37668300">
        <ele>323.00000</ele>
        <time>2010-01-01T03:08:50Z</time>
      </trkpt>
      <trkpt lat="32.50806800" lon="35.37638900">
        <ele>323.00000</ele>
        <time>2010-01-01T03:09:00Z</time>
      </trkpt>
      <trkpt lat="32.50809400" lon="35.37618600">
        <ele>323.00000</ele>
        <time>2010-01-01T03:09:07Z</time>
      </trkpt>
      <trkpt lat="32.50812900" lon="35.37597000">
        <ele>324.00000</ele>
        <time>2010-01-01T03:09:14Z</time>
      </trkpt>
      <trkpt lat="32.50813000" lon="35.37575200">
        <ele>324.00000</ele>
        <time>2010-01-01T03:09:22Z</time>
      </trkpt>
      <trkpt lat="32.50816100" lon="35.37568600">
        <ele>324.00000</ele>
        <time>2010-01-01T03:09:24Z</time>
      </trkpt>
      <trkpt lat="32.50814900" lon="35.37552000">
        <ele>324.00000</ele>
        <time>2010-01-01T03:09:30Z</time>
      </trkpt>
      <trkpt lat="32.50815100" lon="35.37548700">
        <ele>324.00000</ele>
        <time>2010-01-01T03:09:31Z</time>
      </trkpt>
      <trkpt lat="32.50812500" lon="35.37528900">
        <ele>324.00000</ele>
        <time>2010-01-01T03:09:38Z</time>
      </trkpt>
      <trkpt lat="32.50808600" lon="35.37514200">
        <ele>324.00000</ele>
        <time>2010-01-01T03:09:43Z</time>
      </trkpt>
      <trkpt lat="32.50810300" lon="35.37491700">
        <ele>324.00000</ele>
        <time>2010-01-01T03:09:51Z</time>
      </trkpt>
      <trkpt lat="32.50812900" lon="35.37473800">
        <ele>322.00000</ele>
        <time>2010-01-01T03:09:57Z</time>
      </trkpt>
      <trkpt lat="32.50824300" lon="35.37472300">
        <ele>322.00000</ele>
        <time>2010-01-01T03:10:01Z</time>
      </trkpt>
      <trkpt lat="32.50833600" lon="35.37477500">
        <ele>323.00000</ele>
        <time>2010-01-01T03:10:06Z</time>
      </trkpt>
      <trkpt lat="32.50842900" lon="35.37491200">
        <ele>323.00000</ele>
        <time>2010-01-01T03:10:11Z</time>
      </trkpt>
      <trkpt lat="32.50847200" lon="35.37501500">
        <ele>323.00000</ele>
        <time>2010-01-01T03:10:15Z</time>
      </trkpt>
      <trkpt lat="32.50854700" lon="35.37511800">
        <ele>322.00000</ele>
        <time>2010-01-01T03:10:20Z</time>
      </trkpt>
      <trkpt lat="32.50870300" lon="35.37536400">
        <ele>321.00000</ele>
        <time>2010-01-01T03:10:30Z</time>
      </trkpt>
      <trkpt lat="32.50878800" lon="35.37546600">
        <ele>320.00000</ele>
        <time>2010-01-01T03:10:35Z</time>
      </trkpt>
      <trkpt lat="32.50884500" lon="35.37558900">
        <ele>320.00000</ele>
        <time>2010-01-01T03:10:40Z</time>
      </trkpt>
      <trkpt lat="32.50884700" lon="35.37562000">
        <ele>320.00000</ele>
        <time>2010-01-01T03:10:41Z</time>
      </trkpt>
      <trkpt lat="32.50879400" lon="35.37562800">
        <ele>321.00000</ele>
        <time>2010-01-01T03:10:43Z</time>
      </trkpt>
      <trkpt lat="32.50873100" lon="35.37559000">
        <ele>321.00000</ele>
        <time>2010-01-01T03:10:46Z</time>
      </trkpt>
      <trkpt lat="32.50869200" lon="35.37552800">
        <ele>322.00000</ele>
        <time>2010-01-01T03:10:49Z</time>
      </trkpt>
      <trkpt lat="32.50861900" lon="35.37552300">
        <ele>323.00000</ele>
        <time>2010-01-01T03:10:51Z</time>
      </trkpt>
      <trkpt lat="32.50858500" lon="35.37555900">
        <ele>323.00000</ele>
        <time>2010-01-01T03:10:53Z</time>
      </trkpt>
      <trkpt lat="32.50848000" lon="35.37573300">
        <ele>324.00000</ele>
        <time>2010-01-01T03:11:01Z</time>
      </trkpt>
      <trkpt lat="32.50849100" lon="35.37582300">
        <ele>324.00000</ele>
        <time>2010-01-01T03:11:04Z</time>
      </trkpt>
      <trkpt lat="32.50853500" lon="35.37582000">
        <ele>324.00000</ele>
        <time>2010-01-01T03:11:05Z</time>
      </trkpt>
      <trkpt lat="32.50874600" lon="35.37578400">
        <ele>322.00000</ele>
        <time>2010-01-01T03:11:14Z</time>
      </trkpt>
      <trkpt lat="32.50883400" lon="35.37585100">
        <ele>321.00000</ele>
        <time>2010-01-01T03:11:18Z</time>
      </trkpt>
      <trkpt lat="32.50885400" lon="35.37597200">
        <ele>321.00000</ele>
        <time>2010-01-01T03:11:22Z</time>
      </trkpt>
      <trkpt lat="32.50885300" lon="35.37605300">
        <ele>321.00000</ele>
        <time>2010-01-01T03:11:25Z</time>
      </trkpt>
      <trkpt lat="32.50884500" lon="35.37608900">
        <ele>321.00000</ele>
        <time>2010-01-01T03:11:26Z</time>
      </trkpt>
      <trkpt lat="32.50877800" lon="35.37637600">
        <ele>322.00000</ele>
        <time>2010-01-01T03:11:36Z</time>
      </trkpt>
      <trkpt lat="32.50871400" lon="35.37656800">
        <ele>322.00000</ele>
        <time>2010-01-01T03:11:43Z</time>
      </trkpt>
      <trkpt lat="32.50867300" lon="35.37668800">
        <ele>323.00000</ele>
        <time>2010-01-01T03:11:48Z</time>
      </trkpt>
      <trkpt lat="32.50864600" lon="35.37682700">
        <ele>323.00000</ele>
        <time>2010-01-01T03:11:52Z</time>
      </trkpt>
      <trkpt lat="32.50875100" lon="35.37692100">
        <ele>322.00000</ele>
        <time>2010-01-01T03:11:58Z</time>
      </trkpt>
      <trkpt lat="32.50880800" lon="35.37703900">
        <ele>321.00000</ele>
        <time>2010-01-01T03:12:02Z</time>
      </trkpt>
      <trkpt lat="32.50876500" lon="35.37719900">
        <ele>321.00000</ele>
        <time>2010-01-01T03:12:08Z</time>
      </trkpt>
      <trkpt lat="32.50868600" lon="35.37744400">
        <ele>321.00000</ele>
        <time>2010-01-01T03:12:17Z</time>
      </trkpt>
      <trkpt lat="32.50867800" lon="35.37746800">
        <ele>321.00000</ele>
        <time>2010-01-01T03:12:18Z</time>
      </trkpt>
      <trkpt lat="32.50867400" lon="35.37760700">
        <ele>321.00000</ele>
        <time>2010-01-01T03:12:22Z</time>
      </trkpt>
      <trkpt lat="32.50861500" lon="35.37779600">
        <ele>322.00000</ele>
        <time>2010-01-01T03:12:29Z</time>
      </trkpt>
      <trkpt lat="32.50855100" lon="35.37801000">
        <ele>322.00000</ele>
        <time>2010-01-01T03:12:37Z</time>
      </trkpt>
      <trkpt lat="32.50856900" lon="35.37831900">
        <ele>321.00000</ele>
        <time>2010-01-01T03:12:47Z</time>
      </trkpt>
      <trkpt lat="32.50859400" lon="35.37848500">
        <ele>320.00000</ele>
        <time>2010-01-01T03:12:53Z</time>
      </trkpt>
      <trkpt lat="32.50866800" lon="35.37860300">
        <ele>318.00000</ele>
        <time>2010-01-01T03:12:58Z</time>
      </trkpt>
      <trkpt lat="32.50876200" lon="35.37855900">
        <ele>318.00000</ele>
        <time>2010-01-01T03:13:02Z</time>
      </trkpt>
      <trkpt lat="32.50878000" lon="35.37850000">
        <ele>318.00000</ele>
        <time>2010-01-01T03:13:04Z</time>
      </trkpt>
      <trkpt lat="32.50887100" lon="35.37843700">
        <ele>317.00000</ele>
        <time>2010-01-01T03:13:08Z</time>
      </trkpt>
      <trkpt lat="32.50890500" lon="35.37854800">
        <ele>317.00000</ele>
        <time>2010-01-01T03:13:12Z</time>
      </trkpt>
      <trkpt lat="32.50888900" lon="35.37861800">
        <ele>316.00000</ele>
        <time>2010-01-01T03:13:15Z</time>
      </trkpt>
      <trkpt lat="32.50886200" lon="35.37881500">
        <ele>316.00000</ele>
        <time>2010-01-01T03:13:22Z</time>
      </trkpt>
      <trkpt lat="32.50894400" lon="35.37898200">
        <ele>314.00000</ele>
        <time>2010-01-01T03:13:28Z</time>
      </trkpt>
      <trkpt lat="32.50891600" lon="35.37903300">
        <ele>314.00000</ele>
        <time>2010-01-01T03:13:30Z</time>
      </trkpt>
      <trkpt lat="32.50878600" lon="35.37912200">
        <ele>315.00000</ele>
        <time>2010-01-01T03:13:36Z</time>
      </trkpt>
      <trkpt lat="32.50865900" lon="35.37913000">
        <ele>315.00000</ele>
        <time>2010-01-01T03:13:41Z</time>
      </trkpt>
      <trkpt lat="32.50850100" lon="35.37916100">
        <ele>316.00000</ele>
        <time>2010-01-01T03:13:48Z</time>
      </trkpt>
      <trkpt lat="32.50835800" lon="35.37927100">
        <ele>316.00000</ele>
        <time>2010-01-01T03:13:54Z</time>
      </trkpt>
      <trkpt lat="32.50816100" lon="35.37936400">
        <ele>316.00000</ele>
        <time>2010-01-01T03:14:03Z</time>
      </trkpt>
      <trkpt lat="32.50797100" lon="35.37953100">
        <ele>316.00000</ele>
        <time>2010-01-01T03:14:12Z</time>
      </trkpt>
      <trkpt lat="32.50787200" lon="35.37964700">
        <ele>316.00000</ele>
        <time>2010-01-01T03:14:18Z</time>
      </trkpt>
      <trkpt lat="32.50767500" lon="35.37975200">
        <ele>316.00000</ele>
        <time>2010-01-01T03:14:27Z</time>
      </trkpt>
      <trkpt lat="32.50748800" lon="35.37992100">
        <ele>317.00000</ele>
        <time>2010-01-01T03:14:36Z</time>
      </trkpt>
      <trkpt lat="32.50738700" lon="35.38014700">
        <ele>317.00000</ele>
        <time>2010-01-01T03:14:45Z</time>
      </trkpt>
      <trkpt lat="32.50739600" lon="35.38035500">
        <ele>317.00000</ele>
        <time>2010-01-01T03:14:52Z</time>
      </trkpt>
      <trkpt lat="32.50747000" lon="35.38051500">
        <ele>316.00000</ele>
        <time>2010-01-01T03:14:58Z</time>
      </trkpt>
      <trkpt lat="32.50756800" lon="35.38067400">
        <ele>315.00000</ele>
        <time>2010-01-01T03:15:04Z</time>
      </trkpt>
      <trkpt lat="32.50773800" lon="35.38081900">
        <ele>312.00000</ele>
        <time>2010-01-01T03:15:13Z</time>
      </trkpt>
      <trkpt lat="32.50783500" lon="35.38096300">
        <ele>312.00000</ele>
        <time>2010-01-01T03:15:19Z</time>
      </trkpt>
      <trkpt lat="32.50788600" lon="35.38114600">
        <ele>313.00000</ele>
        <time>2010-01-01T03:15:26Z</time>
      </trkpt>
      <trkpt lat="32.50798700" lon="35.38132500">
        <ele>313.00000</ele>
        <time>2010-01-01T03:15:33Z</time>
      </trkpt>
      <trkpt lat="32.50808600" lon="35.38148600">
        <ele>313.00000</ele>
        <time>2010-01-01T03:15:40Z</time>
      </trkpt>
      <trkpt lat="32.50812600" lon="35.38165100">
        <ele>315.00000</ele>
        <time>2010-01-01T03:15:45Z</time>
      </trkpt>
      <trkpt lat="32.50814900" lon="35.38186400">
        <ele>317.00000</ele>
        <time>2010-01-01T03:15:53Z</time>
      </trkpt>
      <trkpt lat="32.50821200" lon="35.38197300">
        <ele>318.00000</ele>
        <time>2010-01-01T03:15:57Z</time>
      </trkpt>
      <trkpt lat="32.50829000" lon="35.38211500">
        <ele>318.00000</ele>
        <time>2010-01-01T03:16:03Z</time>
      </trkpt>
      <trkpt lat="32.50840100" lon="35.38228200">
        <ele>317.00000</ele>
        <time>2010-01-01T03:16:10Z</time>
      </trkpt>
      <trkpt lat="32.50849000" lon="35.38237000">
        <ele>316.00000</ele>
        <time>2010-01-01T03:16:15Z</time>
      </trkpt>
      <trkpt lat="32.50850800" lon="35.38245400">
        <ele>317.00000</ele>
        <time>2010-01-01T03:16:18Z</time>
      </trkpt>
      <trkpt lat="32.50860900" lon="35.38249500">
        <ele>315.00000</ele>
        <time>2010-01-01T03:16:22Z</time>
      </trkpt>
      <trkpt lat="32.50861500" lon="35.38241000">
        <ele>314.00000</ele>
        <time>2010-01-01T03:16:25Z</time>
      </trkpt>
      <trkpt lat="32.50853000" lon="35.38208100">
        <ele>312.00000</ele>
        <time>2010-01-01T03:16:36Z</time>
      </trkpt>
      <trkpt lat="32.50849000" lon="35.38179400">
        <ele>309.00000</ele>
        <time>2010-01-01T03:16:46Z</time>
      </trkpt>
      <trkpt lat="32.50844400" lon="35.38147200">
        <ele>306.00000</ele>
        <time>2010-01-01T03:16:57Z</time>
      </trkpt>
      <trkpt lat="32.50843100" lon="35.38140400">
        <ele>306.00000</ele>
        <time>2010-01-01T03:17:00Z</time>
      </trkpt>
      <trkpt lat="32.50842400" lon="35.38105500">
        <ele>302.00000</ele>
        <time>2010-01-01T03:17:11Z</time>
      </trkpt>
      <trkpt lat="32.50837400" lon="35.38089800">
        <ele>301.00000</ele>
        <time>2010-01-01T03:17:17Z</time>
      </trkpt>
      <trkpt lat="32.50828500" lon="35.38080500">
        <ele>302.00000</ele>
        <time>2010-01-01T03:17:22Z</time>
      </trkpt>
      <trkpt lat="32.50830600" lon="35.38071800">
        <ele>303.00000</ele>
        <time>2010-01-01T03:17:25Z</time>
      </trkpt>
      <trkpt lat="32.50841700" lon="35.38075200">
        <ele>301.00000</ele>
        <time>2010-01-01T03:17:29Z</time>
      </trkpt>
      <trkpt lat="32.50863800" lon="35.38089000">
        <ele>297.00000</ele>
        <time>2010-01-01T03:17:39Z</time>
      </trkpt>
      <trkpt lat="32.50880900" lon="35.38106600">
        <ele>296.00000</ele>
        <time>2010-01-01T03:17:48Z</time>
      </trkpt>
      <trkpt lat="32.50889400" lon="35.38121000">
        <ele>296.00000</ele>
        <time>2010-01-01T03:17:54Z</time>
      </trkpt>
      <trkpt lat="32.50906400" lon="35.38154800">
        <ele>295.00000</ele>
        <time>2010-01-01T03:18:08Z</time>
      </trkpt>
      <trkpt lat="32.50908600" lon="35.38158100">
        <ele>294.00000</ele>
        <time>2010-01-01T03:18:09Z</time>
      </trkpt>
      <trkpt lat="32.50918200" lon="35.38155700">
        <ele>292.00000</ele>
        <time>2010-01-01T03:18:13Z</time>
      </trkpt>
      <trkpt lat="32.50918500" lon="35.38151400">
        <ele>292.00000</ele>
        <time>2010-01-01T03:18:14Z</time>
      </trkpt>
      <trkpt lat="32.50911800" lon="35.38126200">
        <ele>292.00000</ele>
        <time>2010-01-01T03:18:23Z</time>
      </trkpt>
      <trkpt lat="32.50909400" lon="35.38121100">
        <ele>292.00000</ele>
        <time>2010-01-01T03:18:25Z</time>
      </trkpt>
      <trkpt lat="32.50906500" lon="35.38110100">
        <ele>292.00000</ele>
        <time>2010-01-01T03:18:29Z</time>
      </trkpt>
      <trkpt lat="32.50910400" lon="35.38087300">
        <ele>290.00000</ele>
        <time>2010-01-01T03:18:37Z</time>
      </trkpt>
      <trkpt lat="32.50923700" lon="35.38079400">
        <ele>289.00000</ele>
        <time>2010-01-01T03:18:43Z</time>
      </trkpt>
      <trkpt lat="32.50937900" lon="35.38078500">
        <ele>288.00000</ele>
        <time>2010-01-01T03:18:49Z</time>
      </trkpt>
      <trkpt lat="32.50949700" lon="35.38080100">
        <ele>287.00000</ele>
        <time>2010-01-01T03:18:53Z</time>
      </trkpt>
      <trkpt lat="32.50961500" lon="35.38076900">
        <ele>286.00000</ele>
        <time>2010-01-01T03:18:58Z</time>
      </trkpt>
      <trkpt lat="32.50974500" lon="35.38073600">
        <ele>286.00000</ele>
        <time>2010-01-01T03:19:04Z</time>
      </trkpt>
      <trkpt lat="32.50981200" lon="35.38072300">
        <ele>286.00000</ele>
        <time>2010-01-01T03:19:06Z</time>
      </trkpt>
      <trkpt lat="32.50992000" lon="35.38066200">
        <ele>285.00000</ele>
        <time>2010-01-01T03:19:11Z</time>
      </trkpt>
      <trkpt lat="32.51002700" lon="35.38056300">
        <ele>285.00000</ele>
        <time>2010-01-01T03:19:17Z</time>
      </trkpt>
      <trkpt lat="32.51014400" lon="35.38041000">
        <ele>285.00000</ele>
        <time>2010-01-01T03:19:24Z</time>
      </trkpt>
      <trkpt lat="32.51023300" lon="35.38032400">
        <ele>284.00000</ele>
        <time>2010-01-01T03:19:28Z</time>
      </trkpt>
      <trkpt lat="32.51034400" lon="35.38026300">
        <ele>283.00000</ele>
        <time>2010-01-01T03:19:33Z</time>
      </trkpt>
      <trkpt lat="32.51053100" lon="35.38003800">
        <ele>281.00000</ele>
        <time>2010-01-01T03:19:44Z</time>
      </trkpt>
      <trkpt lat="32.51066900" lon="35.37989400">
        <ele>279.00000</ele>
        <time>2010-01-01T03:19:51Z</time>
      </trkpt>
      <trkpt lat="32.51074100" lon="35.37971800">
        <ele>279.00000</ele>
        <time>2010-01-01T03:19:58Z</time>
      </trkpt>
      <trkpt lat="32.51083200" lon="35.37957100">
        <ele>278.00000</ele>
        <time>2010-01-01T03:20:04Z</time>
      </trkpt>
      <trkpt lat="32.51090300" lon="35.37938300">
        <ele>278.00000</ele>
        <time>2010-01-01T03:20:11Z</time>
      </trkpt>
      <trkpt lat="32.51102100" lon="35.37911300">
        <ele>277.00000</ele>
        <time>2010-01-01T03:20:21Z</time>
      </trkpt>
      <trkpt lat="32.51108100" lon="35.37894800">
        <ele>276.00000</ele>
        <time>2010-01-01T03:20:27Z</time>
      </trkpt>
      <trkpt lat="32.51110700" lon="35.37881500">
        <ele>275.00000</ele>
        <time>2010-01-01T03:20:32Z</time>
      </trkpt>
      <trkpt lat="32.51115100" lon="35.37861400">
        <ele>273.00000</ele>
        <time>2010-01-01T03:20:39Z</time>
      </trkpt>
      <trkpt lat="32.51117200" lon="35.37839900">
        <ele>272.00000</ele>
        <time>2010-01-01T03:20:46Z</time>
      </trkpt>
      <trkpt lat="32.51118900" lon="35.37816500">
        <ele>271.00000</ele>
        <time>2010-01-01T03:20:54Z</time>
      </trkpt>
      <trkpt lat="32.51116000" lon="35.37799000">
        <ele>271.00000</ele>
        <time>2010-01-01T03:21:00Z</time>
      </trkpt>
      <trkpt lat="32.51114400" lon="35.37784600">
        <ele>270.00000</ele>
        <time>2010-01-01T03:21:05Z</time>
      </trkpt>
      <trkpt lat="32.51109600" lon="35.37768700">
        <ele>270.00000</ele>
        <time>2010-01-01T03:21:11Z</time>
      </trkpt>
      <trkpt lat="32.51102000" lon="35.37759800">
        <ele>271.00000</ele>
        <time>2010-01-01T03:21:15Z</time>
      </trkpt>
      <trkpt lat="32.51103100" lon="35.37746000">
        <ele>271.00000</ele>
        <time>2010-01-01T03:21:20Z</time>
      </trkpt>
      <trkpt lat="32.51108500" lon="35.37744800">
        <ele>270.00000</ele>
        <time>2010-01-01T03:21:22Z</time>
      </trkpt>
      <trkpt lat="32.51115700" lon="35.37751300">
        <ele>269.00000</ele>
        <time>2010-01-01T03:21:25Z</time>
      </trkpt>
      <trkpt lat="32.51126600" lon="35.37756500">
        <ele>267.00000</ele>
        <time>2010-01-01T03:21:30Z</time>
      </trkpt>
      <trkpt lat="32.51130400" lon="35.37748000">
        <ele>266.00000</ele>
        <time>2010-01-01T03:21:33Z</time>
      </trkpt>
      <trkpt lat="32.51140900" lon="35.37722700">
        <ele>265.00000</ele>
        <time>2010-01-01T03:21:43Z</time>
      </trkpt>
      <trkpt lat="32.51163700" lon="35.37693700">
        <ele>261.00000</ele>
        <time>2010-01-01T03:21:56Z</time>
      </trkpt>
      <trkpt lat="32.51169700" lon="35.37685100">
        <ele>261.00000</ele>
        <time>2010-01-01T03:22:00Z</time>
      </trkpt>
      <trkpt lat="32.51174200" lon="35.37674100">
        <ele>260.00000</ele>
        <time>2010-01-01T03:22:04Z</time>
      </trkpt>
      <trkpt lat="32.51187500" lon="35.37664300">
        <ele>260.00000</ele>
        <time>2010-01-01T03:22:10Z</time>
      </trkpt>
      <trkpt lat="32.51196300" lon="35.37665900">
        <ele>259.00000</ele>
        <time>2010-01-01T03:22:14Z</time>
      </trkpt>
      <trkpt lat="32.51212300" lon="35.37667800">
        <ele>258.00000</ele>
        <time>2010-01-01T03:22:20Z</time>
      </trkpt>
      <trkpt lat="32.51224600" lon="35.37674600">
        <ele>258.00000</ele>
        <time>2010-01-01T03:22:26Z</time>
      </trkpt>
      <trkpt lat="32.51230400" lon="35.37679100">
        <ele>257.00000</ele>
        <time>2010-01-01T03:22:29Z</time>
      </trkpt>
      <trkpt lat="32.51237900" lon="35.37682600">
        <ele>257.00000</ele>
        <time>2010-01-01T03:22:32Z</time>
      </trkpt>
      <trkpt lat="32.51242600" lon="35.37684700">
        <ele>257.00000</ele>
        <time>2010-01-01T03:22:34Z</time>
      </trkpt>
      <trkpt lat="32.51258600" lon="35.37690800">
        <ele>258.00000</ele>
        <time>2010-01-01T03:22:41Z</time>
      </trkpt>
      <trkpt lat="32.51267700" lon="35.37692000">
        <ele>259.00000</ele>
        <time>2010-01-01T03:22:44Z</time>
      </trkpt>
      <trkpt lat="32.51268100" lon="35.37691600">
        <ele>259.00000</ele>
        <time>2010-01-01T03:22:44Z</time>
      </trkpt>
      <trkpt lat="32.51268200" lon="35.37691800">
        <ele>259.00000</ele>
        <time>2010-01-01T03:22:45Z</time>
      </trkpt>
      <trkpt lat="32.51268000" lon="35.37690700">
        <ele>259.00000</ele>
        <time>2010-01-01T03:22:45Z</time>
      </trkpt>
      <trkpt lat="32.51267900" lon="35.37690100">
        <ele>259.00000</ele>
        <time>2010-01-01T03:22:45Z</time>
      </trkpt>
      <trkpt lat="32.51267800" lon="35.37689400">
        <ele>259.00000</ele>
        <time>2010-01-01T03:22:45Z</time>
      </trkpt>
      <trkpt lat="32.51267700" lon="35.37689100">
        <ele>259.00000</ele>
        <time>2010-01-01T03:22:45Z</time>
      </trkpt>
      <trkpt lat="32.51270300" lon="35.37687800">
        <ele>259.00000</ele>
        <time>2010-01-01T03:22:47Z</time>
      </trkpt>
      <trkpt lat="32.51270200" lon="35.37688700">
        <ele>259.00000</ele>
        <time>2010-01-01T03:22:47Z</time>
      </trkpt>
      <trkpt lat="32.51270300" lon="35.37689100">
        <ele>259.00000</ele>
        <time>2010-01-01T03:22:47Z</time>
      </trkpt>
      <trkpt lat="32.51270700" lon="35.37695300">
        <ele>259.00000</ele>
        <time>2010-01-01T03:22:49Z</time>
      </trkpt>
      <trkpt lat="32.51269900" lon="35.37694700">
        <ele>259.00000</ele>
        <time>2010-01-01T03:22:50Z</time>
      </trkpt>
      <trkpt lat="32.51269700" lon="35.37694600">
        <ele>259.00000</ele>
        <time>2010-01-01T03:22:50Z</time>
      </trkpt>
      <trkpt lat="32.51268600" lon="35.37693900">
        <ele>259.00000</ele>
        <time>2010-01-01T03:22:50Z</time>
      </trkpt>
      <trkpt lat="32.51270400" lon="35.37695400">
        <ele>259.00000</ele>
        <time>2010-01-01T03:22:51Z</time>
      </trkpt>
      <trkpt lat="32.51275300" lon="35.37694800">
        <ele>260.00000</ele>
        <time>2010-01-01T03:22:53Z</time>
      </trkpt>
      <trkpt lat="32.51281000" lon="35.37692400">
        <ele>260.00000</ele>
        <time>2010-01-01T03:22:55Z</time>
      </trkpt>
      <trkpt lat="32.51286300" lon="35.37689900">
        <ele>261.00000</ele>
        <time>2010-01-01T03:22:58Z</time>
      </trkpt>
      <trkpt lat="32.51296400" lon="35.37686100">
        <ele>262.00000</ele>
        <time>2010-01-01T03:23:02Z</time>
      </trkpt>
      <trkpt lat="32.51300400" lon="35.37690000">
        <ele>262.00000</ele>
        <time>2010-01-01T03:23:04Z</time>
      </trkpt>
      <trkpt lat="32.51305300" lon="35.37695700">
        <ele>263.00000</ele>
        <time>2010-01-01T03:23:07Z</time>
      </trkpt>
      <trkpt lat="32.51306400" lon="35.37696700">
        <ele>263.00000</ele>
        <time>2010-01-01T03:23:07Z</time>
      </trkpt>
      <trkpt lat="32.51310700" lon="35.37704000">
        <ele>264.00000</ele>
        <time>2010-01-01T03:23:10Z</time>
      </trkpt>
      <trkpt lat="32.51312300" lon="35.37705700">
        <ele>264.00000</ele>
        <time>2010-01-01T03:23:11Z</time>
      </trkpt>
      <trkpt lat="32.51317600" lon="35.37714900">
        <ele>264.00000</ele>
        <time>2010-01-01T03:23:15Z</time>
      </trkpt>
      <trkpt lat="32.51322800" lon="35.37725500">
        <ele>265.00000</ele>
        <time>2010-01-01T03:23:19Z</time>
      </trkpt>
      <trkpt lat="32.51327200" lon="35.37732500">
        <ele>265.00000</ele>
        <time>2010-01-01T03:23:22Z</time>
      </trkpt>
      <trkpt lat="32.51333100" lon="35.37729900">
        <ele>266.00000</ele>
        <time>2010-01-01T03:23:25Z</time>
      </trkpt>
      <trkpt lat="32.51332700" lon="35.37721100">
        <ele>266.00000</ele>
        <time>2010-01-01T03:23:27Z</time>
      </trkpt>
      <trkpt lat="32.51337400" lon="35.37717500">
        <ele>267.00000</ele>
        <time>2010-01-01T03:23:30Z</time>
      </trkpt>
      <trkpt lat="32.51339300" lon="35.37718200">
        <ele>267.00000</ele>
        <time>2010-01-01T03:23:31Z</time>
      </trkpt>
      <trkpt lat="32.51338900" lon="35.37719500">
        <ele>267.00000</ele>
        <time>2010-01-01T03:23:31Z</time>
      </trkpt>
      <trkpt lat="32.51341800" lon="35.37721700">
        <ele>268.00000</ele>
        <time>2010-01-01T03:23:32Z</time>
      </trkpt>
      <trkpt lat="32.51346800" lon="35.37732400">
        <ele>269.00000</ele>
        <time>2010-01-01T03:23:37Z</time>
      </trkpt>
      <trkpt lat="32.51348300" lon="35.37736000">
        <ele>269.00000</ele>
        <time>2010-01-01T03:23:38Z</time>
      </trkpt>
      <trkpt lat="32.51355000" lon="35.37746400">
        <ele>270.00000</ele>
        <time>2010-01-01T03:23:42Z</time>
      </trkpt>
      <trkpt lat="32.51360900" lon="35.37754500">
        <ele>271.00000</ele>
        <time>2010-01-01T03:23:46Z</time>
      </trkpt>
      <trkpt lat="32.51368200" lon="35.37765900">
        <ele>272.00000</ele>
        <time>2010-01-01T03:23:51Z</time>
      </trkpt>
      <trkpt lat="32.51368800" lon="35.37767200">
        <ele>272.00000</ele>
        <time>2010-01-01T03:23:51Z</time>
      </trkpt>
      <trkpt lat="32.51377500" lon="35.37780400">
        <ele>273.00000</ele>
        <time>2010-01-01T03:23:57Z</time>
      </trkpt>
      <trkpt lat="32.51387900" lon="35.37790200">
        <ele>274.00000</ele>
        <time>2010-01-01T03:24:02Z</time>
      </trkpt>
      <trkpt lat="32.51394100" lon="35.37793500">
        <ele>275.00000</ele>
        <time>2010-01-01T03:24:05Z</time>
      </trkpt>
      <trkpt lat="32.51397500" lon="35.37791300">
        <ele>275.00000</ele>
        <time>2010-01-01T03:24:06Z</time>
      </trkpt>
      <trkpt lat="32.51395400" lon="35.37782500">
        <ele>276.00000</ele>
        <time>2010-01-01T03:24:10Z</time>
      </trkpt>
      <trkpt lat="32.51394200" lon="35.37778500">
        <ele>276.00000</ele>
        <time>2010-01-01T03:24:11Z</time>
      </trkpt>
      <trkpt lat="32.51396400" lon="35.37774000">
        <ele>276.00000</ele>
        <time>2010-01-01T03:24:13Z</time>
      </trkpt>
      <trkpt lat="32.51396400" lon="35.37773400">
        <ele>276.00000</ele>
        <time>2010-01-01T03:24:13Z</time>
      </trkpt>
      <trkpt lat="32.51401000" lon="35.37772100">
        <ele>277.00000</ele>
        <time>2010-01-01T03:24:15Z</time>
      </trkpt>
      <trkpt lat="32.51401700" lon="35.37770700">
        <ele>277.00000</ele>
        <time>2010-01-01T03:24:15Z</time>
      </trkpt>
      <trkpt lat="32.51404300" lon="35.37769500">
        <ele>278.00000</ele>
        <time>2010-01-01T03:24:17Z</time>
      </trkpt>
      <trkpt lat="32.51406800" lon="35.37769500">
        <ele>278.00000</ele>
        <time>2010-01-01T03:24:18Z</time>
      </trkpt>
      <trkpt lat="32.51407500" lon="35.37768000">
        <ele>278.00000</ele>
        <time>2010-01-01T03:24:18Z</time>
      </trkpt>
      <trkpt lat="32.51407300" lon="35.37764500">
        <ele>278.00000</ele>
        <time>2010-01-01T03:24:19Z</time>
      </trkpt>
      <trkpt lat="32.51411000" lon="35.37767400">
        <ele>279.00000</ele>
        <time>2010-01-01T03:24:21Z</time>
      </trkpt>
      <trkpt lat="32.51421500" lon="35.37775900">
        <ele>280.00000</ele>
        <time>2010-01-01T03:24:26Z</time>
      </trkpt>
      <trkpt lat="32.51430300" lon="35.37782000">
        <ele>281.00000</ele>
        <time>2010-01-01T03:24:30Z</time>
      </trkpt>
      <trkpt lat="32.51440100" lon="35.37785000">
        <ele>282.00000</ele>
        <time>2010-01-01T03:24:34Z</time>
      </trkpt>
      <trkpt lat="32.51452600" lon="35.37789200">
        <ele>284.00000</ele>
        <time>2010-01-01T03:24:39Z</time>
      </trkpt>
      <trkpt lat="32.51459900" lon="35.37793500">
        <ele>285.00000</ele>
        <time>2010-01-01T03:24:43Z</time>
      </trkpt>
      <trkpt lat="32.51461900" lon="35.37789200">
        <ele>285.00000</ele>
        <time>2010-01-01T03:24:44Z</time>
      </trkpt>
      <trkpt lat="32.51462900" lon="35.37784700">
        <ele>286.00000</ele>
        <time>2010-01-01T03:24:46Z</time>
      </trkpt>
      <trkpt lat="32.51459200" lon="35.37777200">
        <ele>286.00000</ele>
        <time>2010-01-01T03:24:49Z</time>
      </trkpt>
      <trkpt lat="32.51457000" lon="35.37774300">
        <ele>286.00000</ele>
        <time>2010-01-01T03:24:50Z</time>
      </trkpt>
      <trkpt lat="32.51451000" lon="35.37763300">
        <ele>286.00000</ele>
        <time>2010-01-01T03:24:55Z</time>
      </trkpt>
      <trkpt lat="32.51445400" lon="35.37756200">
        <ele>286.00000</ele>
        <time>2010-01-01T03:24:58Z</time>
      </trkpt>
      <trkpt lat="32.51436900" lon="35.37741900">
        <ele>285.00000</ele>
        <time>2010-01-01T03:25:04Z</time>
      </trkpt>
      <trkpt lat="32.51428300" lon="35.37730400">
        <ele>285.00000</ele>
        <time>2010-01-01T03:25:09Z</time>
      </trkpt>
      <trkpt lat="32.51423100" lon="35.37717100">
        <ele>285.00000</ele>
        <time>2010-01-01T03:25:14Z</time>
      </trkpt>
      <trkpt lat="32.51425900" lon="35.37716800">
        <ele>285.00000</ele>
        <time>2010-01-01T03:25:15Z</time>
      </trkpt>
      <trkpt lat="32.51437600" lon="35.37723700">
        <ele>287.00000</ele>
        <time>2010-01-01T03:25:20Z</time>
      </trkpt>
      <trkpt lat="32.51446400" lon="35.37730200">
        <ele>289.00000</ele>
        <time>2010-01-01T03:25:24Z</time>
      </trkpt>
      <trkpt lat="32.51452200" lon="35.37734700">
        <ele>289.00000</ele>
        <time>2010-01-01T03:25:27Z</time>
      </trkpt>
      <trkpt lat="32.51458900" lon="35.37743000">
        <ele>289.00000</ele>
        <time>2010-01-01T03:25:31Z</time>
      </trkpt>
      <trkpt lat="32.51469200" lon="35.37752600">
        <ele>290.00000</ele>
        <time>2010-01-01T03:25:36Z</time>
      </trkpt>
      <trkpt lat="32.51477900" lon="35.37765200">
        <ele>290.00000</ele>
        <time>2010-01-01T03:25:42Z</time>
      </trkpt>
      <trkpt lat="32.51485800" lon="35.37772400">
        <ele>291.00000</ele>
        <time>2010-01-01T03:25:46Z</time>
      </trkpt>
      <trkpt lat="32.51488800" lon="35.37772300">
        <ele>292.00000</ele>
        <time>2010-01-01T03:25:47Z</time>
      </trkpt>
      <trkpt lat="32.51498600" lon="35.37780200">
        <ele>292.00000</ele>
        <time>2010-01-01T03:25:52Z</time>
      </trkpt>
      <trkpt lat="32.51509400" lon="35.37787400">
        <ele>294.00000</ele>
        <time>2010-01-01T03:25:57Z</time>
      </trkpt>
      <trkpt lat="32.51511200" lon="35.37787700">
        <ele>294.00000</ele>
        <time>2010-01-01T03:25:57Z</time>
      </trkpt>
      <trkpt lat="32.51515200" lon="35.37782300">
        <ele>295.00000</ele>
        <time>2010-01-01T03:26:00Z</time>
      </trkpt>
      <trkpt lat="32.51514100" lon="35.37778600">
        <ele>296.00000</ele>
        <time>2010-01-01T03:26:01Z</time>
      </trkpt>
      <trkpt lat="32.51508300" lon="35.37765400">
        <ele>296.00000</ele>
        <time>2010-01-01T03:26:06Z</time>
      </trkpt>
      <trkpt lat="32.51500800" lon="35.37756700">
        <ele>295.00000</ele>
        <time>2010-01-01T03:26:10Z</time>
      </trkpt>
      <trkpt lat="32.51499800" lon="35.37755300">
        <ele>295.00000</ele>
        <time>2010-01-01T03:26:11Z</time>
      </trkpt>
      <trkpt lat="32.51499000" lon="35.37752800">
        <ele>296.00000</ele>
        <time>2010-01-01T03:26:12Z</time>
      </trkpt>
      <trkpt lat="32.51503200" lon="35.37749900">
        <ele>297.00000</ele>
        <time>2010-01-01T03:26:14Z</time>
      </trkpt>
      <trkpt lat="32.51504900" lon="35.37750400">
        <ele>297.00000</ele>
        <time>2010-01-01T03:26:15Z</time>
      </trkpt>
      <trkpt lat="32.51505900" lon="35.37751000">
        <ele>297.00000</ele>
        <time>2010-01-01T03:26:15Z</time>
      </trkpt>
      <trkpt lat="32.51517900" lon="35.37757900">
        <ele>299.00000</ele>
        <time>2010-01-01T03:26:20Z</time>
      </trkpt>
      <trkpt lat="32.51528400" lon="35.37763800">
        <ele>300.00000</ele>
        <time>2010-01-01T03:26:25Z</time>
      </trkpt>
      <trkpt lat="32.51538500" lon="35.37769300">
        <ele>302.00000</ele>
        <time>2010-01-01T03:26:30Z</time>
      </trkpt>
      <trkpt lat="32.51545900" lon="35.37773200">
        <ele>303.00000</ele>
        <time>2010-01-01T03:26:33Z</time>
      </trkpt>
      <trkpt lat="32.51554000" lon="35.37782800">
        <ele>303.00000</ele>
        <time>2010-01-01T03:26:37Z</time>
      </trkpt>
      <trkpt lat="32.51566900" lon="35.37792000">
        <ele>304.00000</ele>
        <time>2010-01-01T03:26:43Z</time>
      </trkpt>
      <trkpt lat="32.51579800" lon="35.37800700">
        <ele>305.00000</ele>
        <time>2010-01-01T03:26:49Z</time>
      </trkpt>
      <trkpt lat="32.51591900" lon="35.37807500">
        <ele>306.00000</ele>
        <time>2010-01-01T03:26:55Z</time>
      </trkpt>
      <trkpt lat="32.51599400" lon="35.37812800">
        <ele>306.00000</ele>
        <time>2010-01-01T03:26:58Z</time>
      </trkpt>
      <trkpt lat="32.51607900" lon="35.37814300">
        <ele>308.00000</ele>
        <time>2010-01-01T03:27:02Z</time>
      </trkpt>
      <trkpt lat="32.51621300" lon="35.37822400">
        <ele>309.00000</ele>
        <time>2010-01-01T03:27:08Z</time>
      </trkpt>
      <trkpt lat="32.51625200" lon="35.37827300">
        <ele>309.00000</ele>
        <time>2010-01-01T03:27:10Z</time>
      </trkpt>
      <trkpt lat="32.51629800" lon="35.37835300">
        <ele>309.00000</ele>
        <time>2010-01-01T03:27:13Z</time>
      </trkpt>
      <trkpt lat="32.51634100" lon="35.37848700">
        <ele>311.00000</ele>
        <time>2010-01-01T03:27:18Z</time>
      </trkpt>
      <trkpt lat="32.51641500" lon="35.37857600">
        <ele>313.00000</ele>
        <time>2010-01-01T03:27:22Z</time>
      </trkpt>
      <trkpt lat="32.51647300" lon="35.37861900">
        <ele>315.00000</ele>
        <time>2010-01-01T03:27:25Z</time>
      </trkpt>
      <trkpt lat="32.51653200" lon="35.37861400">
        <ele>316.00000</ele>
        <time>2010-01-01T03:27:27Z</time>
      </trkpt>
      <trkpt lat="32.51663600" lon="35.37852500">
        <ele>317.00000</ele>
        <time>2010-01-01T03:27:32Z</time>
      </trkpt>
      <trkpt lat="32.51664400" lon="35.37851000">
        <ele>317.00000</ele>
        <time>2010-01-01T03:27:33Z</time>
      </trkpt>
      <trkpt lat="32.51670700" lon="35.37843400">
        <ele>318.00000</ele>
        <time>2010-01-01T03:27:37Z</time>
      </trkpt>
      <trkpt lat="32.51675900" lon="35.37831100">
        <ele>318.00000</ele>
        <time>2010-01-01T03:27:41Z</time>
      </trkpt>
      <trkpt lat="32.51674600" lon="35.37815300">
        <ele>320.00000</ele>
        <time>2010-01-01T03:27:47Z</time>
      </trkpt>
      <trkpt lat="32.51668000" lon="35.37802500">
        <ele>320.00000</ele>
        <time>2010-01-01T03:27:52Z</time>
      </trkpt>
      <trkpt lat="32.51666300" lon="35.37797600">
        <ele>321.00000</ele>
        <time>2010-01-01T03:27:54Z</time>
      </trkpt>
      <trkpt lat="32.51668300" lon="35.37796100">
        <ele>321.00000</ele>
        <time>2010-01-01T03:27:54Z</time>
      </trkpt>
      <trkpt lat="32.51669900" lon="35.37795200">
        <ele>322.00000</ele>
        <time>2010-01-01T03:27:55Z</time>
      </trkpt>
      <trkpt lat="32.51671000" lon="35.37794700">
        <ele>322.00000</ele>
        <time>2010-01-01T03:27:56Z</time>
      </trkpt>
      <trkpt lat="32.51671500" lon="35.37794800">
        <ele>322.00000</ele>
        <time>2010-01-01T03:27:56Z</time>
      </trkpt>
      <trkpt lat="32.51672000" lon="35.37794900">
        <ele>322.00000</ele>
        <time>2010-01-01T03:27:56Z</time>
      </trkpt>
      <trkpt lat="32.51672600" lon="35.37795000">
        <ele>322.00000</ele>
        <time>2010-01-01T03:27:56Z</time>
      </trkpt>
      <trkpt lat="32.51673000" lon="35.37795400">
        <ele>322.00000</ele>
        <time>2010-01-01T03:27:56Z</time>
      </trkpt>
      <trkpt lat="32.51671000" lon="35.37796200">
        <ele>322.00000</ele>
        <time>2010-01-01T03:27:57Z</time>
      </trkpt>
      <trkpt lat="32.51671100" lon="35.37796300">
        <ele>322.00000</ele>
        <time>2010-01-01T03:27:57Z</time>
      </trkpt>
      <trkpt lat="32.51673100" lon="35.37797000">
        <ele>322.00000</ele>
        <time>2010-01-01T03:27:58Z</time>
      </trkpt>
      <trkpt lat="32.51674100" lon="35.37797200">
        <ele>322.00000</ele>
        <time>2010-01-01T03:27:59Z</time>
      </trkpt>
      <trkpt lat="32.51674800" lon="35.37796200">
        <ele>323.00000</ele>
        <time>2010-01-01T03:27:59Z</time>
      </trkpt>
      <trkpt lat="32.51675000" lon="35.37795500">
        <ele>323.00000</ele>
        <time>2010-01-01T03:27:59Z</time>
      </trkpt>
      <trkpt lat="32.51670800" lon="35.37792600">
        <ele>322.00000</ele>
        <time>2010-01-01T03:28:01Z</time>
      </trkpt>
      <trkpt lat="32.51667400" lon="35.37789900">
        <ele>322.00000</ele>
        <time>2010-01-01T03:28:03Z</time>
      </trkpt>
      <trkpt lat="32.51665900" lon="35.37788800">
        <ele>322.00000</ele>
        <time>2010-01-01T03:28:04Z</time>
      </trkpt>
      <trkpt lat="32.51654000" lon="35.37778500">
        <ele>321.00000</ele>
        <time>2010-01-01T03:28:10Z</time>
      </trkpt>
      <trkpt lat="32.51630000" lon="35.37764400">
        <ele>319.00000</ele>
        <time>2010-01-01T03:28:20Z</time>
      </trkpt>
      <trkpt lat="32.51612400" lon="35.37752600">
        <ele>318.00000</ele>
        <time>2010-01-01T03:28:28Z</time>
      </trkpt>
      <trkpt lat="32.51595400" lon="35.37735100">
        <ele>319.00000</ele>
        <time>2010-01-01T03:28:37Z</time>
      </trkpt>
      <trkpt lat="32.51584800" lon="35.37718100">
        <ele>320.00000</ele>
        <time>2010-01-01T03:28:44Z</time>
      </trkpt>
      <trkpt lat="32.51579000" lon="35.37710000">
        <ele>320.00000</ele>
        <time>2010-01-01T03:28:48Z</time>
      </trkpt>
      <trkpt lat="32.51574800" lon="35.37704200">
        <ele>320.00000</ele>
        <time>2010-01-01T03:28:51Z</time>
      </trkpt>
      <trkpt lat="32.51565800" lon="35.37689700">
        <ele>321.00000</ele>
        <time>2010-01-01T03:28:57Z</time>
      </trkpt>
      <trkpt lat="32.51551200" lon="35.37671500">
        <ele>321.00000</ele>
        <time>2010-01-01T03:29:05Z</time>
      </trkpt>
      <trkpt lat="32.51531400" lon="35.37649600">
        <ele>319.00000</ele>
        <time>2010-01-01T03:29:16Z</time>
      </trkpt>
      <trkpt lat="32.51528600" lon="35.37646500">
        <ele>319.00000</ele>
        <time>2010-01-01T03:29:18Z</time>
      </trkpt>
      <trkpt lat="32.51514200" lon="35.37624400">
        <ele>318.00000</ele>
        <time>2010-01-01T03:29:27Z</time>
      </trkpt>
      <trkpt lat="32.51504100" lon="35.37604500">
        <ele>318.00000</ele>
        <time>2010-01-01T03:29:35Z</time>
      </trkpt>
      <trkpt lat="32.51491400" lon="35.37578000">
        <ele>317.00000</ele>
        <time>2010-01-01T03:29:45Z</time>
      </trkpt>
      <trkpt lat="32.51487000" lon="35.37567000">
        <ele>317.00000</ele>
        <time>2010-01-01T03:29:49Z</time>
      </trkpt>
      <trkpt lat="32.51480200" lon="35.37534600">
        <ele>317.00000</ele>
        <time>2010-01-01T03:30:00Z</time>
      </trkpt>
      <trkpt lat="32.51476500" lon="35.37508600">
        <ele>319.00000</ele>
        <time>2010-01-01T03:30:09Z</time>
      </trkpt>
      <trkpt lat="32.51466600" lon="35.37478400">
        <ele>318.00000</ele>
        <time>2010-01-01T03:30:20Z</time>
      </trkpt>
      <trkpt lat="32.51461300" lon="35.37454600">
        <ele>317.00000</ele>
        <time>2010-01-01T03:30:29Z</time>
      </trkpt>
      <trkpt lat="32.51455900" lon="35.37424700">
        <ele>318.00000</ele>
        <time>2010-01-01T03:30:39Z</time>
      </trkpt>
      <trkpt lat="32.51453400" lon="35.37400800">
        <ele>318.00000</ele>
        <time>2010-01-01T03:30:47Z</time>
      </trkpt>
      <trkpt lat="32.51455500" lon="35.37386800">
        <ele>319.00000</ele>
        <time>2010-01-01T03:30:52Z</time>
      </trkpt>
      <trkpt lat="32.51456500" lon="35.37378400">
        <ele>319.00000</ele>
        <time>2010-01-01T03:30:55Z</time>
      </trkpt>
      <trkpt lat="32.51457600" lon="35.37366200">
        <ele>320.00000</ele>
        <time>2010-01-01T03:30:59Z</time>
      </trkpt>
      <trkpt lat="32.51459700" lon="35.37347900">
        <ele>321.00000</ele>
        <time>2010-01-01T03:31:05Z</time>
      </trkpt>
      <trkpt lat="32.51464500" lon="35.37328600">
        <ele>322.00000</ele>
        <time>2010-01-01T03:31:12Z</time>
      </trkpt>
      <trkpt lat="32.51475800" lon="35.37317000">
        <ele>324.00000</ele>
        <time>2010-01-01T03:31:18Z</time>
      </trkpt>
      <trkpt lat="32.51485800" lon="35.37307000">
        <ele>326.00000</ele>
        <time>2010-01-01T03:31:23Z</time>
      </trkpt>
      <trkpt lat="32.51495600" lon="35.37295800">
        <ele>328.00000</ele>
        <time>2010-01-01T03:31:29Z</time>
      </trkpt>
      <trkpt lat="32.51512500" lon="35.37277600">
        <ele>330.00000</ele>
        <time>2010-01-01T03:31:38Z</time>
      </trkpt>
      <trkpt lat="32.51522000" lon="35.37260000">
        <ele>330.00000</ele>
        <time>2010-01-01T03:31:45Z</time>
      </trkpt>
      <trkpt lat="32.51525000" lon="35.37239400">
        <ele>329.00000</ele>
        <time>2010-01-01T03:31:52Z</time>
      </trkpt>
      <trkpt lat="32.51525300" lon="35.37211200">
        <ele>327.00000</ele>
        <time>2010-01-01T03:32:01Z</time>
      </trkpt>
      <trkpt lat="32.51524800" lon="35.37185500">
        <ele>325.00000</ele>
        <time>2010-01-01T03:32:10Z</time>
      </trkpt>
      <trkpt lat="32.51514300" lon="35.37140700">
        <ele>320.00000</ele>
        <time>2010-01-01T03:32:26Z</time>
      </trkpt>
      <trkpt lat="32.51509700" lon="35.37122600">
        <ele>319.00000</ele>
        <time>2010-01-01T03:32:32Z</time>
      </trkpt>
      <trkpt lat="32.51508400" lon="35.37087800">
        <ele>320.00000</ele>
        <time>2010-01-01T03:32:44Z</time>
      </trkpt>
      <trkpt lat="32.51512700" lon="35.37069000">
        <ele>320.00000</ele>
        <time>2010-01-01T03:32:50Z</time>
      </trkpt>
      <trkpt lat="32.51513800" lon="35.37041900">
        <ele>319.00000</ele>
        <time>2010-01-01T03:33:00Z</time>
      </trkpt>
      <trkpt lat="32.51517200" lon="35.37014200">
        <ele>318.00000</ele>
        <time>2010-01-01T03:33:09Z</time>
      </trkpt>
      <trkpt lat="32.51519100" lon="35.37008600">
        <ele>318.00000</ele>
        <time>2010-01-01T03:33:11Z</time>
      </trkpt>
      <trkpt lat="32.51528100" lon="35.36984000">
        <ele>318.00000</ele>
        <time>2010-01-01T03:33:20Z</time>
      </trkpt>
      <trkpt lat="32.51535700" lon="35.36963600">
        <ele>317.00000</ele>
        <time>2010-01-01T03:33:28Z</time>
      </trkpt>
      <trkpt lat="32.51549300" lon="35.36956900">
        <ele>318.00000</ele>
        <time>2010-01-01T03:33:34Z</time>
      </trkpt>
      <trkpt lat="32.51560300" lon="35.36956600">
        <ele>319.00000</ele>
        <time>2010-01-01T03:33:38Z</time>
      </trkpt>
      <trkpt lat="32.51573400" lon="35.36951900">
        <ele>320.00000</ele>
        <time>2010-01-01T03:33:43Z</time>
      </trkpt>
      <trkpt lat="32.51580500" lon="35.36954100">
        <ele>321.00000</ele>
        <time>2010-01-01T03:33:46Z</time>
      </trkpt>
      <trkpt lat="32.51585100" lon="35.36952500">
        <ele>321.00000</ele>
        <time>2010-01-01T03:33:48Z</time>
      </trkpt>
      <trkpt lat="32.51590600" lon="35.36944700">
        <ele>320.00000</ele>
        <time>2010-01-01T03:33:52Z</time>
      </trkpt>
      <trkpt lat="32.51596500" lon="35.36942400">
        <ele>319.00000</ele>
        <time>2010-01-01T03:33:54Z</time>
      </trkpt>
      <trkpt lat="32.51606800" lon="35.36944700">
        <ele>318.00000</ele>
        <time>2010-01-01T03:33:58Z</time>
      </trkpt>
      <trkpt lat="32.51624100" lon="35.36949600">
        <ele>318.00000</ele>
        <time>2010-01-01T03:34:06Z</time>
      </trkpt>
      <trkpt lat="32.51633900" lon="35.36958200">
        <ele>319.00000</ele>
        <time>2010-01-01T03:34:10Z</time>
      </trkpt>
      <trkpt lat="32.51644900" lon="35.36965600">
        <ele>320.00000</ele>
        <time>2010-01-01T03:34:15Z</time>
      </trkpt>
      <trkpt lat="32.51659300" lon="35.36976800">
        <ele>322.00000</ele>
        <time>2010-01-01T03:34:22Z</time>
      </trkpt>
      <trkpt lat="32.51671200" lon="35.36981600">
        <ele>323.00000</ele>
        <time>2010-01-01T03:34:27Z</time>
      </trkpt>
      <trkpt lat="32.51681400" lon="35.36986100">
        <ele>323.00000</ele>
        <time>2010-01-01T03:34:32Z</time>
      </trkpt>
      <trkpt lat="32.51692400" lon="35.36990100">
        <ele>323.00000</ele>
        <time>2010-01-01T03:34:36Z</time>
      </trkpt>
      <trkpt lat="32.51704300" lon="35.36995700">
        <ele>323.00000</ele>
        <time>2010-01-01T03:34:41Z</time>
      </trkpt>
      <trkpt lat="32.51714500" lon="35.37000200">
        <ele>323.00000</ele>
        <time>2010-01-01T03:34:46Z</time>
      </trkpt>
      <trkpt lat="32.51722400" lon="35.37007100">
        <ele>323.00000</ele>
        <time>2010-01-01T03:34:50Z</time>
      </trkpt>
      <trkpt lat="32.51734500" lon="35.37009800">
        <ele>323.00000</ele>
        <time>2010-01-01T03:34:55Z</time>
      </trkpt>
      <trkpt lat="32.51743700" lon="35.37008600">
        <ele>321.00000</ele>
        <time>2010-01-01T03:34:58Z</time>
      </trkpt>
      <trkpt lat="32.51755000" lon="35.37011100">
        <ele>321.00000</ele>
        <time>2010-01-01T03:35:03Z</time>
      </trkpt>
      <trkpt lat="32.51762700" lon="35.37014800">
        <ele>321.00000</ele>
        <time>2010-01-01T03:35:06Z</time>
      </trkpt>
      <trkpt lat="32.51771900" lon="35.37022100">
        <ele>322.00000</ele>
        <time>2010-01-01T03:35:11Z</time>
      </trkpt>
      <trkpt lat="32.51773100" lon="35.37023000">
        <ele>322.00000</ele>
        <time>2010-01-01T03:35:11Z</time>
      </trkpt>
      <trkpt lat="32.51774400" lon="35.37023800">
        <ele>322.00000</ele>
        <time>2010-01-01T03:35:12Z</time>
      </trkpt>
      <trkpt lat="32.51777200" lon="35.37024000">
        <ele>322.00000</ele>
        <time>2010-01-01T03:35:13Z</time>
      </trkpt>
      <trkpt lat="32.51785200" lon="35.37028900">
        <ele>322.00000</ele>
        <time>2010-01-01T03:35:17Z</time>
      </trkpt>
      <trkpt lat="32.51800900" lon="35.37030400">
        <ele>321.00000</ele>
        <time>2010-01-01T03:35:23Z</time>
      </trkpt>
      <trkpt lat="32.51816100" lon="35.37036200">
        <ele>320.00000</ele>
        <time>2010-01-01T03:35:29Z</time>
      </trkpt>
      <trkpt lat="32.51828200" lon="35.37041500">
        <ele>320.00000</ele>
        <time>2010-01-01T03:35:35Z</time>
      </trkpt>
      <trkpt lat="32.51836500" lon="35.37047600">
        <ele>321.00000</ele>
        <time>2010-01-01T03:35:38Z</time>
      </trkpt>
      <trkpt lat="32.51845000" lon="35.37055400">
        <ele>322.00000</ele>
        <time>2010-01-01T03:35:43Z</time>
      </trkpt>
      <trkpt lat="32.51859700" lon="35.37069500">
        <ele>323.00000</ele>
        <time>2010-01-01T03:35:50Z</time>
      </trkpt>
      <trkpt lat="32.51877500" lon="35.37084300">
        <ele>323.00000</ele>
        <time>2010-01-01T03:35:59Z</time>
      </trkpt>
      <trkpt lat="32.51891000" lon="35.37101500">
        <ele>323.00000</ele>
        <time>2010-01-01T03:36:07Z</time>
      </trkpt>
      <trkpt lat="32.51898800" lon="35.37120500">
        <ele>324.00000</ele>
        <time>2010-01-01T03:36:14Z</time>
      </trkpt>
      <trkpt lat="32.51906900" lon="35.37138400">
        <ele>324.00000</ele>
        <time>2010-01-01T03:36:21Z</time>
      </trkpt>
      <trkpt lat="32.51908700" lon="35.37141700">
        <ele>324.00000</ele>
        <time>2010-01-01T03:36:22Z</time>
      </trkpt>
      <trkpt lat="32.51912900" lon="35.37142900">
        <ele>323.00000</ele>
        <time>2010-01-01T03:36:24Z</time>
      </trkpt>
      <trkpt lat="32.51913300" lon="35.37145200">
        <ele>324.00000</ele>
        <time>2010-01-01T03:36:25Z</time>
      </trkpt>
      <trkpt lat="32.51917600" lon="35.37154900">
        <ele>324.00000</ele>
        <time>2010-01-01T03:36:28Z</time>
      </trkpt>
      <trkpt lat="32.51927600" lon="35.37174800">
        <ele>327.00000</ele>
        <time>2010-01-01T03:36:36Z</time>
      </trkpt>
      <trkpt lat="32.51930300" lon="35.37185500">
        <ele>328.00000</ele>
        <time>2010-01-01T03:36:40Z</time>
      </trkpt>
      <trkpt lat="32.51923000" lon="35.37189800">
        <ele>328.00000</ele>
        <time>2010-01-01T03:36:43Z</time>
      </trkpt>
      <trkpt lat="32.51913200" lon="35.37194500">
        <ele>329.00000</ele>
        <time>2010-01-01T03:36:48Z</time>
      </trkpt>
      <trkpt lat="32.51909200" lon="35.37201900">
        <ele>330.00000</ele>
        <time>2010-01-01T03:36:51Z</time>
      </trkpt>
      <trkpt lat="32.51914000" lon="35.37213800">
        <ele>331.00000</ele>
        <time>2010-01-01T03:36:55Z</time>
      </trkpt>
      <trkpt lat="32.51922600" lon="35.37231000">
        <ele>332.00000</ele>
        <time>2010-01-01T03:37:02Z</time>
      </trkpt>
      <trkpt lat="32.51919600" lon="35.37242200">
        <ele>333.00000</ele>
        <time>2010-01-01T03:37:06Z</time>
      </trkpt>
      <trkpt lat="32.51911600" lon="35.37242100">
        <ele>334.00000</ele>
        <time>2010-01-01T03:37:09Z</time>
      </trkpt>
      <trkpt lat="32.51897500" lon="35.37245000">
        <ele>338.00000</ele>
        <time>2010-01-01T03:37:15Z</time>
      </trkpt>
      <trkpt lat="32.51892200" lon="35.37253900">
        <ele>340.00000</ele>
        <time>2010-01-01T03:37:18Z</time>
      </trkpt>
      <trkpt lat="32.51896700" lon="35.37264700">
        <ele>340.00000</ele>
        <time>2010-01-01T03:37:22Z</time>
      </trkpt>
      <trkpt lat="32.51905200" lon="35.37276700">
        <ele>339.00000</ele>
        <time>2010-01-01T03:37:28Z</time>
      </trkpt>
      <trkpt lat="32.51920600" lon="35.37294100">
        <ele>338.00000</ele>
        <time>2010-01-01T03:37:36Z</time>
      </trkpt>
      <trkpt lat="32.51930100" lon="35.37309400">
        <ele>339.00000</ele>
        <time>2010-01-01T03:37:43Z</time>
      </trkpt>
      <trkpt lat="32.51943900" lon="35.37325300">
        <ele>341.00000</ele>
        <time>2010-01-01T03:37:50Z</time>
      </trkpt>
      <trkpt lat="32.51960600" lon="35.37333500">
        <ele>342.00000</ele>
        <time>2010-01-01T03:37:58Z</time>
      </trkpt>
      <trkpt lat="32.51972700" lon="35.37338100">
        <ele>343.00000</ele>
        <time>2010-01-01T03:38:03Z</time>
      </trkpt>
      <trkpt lat="32.51975600" lon="35.37341500">
        <ele>343.00000</ele>
        <time>2010-01-01T03:38:04Z</time>
      </trkpt>
      <trkpt lat="32.51976000" lon="35.37346700">
        <ele>344.00000</ele>
        <time>2010-01-01T03:38:06Z</time>
      </trkpt>
      <trkpt lat="32.51971800" lon="35.37350800">
        <ele>344.00000</ele>
        <time>2010-01-01T03:38:08Z</time>
      </trkpt>
      <trkpt lat="32.51963200" lon="35.37359800">
        <ele>345.00000</ele>
        <time>2010-01-01T03:38:13Z</time>
      </trkpt>
      <trkpt lat="32.51954700" lon="35.37364600">
        <ele>345.00000</ele>
        <time>2010-01-01T03:38:17Z</time>
      </trkpt>
      <trkpt lat="32.51953100" lon="35.37365900">
        <ele>345.00000</ele>
        <time>2010-01-01T03:38:17Z</time>
      </trkpt>
      <trkpt lat="32.51956500" lon="35.37371900">
        <ele>346.00000</ele>
        <time>2010-01-01T03:38:20Z</time>
      </trkpt>
      <trkpt lat="32.51965100" lon="35.37372500">
        <ele>346.00000</ele>
        <time>2010-01-01T03:38:23Z</time>
      </trkpt>
      <trkpt lat="32.51982600" lon="35.37368900">
        <ele>346.00000</ele>
        <time>2010-01-01T03:38:30Z</time>
      </trkpt>
      <trkpt lat="32.51994200" lon="35.37364500">
        <ele>346.00000</ele>
        <time>2010-01-01T03:38:35Z</time>
      </trkpt>
      <trkpt lat="32.52004600" lon="35.37354200">
        <ele>345.00000</ele>
        <time>2010-01-01T03:38:41Z</time>
      </trkpt>
      <trkpt lat="32.52015000" lon="35.37343800">
        <ele>344.00000</ele>
        <time>2010-01-01T03:38:46Z</time>
      </trkpt>
      <trkpt lat="32.52022200" lon="35.37328900">
        <ele>343.00000</ele>
        <time>2010-01-01T03:38:52Z</time>
      </trkpt>
      <trkpt lat="32.52027500" lon="35.37316800">
        <ele>343.00000</ele>
        <time>2010-01-01T03:38:56Z</time>
      </trkpt>
      <trkpt lat="32.52032800" lon="35.37303400">
        <ele>342.00000</ele>
        <time>2010-01-01T03:39:01Z</time>
      </trkpt>
      <trkpt lat="32.52039000" lon="35.37293200">
        <ele>342.00000</ele>
        <time>2010-01-01T03:39:06Z</time>
      </trkpt>
      <trkpt lat="32.52046200" lon="35.37282000">
        <ele>343.00000</ele>
        <time>2010-01-01T03:39:10Z</time>
      </trkpt>
      <trkpt lat="32.52056100" lon="35.37264700">
        <ele>343.00000</ele>
        <time>2010-01-01T03:39:18Z</time>
      </trkpt>
      <trkpt lat="32.52060100" lon="35.37255800">
        <ele>344.00000</ele>
        <time>2010-01-01T03:39:21Z</time>
      </trkpt>
      <trkpt lat="32.52062400" lon="35.37239500">
        <ele>344.00000</ele>
        <time>2010-01-01T03:39:26Z</time>
      </trkpt>
      <trkpt lat="32.52065600" lon="35.37224800">
        <ele>345.00000</ele>
        <time>2010-01-01T03:39:32Z</time>
      </trkpt>
      <trkpt lat="32.52068100" lon="35.37209700">
        <ele>345.00000</ele>
        <time>2010-01-01T03:39:37Z</time>
      </trkpt>
      <trkpt lat="32.52071300" lon="35.37198600">
        <ele>346.00000</ele>
        <time>2010-01-01T03:39:41Z</time>
      </trkpt>
      <trkpt lat="32.52073700" lon="35.37184900">
        <ele>346.00000</ele>
        <time>2010-01-01T03:39:45Z</time>
      </trkpt>
      <trkpt lat="32.52071200" lon="35.37170500">
        <ele>346.00000</ele>
        <time>2010-01-01T03:39:50Z</time>
      </trkpt>
      <trkpt lat="32.52070400" lon="35.37165600">
        <ele>346.00000</ele>
        <time>2010-01-01T03:39:52Z</time>
      </trkpt>
      <trkpt lat="32.52070200" lon="35.37158000">
        <ele>346.00000</ele>
        <time>2010-01-01T03:39:55Z</time>
      </trkpt>
      <trkpt lat="32.52070600" lon="35.37151400">
        <ele>346.00000</ele>
        <time>2010-01-01T03:39:57Z</time>
      </trkpt>
      <trkpt lat="32.52069700" lon="35.37146400">
        <ele>346.00000</ele>
        <time>2010-01-01T03:39:59Z</time>
      </trkpt>
      <trkpt lat="32.52070900" lon="35.37145600">
        <ele>346.00000</ele>
        <time>2010-01-01T03:39:59Z</time>
      </trkpt>
      <trkpt lat="32.52072700" lon="35.37143600">
        <ele>346.00000</ele>
        <time>2010-01-01T03:40:00Z</time>
      </trkpt>
      <trkpt lat="32.52073100" lon="35.37142700">
        <ele>347.00000</ele>
        <time>2010-01-01T03:40:01Z</time>
      </trkpt>
      <trkpt lat="32.52073200" lon="35.37141700">
        <ele>347.00000</ele>
        <time>2010-01-01T03:40:01Z</time>
      </trkpt>
      <trkpt lat="32.52071500" lon="35.37131700">
        <ele>346.00000</ele>
        <time>2010-01-01T03:40:04Z</time>
      </trkpt>
      <trkpt lat="32.52071000" lon="35.37129500">
        <ele>346.00000</ele>
        <time>2010-01-01T03:40:05Z</time>
      </trkpt>
      <trkpt lat="32.52070600" lon="35.37127400">
        <ele>346.00000</ele>
        <time>2010-01-01T03:40:06Z</time>
      </trkpt>
      <trkpt lat="32.52072500" lon="35.37125400">
        <ele>347.00000</ele>
        <time>2010-01-01T03:40:07Z</time>
      </trkpt>
      <trkpt lat="32.52073100" lon="35.37123400">
        <ele>347.00000</ele>
        <time>2010-01-01T03:40:08Z</time>
      </trkpt>
      <trkpt lat="32.52073300" lon="35.37118700">
        <ele>347.00000</ele>
        <time>2010-01-01T03:40:09Z</time>
      </trkpt>
      <trkpt lat="32.52071500" lon="35.37114600">
        <ele>347.00000</ele>
        <time>2010-01-01T03:40:11Z</time>
      </trkpt>
      <trkpt lat="32.52069600" lon="35.37115000">
        <ele>346.00000</ele>
        <time>2010-01-01T03:40:11Z</time>
      </trkpt>
      <trkpt lat="32.52067400" lon="35.37116300">
        <ele>346.00000</ele>
        <time>2010-01-01T03:40:12Z</time>
      </trkpt>
      <trkpt lat="32.52066200" lon="35.37114700">
        <ele>346.00000</ele>
        <time>2010-01-01T03:40:13Z</time>
      </trkpt>
      <trkpt lat="32.52064200" lon="35.37118400">
        <ele>345.00000</ele>
        <time>2010-01-01T03:40:15Z</time>
      </trkpt>
      <trkpt lat="32.52063900" lon="35.37122100">
        <ele>345.00000</ele>
        <time>2010-01-01T03:40:16Z</time>
      </trkpt>
      <trkpt lat="32.52063900" lon="35.37115300">
        <ele>345.00000</ele>
        <time>2010-01-01T03:40:18Z</time>
      </trkpt>
      <trkpt lat="32.52064400" lon="35.37116700">
        <ele>345.00000</ele>
        <time>2010-01-01T03:40:19Z</time>
      </trkpt>
      <trkpt lat="32.52065200" lon="35.37125100">
        <ele>345.00000</ele>
        <time>2010-01-01T03:40:22Z</time>
      </trkpt>
      <trkpt lat="32.52063900" lon="35.37119200">
        <ele>345.00000</ele>
        <time>2010-01-01T03:40:24Z</time>
      </trkpt>
      <trkpt lat="32.52063200" lon="35.37118000">
        <ele>345.00000</ele>
        <time>2010-01-01T03:40:24Z</time>
      </trkpt>
      <trkpt lat="32.52061200" lon="35.37110600">
        <ele>345.00000</ele>
        <time>2010-01-01T03:40:27Z</time>
      </trkpt>
      <trkpt lat="32.52061100" lon="35.37100200">
        <ele>345.00000</ele>
        <time>2010-01-01T03:40:30Z</time>
      </trkpt>
      <trkpt lat="32.52061400" lon="35.37092400">
        <ele>345.00000</ele>
        <time>2010-01-01T03:40:33Z</time>
      </trkpt>
      <trkpt lat="32.52062500" lon="35.37086000">
        <ele>345.00000</ele>
        <time>2010-01-01T03:40:35Z</time>
      </trkpt>
      <trkpt lat="32.52061200" lon="35.37077700">
        <ele>345.00000</ele>
        <time>2010-01-01T03:40:38Z</time>
      </trkpt>
      <trkpt lat="32.52060900" lon="35.37066400">
        <ele>345.00000</ele>
        <time>2010-01-01T03:40:42Z</time>
      </trkpt>
      <trkpt lat="32.52060700" lon="35.37054200">
        <ele>345.00000</ele>
        <time>2010-01-01T03:40:46Z</time>
      </trkpt>
      <trkpt lat="32.52060300" lon="35.37044400">
        <ele>345.00000</ele>
        <time>2010-01-01T03:40:49Z</time>
      </trkpt>
      <trkpt lat="32.52058000" lon="35.37031300">
        <ele>345.00000</ele>
        <time>2010-01-01T03:40:54Z</time>
      </trkpt>
      <trkpt lat="32.52058900" lon="35.37016900">
        <ele>345.00000</ele>
        <time>2010-01-01T03:40:59Z</time>
      </trkpt>
      <trkpt lat="32.52058400" lon="35.37001900">
        <ele>345.00000</ele>
        <time>2010-01-01T03:41:04Z</time>
      </trkpt>
      <trkpt lat="32.52058300" lon="35.36986700">
        <ele>345.00000</ele>
        <time>2010-01-01T03:41:09Z</time>
      </trkpt>
      <trkpt lat="32.52058600" lon="35.36971000">
        <ele>344.00000</ele>
        <time>2010-01-01T03:41:14Z</time>
      </trkpt>
      <trkpt lat="32.52056600" lon="35.36963400">
        <ele>344.00000</ele>
        <time>2010-01-01T03:41:17Z</time>
      </trkpt>
      <trkpt lat="32.52056200" lon="35.36949800">
        <ele>343.00000</ele>
        <time>2010-01-01T03:41:21Z</time>
      </trkpt>
      <trkpt lat="32.52056800" lon="35.36942500">
        <ele>343.00000</ele>
        <time>2010-01-01T03:41:24Z</time>
      </trkpt>
      <trkpt lat="32.52054400" lon="35.36929300">
        <ele>342.00000</ele>
        <time>2010-01-01T03:41:28Z</time>
      </trkpt>
      <trkpt lat="32.52055400" lon="35.36904800">
        <ele>342.00000</ele>
        <time>2010-01-01T03:41:37Z</time>
      </trkpt>
      <trkpt lat="32.52057200" lon="35.36892300">
        <ele>342.00000</ele>
        <time>2010-01-01T03:41:41Z</time>
      </trkpt>
      <trkpt lat="32.52061100" lon="35.36870200">
        <ele>342.00000</ele>
        <time>2010-01-01T03:41:49Z</time>
      </trkpt>
      <trkpt lat="32.52060300" lon="35.36854100">
        <ele>341.00000</ele>
        <time>2010-01-01T03:41:54Z</time>
      </trkpt>
      <trkpt lat="32.52061400" lon="35.36841400">
        <ele>341.00000</ele>
        <time>2010-01-01T03:41:58Z</time>
      </trkpt>
      <trkpt lat="32.52061800" lon="35.36824700">
        <ele>340.00000</ele>
        <time>2010-01-01T03:42:04Z</time>
      </trkpt>
      <trkpt lat="32.52060300" lon="35.36809600">
        <ele>340.00000</ele>
        <time>2010-01-01T03:42:09Z</time>
      </trkpt>
      <trkpt lat="32.52055400" lon="35.36800200">
        <ele>339.00000</ele>
        <time>2010-01-01T03:42:13Z</time>
      </trkpt>
      <trkpt lat="32.52051100" lon="35.36780500">
        <ele>338.00000</ele>
        <time>2010-01-01T03:42:20Z</time>
      </trkpt>
      <trkpt lat="32.52050600" lon="35.36777500">
        <ele>338.00000</ele>
        <time>2010-01-01T03:42:21Z</time>
      </trkpt>
      <trkpt lat="32.52054800" lon="35.36767600">
        <ele>338.00000</ele>
        <time>2010-01-01T03:42:24Z</time>
      </trkpt>
      <trkpt lat="32.52055000" lon="35.36764600">
        <ele>338.00000</ele>
        <time>2010-01-01T03:42:25Z</time>
      </trkpt>
      <trkpt lat="32.52054600" lon="35.36743200">
        <ele>337.00000</ele>
        <time>2010-01-01T03:42:33Z</time>
      </trkpt>
      <trkpt lat="32.52060800" lon="35.36730100">
        <ele>337.00000</ele>
        <time>2010-01-01T03:42:38Z</time>
      </trkpt>
      <trkpt lat="32.52069900" lon="35.36721100">
        <ele>337.00000</ele>
        <time>2010-01-01T03:42:43Z</time>
      </trkpt>
      <trkpt lat="32.52074300" lon="35.36717400">
        <ele>337.00000</ele>
        <time>2010-01-01T03:42:45Z</time>
      </trkpt>
      <trkpt lat="32.52084900" lon="35.36704500">
        <ele>337.00000</ele>
        <time>2010-01-01T03:42:51Z</time>
      </trkpt>
      <trkpt lat="32.52107200" lon="35.36692300">
        <ele>339.00000</ele>
        <time>2010-01-01T03:43:01Z</time>
      </trkpt>
      <trkpt lat="32.52125900" lon="35.36682800">
        <ele>340.00000</ele>
        <time>2010-01-01T03:43:09Z</time>
      </trkpt>
      <trkpt lat="32.52145300" lon="35.36673300">
        <ele>340.00000</ele>
        <time>2010-01-01T03:43:17Z</time>
      </trkpt>
      <trkpt lat="32.52156300" lon="35.36671000">
        <ele>341.00000</ele>
        <time>2010-01-01T03:43:22Z</time>
      </trkpt>
      <trkpt lat="32.52159400" lon="35.36670300">
        <ele>341.00000</ele>
        <time>2010-01-01T03:43:23Z</time>
      </trkpt>
      <trkpt lat="32.52165200" lon="35.36664800">
        <ele>341.00000</ele>
        <time>2010-01-01T03:43:26Z</time>
      </trkpt>
      <trkpt lat="32.52171800" lon="35.36661600">
        <ele>340.00000</ele>
        <time>2010-01-01T03:43:29Z</time>
      </trkpt>
      <trkpt lat="32.52173900" lon="35.36659200">
        <ele>340.00000</ele>
        <time>2010-01-01T03:43:30Z</time>
      </trkpt>
      <trkpt lat="32.52180400" lon="35.36649600">
        <ele>339.00000</ele>
        <time>2010-01-01T03:43:34Z</time>
      </trkpt>
      <trkpt lat="32.52184900" lon="35.36645200">
        <ele>338.00000</ele>
        <time>2010-01-01T03:43:36Z</time>
      </trkpt>
      <trkpt lat="32.52194100" lon="35.36638600">
        <ele>338.00000</ele>
        <time>2010-01-01T03:43:41Z</time>
      </trkpt>
      <trkpt lat="32.52197900" lon="35.36639000">
        <ele>338.00000</ele>
        <time>2010-01-01T03:43:42Z</time>
      </trkpt>
      <trkpt lat="32.52201300" lon="35.36638000">
        <ele>338.00000</ele>
        <time>2010-01-01T03:43:44Z</time>
      </trkpt>
      <trkpt lat="32.52212700" lon="35.36636400">
        <ele>339.00000</ele>
        <time>2010-01-01T03:43:48Z</time>
      </trkpt>
      <trkpt lat="32.52219100" lon="35.36636100">
        <ele>340.00000</ele>
        <time>2010-01-01T03:43:51Z</time>
      </trkpt>
      <trkpt lat="32.52220600" lon="35.36635600">
        <ele>340.00000</ele>
        <time>2010-01-01T03:43:51Z</time>
      </trkpt>
      <trkpt lat="32.52229400" lon="35.36633500">
        <ele>340.00000</ele>
        <time>2010-01-01T03:43:55Z</time>
      </trkpt>
      <trkpt lat="32.52230700" lon="35.36633400">
        <ele>340.00000</ele>
        <time>2010-01-01T03:43:56Z</time>
      </trkpt>
      <trkpt lat="32.52236500" lon="35.36623400">
        <ele>339.00000</ele>
        <time>2010-01-01T03:44:00Z</time>
      </trkpt>
      <trkpt lat="32.52243600" lon="35.36621000">
        <ele>339.00000</ele>
        <time>2010-01-01T03:44:03Z</time>
      </trkpt>
      <trkpt lat="32.52247800" lon="35.36621800">
        <ele>339.00000</ele>
        <time>2010-01-01T03:44:04Z</time>
      </trkpt>
      <trkpt lat="32.52259800" lon="35.36626600">
        <ele>341.00000</ele>
        <time>2010-01-01T03:44:09Z</time>
      </trkpt>
      <trkpt lat="32.52262000" lon="35.36628100">
        <ele>341.00000</ele>
        <time>2010-01-01T03:44:10Z</time>
      </trkpt>
      <trkpt lat="32.52269300" lon="35.36626600">
        <ele>342.00000</ele>
        <time>2010-01-01T03:44:13Z</time>
      </trkpt>
      <trkpt lat="32.52283400" lon="35.36619600">
        <ele>341.00000</ele>
        <time>2010-01-01T03:44:19Z</time>
      </trkpt>
      <trkpt lat="32.52289100" lon="35.36612500">
        <ele>341.00000</ele>
        <time>2010-01-01T03:44:23Z</time>
      </trkpt>
      <trkpt lat="32.52300800" lon="35.36606700">
        <ele>341.00000</ele>
        <time>2010-01-01T03:44:28Z</time>
      </trkpt>
      <trkpt lat="32.52305700" lon="35.36605700">
        <ele>341.00000</ele>
        <time>2010-01-01T03:44:30Z</time>
      </trkpt>
      <trkpt lat="32.52313000" lon="35.36603300">
        <ele>341.00000</ele>
        <time>2010-01-01T03:44:33Z</time>
      </trkpt>
      <trkpt lat="32.52323700" lon="35.36595000">
        <ele>341.00000</ele>
        <time>2010-01-01T03:44:38Z</time>
      </trkpt>
      <trkpt lat="32.52332700" lon="35.36586800">
        <ele>340.00000</ele>
        <time>2010-01-01T03:44:42Z</time>
      </trkpt>
      <trkpt lat="32.52339300" lon="35.36580500">
        <ele>340.00000</ele>
        <time>2010-01-01T03:44:46Z</time>
      </trkpt>
      <trkpt lat="32.52346000" lon="35.36573300">
        <ele>340.00000</ele>
        <time>2010-01-01T03:44:50Z</time>
      </trkpt>
      <trkpt lat="32.52347800" lon="35.36572900">
        <ele>340.00000</ele>
        <time>2010-01-01T03:44:50Z</time>
      </trkpt>
      <trkpt lat="32.52358900" lon="35.36572100">
        <ele>341.00000</ele>
        <time>2010-01-01T03:44:55Z</time>
      </trkpt>
      <trkpt lat="32.52370000" lon="35.36566600">
        <ele>341.00000</ele>
        <time>2010-01-01T03:45:00Z</time>
      </trkpt>
      <trkpt lat="32.52374200" lon="35.36563000">
        <ele>341.00000</ele>
        <time>2010-01-01T03:45:02Z</time>
      </trkpt>
      <trkpt lat="32.52387300" lon="35.36554000">
        <ele>341.00000</ele>
        <time>2010-01-01T03:45:08Z</time>
      </trkpt>
      <trkpt lat="32.52399500" lon="35.36546200">
        <ele>342.00000</ele>
        <time>2010-01-01T03:45:13Z</time>
      </trkpt>
      <trkpt lat="32.52405200" lon="35.36546500">
        <ele>342.00000</ele>
        <time>2010-01-01T03:45:15Z</time>
      </trkpt>
      <trkpt lat="32.52404700" lon="35.36549100">
        <ele>343.00000</ele>
        <time>2010-01-01T03:45:16Z</time>
      </trkpt>
      <trkpt lat="32.52394900" lon="35.36560900">
        <ele>343.00000</ele>
        <time>2010-01-01T03:45:22Z</time>
      </trkpt>
      <trkpt lat="32.52399500" lon="35.36567300">
        <ele>344.00000</ele>
        <time>2010-01-01T03:45:25Z</time>
      </trkpt>
      <trkpt lat="32.52401400" lon="35.36568100">
        <ele>344.00000</ele>
        <time>2010-01-01T03:45:26Z</time>
      </trkpt>
      <trkpt lat="32.52421000" lon="35.36577800">
        <ele>346.00000</ele>
        <time>2010-01-01T03:45:34Z</time>
      </trkpt>
      <trkpt lat="32.52434900" lon="35.36582500">
        <ele>345.00000</ele>
        <time>2010-01-01T03:45:40Z</time>
      </trkpt>
      <trkpt lat="32.52439600" lon="35.36582300">
        <ele>344.00000</ele>
        <time>2010-01-01T03:45:42Z</time>
      </trkpt>
      <trkpt lat="32.52450300" lon="35.36568900">
        <ele>343.00000</ele>
        <time>2010-01-01T03:45:48Z</time>
      </trkpt>
      <trkpt lat="32.52464700" lon="35.36555500">
        <ele>341.00000</ele>
        <time>2010-01-01T03:45:55Z</time>
      </trkpt>
      <trkpt lat="32.52478300" lon="35.36537600">
        <ele>339.00000</ele>
        <time>2010-01-01T03:46:03Z</time>
      </trkpt>
      <trkpt lat="32.52483600" lon="35.36525700">
        <ele>339.00000</ele>
        <time>2010-01-01T03:46:08Z</time>
      </trkpt>
      <trkpt lat="32.52485700" lon="35.36520400">
        <ele>339.00000</ele>
        <time>2010-01-01T03:46:10Z</time>
      </trkpt>
      <trkpt lat="32.52492600" lon="35.36502700">
        <ele>338.00000</ele>
        <time>2010-01-01T03:46:17Z</time>
      </trkpt>
      <trkpt lat="32.52500300" lon="35.36482300">
        <ele>337.00000</ele>
        <time>2010-01-01T03:46:24Z</time>
      </trkpt>
      <trkpt lat="32.52510600" lon="35.36459100">
        <ele>336.00000</ele>
        <time>2010-01-01T03:46:33Z</time>
      </trkpt>
      <trkpt lat="32.52519200" lon="35.36434000">
        <ele>335.00000</ele>
        <time>2010-01-01T03:46:42Z</time>
      </trkpt>
      <trkpt lat="32.52524800" lon="35.36422000">
        <ele>336.00000</ele>
        <time>2010-01-01T03:46:47Z</time>
      </trkpt>
      <trkpt lat="32.52526200" lon="35.36417200">
        <ele>336.00000</ele>
        <time>2010-01-01T03:46:48Z</time>
      </trkpt>
      <trkpt lat="32.52524100" lon="35.36401800">
        <ele>337.00000</ele>
        <time>2010-01-01T03:46:54Z</time>
      </trkpt>
      <trkpt lat="32.52525500" lon="35.36383900">
        <ele>338.00000</ele>
        <time>2010-01-01T03:47:00Z</time>
      </trkpt>
      <trkpt lat="32.52526900" lon="35.36374100">
        <ele>339.00000</ele>
        <time>2010-01-01T03:47:03Z</time>
      </trkpt>
      <trkpt lat="32.52527100" lon="35.36360900">
        <ele>341.00000</ele>
        <time>2010-01-01T03:47:08Z</time>
      </trkpt>
      <trkpt lat="32.52527400" lon="35.36344600">
        <ele>342.00000</ele>
        <time>2010-01-01T03:47:13Z</time>
      </trkpt>
      <trkpt lat="32.52524000" lon="35.36330700">
        <ele>343.00000</ele>
        <time>2010-01-01T03:47:18Z</time>
      </trkpt>
      <trkpt lat="32.52520200" lon="35.36320300">
        <ele>344.00000</ele>
        <time>2010-01-01T03:47:22Z</time>
      </trkpt>
      <trkpt lat="32.52514000" lon="35.36309700">
        <ele>345.00000</ele>
        <time>2010-01-01T03:47:26Z</time>
      </trkpt>
      <trkpt lat="32.52504000" lon="35.36305300">
        <ele>344.00000</ele>
        <time>2010-01-01T03:47:30Z</time>
      </trkpt>
      <trkpt lat="32.52499600" lon="35.36301100">
        <ele>344.00000</ele>
        <time>2010-01-01T03:47:33Z</time>
      </trkpt>
      <trkpt lat="32.52492200" lon="35.36294600">
        <ele>344.00000</ele>
        <time>2010-01-01T03:47:36Z</time>
      </trkpt>
      <trkpt lat="32.52491100" lon="35.36291200">
        <ele>345.00000</ele>
        <time>2010-01-01T03:47:38Z</time>
      </trkpt>
      <trkpt lat="32.52487200" lon="35.36286800">
        <ele>345.00000</ele>
        <time>2010-01-01T03:47:40Z</time>
      </trkpt>
      <trkpt lat="32.52484600" lon="35.36284500">
        <ele>345.00000</ele>
        <time>2010-01-01T03:47:41Z</time>
      </trkpt>
      <trkpt lat="32.52483700" lon="35.36285000">
        <ele>344.00000</ele>
        <time>2010-01-01T03:47:41Z</time>
      </trkpt>
      <trkpt lat="32.52477000" lon="35.36283700">
        <ele>344.00000</ele>
        <time>2010-01-01T03:47:44Z</time>
      </trkpt>
      <trkpt lat="32.52472300" lon="35.36283200">
        <ele>343.00000</ele>
        <time>2010-01-01T03:47:46Z</time>
      </trkpt>
      <trkpt lat="32.52463500" lon="35.36271800">
        <ele>344.00000</ele>
        <time>2010-01-01T03:47:51Z</time>
      </trkpt>
      <trkpt lat="32.52462900" lon="35.36270400">
        <ele>344.00000</ele>
        <time>2010-01-01T03:47:52Z</time>
      </trkpt>
      <trkpt lat="32.52461700" lon="35.36270300">
        <ele>344.00000</ele>
        <time>2010-01-01T03:47:52Z</time>
      </trkpt>
      <trkpt lat="32.52458400" lon="35.36266600">
        <ele>344.00000</ele>
        <time>2010-01-01T03:47:54Z</time>
      </trkpt>
      <trkpt lat="32.52455300" lon="35.36259500">
        <ele>344.00000</ele>
        <time>2010-01-01T03:47:57Z</time>
      </trkpt>
      <trkpt lat="32.52449700" lon="35.36250300">
        <ele>345.00000</ele>
        <time>2010-01-01T03:48:01Z</time>
      </trkpt>
      <trkpt lat="32.52447800" lon="35.36243800">
        <ele>346.00000</ele>
        <time>2010-01-01T03:48:03Z</time>
      </trkpt>
      <trkpt lat="32.52440100" lon="35.36236300">
        <ele>345.00000</ele>
        <time>2010-01-01T03:48:07Z</time>
      </trkpt>
      <trkpt lat="32.52435400" lon="35.36232000">
        <ele>345.00000</ele>
        <time>2010-01-01T03:48:09Z</time>
      </trkpt>
      <trkpt lat="32.52429100" lon="35.36217400">
        <ele>345.00000</ele>
        <time>2010-01-01T03:48:15Z</time>
      </trkpt>
      <trkpt lat="32.52425300" lon="35.36203000">
        <ele>346.00000</ele>
        <time>2010-01-01T03:48:20Z</time>
      </trkpt>
      <trkpt lat="32.52423000" lon="35.36188800">
        <ele>347.00000</ele>
        <time>2010-01-01T03:48:25Z</time>
      </trkpt>
      <trkpt lat="32.52415800" lon="35.36179800">
        <ele>346.00000</ele>
        <time>2010-01-01T03:48:29Z</time>
      </trkpt>
      <trkpt lat="32.52414800" lon="35.36169600">
        <ele>347.00000</ele>
        <time>2010-01-01T03:48:32Z</time>
      </trkpt>
      <trkpt lat="32.52414100" lon="35.36155200">
        <ele>348.00000</ele>
        <time>2010-01-01T03:48:37Z</time>
      </trkpt>
      <trkpt lat="32.52412200" lon="35.36141900">
        <ele>348.00000</ele>
        <time>2010-01-01T03:48:42Z</time>
      </trkpt>
      <trkpt lat="32.52412700" lon="35.36116400">
        <ele>349.00000</ele>
        <time>2010-01-01T03:48:51Z</time>
      </trkpt>
      <trkpt lat="32.52411000" lon="35.36095200">
        <ele>350.00000</ele>
        <time>2010-01-01T03:48:58Z</time>
      </trkpt>
      <trkpt lat="32.52407500" lon="35.36078400">
        <ele>349.00000</ele>
        <time>2010-01-01T03:49:04Z</time>
      </trkpt>
      <trkpt lat="32.52404500" lon="35.36063200">
        <ele>349.00000</ele>
        <time>2010-01-01T03:49:09Z</time>
      </trkpt>
      <trkpt lat="32.52403700" lon="35.36059600">
        <ele>349.00000</ele>
        <time>2010-01-01T03:49:10Z</time>
      </trkpt>
      <trkpt lat="32.52397400" lon="35.36035300">
        <ele>349.00000</ele>
        <time>2010-01-01T03:49:19Z</time>
      </trkpt>
      <trkpt lat="32.52391300" lon="35.36016800">
        <ele>348.00000</ele>
        <time>2010-01-01T03:49:25Z</time>
      </trkpt>
      <trkpt lat="32.52383300" lon="35.36000800">
        <ele>347.00000</ele>
        <time>2010-01-01T03:49:32Z</time>
      </trkpt>
      <trkpt lat="32.52373400" lon="35.35986600">
        <ele>346.00000</ele>
        <time>2010-01-01T03:49:38Z</time>
      </trkpt>
      <trkpt lat="32.52362800" lon="35.35974000">
        <ele>345.00000</ele>
        <time>2010-01-01T03:49:44Z</time>
      </trkpt>
      <trkpt lat="32.52348900" lon="35.35965700">
        <ele>343.00000</ele>
        <time>2010-01-01T03:49:50Z</time>
      </trkpt>
      <trkpt lat="32.52341700" lon="35.35958500">
        <ele>343.00000</ele>
        <time>2010-01-01T03:49:54Z</time>
      </trkpt>
      <trkpt lat="32.52328900" lon="35.35953600">
        <ele>341.00000</ele>
        <time>2010-01-01T03:49:59Z</time>
      </trkpt>
      <trkpt lat="32.52318300" lon="35.35952000">
        <ele>341.00000</ele>
        <time>2010-01-01T03:50:04Z</time>
      </trkpt>
      <trkpt lat="32.52301900" lon="35.35947200">
        <ele>340.00000</ele>
        <time>2010-01-01T03:50:10Z</time>
      </trkpt>
      <trkpt lat="32.52296200" lon="35.35949800">
        <ele>339.00000</ele>
        <time>2010-01-01T03:50:13Z</time>
      </trkpt>
      <trkpt lat="32.52285800" lon="35.35946700">
        <ele>339.00000</ele>
        <time>2010-01-01T03:50:17Z</time>
      </trkpt>
      <trkpt lat="32.52282500" lon="35.35945700">
        <ele>339.00000</ele>
        <time>2010-01-01T03:50:18Z</time>
      </trkpt>
      <trkpt lat="32.52278700" lon="35.35942800">
        <ele>339.00000</ele>
        <time>2010-01-01T03:50:20Z</time>
      </trkpt>
      <trkpt lat="32.52278300" lon="35.35938300">
        <ele>339.00000</ele>
        <time>2010-01-01T03:50:22Z</time>
      </trkpt>
      <trkpt lat="32.52278200" lon="35.35937700">
        <ele>339.00000</ele>
        <time>2010-01-01T03:50:22Z</time>
      </trkpt>
      <trkpt lat="32.52277700" lon="35.35936000">
        <ele>340.00000</ele>
        <time>2010-01-01T03:50:23Z</time>
      </trkpt>
      <trkpt lat="32.52276300" lon="35.35932800">
        <ele>340.00000</ele>
        <time>2010-01-01T03:50:24Z</time>
      </trkpt>
      <trkpt lat="32.52275200" lon="35.35932400">
        <ele>340.00000</ele>
        <time>2010-01-01T03:50:24Z</time>
      </trkpt>
      <trkpt lat="32.52268300" lon="35.35924400">
        <ele>341.00000</ele>
        <time>2010-01-01T03:50:28Z</time>
      </trkpt>
      <trkpt lat="32.52266400" lon="35.35924000">
        <ele>341.00000</ele>
        <time>2010-01-01T03:50:29Z</time>
      </trkpt>
      <trkpt lat="32.52261300" lon="35.35919400">
        <ele>341.00000</ele>
        <time>2010-01-01T03:50:31Z</time>
      </trkpt>
      <trkpt lat="32.52263500" lon="35.35914700">
        <ele>342.00000</ele>
        <time>2010-01-01T03:50:33Z</time>
      </trkpt>
      <trkpt lat="32.52268700" lon="35.35910600">
        <ele>342.00000</ele>
        <time>2010-01-01T03:50:36Z</time>
      </trkpt>
      <trkpt lat="32.52274200" lon="35.35902100">
        <ele>342.00000</ele>
        <time>2010-01-01T03:50:39Z</time>
      </trkpt>
      <trkpt lat="32.52268800" lon="35.35895300">
        <ele>342.00000</ele>
        <time>2010-01-01T03:50:43Z</time>
      </trkpt>
      <trkpt lat="32.52259100" lon="35.35894100">
        <ele>342.00000</ele>
        <time>2010-01-01T03:50:46Z</time>
      </trkpt>
      <trkpt lat="32.52253800" lon="35.35891600">
        <ele>342.00000</ele>
        <time>2010-01-01T03:50:49Z</time>
      </trkpt>
      <trkpt lat="32.52245300" lon="35.35879100">
        <ele>342.00000</ele>
        <time>2010-01-01T03:50:54Z</time>
      </trkpt>
      <trkpt lat="32.52239400" lon="35.35865500">
        <ele>342.00000</ele>
        <time>2010-01-01T03:50:59Z</time>
      </trkpt>
      <trkpt lat="32.52238400" lon="35.35851800">
        <ele>342.00000</ele>
        <time>2010-01-01T03:51:04Z</time>
      </trkpt>
      <trkpt lat="32.52232200" lon="35.35828900">
        <ele>342.00000</ele>
        <time>2010-01-01T03:51:12Z</time>
      </trkpt>
      <trkpt lat="32.52227700" lon="35.35805800">
        <ele>340.00000</ele>
        <time>2010-01-01T03:51:20Z</time>
      </trkpt>
      <trkpt lat="32.52231600" lon="35.35792800">
        <ele>339.00000</ele>
        <time>2010-01-01T03:51:25Z</time>
      </trkpt>
      <trkpt lat="32.52235500" lon="35.35793100">
        <ele>339.00000</ele>
        <time>2010-01-01T03:51:26Z</time>
      </trkpt>
      <trkpt lat="32.52236000" lon="35.35793300">
        <ele>339.00000</ele>
        <time>2010-01-01T03:51:26Z</time>
      </trkpt>
      <trkpt lat="32.52235400" lon="35.35797700">
        <ele>340.00000</ele>
        <time>2010-01-01T03:51:28Z</time>
      </trkpt>
      <trkpt lat="32.52234000" lon="35.35798200">
        <ele>340.00000</ele>
        <time>2010-01-01T03:51:29Z</time>
      </trkpt>
      <trkpt lat="32.52233500" lon="35.35797300">
        <ele>340.00000</ele>
        <time>2010-01-01T03:51:29Z</time>
      </trkpt>
      <trkpt lat="32.52234000" lon="35.35796700">
        <ele>340.00000</ele>
        <time>2010-01-01T03:51:29Z</time>
      </trkpt>
      <trkpt lat="32.52234000" lon="35.35795800">
        <ele>340.00000</ele>
        <time>2010-01-01T03:51:30Z</time>
      </trkpt>
      <trkpt lat="32.52230600" lon="35.35787200">
        <ele>339.00000</ele>
        <time>2010-01-01T03:51:33Z</time>
      </trkpt>
      <trkpt lat="32.52229200" lon="35.35778900">
        <ele>338.00000</ele>
        <time>2010-01-01T03:51:36Z</time>
      </trkpt>
      <trkpt lat="32.52228300" lon="35.35769200">
        <ele>338.00000</ele>
        <time>2010-01-01T03:51:39Z</time>
      </trkpt>
      <trkpt lat="32.52223300" lon="35.35748100">
        <ele>337.00000</ele>
        <time>2010-01-01T03:51:46Z</time>
      </trkpt>
      <trkpt lat="32.52215100" lon="35.35724300">
        <ele>335.00000</ele>
        <time>2010-01-01T03:51:55Z</time>
      </trkpt>
      <trkpt lat="32.52198800" lon="35.35689200">
        <ele>333.00000</ele>
        <time>2010-01-01T03:52:08Z</time>
      </trkpt>
      <trkpt lat="32.52187100" lon="35.35674200">
        <ele>334.00000</ele>
        <time>2010-01-01T03:52:15Z</time>
      </trkpt>
      <trkpt lat="32.52163600" lon="35.35625600">
        <ele>334.00000</ele>
        <time>2010-01-01T03:52:34Z</time>
      </trkpt>
      <trkpt lat="32.52155000" lon="35.35590000">
        <ele>331.00000</ele>
        <time>2010-01-01T03:52:47Z</time>
      </trkpt>
      <trkpt lat="32.52153900" lon="35.35586200">
        <ele>331.00000</ele>
        <time>2010-01-01T03:52:48Z</time>
      </trkpt>
      <trkpt lat="32.52148400" lon="35.35567600">
        <ele>330.00000</ele>
        <time>2010-01-01T03:52:55Z</time>
      </trkpt>
      <trkpt lat="32.52148400" lon="35.35566000">
        <ele>330.00000</ele>
        <time>2010-01-01T03:52:55Z</time>
      </trkpt>
      <trkpt lat="32.52150700" lon="35.35561200">
        <ele>330.00000</ele>
        <time>2010-01-01T03:52:57Z</time>
      </trkpt>
      <trkpt lat="32.52154500" lon="35.35548800">
        <ele>330.00000</ele>
        <time>2010-01-01T03:53:02Z</time>
      </trkpt>
      <trkpt lat="32.52156800" lon="35.35546900">
        <ele>330.00000</ele>
        <time>2010-01-01T03:53:03Z</time>
      </trkpt>
      <trkpt lat="32.52170500" lon="35.35526200">
        <ele>328.00000</ele>
        <time>2010-01-01T03:53:12Z</time>
      </trkpt>
      <trkpt lat="32.52172500" lon="35.35515100">
        <ele>327.00000</ele>
        <time>2010-01-01T03:53:15Z</time>
      </trkpt>
      <trkpt lat="32.52180000" lon="35.35500700">
        <ele>325.00000</ele>
        <time>2010-01-01T03:53:21Z</time>
      </trkpt>
      <trkpt lat="32.52191600" lon="35.35480200">
        <ele>323.00000</ele>
        <time>2010-01-01T03:53:30Z</time>
      </trkpt>
      <trkpt lat="32.52191900" lon="35.35478100">
        <ele>323.00000</ele>
        <time>2010-01-01T03:53:30Z</time>
      </trkpt>
      <trkpt lat="32.52196300" lon="35.35464500">
        <ele>322.00000</ele>
        <time>2010-01-01T03:53:35Z</time>
      </trkpt>
      <trkpt lat="32.52202500" lon="35.35446100">
        <ele>322.00000</ele>
        <time>2010-01-01T03:53:42Z</time>
      </trkpt>
      <trkpt lat="32.52208200" lon="35.35430600">
        <ele>321.00000</ele>
        <time>2010-01-01T03:53:48Z</time>
      </trkpt>
      <trkpt lat="32.52212500" lon="35.35411000">
        <ele>321.00000</ele>
        <time>2010-01-01T03:53:54Z</time>
      </trkpt>
      <trkpt lat="32.52219700" lon="35.35390700">
        <ele>319.00000</ele>
        <time>2010-01-01T03:54:02Z</time>
      </trkpt>
      <trkpt lat="32.52230600" lon="35.35359700">
        <ele>317.00000</ele>
        <time>2010-01-01T03:54:13Z</time>
      </trkpt>
      <trkpt lat="32.52232400" lon="35.35355000">
        <ele>317.00000</ele>
        <time>2010-01-01T03:54:15Z</time>
      </trkpt>
      <trkpt lat="32.52234900" lon="35.35344700">
        <ele>317.00000</ele>
        <time>2010-01-01T03:54:19Z</time>
      </trkpt>
      <trkpt lat="32.52237700" lon="35.35335300">
        <ele>317.00000</ele>
        <time>2010-01-01T03:54:22Z</time>
      </trkpt>
      <trkpt lat="32.52239500" lon="35.35309800">
        <ele>314.00000</ele>
        <time>2010-01-01T03:54:31Z</time>
      </trkpt>
      <trkpt lat="32.52238500" lon="35.35284000">
        <ele>312.00000</ele>
        <time>2010-01-01T03:54:39Z</time>
      </trkpt>
      <trkpt lat="32.52236900" lon="35.35270500">
        <ele>311.00000</ele>
        <time>2010-01-01T03:54:44Z</time>
      </trkpt>
      <trkpt lat="32.52229500" lon="35.35245500">
        <ele>310.00000</ele>
        <time>2010-01-01T03:54:53Z</time>
      </trkpt>
      <trkpt lat="32.52225300" lon="35.35233500">
        <ele>309.00000</ele>
        <time>2010-01-01T03:54:57Z</time>
      </trkpt>
      <trkpt lat="32.52222800" lon="35.35225500">
        <ele>308.00000</ele>
        <time>2010-01-01T03:55:00Z</time>
      </trkpt>
      <trkpt lat="32.52211200" lon="35.35195100">
        <ele>305.00000</ele>
        <time>2010-01-01T03:55:11Z</time>
      </trkpt>
      <trkpt lat="32.52206300" lon="35.35184200">
        <ele>305.00000</ele>
        <time>2010-01-01T03:55:15Z</time>
      </trkpt>
      <trkpt lat="32.52204100" lon="35.35156700">
        <ele>302.00000</ele>
        <time>2010-01-01T03:55:25Z</time>
      </trkpt>
      <trkpt lat="32.52202500" lon="35.35144500">
        <ele>302.00000</ele>
        <time>2010-01-01T03:55:29Z</time>
      </trkpt>
      <trkpt lat="32.52201000" lon="35.35123700">
        <ele>301.00000</ele>
        <time>2010-01-01T03:55:36Z</time>
      </trkpt>
      <trkpt lat="32.52199900" lon="35.35117400">
        <ele>300.00000</ele>
        <time>2010-01-01T03:55:38Z</time>
      </trkpt>
      <trkpt lat="32.52196500" lon="35.35101800">
        <ele>300.00000</ele>
        <time>2010-01-01T03:55:44Z</time>
      </trkpt>
      <trkpt lat="32.52197400" lon="35.35084300">
        <ele>299.00000</ele>
        <time>2010-01-01T03:55:50Z</time>
      </trkpt>
      <trkpt lat="32.52197600" lon="35.35068800">
        <ele>298.00000</ele>
        <time>2010-01-01T03:55:55Z</time>
      </trkpt>
      <trkpt lat="32.52196900" lon="35.35048300">
        <ele>296.00000</ele>
        <time>2010-01-01T03:56:02Z</time>
      </trkpt>
      <trkpt lat="32.52197800" lon="35.35034100">
        <ele>295.00000</ele>
        <time>2010-01-01T03:56:07Z</time>
      </trkpt>
      <trkpt lat="32.52195700" lon="35.35016000">
        <ele>294.00000</ele>
        <time>2010-01-01T03:56:13Z</time>
      </trkpt>
      <trkpt lat="32.52193800" lon="35.34997500">
        <ele>293.00000</ele>
        <time>2010-01-01T03:56:19Z</time>
      </trkpt>
      <trkpt lat="32.52192400" lon="35.34978900">
        <ele>292.00000</ele>
        <time>2010-01-01T03:56:25Z</time>
      </trkpt>
      <trkpt lat="32.52187800" lon="35.34954200">
        <ele>290.00000</ele>
        <time>2010-01-01T03:56:34Z</time>
      </trkpt>
      <trkpt lat="32.52183100" lon="35.34936500">
        <ele>290.00000</ele>
        <time>2010-01-01T03:56:40Z</time>
      </trkpt>
      <trkpt lat="32.52173700" lon="35.34908700">
        <ele>291.00000</ele>
        <time>2010-01-01T03:56:50Z</time>
      </trkpt>
      <trkpt lat="32.52168400" lon="35.34893600">
        <ele>292.00000</ele>
        <time>2010-01-01T03:56:56Z</time>
      </trkpt>
      <trkpt lat="32.52163900" lon="35.34861200">
        <ele>291.00000</ele>
        <time>2010-01-01T03:57:07Z</time>
      </trkpt>
      <trkpt lat="32.52162900" lon="35.34835600">
        <ele>289.00000</ele>
        <time>2010-01-01T03:57:15Z</time>
      </trkpt>
      <trkpt lat="32.52169400" lon="35.34807300">
        <ele>289.00000</ele>
        <time>2010-01-01T03:57:25Z</time>
      </trkpt>
      <trkpt lat="32.52175900" lon="35.34788600">
        <ele>287.00000</ele>
        <time>2010-01-01T03:57:32Z</time>
      </trkpt>
      <trkpt lat="32.52181600" lon="35.34777800">
        <ele>285.00000</ele>
        <time>2010-01-01T03:57:36Z</time>
      </trkpt>
      <trkpt lat="32.52182900" lon="35.34773500">
        <ele>285.00000</ele>
        <time>2010-01-01T03:57:38Z</time>
      </trkpt>
      <trkpt lat="32.52186600" lon="35.34765200">
        <ele>284.00000</ele>
        <time>2010-01-01T03:57:41Z</time>
      </trkpt>
      <trkpt lat="32.52194000" lon="35.34748200">
        <ele>282.00000</ele>
        <time>2010-01-01T03:57:48Z</time>
      </trkpt>
      <trkpt lat="32.52199200" lon="35.34729800">
        <ele>280.00000</ele>
        <time>2010-01-01T03:57:54Z</time>
      </trkpt>
      <trkpt lat="32.52206600" lon="35.34703100">
        <ele>278.00000</ele>
        <time>2010-01-01T03:58:04Z</time>
      </trkpt>
      <trkpt lat="32.52217600" lon="35.34680900">
        <ele>274.00000</ele>
        <time>2010-01-01T03:58:12Z</time>
      </trkpt>
      <trkpt lat="32.52225200" lon="35.34659000">
        <ele>272.00000</ele>
        <time>2010-01-01T03:58:20Z</time>
      </trkpt>
      <trkpt lat="32.52228900" lon="35.34636400">
        <ele>271.00000</ele>
        <time>2010-01-01T03:58:28Z</time>
      </trkpt>
      <trkpt lat="32.52236100" lon="35.34614500">
        <ele>268.00000</ele>
        <time>2010-01-01T03:58:36Z</time>
      </trkpt>
      <trkpt lat="32.52237200" lon="35.34611600">
        <ele>268.00000</ele>
        <time>2010-01-01T03:58:37Z</time>
      </trkpt>
      <trkpt lat="32.52239000" lon="35.34595500">
        <ele>268.00000</ele>
        <time>2010-01-01T03:58:43Z</time>
      </trkpt>
      <trkpt lat="32.52241300" lon="35.34579900">
        <ele>267.00000</ele>
        <time>2010-01-01T03:58:48Z</time>
      </trkpt>
      <trkpt lat="32.52245400" lon="35.34557700">
        <ele>265.00000</ele>
        <time>2010-01-01T03:58:56Z</time>
      </trkpt>
      <trkpt lat="32.52247000" lon="35.34542700">
        <ele>264.00000</ele>
        <time>2010-01-01T03:59:01Z</time>
      </trkpt>
      <trkpt lat="32.52249300" lon="35.34530500">
        <ele>263.00000</ele>
        <time>2010-01-01T03:59:05Z</time>
      </trkpt>
      <trkpt lat="32.52248400" lon="35.34525000">
        <ele>263.00000</ele>
        <time>2010-01-01T03:59:07Z</time>
      </trkpt>
      <trkpt lat="32.52246700" lon="35.34528000">
        <ele>263.00000</ele>
        <time>2010-01-01T03:59:08Z</time>
      </trkpt>
      <trkpt lat="32.52249600" lon="35.34510200">
        <ele>262.00000</ele>
        <time>2010-01-01T03:59:14Z</time>
      </trkpt>
      <trkpt lat="32.52254200" lon="35.34494900">
        <ele>260.00000</ele>
        <time>2010-01-01T03:59:20Z</time>
      </trkpt>
      <trkpt lat="32.52250700" lon="35.34481300">
        <ele>259.00000</ele>
        <time>2010-01-01T03:59:24Z</time>
      </trkpt>
      <trkpt lat="32.52244200" lon="35.34464400">
        <ele>258.00000</ele>
        <time>2010-01-01T03:59:31Z</time>
      </trkpt>
      <trkpt lat="32.52242600" lon="35.34462000">
        <ele>258.00000</ele>
        <time>2010-01-01T03:59:32Z</time>
      </trkpt>
      <trkpt lat="32.52228200" lon="35.34442700">
        <ele>258.00000</ele>
        <time>2010-01-01T03:59:40Z</time>
      </trkpt>
      <trkpt lat="32.52218800" lon="35.34427700">
        <ele>256.00000</ele>
        <time>2010-01-01T03:59:47Z</time>
      </trkpt>
      <trkpt lat="32.52203500" lon="35.34414800">
        <ele>256.00000</ele>
        <time>2010-01-01T03:59:54Z</time>
      </trkpt>
      <trkpt lat="32.52193700" lon="35.34402300">
        <ele>254.00000</ele>
        <time>2010-01-01T04:00:00Z</time>
      </trkpt>
      <trkpt lat="32.52184200" lon="35.34393500">
        <ele>253.00000</ele>
        <time>2010-01-01T04:00:05Z</time>
      </trkpt>
      <trkpt lat="32.52167800" lon="35.34376200">
        <ele>251.00000</ele>
        <time>2010-01-01T04:00:14Z</time>
      </trkpt>
      <trkpt lat="32.52161800" lon="35.34365800">
        <ele>249.00000</ele>
        <time>2010-01-01T04:00:18Z</time>
      </trkpt>
      <trkpt lat="32.52151700" lon="35.34344200">
        <ele>244.00000</ele>
        <time>2010-01-01T04:00:26Z</time>
      </trkpt>
      <trkpt lat="32.52144600" lon="35.34326800">
        <ele>241.00000</ele>
        <time>2010-01-01T04:00:33Z</time>
      </trkpt>
      <trkpt lat="32.52142400" lon="35.34312400">
        <ele>239.00000</ele>
        <time>2010-01-01T04:00:38Z</time>
      </trkpt>
      <trkpt lat="32.52148400" lon="35.34307100">
        <ele>237.00000</ele>
        <time>2010-01-01T04:00:41Z</time>
      </trkpt>
      <trkpt lat="32.52150100" lon="35.34306100">
        <ele>237.00000</ele>
        <time>2010-01-01T04:00:41Z</time>
      </trkpt>
      <trkpt lat="32.52157100" lon="35.34301000">
        <ele>236.00000</ele>
        <time>2010-01-01T04:00:45Z</time>
      </trkpt>
      <trkpt lat="32.52160900" lon="35.34288100">
        <ele>234.00000</ele>
        <time>2010-01-01T04:00:49Z</time>
      </trkpt>
      <trkpt lat="32.52165900" lon="35.34269000">
        <ele>231.00000</ele>
        <time>2010-01-01T04:00:56Z</time>
      </trkpt>
      <trkpt lat="32.52165300" lon="35.34266500">
        <ele>231.00000</ele>
        <time>2010-01-01T04:00:57Z</time>
      </trkpt>
      <trkpt lat="32.52165200" lon="35.34265100">
        <ele>230.00000</ele>
        <time>2010-01-01T04:00:57Z</time>
      </trkpt>
      <trkpt lat="32.52164900" lon="35.34262600">
        <ele>230.00000</ele>
        <time>2010-01-01T04:00:58Z</time>
      </trkpt>
      <trkpt lat="32.52165000" lon="35.34258600">
        <ele>229.00000</ele>
        <time>2010-01-01T04:01:00Z</time>
      </trkpt>
      <trkpt lat="32.52164300" lon="35.34256900">
        <ele>229.00000</ele>
        <time>2010-01-01T04:01:00Z</time>
      </trkpt>
      <trkpt lat="32.52163800" lon="35.34255200">
        <ele>229.00000</ele>
        <time>2010-01-01T04:01:01Z</time>
      </trkpt>
      <trkpt lat="32.52162200" lon="35.34251700">
        <ele>228.00000</ele>
        <time>2010-01-01T04:01:02Z</time>
      </trkpt>
      <trkpt lat="32.52157900" lon="35.34242000">
        <ele>227.00000</ele>
        <time>2010-01-01T04:01:06Z</time>
      </trkpt>
      <trkpt lat="32.52158500" lon="35.34223400">
        <ele>225.00000</ele>
        <time>2010-01-01T04:01:12Z</time>
      </trkpt>
      <trkpt lat="32.52169200" lon="35.34199700">
        <ele>224.00000</ele>
        <time>2010-01-01T04:01:21Z</time>
      </trkpt>
      <trkpt lat="32.52186400" lon="35.34184800">
        <ele>221.00000</ele>
        <time>2010-01-01T04:01:30Z</time>
      </trkpt>
      <trkpt lat="32.52204200" lon="35.34167100">
        <ele>218.00000</ele>
        <time>2010-01-01T04:01:39Z</time>
      </trkpt>
      <trkpt lat="32.52207200" lon="35.34148800">
        <ele>218.00000</ele>
        <time>2010-01-01T04:01:45Z</time>
      </trkpt>
      <trkpt lat="32.52203700" lon="35.34140700">
        <ele>218.00000</ele>
        <time>2010-01-01T04:01:49Z</time>
      </trkpt>
      <trkpt lat="32.52203300" lon="35.34140700">
        <ele>218.00000</ele>
        <time>2010-01-01T04:01:49Z</time>
      </trkpt>
      <trkpt lat="32.52203300" lon="35.34131800">
        <ele>218.00000</ele>
        <time>2010-01-01T04:01:52Z</time>
      </trkpt>
      <trkpt lat="32.52203200" lon="35.34109800">
        <ele>218.00000</ele>
        <time>2010-01-01T04:01:59Z</time>
      </trkpt>
      <trkpt lat="32.52192400" lon="35.34104400">
        <ele>218.00000</ele>
        <time>2010-01-01T04:02:04Z</time>
      </trkpt>
      <trkpt lat="32.52188300" lon="35.34103600">
        <ele>218.00000</ele>
        <time>2010-01-01T04:02:05Z</time>
      </trkpt>
      <trkpt lat="32.52178200" lon="35.34086700">
        <ele>218.00000</ele>
        <time>2010-01-01T04:02:12Z</time>
      </trkpt>
      <trkpt lat="32.52182200" lon="35.34070300">
        <ele>218.00000</ele>
        <time>2010-01-01T04:02:18Z</time>
      </trkpt>
      <trkpt lat="32.52184300" lon="35.34050500">
        <ele>218.00000</ele>
        <time>2010-01-01T04:02:25Z</time>
      </trkpt>
      <trkpt lat="32.52186000" lon="35.34032000">
        <ele>218.00000</ele>
        <time>2010-01-01T04:02:31Z</time>
      </trkpt>
      <trkpt lat="32.52189200" lon="35.34006400">
        <ele>218.00000</ele>
        <time>2010-01-01T04:02:40Z</time>
      </trkpt>
      <trkpt lat="32.52190200" lon="35.33988700">
        <ele>218.00000</ele>
        <time>2010-01-01T04:02:46Z</time>
      </trkpt>
      <trkpt lat="32.52189900" lon="35.33960400">
        <ele>217.00000</ele>
        <time>2010-01-01T04:02:55Z</time>
      </trkpt>
      <trkpt lat="32.52194100" lon="35.33936400">
        <ele>217.00000</ele>
        <time>2010-01-01T04:03:04Z</time>
      </trkpt>
      <trkpt lat="32.52198600" lon="35.33926700">
        <ele>216.00000</ele>
        <time>2010-01-01T04:03:08Z</time>
      </trkpt>
      <trkpt lat="32.52213900" lon="35.33889900">
        <ele>212.00000</ele>
        <time>2010-01-01T04:03:21Z</time>
      </trkpt>
      <trkpt lat="32.52224800" lon="35.33864900">
        <ele>209.00000</ele>
        <time>2010-01-01T04:03:31Z</time>
      </trkpt>
      <trkpt lat="32.52230800" lon="35.33850100">
        <ele>207.00000</ele>
        <time>2010-01-01T04:03:36Z</time>
      </trkpt>
      <trkpt lat="32.52241800" lon="35.33829500">
        <ele>204.00000</ele>
        <time>2010-01-01T04:03:45Z</time>
      </trkpt>
      <trkpt lat="32.52248400" lon="35.33819000">
        <ele>202.00000</ele>
        <time>2010-01-01T04:03:49Z</time>
      </trkpt>
      <trkpt lat="32.52259500" lon="35.33801700">
        <ele>197.00000</ele>
        <time>2010-01-01T04:03:56Z</time>
      </trkpt>
      <trkpt lat="32.52262100" lon="35.33784100">
        <ele>194.00000</ele>
        <time>2010-01-01T04:04:02Z</time>
      </trkpt>
      <trkpt lat="32.52257100" lon="35.33773600">
        <ele>192.00000</ele>
        <time>2010-01-01T04:04:06Z</time>
      </trkpt>
      <trkpt lat="32.52245400" lon="35.33760000">
        <ele>191.00000</ele>
        <time>2010-01-01T04:04:13Z</time>
      </trkpt>
      <trkpt lat="32.52239700" lon="35.33756100">
        <ele>189.00000</ele>
        <time>2010-01-01T04:04:16Z</time>
      </trkpt>
      <trkpt lat="32.52223400" lon="35.33747900">
        <ele>187.00000</ele>
        <time>2010-01-01T04:04:23Z</time>
      </trkpt>
      <trkpt lat="32.52219900" lon="35.33746500">
        <ele>186.00000</ele>
        <time>2010-01-01T04:04:24Z</time>
      </trkpt>
      <trkpt lat="32.52206600" lon="35.33731500">
        <ele>182.00000</ele>
        <time>2010-01-01T04:04:32Z</time>
      </trkpt>
      <trkpt lat="32.52206400" lon="35.33729200">
        <ele>182.00000</ele>
        <time>2010-01-01T04:04:32Z</time>
      </trkpt>
      <trkpt lat="32.52196900" lon="35.33718100">
        <ele>179.00000</ele>
        <time>2010-01-01T04:04:38Z</time>
      </trkpt>
      <trkpt lat="32.52193800" lon="35.33716200">
        <ele>178.00000</ele>
        <time>2010-01-01T04:04:39Z</time>
      </trkpt>
      <trkpt lat="32.52170600" lon="35.33702700">
        <ele>174.00000</ele>
        <time>2010-01-01T04:04:49Z</time>
      </trkpt>
      <trkpt lat="32.52160000" lon="35.33699100">
        <ele>172.00000</ele>
        <time>2010-01-01T04:04:54Z</time>
      </trkpt>
      <trkpt lat="32.52160300" lon="35.33686000">
        <ele>170.00000</ele>
        <time>2010-01-01T04:04:58Z</time>
      </trkpt>
      <trkpt lat="32.52171700" lon="35.33674700">
        <ele>169.00000</ele>
        <time>2010-01-01T04:05:04Z</time>
      </trkpt>
      <trkpt lat="32.52181700" lon="35.33665700">
        <ele>167.00000</ele>
        <time>2010-01-01T04:05:09Z</time>
      </trkpt>
      <trkpt lat="32.52198500" lon="35.33653800">
        <ele>166.00000</ele>
        <time>2010-01-01T04:05:17Z</time>
      </trkpt>
      <trkpt lat="32.52225300" lon="35.33638900">
        <ele>164.00000</ele>
        <time>2010-01-01T04:05:29Z</time>
      </trkpt>
      <trkpt lat="32.52261900" lon="35.33628000">
        <ele>162.00000</ele>
        <time>2010-01-01T04:05:44Z</time>
      </trkpt>
      <trkpt lat="32.52308200" lon="35.33622100">
        <ele>158.00000</ele>
        <time>2010-01-01T04:06:03Z</time>
      </trkpt>
      <trkpt lat="32.52347400" lon="35.33619600">
        <ele>155.00000</ele>
        <time>2010-01-01T04:06:18Z</time>
      </trkpt>
      <trkpt lat="32.52369100" lon="35.33619000">
        <ele>154.00000</ele>
        <time>2010-01-01T04:06:27Z</time>
      </trkpt>
      <trkpt lat="32.52372400" lon="35.33621000">
        <ele>154.00000</ele>
        <time>2010-01-01T04:06:29Z</time>
      </trkpt>
      <trkpt lat="32.52375800" lon="35.33620600">
        <ele>154.00000</ele>
        <time>2010-01-01T04:06:30Z</time>
      </trkpt>
      <trkpt lat="32.52378900" lon="35.33617100">
        <ele>153.00000</ele>
        <time>2010-01-01T04:06:32Z</time>
      </trkpt>
      <trkpt lat="32.52379300" lon="35.33617400">
        <ele>153.00000</ele>
        <time>2010-01-01T04:06:32Z</time>
      </trkpt>
      <trkpt lat="32.52387200" lon="35.33619300">
        <ele>153.00000</ele>
        <time>2010-01-01T04:06:35Z</time>
      </trkpt>
      <trkpt lat="32.52399500" lon="35.33626000">
        <ele>153.00000</ele>
        <time>2010-01-01T04:06:40Z</time>
      </trkpt>
      <trkpt lat="32.52411100" lon="35.33617600">
        <ele>152.00000</ele>
        <time>2010-01-01T04:06:46Z</time>
      </trkpt>
      <trkpt lat="32.52412400" lon="35.33609400">
        <ele>151.00000</ele>
        <time>2010-01-01T04:06:49Z</time>
      </trkpt>
      <trkpt lat="32.52412500" lon="35.33570300">
        <ele>150.00000</ele>
        <time>2010-01-01T04:07:02Z</time>
      </trkpt>
      <trkpt lat="32.52411500" lon="35.33530000">
        <ele>150.00000</ele>
        <time>2010-01-01T04:07:16Z</time>
      </trkpt>
      <trkpt lat="32.52407700" lon="35.33494600">
        <ele>149.00000</ele>
        <time>2010-01-01T04:07:28Z</time>
      </trkpt>
      <trkpt lat="32.52400500" lon="35.33471900">
        <ele>149.00000</ele>
        <time>2010-01-01T04:07:36Z</time>
      </trkpt>
      <trkpt lat="32.52390200" lon="35.33438000">
        <ele>149.00000</ele>
        <time>2010-01-01T04:07:48Z</time>
      </trkpt>
      <trkpt lat="32.52378600" lon="35.33408200">
        <ele>149.00000</ele>
        <time>2010-01-01T04:07:59Z</time>
      </trkpt>
      <trkpt lat="32.52375200" lon="35.33399300">
        <ele>148.00000</ele>
        <time>2010-01-01T04:08:02Z</time>
      </trkpt>
      <trkpt lat="32.52353400" lon="35.33368900">
        <ele>146.00000</ele>
        <time>2010-01-01T04:08:16Z</time>
      </trkpt>
      <trkpt lat="32.52328600" lon="35.33344900">
        <ele>144.00000</ele>
        <time>2010-01-01T04:08:29Z</time>
      </trkpt>
      <trkpt lat="32.52317500" lon="35.33332700">
        <ele>143.00000</ele>
        <time>2010-01-01T04:08:35Z</time>
      </trkpt>
      <trkpt lat="32.52303500" lon="35.33301400">
        <ele>142.00000</ele>
        <time>2010-01-01T04:08:47Z</time>
      </trkpt>
      <trkpt lat="32.52303600" lon="35.33265900">
        <ele>142.00000</ele>
        <time>2010-01-01T04:08:59Z</time>
      </trkpt>
      <trkpt lat="32.52316500" lon="35.33221900">
        <ele>142.00000</ele>
        <time>2010-01-01T04:09:14Z</time>
      </trkpt>
      <trkpt lat="32.52333700" lon="35.33195800">
        <ele>142.00000</ele>
        <time>2010-01-01T04:09:26Z</time>
      </trkpt>
      <trkpt lat="32.52345300" lon="35.33184300">
        <ele>143.00000</ele>
        <time>2010-01-01T04:09:32Z</time>
      </trkpt>
      <trkpt lat="32.52353800" lon="35.33172600">
        <ele>144.00000</ele>
        <time>2010-01-01T04:09:37Z</time>
      </trkpt>
      <trkpt lat="32.52360800" lon="35.33166100">
        <ele>144.00000</ele>
        <time>2010-01-01T04:09:40Z</time>
      </trkpt>
      <trkpt lat="32.52366700" lon="35.33159800">
        <ele>145.00000</ele>
        <time>2010-01-01T04:09:44Z</time>
      </trkpt>
      <trkpt lat="32.52375300" lon="35.33151700">
        <ele>146.00000</ele>
        <time>2010-01-01T04:09:48Z</time>
      </trkpt>
      <trkpt lat="32.52385600" lon="35.33133500">
        <ele>146.00000</ele>
        <time>2010-01-01T04:09:55Z</time>
      </trkpt>
      <trkpt lat="32.52397500" lon="35.33101100">
        <ele>146.00000</ele>
        <time>2010-01-01T04:10:07Z</time>
      </trkpt>
      <trkpt lat="32.52403300" lon="35.33068800">
        <ele>145.00000</ele>
        <time>2010-01-01T04:10:18Z</time>
      </trkpt>
      <trkpt lat="32.52402300" lon="35.33037000">
        <ele>143.00000</ele>
        <time>2010-01-01T04:10:29Z</time>
      </trkpt>
      <trkpt lat="32.52393700" lon="35.33000100">
        <ele>141.00000</ele>
        <time>2010-01-01T04:10:42Z</time>
      </trkpt>
      <trkpt lat="32.52391000" lon="35.32986700">
        <ele>140.00000</ele>
        <time>2010-01-01T04:10:47Z</time>
      </trkpt>
      <trkpt lat="32.52391900" lon="35.32952200">
        <ele>140.00000</ele>
        <time>2010-01-01T04:10:58Z</time>
      </trkpt>
      <trkpt lat="32.52393900" lon="35.32938600">
        <ele>140.00000</ele>
        <time>2010-01-01T04:11:03Z</time>
      </trkpt>
      <trkpt lat="32.52406200" lon="35.32900300">
        <ele>140.00000</ele>
        <time>2010-01-01T04:11:17Z</time>
      </trkpt>
      <trkpt lat="32.52410900" lon="35.32879900">
        <ele>140.00000</ele>
        <time>2010-01-01T04:11:24Z</time>
      </trkpt>
      <trkpt lat="32.52412500" lon="35.32843700">
        <ele>139.00000</ele>
        <time>2010-01-01T04:11:36Z</time>
      </trkpt>
      <trkpt lat="32.52415700" lon="35.32807000">
        <ele>137.00000</ele>
        <time>2010-01-01T04:11:49Z</time>
      </trkpt>
      <trkpt lat="32.52428200" lon="35.32795700">
        <ele>137.00000</ele>
        <time>2010-01-01T04:11:55Z</time>
      </trkpt>
      <trkpt lat="32.52444100" lon="35.32790000">
        <ele>137.00000</ele>
        <time>2010-01-01T04:12:02Z</time>
      </trkpt>
      <trkpt lat="32.52448000" lon="35.32788700">
        <ele>137.00000</ele>
        <time>2010-01-01T04:12:03Z</time>
      </trkpt>
      <trkpt lat="32.52455300" lon="35.32787300">
        <ele>138.00000</ele>
        <time>2010-01-01T04:12:06Z</time>
      </trkpt>
      <trkpt lat="32.52469300" lon="35.32792800">
        <ele>139.00000</ele>
        <time>2010-01-01T04:12:12Z</time>
      </trkpt>
      <trkpt lat="32.52484900" lon="35.32803500">
        <ele>141.00000</ele>
        <time>2010-01-01T04:12:19Z</time>
      </trkpt>
      <trkpt lat="32.52487800" lon="35.32805800">
        <ele>141.00000</ele>
        <time>2010-01-01T04:12:21Z</time>
      </trkpt>
      <trkpt lat="32.52495400" lon="35.32812800">
        <ele>142.00000</ele>
        <time>2010-01-01T04:12:25Z</time>
      </trkpt>
      <trkpt lat="32.52499900" lon="35.32817200">
        <ele>143.00000</ele>
        <time>2010-01-01T04:12:27Z</time>
      </trkpt>
      <trkpt lat="32.52502100" lon="35.32819400">
        <ele>143.00000</ele>
        <time>2010-01-01T04:12:28Z</time>
      </trkpt>
      <trkpt lat="32.52508500" lon="35.32826100">
        <ele>143.00000</ele>
        <time>2010-01-01T04:12:31Z</time>
      </trkpt>
      <trkpt lat="32.52515700" lon="35.32837200">
        <ele>143.00000</ele>
        <time>2010-01-01T04:12:36Z</time>
      </trkpt>
      <trkpt lat="32.52518600" lon="35.32851000">
        <ele>144.00000</ele>
        <time>2010-01-01T04:12:41Z</time>
      </trkpt>
      <trkpt lat="32.52521500" lon="35.32882500">
        <ele>145.00000</ele>
        <time>2010-01-01T04:12:52Z</time>
      </trkpt>
      <trkpt lat="32.52533200" lon="35.32909100">
        <ele>145.00000</ele>
        <time>2010-01-01T04:13:02Z</time>
      </trkpt>
      <trkpt lat="32.52547900" lon="35.32924900">
        <ele>145.00000</ele>
        <time>2010-01-01T04:13:10Z</time>
      </trkpt>
      <trkpt lat="32.52561200" lon="35.32939700">
        <ele>144.00000</ele>
        <time>2010-01-01T04:13:17Z</time>
      </trkpt>
      <trkpt lat="32.52567800" lon="35.32965100">
        <ele>145.00000</ele>
        <time>2010-01-01T04:13:26Z</time>
      </trkpt>
      <trkpt lat="32.52577100" lon="35.32987000">
        <ele>145.00000</ele>
        <time>2010-01-01T04:13:34Z</time>
      </trkpt>
      <trkpt lat="32.52589000" lon="35.33001800">
        <ele>145.00000</ele>
        <time>2010-01-01T04:13:41Z</time>
      </trkpt>
      <trkpt lat="32.52589700" lon="35.33002800">
        <ele>146.00000</ele>
        <time>2010-01-01T04:13:42Z</time>
      </trkpt>
      <trkpt lat="32.52588900" lon="35.33002100">
        <ele>146.00000</ele>
        <time>2010-01-01T04:13:42Z</time>
      </trkpt>
      <trkpt lat="32.52583000" lon="35.32990800">
        <ele>146.00000</ele>
        <time>2010-01-01T04:13:47Z</time>
      </trkpt>
      <trkpt lat="32.52576100" lon="35.32972900">
        <ele>145.00000</ele>
        <time>2010-01-01T04:13:53Z</time>
      </trkpt>
      <trkpt lat="32.52572300" lon="35.32954200">
        <ele>144.00000</ele>
        <time>2010-01-01T04:14:00Z</time>
      </trkpt>
      <trkpt lat="32.52572200" lon="35.32949500">
        <ele>144.00000</ele>
        <time>2010-01-01T04:14:01Z</time>
      </trkpt>
      <trkpt lat="32.52579400" lon="35.32945900">
        <ele>144.00000</ele>
        <time>2010-01-01T04:14:04Z</time>
      </trkpt>
      <trkpt lat="32.52594700" lon="35.32947100">
        <ele>142.00000</ele>
        <time>2010-01-01T04:14:10Z</time>
      </trkpt>
      <trkpt lat="32.52612800" lon="35.32949500">
        <ele>140.00000</ele>
        <time>2010-01-01T04:14:18Z</time>
      </trkpt>
      <trkpt lat="32.52626400" lon="35.32961000">
        <ele>139.00000</ele>
        <time>2010-01-01T04:14:24Z</time>
      </trkpt>
      <trkpt lat="32.52649800" lon="35.32983100">
        <ele>137.00000</ele>
        <time>2010-01-01T04:14:36Z</time>
      </trkpt>
      <trkpt lat="32.52663800" lon="35.32989900">
        <ele>136.00000</ele>
        <time>2010-01-01T04:14:43Z</time>
      </trkpt>
      <trkpt lat="32.52694900" lon="35.32991500">
        <ele>133.00000</ele>
        <time>2010-01-01T04:14:55Z</time>
      </trkpt>
      <trkpt lat="32.52717000" lon="35.32989800">
        <ele>131.00000</ele>
        <time>2010-01-01T04:15:04Z</time>
      </trkpt>
      <trkpt lat="32.52731200" lon="35.32991300">
        <ele>130.00000</ele>
        <time>2010-01-01T04:15:10Z</time>
      </trkpt>
      <trkpt lat="32.52747700" lon="35.32997200">
        <ele>129.00000</ele>
        <time>2010-01-01T04:15:16Z</time>
      </trkpt>
      <trkpt lat="32.52763300" lon="35.32990500">
        <ele>129.00000</ele>
        <time>2010-01-01T04:15:23Z</time>
      </trkpt>
      <trkpt lat="32.52766800" lon="35.32979500">
        <ele>129.00000</ele>
        <time>2010-01-01T04:15:27Z</time>
      </trkpt>
      <trkpt lat="32.52784900" lon="35.32931900">
        <ele>126.00000</ele>
        <time>2010-01-01T04:15:45Z</time>
      </trkpt>
      <trkpt lat="32.52802700" lon="35.32888800">
        <ele>123.00000</ele>
        <time>2010-01-01T04:16:01Z</time>
      </trkpt>
      <trkpt lat="32.52817800" lon="35.32846600">
        <ele>120.00000</ele>
        <time>2010-01-01T04:16:16Z</time>
      </trkpt>
      <trkpt lat="32.52843500" lon="35.32805000">
        <ele>118.00000</ele>
        <time>2010-01-01T04:16:34Z</time>
      </trkpt>
      <trkpt lat="32.52870800" lon="35.32762600">
        <ele>118.00000</ele>
        <time>2010-01-01T04:16:52Z</time>
      </trkpt>
      <trkpt lat="32.52877200" lon="35.32753100">
        <ele>117.00000</ele>
        <time>2010-01-01T04:16:56Z</time>
      </trkpt>
      <trkpt lat="32.52904200" lon="35.32728300">
        <ele>117.00000</ele>
        <time>2010-01-01T04:17:10Z</time>
      </trkpt>
      <trkpt lat="32.52912800" lon="35.32716900">
        <ele>117.00000</ele>
        <time>2010-01-01T04:17:15Z</time>
      </trkpt>
      <trkpt lat="32.52922300" lon="35.32697900">
        <ele>115.00000</ele>
        <time>2010-01-01T04:17:22Z</time>
      </trkpt>
      <trkpt lat="32.52944400" lon="35.32668000">
        <ele>113.00000</ele>
        <time>2010-01-01T04:17:36Z</time>
      </trkpt>
      <trkpt lat="32.52966000" lon="35.32655800">
        <ele>114.00000</ele>
        <time>2010-01-01T04:17:45Z</time>
      </trkpt>
      <trkpt lat="32.52970000" lon="35.32655200">
        <ele>114.00000</ele>
        <time>2010-01-01T04:17:47Z</time>
      </trkpt>
      <trkpt lat="32.52977500" lon="35.32654500">
        <ele>114.00000</ele>
        <time>2010-01-01T04:17:50Z</time>
      </trkpt>
      <trkpt lat="32.52987600" lon="35.32655500">
        <ele>115.00000</ele>
        <time>2010-01-01T04:17:54Z</time>
      </trkpt>
      <trkpt lat="32.52994200" lon="35.32657100">
        <ele>115.00000</ele>
        <time>2010-01-01T04:17:57Z</time>
      </trkpt>
      <trkpt lat="32.52997900" lon="35.32659100">
        <ele>116.00000</ele>
        <time>2010-01-01T04:17:58Z</time>
      </trkpt>
      <trkpt lat="32.52998700" lon="35.32659300">
        <ele>116.00000</ele>
        <time>2010-01-01T04:17:58Z</time>
      </trkpt>
      <trkpt lat="32.52999100" lon="35.32657100">
        <ele>116.00000</ele>
        <time>2010-01-01T04:17:59Z</time>
      </trkpt>
      <trkpt lat="32.52999200" lon="35.32653600">
        <ele>115.00000</ele>
        <time>2010-01-01T04:18:00Z</time>
      </trkpt>
      <trkpt lat="32.52999200" lon="35.32654000">
        <ele>115.00000</ele>
        <time>2010-01-01T04:18:01Z</time>
      </trkpt>
      <trkpt lat="32.52999200" lon="35.32654100">
        <ele>115.00000</ele>
        <time>2010-01-01T04:18:01Z</time>
      </trkpt>
      <trkpt lat="32.53000800" lon="35.32658100">
        <ele>116.00000</ele>
        <time>2010-01-01T04:18:02Z</time>
      </trkpt>
      <trkpt lat="32.53018100" lon="35.32663800">
        <ele>117.00000</ele>
        <time>2010-01-01T04:18:09Z</time>
      </trkpt>
      <trkpt lat="32.53032000" lon="35.32668200">
        <ele>118.00000</ele>
        <time>2010-01-01T04:18:15Z</time>
      </trkpt>
      <trkpt lat="32.53046900" lon="35.32671600">
        <ele>119.00000</ele>
        <time>2010-01-01T04:18:21Z</time>
      </trkpt>
      <trkpt lat="32.53064900" lon="35.32675700">
        <ele>120.00000</ele>
        <time>2010-01-01T04:18:28Z</time>
      </trkpt>
      <trkpt lat="32.53078600" lon="35.32672000">
        <ele>120.00000</ele>
        <time>2010-01-01T04:18:34Z</time>
      </trkpt>
      <trkpt lat="32.53091000" lon="35.32657200">
        <ele>120.00000</ele>
        <time>2010-01-01T04:18:41Z</time>
      </trkpt>
      <trkpt lat="32.53101900" lon="35.32646200">
        <ele>120.00000</ele>
        <time>2010-01-01T04:18:47Z</time>
      </trkpt>
      <trkpt lat="32.53110400" lon="35.32640800">
        <ele>121.00000</ele>
        <time>2010-01-01T04:18:51Z</time>
      </trkpt>
      <trkpt lat="32.53117200" lon="35.32628800">
        <ele>121.00000</ele>
        <time>2010-01-01T04:18:56Z</time>
      </trkpt>
      <trkpt lat="32.53125800" lon="35.32618300">
        <ele>121.00000</ele>
        <time>2010-01-01T04:19:01Z</time>
      </trkpt>
      <trkpt lat="32.53130700" lon="35.32604300">
        <ele>121.00000</ele>
        <time>2010-01-01T04:19:06Z</time>
      </trkpt>
      <trkpt lat="32.53135100" lon="35.32588900">
        <ele>121.00000</ele>
        <time>2010-01-01T04:19:11Z</time>
      </trkpt>
      <trkpt lat="32.53137800" lon="35.32581300">
        <ele>121.00000</ele>
        <time>2010-01-01T04:19:14Z</time>
      </trkpt>
      <trkpt lat="32.53144300" lon="35.32566100">
        <ele>121.00000</ele>
        <time>2010-01-01T04:19:20Z</time>
      </trkpt>
      <trkpt lat="32.53151400" lon="35.32546300">
        <ele>121.00000</ele>
        <time>2010-01-01T04:19:27Z</time>
      </trkpt>
      <trkpt lat="32.53156900" lon="35.32531300">
        <ele>121.00000</ele>
        <time>2010-01-01T04:19:32Z</time>
      </trkpt>
      <trkpt lat="32.53158900" lon="35.32523400">
        <ele>121.00000</ele>
        <time>2010-01-01T04:19:35Z</time>
      </trkpt>
      <trkpt lat="32.53160100" lon="35.32519100">
        <ele>121.00000</ele>
        <time>2010-01-01T04:19:37Z</time>
      </trkpt>
      <trkpt lat="32.53170300" lon="35.32483400">
        <ele>121.00000</ele>
        <time>2010-01-01T04:19:49Z</time>
      </trkpt>
      <trkpt lat="32.53184600" lon="35.32435900">
        <ele>120.00000</ele>
        <time>2010-01-01T04:20:07Z</time>
      </trkpt>
      <trkpt lat="32.53200200" lon="35.32383800">
        <ele>117.00000</ele>
        <time>2010-01-01T04:20:25Z</time>
      </trkpt>
      <trkpt lat="32.53213100" lon="35.32346200">
        <ele>113.00000</ele>
        <time>2010-01-01T04:20:39Z</time>
      </trkpt>
      <trkpt lat="32.53230500" lon="35.32298900">
        <ele>110.00000</ele>
        <time>2010-01-01T04:20:56Z</time>
      </trkpt>
      <trkpt lat="32.53250300" lon="35.32248500">
        <ele>107.00000</ele>
        <time>2010-01-01T04:21:15Z</time>
      </trkpt>
      <trkpt lat="32.53269330" lon="35.32292200">
        <ele>110.00000</ele>
        <time>2010-01-01T04:21:32Z</time>
      </trkpt>
      <trkpt lat="32.53319200" lon="35.32314770">
        <ele>110.00000</ele>
        <time>2010-01-01T04:21:53Z</time>
      </trkpt>
      <trkpt lat="32.53361410" lon="35.32337350">
        <ele>109.00000</ele>
        <time>2010-01-01T04:22:12Z</time>
      </trkpt>
      <trkpt lat="32.53392120" lon="35.32373540">
        <ele>109.00000</ele>
        <time>2010-01-01T04:22:29Z</time>
      </trkpt>
      <trkpt lat="32.53384560" lon="35.32482290">
        <ele>114.00000</ele>
        <time>2010-01-01T04:23:06Z</time>
      </trkpt>
      <trkpt lat="32.53373180" lon="35.32609180">
        <ele>117.00000</ele>
        <time>2010-01-01T04:23:49Z</time>
      </trkpt>
      <trkpt lat="32.53350320" lon="35.32767790">
        <ele>119.00000</ele>
        <time>2010-01-01T04:24:43Z</time>
      </trkpt>
      <trkpt lat="32.53342950" lon="35.33084960">
        <ele>116.00000</ele>
        <time>2010-01-01T04:26:30Z</time>
      </trkpt>
      <trkpt lat="32.53431170" lon="35.33112000">
        <ele>111.00000</ele>
        <time>2010-01-01T04:27:07Z</time>
      </trkpt>
      <trkpt lat="32.53753260" lon="35.33097870">
        <ele>103.00000</ele>
        <time>2010-01-01T04:29:16Z</time>
      </trkpt>
      <trkpt lat="32.54132700" lon="35.32897860">
        <ele>98.000000</ele>
        <time>2010-01-01T04:32:02Z</time>
      </trkpt>
      <trkpt lat="32.54316850" lon="35.32997230">
        <ele>90.000000</ele>
        <time>2010-01-01T04:33:23Z</time>
      </trkpt>
      <trkpt lat="32.54255590" lon="35.33097030">
        <ele>89.000000</ele>
        <time>2010-01-01T04:34:05Z</time>
      </trkpt>
      <trkpt lat="32.54290160" lon="35.33160410">
        <ele>87.000000</ele>
        <time>2010-01-01T04:34:30Z</time>
      </trkpt>
      <trkpt lat="32.54263390" lon="35.33242010">
        <ele>84.000000</ele>
        <time>2010-01-01T04:35:00Z</time>
      </trkpt>
      <trkpt lat="32.54639420" lon="35.33504210">
        <ele>62.000000</ele>
        <time>2010-01-01T04:37:54Z</time>
      </trkpt>
      <trkpt lat="32.54616600" lon="35.33721760">
        <ele>62.000000</ele>
        <time>2010-01-01T04:39:08Z</time>
      </trkpt>
      <trkpt lat="32.54647320" lon="35.33767020">
        <ele>60.000000</ele>
        <time>2010-01-01T04:39:28Z</time>
      </trkpt>
      <trkpt lat="32.54892370" lon="35.33358790">
        <ele>75.000000</ele>
        <time>2010-01-01T04:42:17Z</time>
      </trkpt>
      <trkpt lat="32.55015020" lon="35.33295140">
        <ele>80.000000</ele>
        <time>2010-01-01T04:43:10Z</time>
      </trkpt>
      <trkpt lat="32.55183730" lon="35.33285800">
        <ele>81.000000</ele>
        <time>2010-01-01T04:44:18Z</time>
      </trkpt>
      <trkpt lat="32.55245090" lon="35.33290230">
        <ele>80.000000</ele>
        <time>2010-01-01T04:44:43Z</time>
      </trkpt>
      <trkpt lat="32.55233610" lon="35.33321970">
        <ele>78.000000</ele>
        <time>2010-01-01T04:44:54Z</time>
      </trkpt>
      <trkpt lat="32.55229830" lon="35.33376360">
        <ele>75.000000</ele>
        <time>2010-01-01T04:45:13Z</time>
      </trkpt>
      <trkpt lat="32.55199140" lon="35.33367350">
        <ele>77.000000</ele>
        <time>2010-01-01T04:45:25Z</time>
      </trkpt>
    </trkseg>
  </trk>
</gpx>

